<?xml version="1.0" encoding="UTF-8" standalone="no" ?>
<gpx xmlns="http://www.topografix.com/GPX/1/1" xmlns:xsi="http://www.w3.org/2001/XMLSchema-instance" xsi:schemaLocation="http://www.topografix.com/GPX/1/1 http://www.topografix.com/GPX/1/1/gpx.xsd" version="1.1" creator="VisuGPX - https://www.visugpx.com">
  <metadata>
    <name>St Martin - La Flotte</name>
    <desc><![CDATA[Ile de Ré...]]></desc>
  </metadata>
  <trk>
    <name><![CDATA[29-AOU-16 19:44:53]]></name>
    <trkseg>
      <trkpt lat="46.18758" lon="-1.40808">
        <ele>-1.3</ele>
        <time>2016-08-29T12:33:24Z</time>
      </trkpt>
      <trkpt lat="46.18758" lon="-1.40808">
        <ele>4.46</ele>
        <time>2016-08-29T12:33:25Z</time>
      </trkpt>
      <trkpt lat="46.18757" lon="-1.40808">
        <ele>-1.3</ele>
        <time>2016-08-29T12:33:28Z</time>
      </trkpt>
      <trkpt lat="46.18757" lon="-1.40808">
        <ele>3.5</ele>
        <time>2016-08-29T12:33:29Z</time>
      </trkpt>
      <trkpt lat="46.18757" lon="-1.40808">
        <ele>0.62</ele>
        <time>2016-08-29T12:33:31Z</time>
      </trkpt>
      <trkpt lat="46.18757" lon="-1.40809">
        <ele>3.98</ele>
        <time>2016-08-29T12:33:32Z</time>
      </trkpt>
      <trkpt lat="46.18757" lon="-1.40809">
        <ele>0.62</ele>
        <time>2016-08-29T12:33:33Z</time>
      </trkpt>
      <trkpt lat="46.18757" lon="-1.40809">
        <ele>3.98</ele>
        <time>2016-08-29T12:33:34Z</time>
      </trkpt>
      <trkpt lat="46.18757" lon="-1.40809">
        <ele>-0.82</ele>
        <time>2016-08-29T12:33:39Z</time>
      </trkpt>
      <trkpt lat="46.18757" lon="-1.40809">
        <ele>3.02</ele>
        <time>2016-08-29T12:33:40Z</time>
      </trkpt>
      <trkpt lat="46.18757" lon="-1.40809">
        <ele>7.83</ele>
        <time>2016-08-29T12:33:47Z</time>
      </trkpt>
      <trkpt lat="46.18757" lon="-1.40809">
        <ele>3.5</ele>
        <time>2016-08-29T12:33:48Z</time>
      </trkpt>
      <trkpt lat="46.18757" lon="-1.40809">
        <ele>-1.79</ele>
        <time>2016-08-29T12:33:49Z</time>
      </trkpt>
      <trkpt lat="46.18757" lon="-1.40809">
        <ele>3.5</ele>
        <time>2016-08-29T12:33:50Z</time>
      </trkpt>
      <trkpt lat="46.18756" lon="-1.40809">
        <ele>3.5</ele>
        <time>2016-08-29T12:34:13Z</time>
      </trkpt>
      <trkpt lat="46.18755" lon="-1.40809">
        <ele>3.02</ele>
        <time>2016-08-29T12:34:36Z</time>
      </trkpt>
      <trkpt lat="46.18752" lon="-1.40811">
        <ele>3.02</ele>
        <time>2016-08-29T12:34:57Z</time>
      </trkpt>
      <trkpt lat="46.18752" lon="-1.40813">
        <ele>3.02</ele>
        <time>2016-08-29T12:35:04Z</time>
      </trkpt>
      <trkpt lat="46.18753" lon="-1.40821">
        <ele>3.02</ele>
        <time>2016-08-29T12:35:09Z</time>
      </trkpt>
      <trkpt lat="46.18754" lon="-1.4083">
        <ele>3.5</ele>
        <time>2016-08-29T12:35:14Z</time>
      </trkpt>
      <trkpt lat="46.18754" lon="-1.40834">
        <ele>3.5</ele>
        <time>2016-08-29T12:35:16Z</time>
      </trkpt>
      <trkpt lat="46.18751" lon="-1.40838">
        <ele>3.5</ele>
        <time>2016-08-29T12:35:19Z</time>
      </trkpt>
      <trkpt lat="46.18742" lon="-1.40838">
        <ele>3.5</ele>
        <time>2016-08-29T12:35:23Z</time>
      </trkpt>
      <trkpt lat="46.18711" lon="-1.40834">
        <ele>3.5</ele>
        <time>2016-08-29T12:35:34Z</time>
      </trkpt>
      <trkpt lat="46.18709" lon="-1.40833">
        <ele>3.5</ele>
        <time>2016-08-29T12:35:35Z</time>
      </trkpt>
      <trkpt lat="46.18704" lon="-1.40817">
        <ele>3.5</ele>
        <time>2016-08-29T12:35:40Z</time>
      </trkpt>
      <trkpt lat="46.18704" lon="-1.40786">
        <ele>3.5</ele>
        <time>2016-08-29T12:35:48Z</time>
      </trkpt>
      <trkpt lat="46.18704" lon="-1.40732">
        <ele>3.98</ele>
        <time>2016-08-29T12:35:59Z</time>
      </trkpt>
      <trkpt lat="46.18706" lon="-1.40679">
        <ele>3.98</ele>
        <time>2016-08-29T12:36:09Z</time>
      </trkpt>
      <trkpt lat="46.18699" lon="-1.40632">
        <ele>3.98</ele>
        <time>2016-08-29T12:36:19Z</time>
      </trkpt>
      <trkpt lat="46.18703" lon="-1.40593">
        <ele>3.5</ele>
        <time>2016-08-29T12:36:28Z</time>
      </trkpt>
      <trkpt lat="46.18706" lon="-1.40584">
        <ele>3.98</ele>
        <time>2016-08-29T12:36:30Z</time>
      </trkpt>
      <trkpt lat="46.18721" lon="-1.40585">
        <ele>3.5</ele>
        <time>2016-08-29T12:36:36Z</time>
      </trkpt>
      <trkpt lat="46.18727" lon="-1.40604">
        <ele>3.5</ele>
        <time>2016-08-29T12:36:40Z</time>
      </trkpt>
      <trkpt lat="46.18763" lon="-1.40683">
        <ele>3.02</ele>
        <time>2016-08-29T12:36:57Z</time>
      </trkpt>
      <trkpt lat="46.18774" lon="-1.407">
        <ele>3.5</ele>
        <time>2016-08-29T12:37:01Z</time>
      </trkpt>
      <trkpt lat="46.1883" lon="-1.40768">
        <ele>2.54</ele>
        <time>2016-08-29T12:37:18Z</time>
      </trkpt>
      <trkpt lat="46.18843" lon="-1.40785">
        <ele>3.02</ele>
        <time>2016-08-29T12:37:22Z</time>
      </trkpt>
      <trkpt lat="46.18881" lon="-1.4087">
        <ele>2.54</ele>
        <time>2016-08-29T12:37:38Z</time>
      </trkpt>
      <trkpt lat="46.18908" lon="-1.40957">
        <ele>1.1</ele>
        <time>2016-08-29T12:37:53Z</time>
      </trkpt>
      <trkpt lat="46.18931" lon="-1.41036">
        <ele>1.58</ele>
        <time>2016-08-29T12:38:07Z</time>
      </trkpt>
      <trkpt lat="46.18933" lon="-1.41041">
        <ele>1.58</ele>
        <time>2016-08-29T12:38:08Z</time>
      </trkpt>
      <trkpt lat="46.18936" lon="-1.41045">
        <ele>1.1</ele>
        <time>2016-08-29T12:38:09Z</time>
      </trkpt>
      <trkpt lat="46.1894" lon="-1.41045">
        <ele>1.58</ele>
        <time>2016-08-29T12:38:10Z</time>
      </trkpt>
      <trkpt lat="46.18944" lon="-1.41042">
        <ele>1.1</ele>
        <time>2016-08-29T12:38:11Z</time>
      </trkpt>
      <trkpt lat="46.18947" lon="-1.41037">
        <ele>1.1</ele>
        <time>2016-08-29T12:38:12Z</time>
      </trkpt>
      <trkpt lat="46.18951" lon="-1.41033">
        <ele>1.1</ele>
        <time>2016-08-29T12:38:13Z</time>
      </trkpt>
      <trkpt lat="46.18984" lon="-1.4099">
        <ele>1.58</ele>
        <time>2016-08-29T12:38:24Z</time>
      </trkpt>
      <trkpt lat="46.19006" lon="-1.40955">
        <ele>1.58</ele>
        <time>2016-08-29T12:38:32Z</time>
      </trkpt>
      <trkpt lat="46.19009" lon="-1.40951">
        <ele>1.58</ele>
        <time>2016-08-29T12:38:33Z</time>
      </trkpt>
      <trkpt lat="46.19016" lon="-1.40944">
        <ele>2.06</ele>
        <time>2016-08-29T12:38:35Z</time>
      </trkpt>
      <trkpt lat="46.19062" lon="-1.40905">
        <ele>1.58</ele>
        <time>2016-08-29T12:38:48Z</time>
      </trkpt>
      <trkpt lat="46.19096" lon="-1.40883">
        <ele>2.06</ele>
        <time>2016-08-29T12:38:58Z</time>
      </trkpt>
      <trkpt lat="46.19115" lon="-1.40882">
        <ele>1.58</ele>
        <time>2016-08-29T12:39:03Z</time>
      </trkpt>
      <trkpt lat="46.19151" lon="-1.4088">
        <ele>2.06</ele>
        <time>2016-08-29T12:39:12Z</time>
      </trkpt>
      <trkpt lat="46.1916" lon="-1.40878">
        <ele>1.1</ele>
        <time>2016-08-29T12:39:14Z</time>
      </trkpt>
      <trkpt lat="46.19197" lon="-1.4086">
        <ele>1.1</ele>
        <time>2016-08-29T12:39:23Z</time>
      </trkpt>
      <trkpt lat="46.19201" lon="-1.40859">
        <ele>1.1</ele>
        <time>2016-08-29T12:39:24Z</time>
      </trkpt>
      <trkpt lat="46.19205" lon="-1.40858">
        <ele>0.62</ele>
        <time>2016-08-29T12:39:25Z</time>
      </trkpt>
      <trkpt lat="46.19218" lon="-1.40856">
        <ele>0.62</ele>
        <time>2016-08-29T12:39:28Z</time>
      </trkpt>
      <trkpt lat="46.19231" lon="-1.40855">
        <ele>1.58</ele>
        <time>2016-08-29T12:39:31Z</time>
      </trkpt>
      <trkpt lat="46.19235" lon="-1.40854">
        <ele>1.1</ele>
        <time>2016-08-29T12:39:32Z</time>
      </trkpt>
      <trkpt lat="46.19248" lon="-1.4085">
        <ele>1.1</ele>
        <time>2016-08-29T12:39:35Z</time>
      </trkpt>
      <trkpt lat="46.19293" lon="-1.40839">
        <ele>1.1</ele>
        <time>2016-08-29T12:39:45Z</time>
      </trkpt>
      <trkpt lat="46.19297" lon="-1.40836">
        <ele>1.1</ele>
        <time>2016-08-29T12:39:46Z</time>
      </trkpt>
      <trkpt lat="46.193" lon="-1.40832">
        <ele>1.1</ele>
        <time>2016-08-29T12:39:47Z</time>
      </trkpt>
      <trkpt lat="46.19314" lon="-1.40817">
        <ele>1.58</ele>
        <time>2016-08-29T12:39:51Z</time>
      </trkpt>
      <trkpt lat="46.19324" lon="-1.40804">
        <ele>0.62</ele>
        <time>2016-08-29T12:39:54Z</time>
      </trkpt>
      <trkpt lat="46.19348" lon="-1.40783">
        <ele>1.1</ele>
        <time>2016-08-29T12:40:02Z</time>
      </trkpt>
      <trkpt lat="46.19349" lon="-1.4078">
        <ele>1.58</ele>
        <time>2016-08-29T12:40:03Z</time>
      </trkpt>
      <trkpt lat="46.19343" lon="-1.40749">
        <ele>1.58</ele>
        <time>2016-08-29T12:40:10Z</time>
      </trkpt>
      <trkpt lat="46.19335" lon="-1.4072">
        <ele>-3.71</ele>
        <time>2016-08-29T12:40:15Z</time>
      </trkpt>
      <trkpt lat="46.19333" lon="-1.40714">
        <ele>1.58</ele>
        <time>2016-08-29T12:40:16Z</time>
      </trkpt>
      <trkpt lat="46.19317" lon="-1.40644">
        <ele>1.58</ele>
        <time>2016-08-29T12:40:28Z</time>
      </trkpt>
      <trkpt lat="46.19319" lon="-1.4064">
        <ele>1.58</ele>
        <time>2016-08-29T12:40:29Z</time>
      </trkpt>
      <trkpt lat="46.19322" lon="-1.40637">
        <ele>1.58</ele>
        <time>2016-08-29T12:40:30Z</time>
      </trkpt>
      <trkpt lat="46.19355" lon="-1.40615">
        <ele>3.02</ele>
        <time>2016-08-29T12:40:40Z</time>
      </trkpt>
      <trkpt lat="46.19381" lon="-1.40574">
        <ele>1.58</ele>
        <time>2016-08-29T12:40:51Z</time>
      </trkpt>
      <trkpt lat="46.19413" lon="-1.40537">
        <ele>1.58</ele>
        <time>2016-08-29T12:41:03Z</time>
      </trkpt>
      <trkpt lat="46.19418" lon="-1.40524">
        <ele>1.1</ele>
        <time>2016-08-29T12:41:06Z</time>
      </trkpt>
      <trkpt lat="46.19421" lon="-1.40521">
        <ele>2.06</ele>
        <time>2016-08-29T12:41:07Z</time>
      </trkpt>
      <trkpt lat="46.19423" lon="-1.40518">
        <ele>1.58</ele>
        <time>2016-08-29T12:41:08Z</time>
      </trkpt>
      <trkpt lat="46.19424" lon="-1.40514">
        <ele>2.06</ele>
        <time>2016-08-29T12:41:09Z</time>
      </trkpt>
      <trkpt lat="46.19426" lon="-1.40511">
        <ele>2.06</ele>
        <time>2016-08-29T12:41:10Z</time>
      </trkpt>
      <trkpt lat="46.19433" lon="-1.40506">
        <ele>1.58</ele>
        <time>2016-08-29T12:41:14Z</time>
      </trkpt>
      <trkpt lat="46.19462" lon="-1.40521">
        <ele>1.1</ele>
        <time>2016-08-29T12:41:23Z</time>
      </trkpt>
      <trkpt lat="46.19492" lon="-1.40533">
        <ele>1.58</ele>
        <time>2016-08-29T12:41:32Z</time>
      </trkpt>
      <trkpt lat="46.1954" lon="-1.40526">
        <ele>2.06</ele>
        <time>2016-08-29T12:41:45Z</time>
      </trkpt>
      <trkpt lat="46.1959" lon="-1.40524">
        <ele>2.54</ele>
        <time>2016-08-29T12:41:59Z</time>
      </trkpt>
      <trkpt lat="46.19638" lon="-1.40521">
        <ele>2.54</ele>
        <time>2016-08-29T12:42:12Z</time>
      </trkpt>
      <trkpt lat="46.19679" lon="-1.40533">
        <ele>3.5</ele>
        <time>2016-08-29T12:42:23Z</time>
      </trkpt>
      <trkpt lat="46.19725" lon="-1.40535">
        <ele>3.98</ele>
        <time>2016-08-29T12:42:35Z</time>
      </trkpt>
      <trkpt lat="46.19774" lon="-1.40537">
        <ele>3.5</ele>
        <time>2016-08-29T12:42:48Z</time>
      </trkpt>
      <trkpt lat="46.19823" lon="-1.40549">
        <ele>3.02</ele>
        <time>2016-08-29T12:43:01Z</time>
      </trkpt>
      <trkpt lat="46.19873" lon="-1.40564">
        <ele>3.5</ele>
        <time>2016-08-29T12:43:14Z</time>
      </trkpt>
      <trkpt lat="46.19926" lon="-1.40579">
        <ele>3.5</ele>
        <time>2016-08-29T12:43:27Z</time>
      </trkpt>
      <trkpt lat="46.19976" lon="-1.40596">
        <ele>2.54</ele>
        <time>2016-08-29T12:43:40Z</time>
      </trkpt>
      <trkpt lat="46.19986" lon="-1.40599">
        <ele>3.5</ele>
        <time>2016-08-29T12:43:43Z</time>
      </trkpt>
      <trkpt lat="46.19988" lon="-1.40597">
        <ele>2.06</ele>
        <time>2016-08-29T12:43:44Z</time>
      </trkpt>
      <trkpt lat="46.1999" lon="-1.40593">
        <ele>2.54</ele>
        <time>2016-08-29T12:43:45Z</time>
      </trkpt>
      <trkpt lat="46.19992" lon="-1.40589">
        <ele>3.02</ele>
        <time>2016-08-29T12:43:46Z</time>
      </trkpt>
      <trkpt lat="46.19993" lon="-1.40584">
        <ele>2.54</ele>
        <time>2016-08-29T12:43:47Z</time>
      </trkpt>
      <trkpt lat="46.19996" lon="-1.40574">
        <ele>2.06</ele>
        <time>2016-08-29T12:43:49Z</time>
      </trkpt>
      <trkpt lat="46.19997" lon="-1.40568">
        <ele>2.06</ele>
        <time>2016-08-29T12:43:50Z</time>
      </trkpt>
      <trkpt lat="46.20017" lon="-1.40501">
        <ele>2.54</ele>
        <time>2016-08-29T12:44:01Z</time>
      </trkpt>
      <trkpt lat="46.2002" lon="-1.40497">
        <ele>3.02</ele>
        <time>2016-08-29T12:44:02Z</time>
      </trkpt>
      <trkpt lat="46.20026" lon="-1.40489">
        <ele>2.54</ele>
        <time>2016-08-29T12:44:04Z</time>
      </trkpt>
      <trkpt lat="46.2003" lon="-1.40485">
        <ele>2.54</ele>
        <time>2016-08-29T12:44:05Z</time>
      </trkpt>
      <trkpt lat="46.20052" lon="-1.40453">
        <ele>2.06</ele>
        <time>2016-08-29T12:44:13Z</time>
      </trkpt>
      <trkpt lat="46.20055" lon="-1.4045">
        <ele>2.54</ele>
        <time>2016-08-29T12:44:14Z</time>
      </trkpt>
      <trkpt lat="46.20059" lon="-1.40447">
        <ele>2.54</ele>
        <time>2016-08-29T12:44:15Z</time>
      </trkpt>
      <trkpt lat="46.20063" lon="-1.40444">
        <ele>2.54</ele>
        <time>2016-08-29T12:44:16Z</time>
      </trkpt>
      <trkpt lat="46.20067" lon="-1.40442">
        <ele>2.54</ele>
        <time>2016-08-29T12:44:17Z</time>
      </trkpt>
      <trkpt lat="46.20115" lon="-1.40414">
        <ele>3.02</ele>
        <time>2016-08-29T12:44:30Z</time>
      </trkpt>
      <trkpt lat="46.20118" lon="-1.4041">
        <ele>2.54</ele>
        <time>2016-08-29T12:44:31Z</time>
      </trkpt>
      <trkpt lat="46.20139" lon="-1.40382">
        <ele>3.02</ele>
        <time>2016-08-29T12:44:38Z</time>
      </trkpt>
      <trkpt lat="46.20175" lon="-1.40352">
        <ele>3.98</ele>
        <time>2016-08-29T12:44:48Z</time>
      </trkpt>
      <trkpt lat="46.20203" lon="-1.40327">
        <ele>3.02</ele>
        <time>2016-08-29T12:44:56Z</time>
      </trkpt>
      <trkpt lat="46.20207" lon="-1.40324">
        <ele>3.02</ele>
        <time>2016-08-29T12:44:57Z</time>
      </trkpt>
      <trkpt lat="46.20211" lon="-1.40322">
        <ele>3.98</ele>
        <time>2016-08-29T12:44:58Z</time>
      </trkpt>
      <trkpt lat="46.20215" lon="-1.40321">
        <ele>3.02</ele>
        <time>2016-08-29T12:44:59Z</time>
      </trkpt>
      <trkpt lat="46.20219" lon="-1.4032">
        <ele>3.5</ele>
        <time>2016-08-29T12:45:00Z</time>
      </trkpt>
      <trkpt lat="46.20273" lon="-1.40299">
        <ele>3.02</ele>
        <time>2016-08-29T12:45:14Z</time>
      </trkpt>
      <trkpt lat="46.203" lon="-1.40286">
        <ele>3.5</ele>
        <time>2016-08-29T12:45:23Z</time>
      </trkpt>
      <trkpt lat="46.20301" lon="-1.40283">
        <ele>3.98</ele>
        <time>2016-08-29T12:45:24Z</time>
      </trkpt>
      <trkpt lat="46.20302" lon="-1.40279">
        <ele>3.98</ele>
        <time>2016-08-29T12:45:25Z</time>
      </trkpt>
      <trkpt lat="46.20302" lon="-1.40276">
        <ele>3.98</ele>
        <time>2016-08-29T12:45:26Z</time>
      </trkpt>
      <trkpt lat="46.20302" lon="-1.40271">
        <ele>3.98</ele>
        <time>2016-08-29T12:45:27Z</time>
      </trkpt>
      <trkpt lat="46.20299" lon="-1.4022">
        <ele>3.98</ele>
        <time>2016-08-29T12:45:36Z</time>
      </trkpt>
      <trkpt lat="46.20299" lon="-1.40202">
        <ele>3.98</ele>
        <time>2016-08-29T12:45:39Z</time>
      </trkpt>
      <trkpt lat="46.20298" lon="-1.40195">
        <ele>3.5</ele>
        <time>2016-08-29T12:45:40Z</time>
      </trkpt>
      <trkpt lat="46.203" lon="-1.40157">
        <ele>3.98</ele>
        <time>2016-08-29T12:45:46Z</time>
      </trkpt>
      <trkpt lat="46.20308" lon="-1.40085">
        <ele>3.5</ele>
        <time>2016-08-29T12:45:58Z</time>
      </trkpt>
      <trkpt lat="46.20317" lon="-1.40018">
        <ele>4.94</ele>
        <time>2016-08-29T12:46:10Z</time>
      </trkpt>
      <trkpt lat="46.20319" lon="-1.39946">
        <ele>4.94</ele>
        <time>2016-08-29T12:46:22Z</time>
      </trkpt>
      <trkpt lat="46.2032" lon="-1.39915">
        <ele>5.42</ele>
        <time>2016-08-29T12:46:27Z</time>
      </trkpt>
      <trkpt lat="46.20329" lon="-1.39834">
        <ele>5.42</ele>
        <time>2016-08-29T12:46:40Z</time>
      </trkpt>
      <trkpt lat="46.2034" lon="-1.39728">
        <ele>6.39</ele>
        <time>2016-08-29T12:46:56Z</time>
      </trkpt>
      <trkpt lat="46.20332" lon="-1.39627">
        <ele>5.91</ele>
        <time>2016-08-29T12:47:11Z</time>
      </trkpt>
      <trkpt lat="46.20322" lon="-1.39517">
        <ele>6.39</ele>
        <time>2016-08-29T12:47:27Z</time>
      </trkpt>
      <trkpt lat="46.2032" lon="-1.39482">
        <ele>5.91</ele>
        <time>2016-08-29T12:47:32Z</time>
      </trkpt>
      <trkpt lat="46.20319" lon="-1.39454">
        <ele>6.39</ele>
        <time>2016-08-29T12:47:36Z</time>
      </trkpt>
      <trkpt lat="46.20319" lon="-1.39448">
        <ele>5.91</ele>
        <time>2016-08-29T12:47:37Z</time>
      </trkpt>
      <trkpt lat="46.20318" lon="-1.39442">
        <ele>5.91</ele>
        <time>2016-08-29T12:47:38Z</time>
      </trkpt>
      <trkpt lat="46.20315" lon="-1.39438">
        <ele>6.39</ele>
        <time>2016-08-29T12:47:39Z</time>
      </trkpt>
      <trkpt lat="46.20311" lon="-1.39436">
        <ele>5.91</ele>
        <time>2016-08-29T12:47:40Z</time>
      </trkpt>
      <trkpt lat="46.20307" lon="-1.39437">
        <ele>5.42</ele>
        <time>2016-08-29T12:47:41Z</time>
      </trkpt>
      <trkpt lat="46.20303" lon="-1.39438">
        <ele>5.91</ele>
        <time>2016-08-29T12:47:42Z</time>
      </trkpt>
      <trkpt lat="46.20299" lon="-1.39438">
        <ele>5.91</ele>
        <time>2016-08-29T12:47:43Z</time>
      </trkpt>
      <trkpt lat="46.20287" lon="-1.39438">
        <ele>6.87</ele>
        <time>2016-08-29T12:47:46Z</time>
      </trkpt>
      <trkpt lat="46.20286" lon="-1.39436">
        <ele>6.87</ele>
        <time>2016-08-29T12:47:47Z</time>
      </trkpt>
      <trkpt lat="46.20286" lon="-1.39431">
        <ele>7.35</ele>
        <time>2016-08-29T12:47:48Z</time>
      </trkpt>
      <trkpt lat="46.20291" lon="-1.39368">
        <ele>6.39</ele>
        <time>2016-08-29T12:47:58Z</time>
      </trkpt>
      <trkpt lat="46.203" lon="-1.39304">
        <ele>6.87</ele>
        <time>2016-08-29T12:48:09Z</time>
      </trkpt>
      <trkpt lat="46.20304" lon="-1.39246">
        <ele>6.87</ele>
        <time>2016-08-29T12:48:19Z</time>
      </trkpt>
      <trkpt lat="46.20307" lon="-1.39231">
        <ele>6.39</ele>
        <time>2016-08-29T12:48:23Z</time>
      </trkpt>
      <trkpt lat="46.2031" lon="-1.3923">
        <ele>6.87</ele>
        <time>2016-08-29T12:48:24Z</time>
      </trkpt>
      <trkpt lat="46.20313" lon="-1.39229">
        <ele>6.39</ele>
        <time>2016-08-29T12:48:25Z</time>
      </trkpt>
      <trkpt lat="46.2034" lon="-1.39235">
        <ele>6.87</ele>
        <time>2016-08-29T12:48:34Z</time>
      </trkpt>
      <trkpt lat="46.20343" lon="-1.39236">
        <ele>6.87</ele>
        <time>2016-08-29T12:48:42Z</time>
      </trkpt>
      <trkpt lat="46.20342" lon="-1.39236">
        <ele>6.87</ele>
        <time>2016-08-29T12:48:56Z</time>
      </trkpt>
      <trkpt lat="46.20342" lon="-1.39236">
        <ele>6.87</ele>
        <time>2016-08-29T12:49:14Z</time>
      </trkpt>
      <trkpt lat="46.20343" lon="-1.39236">
        <ele>5.91</ele>
        <time>2016-08-29T12:49:30Z</time>
      </trkpt>
      <trkpt lat="46.20342" lon="-1.39236">
        <ele>6.87</ele>
        <time>2016-08-29T12:49:51Z</time>
      </trkpt>
      <trkpt lat="46.20342" lon="-1.39236">
        <ele>6.87</ele>
        <time>2016-08-29T12:50:11Z</time>
      </trkpt>
      <trkpt lat="46.20343" lon="-1.39236">
        <ele>6.39</ele>
        <time>2016-08-29T12:50:32Z</time>
      </trkpt>
      <trkpt lat="46.20343" lon="-1.39236">
        <ele>6.87</ele>
        <time>2016-08-29T12:50:48Z</time>
      </trkpt>
      <trkpt lat="46.20343" lon="-1.39236">
        <ele>6.87</ele>
        <time>2016-08-29T12:51:03Z</time>
      </trkpt>
      <trkpt lat="46.20343" lon="-1.39236">
        <ele>6.87</ele>
        <time>2016-08-29T12:51:25Z</time>
      </trkpt>
      <trkpt lat="46.20341" lon="-1.39233">
        <ele>6.87</ele>
        <time>2016-08-29T12:51:33Z</time>
      </trkpt>
      <trkpt lat="46.20342" lon="-1.39213">
        <ele>7.35</ele>
        <time>2016-08-29T12:51:41Z</time>
      </trkpt>
      <trkpt lat="46.20345" lon="-1.39187">
        <ele>6.39</ele>
        <time>2016-08-29T12:51:46Z</time>
      </trkpt>
      <trkpt lat="46.20345" lon="-1.39182">
        <ele>5.91</ele>
        <time>2016-08-29T12:51:47Z</time>
      </trkpt>
      <trkpt lat="46.20355" lon="-1.39099">
        <ele>6.87</ele>
        <time>2016-08-29T12:52:00Z</time>
      </trkpt>
      <trkpt lat="46.20368" lon="-1.38988">
        <ele>6.39</ele>
        <time>2016-08-29T12:52:17Z</time>
      </trkpt>
      <trkpt lat="46.20382" lon="-1.38909">
        <ele>7.35</ele>
        <time>2016-08-29T12:52:29Z</time>
      </trkpt>
      <trkpt lat="46.20387" lon="-1.38863">
        <ele>7.35</ele>
        <time>2016-08-29T12:52:39Z</time>
      </trkpt>
      <trkpt lat="46.20383" lon="-1.3886">
        <ele>7.83</ele>
        <time>2016-08-29T12:52:41Z</time>
      </trkpt>
      <trkpt lat="46.20382" lon="-1.38861">
        <ele>7.35</ele>
        <time>2016-08-29T12:52:42Z</time>
      </trkpt>
      <trkpt lat="46.20362" lon="-1.3886">
        <ele>7.35</ele>
        <time>2016-08-29T12:52:50Z</time>
      </trkpt>
      <trkpt lat="46.20356" lon="-1.38859">
        <ele>7.35</ele>
        <time>2016-08-29T12:52:52Z</time>
      </trkpt>
      <trkpt lat="46.20354" lon="-1.38856">
        <ele>7.83</ele>
        <time>2016-08-29T12:52:53Z</time>
      </trkpt>
      <trkpt lat="46.20354" lon="-1.38851">
        <ele>6.87</ele>
        <time>2016-08-29T12:52:54Z</time>
      </trkpt>
      <trkpt lat="46.20353" lon="-1.38846">
        <ele>7.35</ele>
        <time>2016-08-29T12:52:55Z</time>
      </trkpt>
      <trkpt lat="46.20353" lon="-1.3884">
        <ele>6.87</ele>
        <time>2016-08-29T12:52:56Z</time>
      </trkpt>
      <trkpt lat="46.20353" lon="-1.38835">
        <ele>6.87</ele>
        <time>2016-08-29T12:52:57Z</time>
      </trkpt>
      <trkpt lat="46.20353" lon="-1.38829">
        <ele>6.87</ele>
        <time>2016-08-29T12:52:58Z</time>
      </trkpt>
      <trkpt lat="46.20353" lon="-1.38797">
        <ele>6.87</ele>
        <time>2016-08-29T12:53:03Z</time>
      </trkpt>
      <trkpt lat="46.20357" lon="-1.38726">
        <ele>6.39</ele>
        <time>2016-08-29T12:53:13Z</time>
      </trkpt>
      <trkpt lat="46.20358" lon="-1.38669">
        <ele>6.87</ele>
        <time>2016-08-29T12:53:21Z</time>
      </trkpt>
      <trkpt lat="46.2036" lon="-1.38663">
        <ele>6.39</ele>
        <time>2016-08-29T12:53:22Z</time>
      </trkpt>
      <trkpt lat="46.20362" lon="-1.38658">
        <ele>6.39</ele>
        <time>2016-08-29T12:53:23Z</time>
      </trkpt>
      <trkpt lat="46.20365" lon="-1.38655">
        <ele>6.87</ele>
        <time>2016-08-29T12:53:24Z</time>
      </trkpt>
      <trkpt lat="46.20369" lon="-1.38655">
        <ele>5.42</ele>
        <time>2016-08-29T12:53:25Z</time>
      </trkpt>
      <trkpt lat="46.20374" lon="-1.38656">
        <ele>5.91</ele>
        <time>2016-08-29T12:53:26Z</time>
      </trkpt>
      <trkpt lat="46.20409" lon="-1.38664">
        <ele>5.91</ele>
        <time>2016-08-29T12:53:35Z</time>
      </trkpt>
      <trkpt lat="46.20411" lon="-1.38661">
        <ele>5.42</ele>
        <time>2016-08-29T12:53:36Z</time>
      </trkpt>
      <trkpt lat="46.20412" lon="-1.38656">
        <ele>5.42</ele>
        <time>2016-08-29T12:53:37Z</time>
      </trkpt>
      <trkpt lat="46.20414" lon="-1.3864">
        <ele>4.94</ele>
        <time>2016-08-29T12:53:40Z</time>
      </trkpt>
      <trkpt lat="46.20415" lon="-1.38623">
        <ele>4.94</ele>
        <time>2016-08-29T12:53:43Z</time>
      </trkpt>
      <trkpt lat="46.20425" lon="-1.38542">
        <ele>5.91</ele>
        <time>2016-08-29T12:53:56Z</time>
      </trkpt>
      <trkpt lat="46.20438" lon="-1.38442">
        <ele>4.94</ele>
        <time>2016-08-29T12:54:10Z</time>
      </trkpt>
      <trkpt lat="46.20455" lon="-1.38353">
        <ele>4.94</ele>
        <time>2016-08-29T12:54:23Z</time>
      </trkpt>
      <trkpt lat="46.20463" lon="-1.38309">
        <ele>4.46</ele>
        <time>2016-08-29T12:54:30Z</time>
      </trkpt>
      <trkpt lat="46.20463" lon="-1.38303">
        <ele>4.46</ele>
        <time>2016-08-29T12:54:31Z</time>
      </trkpt>
      <trkpt lat="46.20458" lon="-1.38217">
        <ele>4.46</ele>
        <time>2016-08-29T12:54:44Z</time>
      </trkpt>
      <trkpt lat="46.20455" lon="-1.38165">
        <ele>4.94</ele>
        <time>2016-08-29T12:54:54Z</time>
      </trkpt>
      <trkpt lat="46.20461" lon="-1.38105">
        <ele>4.94</ele>
        <time>2016-08-29T12:55:05Z</time>
      </trkpt>
      <trkpt lat="46.20461" lon="-1.38044">
        <ele>6.39</ele>
        <time>2016-08-29T12:55:16Z</time>
      </trkpt>
      <trkpt lat="46.20455" lon="-1.37984">
        <ele>7.83</ele>
        <time>2016-08-29T12:55:27Z</time>
      </trkpt>
      <trkpt lat="46.20445" lon="-1.37913">
        <ele>8.79</ele>
        <time>2016-08-29T12:55:40Z</time>
      </trkpt>
      <trkpt lat="46.20451" lon="-1.37841">
        <ele>8.31</ele>
        <time>2016-08-29T12:55:51Z</time>
      </trkpt>
      <trkpt lat="46.20452" lon="-1.37834">
        <ele>8.79</ele>
        <time>2016-08-29T12:55:52Z</time>
      </trkpt>
      <trkpt lat="46.2046" lon="-1.37778">
        <ele>9.75</ele>
        <time>2016-08-29T12:56:01Z</time>
      </trkpt>
      <trkpt lat="46.2046" lon="-1.37772">
        <ele>9.75</ele>
        <time>2016-08-29T12:56:02Z</time>
      </trkpt>
      <trkpt lat="46.20459" lon="-1.37765">
        <ele>9.75</ele>
        <time>2016-08-29T12:56:03Z</time>
      </trkpt>
      <trkpt lat="46.20452" lon="-1.37679">
        <ele>9.27</ele>
        <time>2016-08-29T12:56:16Z</time>
      </trkpt>
      <trkpt lat="46.20452" lon="-1.37673">
        <ele>9.75</ele>
        <time>2016-08-29T12:56:17Z</time>
      </trkpt>
      <trkpt lat="46.2045" lon="-1.37667">
        <ele>9.75</ele>
        <time>2016-08-29T12:56:18Z</time>
      </trkpt>
      <trkpt lat="46.20447" lon="-1.37661">
        <ele>9.75</ele>
        <time>2016-08-29T12:56:19Z</time>
      </trkpt>
      <trkpt lat="46.20444" lon="-1.37656">
        <ele>9.75</ele>
        <time>2016-08-29T12:56:20Z</time>
      </trkpt>
      <trkpt lat="46.20441" lon="-1.37652">
        <ele>9.75</ele>
        <time>2016-08-29T12:56:21Z</time>
      </trkpt>
      <trkpt lat="46.20437" lon="-1.37648">
        <ele>9.27</ele>
        <time>2016-08-29T12:56:22Z</time>
      </trkpt>
      <trkpt lat="46.20407" lon="-1.37618">
        <ele>10.71</ele>
        <time>2016-08-29T12:56:32Z</time>
      </trkpt>
      <trkpt lat="46.20405" lon="-1.37613">
        <ele>10.23</ele>
        <time>2016-08-29T12:56:34Z</time>
      </trkpt>
      <trkpt lat="46.20405" lon="-1.37611">
        <ele>11.19</ele>
        <time>2016-08-29T12:56:35Z</time>
      </trkpt>
      <trkpt lat="46.20406" lon="-1.37611">
        <ele>10.71</ele>
        <time>2016-08-29T12:56:36Z</time>
      </trkpt>
      <trkpt lat="46.20408" lon="-1.37612">
        <ele>10.23</ele>
        <time>2016-08-29T12:56:37Z</time>
      </trkpt>
      <trkpt lat="46.2041" lon="-1.37614">
        <ele>9.75</ele>
        <time>2016-08-29T12:56:38Z</time>
      </trkpt>
      <trkpt lat="46.20413" lon="-1.37617">
        <ele>9.75</ele>
        <time>2016-08-29T12:56:39Z</time>
      </trkpt>
      <trkpt lat="46.2042" lon="-1.37623">
        <ele>9.75</ele>
        <time>2016-08-29T12:56:41Z</time>
      </trkpt>
      <trkpt lat="46.20424" lon="-1.37625">
        <ele>9.75</ele>
        <time>2016-08-29T12:56:42Z</time>
      </trkpt>
      <trkpt lat="46.20428" lon="-1.37626">
        <ele>9.27</ele>
        <time>2016-08-29T12:56:43Z</time>
      </trkpt>
      <trkpt lat="46.20438" lon="-1.37626">
        <ele>9.27</ele>
        <time>2016-08-29T12:56:45Z</time>
      </trkpt>
      <trkpt lat="46.20503" lon="-1.3762">
        <ele>6.87</ele>
        <time>2016-08-29T12:56:58Z</time>
      </trkpt>
      <trkpt lat="46.20513" lon="-1.37619">
        <ele>6.39</ele>
        <time>2016-08-29T12:57:00Z</time>
      </trkpt>
      <trkpt lat="46.20518" lon="-1.37618">
        <ele>6.87</ele>
        <time>2016-08-29T12:57:01Z</time>
      </trkpt>
      <trkpt lat="46.20555" lon="-1.37614">
        <ele>6.39</ele>
        <time>2016-08-29T12:57:11Z</time>
      </trkpt>
      <trkpt lat="46.20573" lon="-1.37597">
        <ele>8.31</ele>
        <time>2016-08-29T12:57:20Z</time>
      </trkpt>
      <trkpt lat="46.20573" lon="-1.37597">
        <ele>7.83</ele>
        <time>2016-08-29T12:57:29Z</time>
      </trkpt>
      <trkpt lat="46.20573" lon="-1.37598">
        <ele>7.35</ele>
        <time>2016-08-29T12:57:52Z</time>
      </trkpt>
      <trkpt lat="46.20573" lon="-1.37597">
        <ele>7.83</ele>
        <time>2016-08-29T12:58:16Z</time>
      </trkpt>
      <trkpt lat="46.20573" lon="-1.37596">
        <ele>7.83</ele>
        <time>2016-08-29T12:58:44Z</time>
      </trkpt>
      <trkpt lat="46.20574" lon="-1.37596">
        <ele>7.35</ele>
        <time>2016-08-29T12:59:15Z</time>
      </trkpt>
      <trkpt lat="46.20574" lon="-1.37597">
        <ele>7.83</ele>
        <time>2016-08-29T12:59:39Z</time>
      </trkpt>
      <trkpt lat="46.20574" lon="-1.37597">
        <ele>7.35</ele>
        <time>2016-08-29T13:00:06Z</time>
      </trkpt>
      <trkpt lat="46.20573" lon="-1.37598">
        <ele>7.35</ele>
        <time>2016-08-29T13:00:31Z</time>
      </trkpt>
      <trkpt lat="46.20573" lon="-1.37597">
        <ele>10.71</ele>
        <time>2016-08-29T13:00:44Z</time>
      </trkpt>
      <trkpt lat="46.20573" lon="-1.37597">
        <ele>7.83</ele>
        <time>2016-08-29T13:00:46Z</time>
      </trkpt>
      <trkpt lat="46.20573" lon="-1.37597">
        <ele>18.88</ele>
        <time>2016-08-29T13:00:49Z</time>
      </trkpt>
      <trkpt lat="46.20573" lon="-1.37597">
        <ele>8.31</ele>
        <time>2016-08-29T13:00:50Z</time>
      </trkpt>
      <trkpt lat="46.20573" lon="-1.37597">
        <ele>16</ele>
        <time>2016-08-29T13:00:54Z</time>
      </trkpt>
      <trkpt lat="46.20573" lon="-1.37597">
        <ele>8.31</ele>
        <time>2016-08-29T13:00:55Z</time>
      </trkpt>
      <trkpt lat="46.20573" lon="-1.37597">
        <ele>11.67</ele>
        <time>2016-08-29T13:00:57Z</time>
      </trkpt>
      <trkpt lat="46.20573" lon="-1.37597">
        <ele>8.31</ele>
        <time>2016-08-29T13:00:58Z</time>
      </trkpt>
      <trkpt lat="46.20573" lon="-1.37597">
        <ele>13.12</ele>
        <time>2016-08-29T13:01:00Z</time>
      </trkpt>
      <trkpt lat="46.20573" lon="-1.37597">
        <ele>3.02</ele>
        <time>2016-08-29T13:01:01Z</time>
      </trkpt>
      <trkpt lat="46.20573" lon="-1.37597">
        <ele>9.75</ele>
        <time>2016-08-29T13:01:02Z</time>
      </trkpt>
      <trkpt lat="46.20573" lon="-1.37597">
        <ele>7.83</ele>
        <time>2016-08-29T13:01:22Z</time>
      </trkpt>
      <trkpt lat="46.20573" lon="-1.37597">
        <ele>7.83</ele>
        <time>2016-08-29T13:01:38Z</time>
      </trkpt>
      <trkpt lat="46.20572" lon="-1.37596">
        <ele>7.83</ele>
        <time>2016-08-29T13:01:52Z</time>
      </trkpt>
      <trkpt lat="46.20571" lon="-1.37597">
        <ele>8.31</ele>
        <time>2016-08-29T13:01:59Z</time>
      </trkpt>
      <trkpt lat="46.2057" lon="-1.37598">
        <ele>7.35</ele>
        <time>2016-08-29T13:02:00Z</time>
      </trkpt>
      <trkpt lat="46.20569" lon="-1.37599">
        <ele>7.83</ele>
        <time>2016-08-29T13:02:01Z</time>
      </trkpt>
      <trkpt lat="46.20567" lon="-1.376">
        <ele>7.35</ele>
        <time>2016-08-29T13:02:02Z</time>
      </trkpt>
      <trkpt lat="46.20565" lon="-1.37601">
        <ele>7.83</ele>
        <time>2016-08-29T13:02:03Z</time>
      </trkpt>
      <trkpt lat="46.20563" lon="-1.37603">
        <ele>7.35</ele>
        <time>2016-08-29T13:02:04Z</time>
      </trkpt>
      <trkpt lat="46.20537" lon="-1.37617">
        <ele>6.87</ele>
        <time>2016-08-29T13:02:13Z</time>
      </trkpt>
      <trkpt lat="46.20499" lon="-1.37622">
        <ele>7.35</ele>
        <time>2016-08-29T13:02:23Z</time>
      </trkpt>
      <trkpt lat="46.20451" lon="-1.37628">
        <ele>8.31</ele>
        <time>2016-08-29T13:02:36Z</time>
      </trkpt>
      <trkpt lat="46.20413" lon="-1.37623">
        <ele>9.75</ele>
        <time>2016-08-29T13:02:47Z</time>
      </trkpt>
      <trkpt lat="46.20386" lon="-1.37598">
        <ele>10.23</ele>
        <time>2016-08-29T13:02:55Z</time>
      </trkpt>
      <trkpt lat="46.20331" lon="-1.37575">
        <ele>11.19</ele>
        <time>2016-08-29T13:03:08Z</time>
      </trkpt>
      <trkpt lat="46.20257" lon="-1.37559">
        <ele>11.19</ele>
        <time>2016-08-29T13:03:24Z</time>
      </trkpt>
      <trkpt lat="46.20187" lon="-1.37556">
        <ele>12.15</ele>
        <time>2016-08-29T13:03:39Z</time>
      </trkpt>
      <trkpt lat="46.20131" lon="-1.37536">
        <ele>12.63</ele>
        <time>2016-08-29T13:03:52Z</time>
      </trkpt>
      <trkpt lat="46.20129" lon="-1.37531">
        <ele>12.15</ele>
        <time>2016-08-29T13:03:53Z</time>
      </trkpt>
      <trkpt lat="46.20122" lon="-1.37508">
        <ele>12.15</ele>
        <time>2016-08-29T13:03:57Z</time>
      </trkpt>
      <trkpt lat="46.20122" lon="-1.37502">
        <ele>12.15</ele>
        <time>2016-08-29T13:03:58Z</time>
      </trkpt>
      <trkpt lat="46.20124" lon="-1.37497">
        <ele>12.15</ele>
        <time>2016-08-29T13:03:59Z</time>
      </trkpt>
      <trkpt lat="46.20125" lon="-1.37491">
        <ele>12.15</ele>
        <time>2016-08-29T13:04:00Z</time>
      </trkpt>
      <trkpt lat="46.20127" lon="-1.37485">
        <ele>12.15</ele>
        <time>2016-08-29T13:04:01Z</time>
      </trkpt>
      <trkpt lat="46.20132" lon="-1.37458">
        <ele>12.63</ele>
        <time>2016-08-29T13:04:06Z</time>
      </trkpt>
      <trkpt lat="46.2014" lon="-1.37432">
        <ele>13.12</ele>
        <time>2016-08-29T13:04:14Z</time>
      </trkpt>
      <trkpt lat="46.2014" lon="-1.37432">
        <ele>13.12</ele>
        <time>2016-08-29T13:04:16Z</time>
      </trkpt>
      <trkpt lat="46.20139" lon="-1.3743">
        <ele>12.15</ele>
        <time>2016-08-29T13:04:17Z</time>
      </trkpt>
      <trkpt lat="46.20138" lon="-1.37428">
        <ele>13.12</ele>
        <time>2016-08-29T13:04:18Z</time>
      </trkpt>
      <trkpt lat="46.20136" lon="-1.37426">
        <ele>12.63</ele>
        <time>2016-08-29T13:04:19Z</time>
      </trkpt>
      <trkpt lat="46.20135" lon="-1.37422">
        <ele>12.63</ele>
        <time>2016-08-29T13:04:20Z</time>
      </trkpt>
      <trkpt lat="46.20134" lon="-1.37417">
        <ele>12.63</ele>
        <time>2016-08-29T13:04:21Z</time>
      </trkpt>
      <trkpt lat="46.20134" lon="-1.37413">
        <ele>12.63</ele>
        <time>2016-08-29T13:04:22Z</time>
      </trkpt>
      <trkpt lat="46.20135" lon="-1.37408">
        <ele>12.63</ele>
        <time>2016-08-29T13:04:23Z</time>
      </trkpt>
      <trkpt lat="46.20136" lon="-1.37397">
        <ele>12.63</ele>
        <time>2016-08-29T13:04:25Z</time>
      </trkpt>
      <trkpt lat="46.20135" lon="-1.37391">
        <ele>12.63</ele>
        <time>2016-08-29T13:04:26Z</time>
      </trkpt>
      <trkpt lat="46.20121" lon="-1.3733">
        <ele>12.15</ele>
        <time>2016-08-29T13:04:38Z</time>
      </trkpt>
      <trkpt lat="46.20122" lon="-1.37325">
        <ele>12.15</ele>
        <time>2016-08-29T13:04:39Z</time>
      </trkpt>
      <trkpt lat="46.20123" lon="-1.37322">
        <ele>12.15</ele>
        <time>2016-08-29T13:04:40Z</time>
      </trkpt>
      <trkpt lat="46.20125" lon="-1.37319">
        <ele>12.15</ele>
        <time>2016-08-29T13:04:41Z</time>
      </trkpt>
      <trkpt lat="46.20128" lon="-1.37316">
        <ele>12.15</ele>
        <time>2016-08-29T13:04:42Z</time>
      </trkpt>
      <trkpt lat="46.20143" lon="-1.37292">
        <ele>13.12</ele>
        <time>2016-08-29T13:04:53Z</time>
      </trkpt>
      <trkpt lat="46.20144" lon="-1.37291">
        <ele>12.63</ele>
        <time>2016-08-29T13:05:04Z</time>
      </trkpt>
      <trkpt lat="46.20147" lon="-1.37288">
        <ele>13.12</ele>
        <time>2016-08-29T13:05:19Z</time>
      </trkpt>
      <trkpt lat="46.20156" lon="-1.37273">
        <ele>13.6</ele>
        <time>2016-08-29T13:05:31Z</time>
      </trkpt>
      <trkpt lat="46.20158" lon="-1.37272">
        <ele>13.12</ele>
        <time>2016-08-29T13:05:44Z</time>
      </trkpt>
      <trkpt lat="46.20158" lon="-1.37272">
        <ele>13.12</ele>
        <time>2016-08-29T13:05:45Z</time>
      </trkpt>
      <trkpt lat="46.20159" lon="-1.3727">
        <ele>13.12</ele>
        <time>2016-08-29T13:05:46Z</time>
      </trkpt>
      <trkpt lat="46.2016" lon="-1.37269">
        <ele>13.6</ele>
        <time>2016-08-29T13:05:47Z</time>
      </trkpt>
      <trkpt lat="46.20161" lon="-1.37268">
        <ele>13.6</ele>
        <time>2016-08-29T13:05:48Z</time>
      </trkpt>
      <trkpt lat="46.20162" lon="-1.37267">
        <ele>13.6</ele>
        <time>2016-08-29T13:05:49Z</time>
      </trkpt>
      <trkpt lat="46.20163" lon="-1.37265">
        <ele>13.6</ele>
        <time>2016-08-29T13:05:50Z</time>
      </trkpt>
      <trkpt lat="46.20164" lon="-1.37264">
        <ele>13.6</ele>
        <time>2016-08-29T13:05:51Z</time>
      </trkpt>
      <trkpt lat="46.20169" lon="-1.3725">
        <ele>14.08</ele>
        <time>2016-08-29T13:06:01Z</time>
      </trkpt>
      <trkpt lat="46.2017" lon="-1.37247">
        <ele>13.6</ele>
        <time>2016-08-29T13:06:02Z</time>
      </trkpt>
      <trkpt lat="46.20175" lon="-1.37237">
        <ele>13.6</ele>
        <time>2016-08-29T13:06:08Z</time>
      </trkpt>
      <trkpt lat="46.20176" lon="-1.37236">
        <ele>13.6</ele>
        <time>2016-08-29T13:06:09Z</time>
      </trkpt>
      <trkpt lat="46.20177" lon="-1.37234">
        <ele>13.6</ele>
        <time>2016-08-29T13:06:10Z</time>
      </trkpt>
      <trkpt lat="46.20178" lon="-1.37233">
        <ele>13.12</ele>
        <time>2016-08-29T13:06:11Z</time>
      </trkpt>
      <trkpt lat="46.20178" lon="-1.37231">
        <ele>13.6</ele>
        <time>2016-08-29T13:06:12Z</time>
      </trkpt>
      <trkpt lat="46.2018" lon="-1.37218">
        <ele>13.12</ele>
        <time>2016-08-29T13:06:23Z</time>
      </trkpt>
      <trkpt lat="46.20178" lon="-1.37215">
        <ele>13.12</ele>
        <time>2016-08-29T13:06:28Z</time>
      </trkpt>
      <trkpt lat="46.20177" lon="-1.37214">
        <ele>13.12</ele>
        <time>2016-08-29T13:06:29Z</time>
      </trkpt>
      <trkpt lat="46.20157" lon="-1.37203">
        <ele>13.6</ele>
        <time>2016-08-29T13:06:45Z</time>
      </trkpt>
      <trkpt lat="46.20154" lon="-1.372">
        <ele>13.12</ele>
        <time>2016-08-29T13:06:53Z</time>
      </trkpt>
      <trkpt lat="46.20158" lon="-1.37202">
        <ele>13.6</ele>
        <time>2016-08-29T13:06:58Z</time>
      </trkpt>
      <trkpt lat="46.2016" lon="-1.37202">
        <ele>13.6</ele>
        <time>2016-08-29T13:06:59Z</time>
      </trkpt>
      <trkpt lat="46.20163" lon="-1.37205">
        <ele>13.12</ele>
        <time>2016-08-29T13:07:01Z</time>
      </trkpt>
      <trkpt lat="46.20165" lon="-1.37207">
        <ele>13.6</ele>
        <time>2016-08-29T13:07:02Z</time>
      </trkpt>
      <trkpt lat="46.20167" lon="-1.37208">
        <ele>13.12</ele>
        <time>2016-08-29T13:07:03Z</time>
      </trkpt>
      <trkpt lat="46.20169" lon="-1.3721">
        <ele>12.63</ele>
        <time>2016-08-29T13:07:04Z</time>
      </trkpt>
      <trkpt lat="46.20171" lon="-1.37211">
        <ele>13.12</ele>
        <time>2016-08-29T13:07:05Z</time>
      </trkpt>
      <trkpt lat="46.20184" lon="-1.37206">
        <ele>13.6</ele>
        <time>2016-08-29T13:07:11Z</time>
      </trkpt>
      <trkpt lat="46.20185" lon="-1.37202">
        <ele>13.12</ele>
        <time>2016-08-29T13:07:12Z</time>
      </trkpt>
      <trkpt lat="46.20187" lon="-1.37197">
        <ele>12.63</ele>
        <time>2016-08-29T13:07:13Z</time>
      </trkpt>
      <trkpt lat="46.20188" lon="-1.37193">
        <ele>13.12</ele>
        <time>2016-08-29T13:07:14Z</time>
      </trkpt>
      <trkpt lat="46.2019" lon="-1.37188">
        <ele>12.63</ele>
        <time>2016-08-29T13:07:15Z</time>
      </trkpt>
      <trkpt lat="46.20213" lon="-1.37118">
        <ele>12.63</ele>
        <time>2016-08-29T13:07:29Z</time>
      </trkpt>
      <trkpt lat="46.20226" lon="-1.37072">
        <ele>13.12</ele>
        <time>2016-08-29T13:07:39Z</time>
      </trkpt>
      <trkpt lat="46.20226" lon="-1.37066">
        <ele>13.12</ele>
        <time>2016-08-29T13:07:41Z</time>
      </trkpt>
      <trkpt lat="46.20225" lon="-1.37064">
        <ele>13.12</ele>
        <time>2016-08-29T13:07:42Z</time>
      </trkpt>
      <trkpt lat="46.20223" lon="-1.37062">
        <ele>12.63</ele>
        <time>2016-08-29T13:07:43Z</time>
      </trkpt>
      <trkpt lat="46.20221" lon="-1.3706">
        <ele>13.12</ele>
        <time>2016-08-29T13:07:44Z</time>
      </trkpt>
      <trkpt lat="46.20218" lon="-1.37059">
        <ele>13.12</ele>
        <time>2016-08-29T13:07:45Z</time>
      </trkpt>
      <trkpt lat="46.20216" lon="-1.37056">
        <ele>13.12</ele>
        <time>2016-08-29T13:07:46Z</time>
      </trkpt>
      <trkpt lat="46.20214" lon="-1.37052">
        <ele>13.12</ele>
        <time>2016-08-29T13:07:47Z</time>
      </trkpt>
      <trkpt lat="46.20213" lon="-1.37048">
        <ele>13.12</ele>
        <time>2016-08-29T13:07:48Z</time>
      </trkpt>
      <trkpt lat="46.20213" lon="-1.37043">
        <ele>13.12</ele>
        <time>2016-08-29T13:07:49Z</time>
      </trkpt>
      <trkpt lat="46.20213" lon="-1.37038">
        <ele>13.6</ele>
        <time>2016-08-29T13:07:50Z</time>
      </trkpt>
      <trkpt lat="46.20213" lon="-1.37033">
        <ele>13.6</ele>
        <time>2016-08-29T13:07:51Z</time>
      </trkpt>
      <trkpt lat="46.20212" lon="-1.37029">
        <ele>13.12</ele>
        <time>2016-08-29T13:07:52Z</time>
      </trkpt>
      <trkpt lat="46.20214" lon="-1.36977">
        <ele>13.6</ele>
        <time>2016-08-29T13:08:02Z</time>
      </trkpt>
      <trkpt lat="46.20214" lon="-1.36925">
        <ele>13.6</ele>
        <time>2016-08-29T13:08:12Z</time>
      </trkpt>
      <trkpt lat="46.20215" lon="-1.3689">
        <ele>14.08</ele>
        <time>2016-08-29T13:08:19Z</time>
      </trkpt>
      <trkpt lat="46.20214" lon="-1.36887">
        <ele>14.08</ele>
        <time>2016-08-29T13:08:20Z</time>
      </trkpt>
      <trkpt lat="46.20211" lon="-1.36883">
        <ele>14.08</ele>
        <time>2016-08-29T13:08:23Z</time>
      </trkpt>
      <trkpt lat="46.2021" lon="-1.36883">
        <ele>14.56</ele>
        <time>2016-08-29T13:08:24Z</time>
      </trkpt>
      <trkpt lat="46.20209" lon="-1.36881">
        <ele>14.56</ele>
        <time>2016-08-29T13:08:28Z</time>
      </trkpt>
      <trkpt lat="46.20212" lon="-1.36879">
        <ele>14.56</ele>
        <time>2016-08-29T13:08:34Z</time>
      </trkpt>
      <trkpt lat="46.20212" lon="-1.36877">
        <ele>14.56</ele>
        <time>2016-08-29T13:08:35Z</time>
      </trkpt>
      <trkpt lat="46.20212" lon="-1.36875">
        <ele>14.56</ele>
        <time>2016-08-29T13:08:36Z</time>
      </trkpt>
      <trkpt lat="46.20209" lon="-1.36874">
        <ele>14.56</ele>
        <time>2016-08-29T13:08:43Z</time>
      </trkpt>
      <trkpt lat="46.20209" lon="-1.36872">
        <ele>14.08</ele>
        <time>2016-08-29T13:08:54Z</time>
      </trkpt>
      <trkpt lat="46.20209" lon="-1.3687">
        <ele>14.56</ele>
        <time>2016-08-29T13:09:15Z</time>
      </trkpt>
      <trkpt lat="46.2021" lon="-1.3687">
        <ele>14.08</ele>
        <time>2016-08-29T13:09:32Z</time>
      </trkpt>
      <trkpt lat="46.20211" lon="-1.3687">
        <ele>14.56</ele>
        <time>2016-08-29T13:09:53Z</time>
      </trkpt>
      <trkpt lat="46.20211" lon="-1.36871">
        <ele>14.56</ele>
        <time>2016-08-29T13:10:10Z</time>
      </trkpt>
      <trkpt lat="46.20211" lon="-1.36871">
        <ele>14.56</ele>
        <time>2016-08-29T13:10:22Z</time>
      </trkpt>
      <trkpt lat="46.20211" lon="-1.36871">
        <ele>14.56</ele>
        <time>2016-08-29T13:10:32Z</time>
      </trkpt>
      <trkpt lat="46.20211" lon="-1.36871">
        <ele>14.56</ele>
        <time>2016-08-29T13:10:50Z</time>
      </trkpt>
      <trkpt lat="46.20211" lon="-1.3687">
        <ele>14.56</ele>
        <time>2016-08-29T13:11:09Z</time>
      </trkpt>
      <trkpt lat="46.20211" lon="-1.3687">
        <ele>14.56</ele>
        <time>2016-08-29T13:11:27Z</time>
      </trkpt>
      <trkpt lat="46.20211" lon="-1.3687">
        <ele>14.08</ele>
        <time>2016-08-29T13:11:49Z</time>
      </trkpt>
      <trkpt lat="46.20211" lon="-1.3687">
        <ele>12.15</ele>
        <time>2016-08-29T13:11:56Z</time>
      </trkpt>
      <trkpt lat="46.20211" lon="-1.3687">
        <ele>20.81</ele>
        <time>2016-08-29T13:11:57Z</time>
      </trkpt>
      <trkpt lat="46.20211" lon="-1.3687">
        <ele>12.15</ele>
        <time>2016-08-29T13:11:58Z</time>
      </trkpt>
      <trkpt lat="46.20211" lon="-1.3687">
        <ele>17.44</ele>
        <time>2016-08-29T13:11:59Z</time>
      </trkpt>
      <trkpt lat="46.20211" lon="-1.3687">
        <ele>14.56</ele>
        <time>2016-08-29T13:12:12Z</time>
      </trkpt>
      <trkpt lat="46.20211" lon="-1.3687">
        <ele>15.52</ele>
        <time>2016-08-29T13:12:29Z</time>
      </trkpt>
      <trkpt lat="46.20209" lon="-1.36869">
        <ele>15.52</ele>
        <time>2016-08-29T13:12:44Z</time>
      </trkpt>
      <trkpt lat="46.2021" lon="-1.3687">
        <ele>14.56</ele>
        <time>2016-08-29T13:12:58Z</time>
      </trkpt>
      <trkpt lat="46.20211" lon="-1.3687">
        <ele>10.71</ele>
        <time>2016-08-29T13:13:14Z</time>
      </trkpt>
      <trkpt lat="46.20211" lon="-1.3687">
        <ele>13.12</ele>
        <time>2016-08-29T13:13:15Z</time>
      </trkpt>
      <trkpt lat="46.20211" lon="-1.3687">
        <ele>16.48</ele>
        <time>2016-08-29T13:13:23Z</time>
      </trkpt>
      <trkpt lat="46.20211" lon="-1.3687">
        <ele>13.12</ele>
        <time>2016-08-29T13:13:26Z</time>
      </trkpt>
      <trkpt lat="46.20211" lon="-1.3687">
        <ele>13.6</ele>
        <time>2016-08-29T13:13:48Z</time>
      </trkpt>
      <trkpt lat="46.20211" lon="-1.36871">
        <ele>15.04</ele>
        <time>2016-08-29T13:14:08Z</time>
      </trkpt>
      <trkpt lat="46.20211" lon="-1.36871">
        <ele>15.04</ele>
        <time>2016-08-29T13:14:19Z</time>
      </trkpt>
      <trkpt lat="46.20212" lon="-1.36871">
        <ele>14.56</ele>
        <time>2016-08-29T13:14:30Z</time>
      </trkpt>
      <trkpt lat="46.20212" lon="-1.3687">
        <ele>15.04</ele>
        <time>2016-08-29T13:14:38Z</time>
      </trkpt>
      <trkpt lat="46.20213" lon="-1.36872">
        <ele>14.56</ele>
        <time>2016-08-29T13:14:40Z</time>
      </trkpt>
      <trkpt lat="46.20214" lon="-1.36874">
        <ele>15.04</ele>
        <time>2016-08-29T13:14:43Z</time>
      </trkpt>
      <trkpt lat="46.20215" lon="-1.36877">
        <ele>14.56</ele>
        <time>2016-08-29T13:14:46Z</time>
      </trkpt>
      <trkpt lat="46.20216" lon="-1.36884">
        <ele>14.56</ele>
        <time>2016-08-29T13:14:51Z</time>
      </trkpt>
      <trkpt lat="46.20217" lon="-1.36885">
        <ele>14.56</ele>
        <time>2016-08-29T13:14:52Z</time>
      </trkpt>
      <trkpt lat="46.20218" lon="-1.36885">
        <ele>14.56</ele>
        <time>2016-08-29T13:14:53Z</time>
      </trkpt>
      <trkpt lat="46.2022" lon="-1.36885">
        <ele>14.56</ele>
        <time>2016-08-29T13:14:55Z</time>
      </trkpt>
      <trkpt lat="46.20223" lon="-1.36885">
        <ele>15.04</ele>
        <time>2016-08-29T13:14:58Z</time>
      </trkpt>
      <trkpt lat="46.20238" lon="-1.36886">
        <ele>14.56</ele>
        <time>2016-08-29T13:15:10Z</time>
      </trkpt>
      <trkpt lat="46.20249" lon="-1.36888">
        <ele>13.6</ele>
        <time>2016-08-29T13:15:18Z</time>
      </trkpt>
      <trkpt lat="46.2025" lon="-1.36888">
        <ele>13.6</ele>
        <time>2016-08-29T13:15:19Z</time>
      </trkpt>
      <trkpt lat="46.20251" lon="-1.36888">
        <ele>14.56</ele>
        <time>2016-08-29T13:15:20Z</time>
      </trkpt>
      <trkpt lat="46.20258" lon="-1.36889">
        <ele>14.08</ele>
        <time>2016-08-29T13:15:28Z</time>
      </trkpt>
      <trkpt lat="46.2026" lon="-1.36889">
        <ele>13.6</ele>
        <time>2016-08-29T13:15:29Z</time>
      </trkpt>
      <trkpt lat="46.20266" lon="-1.36881">
        <ele>14.08</ele>
        <time>2016-08-29T13:15:37Z</time>
      </trkpt>
      <trkpt lat="46.20267" lon="-1.36881">
        <ele>14.56</ele>
        <time>2016-08-29T13:15:50Z</time>
      </trkpt>
      <trkpt lat="46.20268" lon="-1.36882">
        <ele>14.08</ele>
        <time>2016-08-29T13:15:51Z</time>
      </trkpt>
      <trkpt lat="46.20267" lon="-1.36882">
        <ele>14.08</ele>
        <time>2016-08-29T13:15:58Z</time>
      </trkpt>
      <trkpt lat="46.20268" lon="-1.36884">
        <ele>13.6</ele>
        <time>2016-08-29T13:16:03Z</time>
      </trkpt>
      <trkpt lat="46.2027" lon="-1.36885">
        <ele>14.56</ele>
        <time>2016-08-29T13:16:04Z</time>
      </trkpt>
      <trkpt lat="46.20276" lon="-1.36887">
        <ele>14.56</ele>
        <time>2016-08-29T13:16:11Z</time>
      </trkpt>
      <trkpt lat="46.2028" lon="-1.36888">
        <ele>14.56</ele>
        <time>2016-08-29T13:16:16Z</time>
      </trkpt>
      <trkpt lat="46.20286" lon="-1.36892">
        <ele>14.56</ele>
        <time>2016-08-29T13:16:23Z</time>
      </trkpt>
      <trkpt lat="46.20295" lon="-1.36899">
        <ele>14.08</ele>
        <time>2016-08-29T13:16:32Z</time>
      </trkpt>
      <trkpt lat="46.20296" lon="-1.36899">
        <ele>14.08</ele>
        <time>2016-08-29T13:16:33Z</time>
      </trkpt>
      <trkpt lat="46.20298" lon="-1.36899">
        <ele>14.08</ele>
        <time>2016-08-29T13:16:35Z</time>
      </trkpt>
      <trkpt lat="46.20299" lon="-1.36899">
        <ele>13.6</ele>
        <time>2016-08-29T13:16:36Z</time>
      </trkpt>
      <trkpt lat="46.20307" lon="-1.36897">
        <ele>13.6</ele>
        <time>2016-08-29T13:16:43Z</time>
      </trkpt>
      <trkpt lat="46.20311" lon="-1.36896">
        <ele>13.6</ele>
        <time>2016-08-29T13:16:47Z</time>
      </trkpt>
      <trkpt lat="46.20312" lon="-1.36896">
        <ele>13.6</ele>
        <time>2016-08-29T13:16:48Z</time>
      </trkpt>
      <trkpt lat="46.20319" lon="-1.36894">
        <ele>13.12</ele>
        <time>2016-08-29T13:16:55Z</time>
      </trkpt>
      <trkpt lat="46.20326" lon="-1.36892">
        <ele>11.19</ele>
        <time>2016-08-29T13:17:01Z</time>
      </trkpt>
      <trkpt lat="46.20333" lon="-1.36889">
        <ele>11.19</ele>
        <time>2016-08-29T13:17:10Z</time>
      </trkpt>
      <trkpt lat="46.20335" lon="-1.36887">
        <ele>11.19</ele>
        <time>2016-08-29T13:17:12Z</time>
      </trkpt>
      <trkpt lat="46.20336" lon="-1.36885">
        <ele>11.19</ele>
        <time>2016-08-29T13:17:13Z</time>
      </trkpt>
      <trkpt lat="46.20337" lon="-1.36882">
        <ele>11.19</ele>
        <time>2016-08-29T13:17:14Z</time>
      </trkpt>
      <trkpt lat="46.20334" lon="-1.36871">
        <ele>12.15</ele>
        <time>2016-08-29T13:17:22Z</time>
      </trkpt>
      <trkpt lat="46.20333" lon="-1.36861">
        <ele>12.15</ele>
        <time>2016-08-29T13:17:31Z</time>
      </trkpt>
      <trkpt lat="46.20345" lon="-1.36851">
        <ele>12.63</ele>
        <time>2016-08-29T13:17:45Z</time>
      </trkpt>
      <trkpt lat="46.20346" lon="-1.36844">
        <ele>12.63</ele>
        <time>2016-08-29T13:17:51Z</time>
      </trkpt>
      <trkpt lat="46.20345" lon="-1.36839">
        <ele>12.63</ele>
        <time>2016-08-29T13:17:56Z</time>
      </trkpt>
      <trkpt lat="46.20342" lon="-1.36832">
        <ele>13.12</ele>
        <time>2016-08-29T13:18:06Z</time>
      </trkpt>
      <trkpt lat="46.20339" lon="-1.3683">
        <ele>13.12</ele>
        <time>2016-08-29T13:18:08Z</time>
      </trkpt>
      <trkpt lat="46.20337" lon="-1.36827">
        <ele>13.12</ele>
        <time>2016-08-29T13:18:19Z</time>
      </trkpt>
      <trkpt lat="46.20337" lon="-1.36825">
        <ele>13.6</ele>
        <time>2016-08-29T13:18:32Z</time>
      </trkpt>
      <trkpt lat="46.20337" lon="-1.36816">
        <ele>13.6</ele>
        <time>2016-08-29T13:18:39Z</time>
      </trkpt>
      <trkpt lat="46.20336" lon="-1.36813">
        <ele>13.12</ele>
        <time>2016-08-29T13:18:41Z</time>
      </trkpt>
      <trkpt lat="46.20333" lon="-1.36806">
        <ele>13.6</ele>
        <time>2016-08-29T13:18:52Z</time>
      </trkpt>
      <trkpt lat="46.20333" lon="-1.36805">
        <ele>13.12</ele>
        <time>2016-08-29T13:19:12Z</time>
      </trkpt>
      <trkpt lat="46.20335" lon="-1.36804">
        <ele>14.08</ele>
        <time>2016-08-29T13:19:19Z</time>
      </trkpt>
      <trkpt lat="46.2033" lon="-1.36804">
        <ele>13.6</ele>
        <time>2016-08-29T13:19:27Z</time>
      </trkpt>
      <trkpt lat="46.20324" lon="-1.36806">
        <ele>14.56</ele>
        <time>2016-08-29T13:19:32Z</time>
      </trkpt>
      <trkpt lat="46.20316" lon="-1.3681">
        <ele>14.08</ele>
        <time>2016-08-29T13:19:41Z</time>
      </trkpt>
      <trkpt lat="46.20314" lon="-1.3681">
        <ele>14.08</ele>
        <time>2016-08-29T13:19:55Z</time>
      </trkpt>
      <trkpt lat="46.2031" lon="-1.36803">
        <ele>14.08</ele>
        <time>2016-08-29T13:20:04Z</time>
      </trkpt>
      <trkpt lat="46.20308" lon="-1.36802">
        <ele>14.56</ele>
        <time>2016-08-29T13:20:11Z</time>
      </trkpt>
      <trkpt lat="46.20306" lon="-1.36798">
        <ele>14.08</ele>
        <time>2016-08-29T13:20:29Z</time>
      </trkpt>
      <trkpt lat="46.20305" lon="-1.36798">
        <ele>13.6</ele>
        <time>2016-08-29T13:20:41Z</time>
      </trkpt>
      <trkpt lat="46.20304" lon="-1.36806">
        <ele>14.56</ele>
        <time>2016-08-29T13:20:48Z</time>
      </trkpt>
      <trkpt lat="46.20304" lon="-1.36807">
        <ele>15.04</ele>
        <time>2016-08-29T13:20:49Z</time>
      </trkpt>
      <trkpt lat="46.20304" lon="-1.36804">
        <ele>14.56</ele>
        <time>2016-08-29T13:20:53Z</time>
      </trkpt>
      <trkpt lat="46.20301" lon="-1.36803">
        <ele>14.56</ele>
        <time>2016-08-29T13:20:57Z</time>
      </trkpt>
      <trkpt lat="46.20296" lon="-1.36802">
        <ele>15.04</ele>
        <time>2016-08-29T13:21:07Z</time>
      </trkpt>
      <trkpt lat="46.20292" lon="-1.36803">
        <ele>14.56</ele>
        <time>2016-08-29T13:21:23Z</time>
      </trkpt>
      <trkpt lat="46.20292" lon="-1.36804">
        <ele>14.56</ele>
        <time>2016-08-29T13:21:29Z</time>
      </trkpt>
      <trkpt lat="46.20295" lon="-1.36808">
        <ele>14.56</ele>
        <time>2016-08-29T13:21:35Z</time>
      </trkpt>
      <trkpt lat="46.20299" lon="-1.36809">
        <ele>15.04</ele>
        <time>2016-08-29T13:21:46Z</time>
      </trkpt>
      <trkpt lat="46.20297" lon="-1.36811">
        <ele>14.56</ele>
        <time>2016-08-29T13:22:01Z</time>
      </trkpt>
      <trkpt lat="46.20295" lon="-1.3681">
        <ele>15.04</ele>
        <time>2016-08-29T13:22:11Z</time>
      </trkpt>
      <trkpt lat="46.20295" lon="-1.3681">
        <ele>15.52</ele>
        <time>2016-08-29T13:22:13Z</time>
      </trkpt>
      <trkpt lat="46.20302" lon="-1.36813">
        <ele>16</ele>
        <time>2016-08-29T13:22:26Z</time>
      </trkpt>
      <trkpt lat="46.20309" lon="-1.36812">
        <ele>15.04</ele>
        <time>2016-08-29T13:22:37Z</time>
      </trkpt>
      <trkpt lat="46.20322" lon="-1.36817">
        <ele>15.04</ele>
        <time>2016-08-29T13:22:46Z</time>
      </trkpt>
      <trkpt lat="46.20326" lon="-1.3682">
        <ele>14.56</ele>
        <time>2016-08-29T13:22:56Z</time>
      </trkpt>
      <trkpt lat="46.20327" lon="-1.36817">
        <ele>15.04</ele>
        <time>2016-08-29T13:23:04Z</time>
      </trkpt>
      <trkpt lat="46.20332" lon="-1.36818">
        <ele>14.56</ele>
        <time>2016-08-29T13:23:12Z</time>
      </trkpt>
      <trkpt lat="46.2033" lon="-1.3682">
        <ele>15.04</ele>
        <time>2016-08-29T13:23:17Z</time>
      </trkpt>
      <trkpt lat="46.20331" lon="-1.36827">
        <ele>15.04</ele>
        <time>2016-08-29T13:23:24Z</time>
      </trkpt>
      <trkpt lat="46.20333" lon="-1.36841">
        <ele>14.56</ele>
        <time>2016-08-29T13:23:34Z</time>
      </trkpt>
      <trkpt lat="46.20332" lon="-1.36851">
        <ele>14.08</ele>
        <time>2016-08-29T13:23:43Z</time>
      </trkpt>
      <trkpt lat="46.20333" lon="-1.36853">
        <ele>14.08</ele>
        <time>2016-08-29T13:23:44Z</time>
      </trkpt>
      <trkpt lat="46.20336" lon="-1.36865">
        <ele>14.08</ele>
        <time>2016-08-29T13:23:53Z</time>
      </trkpt>
      <trkpt lat="46.20342" lon="-1.36875">
        <ele>13.6</ele>
        <time>2016-08-29T13:24:03Z</time>
      </trkpt>
      <trkpt lat="46.20356" lon="-1.36878">
        <ele>12.15</ele>
        <time>2016-08-29T13:24:15Z</time>
      </trkpt>
      <trkpt lat="46.2037" lon="-1.36877">
        <ele>11.67</ele>
        <time>2016-08-29T13:24:29Z</time>
      </trkpt>
      <trkpt lat="46.20376" lon="-1.36877">
        <ele>10.71</ele>
        <time>2016-08-29T13:24:40Z</time>
      </trkpt>
      <trkpt lat="46.20377" lon="-1.36876">
        <ele>11.19</ele>
        <time>2016-08-29T13:24:49Z</time>
      </trkpt>
      <trkpt lat="46.20384" lon="-1.3687">
        <ele>10.71</ele>
        <time>2016-08-29T13:25:00Z</time>
      </trkpt>
      <trkpt lat="46.20384" lon="-1.36871">
        <ele>11.19</ele>
        <time>2016-08-29T13:25:14Z</time>
      </trkpt>
      <trkpt lat="46.20385" lon="-1.3687">
        <ele>11.67</ele>
        <time>2016-08-29T13:25:33Z</time>
      </trkpt>
      <trkpt lat="46.20386" lon="-1.36869">
        <ele>11.67</ele>
        <time>2016-08-29T13:25:53Z</time>
      </trkpt>
      <trkpt lat="46.20386" lon="-1.36869">
        <ele>11.67</ele>
        <time>2016-08-29T13:26:11Z</time>
      </trkpt>
      <trkpt lat="46.20389" lon="-1.36866">
        <ele>11.67</ele>
        <time>2016-08-29T13:26:25Z</time>
      </trkpt>
      <trkpt lat="46.20384" lon="-1.36862">
        <ele>12.15</ele>
        <time>2016-08-29T13:26:41Z</time>
      </trkpt>
      <trkpt lat="46.20393" lon="-1.36859">
        <ele>12.15</ele>
        <time>2016-08-29T13:27:44Z</time>
      </trkpt>
      <trkpt lat="46.20398" lon="-1.36859">
        <ele>11.19</ele>
        <time>2016-08-29T13:28:00Z</time>
      </trkpt>
      <trkpt lat="46.20397" lon="-1.36855">
        <ele>10.71</ele>
        <time>2016-08-29T13:28:21Z</time>
      </trkpt>
      <trkpt lat="46.20399" lon="-1.36858">
        <ele>12.15</ele>
        <time>2016-08-29T13:28:35Z</time>
      </trkpt>
      <trkpt lat="46.204" lon="-1.36856">
        <ele>12.15</ele>
        <time>2016-08-29T13:28:47Z</time>
      </trkpt>
      <trkpt lat="46.20396" lon="-1.36856">
        <ele>12.15</ele>
        <time>2016-08-29T13:29:09Z</time>
      </trkpt>
      <trkpt lat="46.20396" lon="-1.36856">
        <ele>12.15</ele>
        <time>2016-08-29T13:29:25Z</time>
      </trkpt>
      <trkpt lat="46.20397" lon="-1.36856">
        <ele>12.15</ele>
        <time>2016-08-29T13:29:37Z</time>
      </trkpt>
      <trkpt lat="46.20402" lon="-1.36856">
        <ele>11.67</ele>
        <time>2016-08-29T13:29:50Z</time>
      </trkpt>
      <trkpt lat="46.20403" lon="-1.36858">
        <ele>11.67</ele>
        <time>2016-08-29T13:30:02Z</time>
      </trkpt>
      <trkpt lat="46.20403" lon="-1.36858">
        <ele>12.15</ele>
        <time>2016-08-29T13:30:18Z</time>
      </trkpt>
      <trkpt lat="46.20402" lon="-1.3686">
        <ele>12.63</ele>
        <time>2016-08-29T13:30:37Z</time>
      </trkpt>
      <trkpt lat="46.20404" lon="-1.36861">
        <ele>11.19</ele>
        <time>2016-08-29T13:30:50Z</time>
      </trkpt>
      <trkpt lat="46.20409" lon="-1.36862">
        <ele>11.19</ele>
        <time>2016-08-29T13:31:00Z</time>
      </trkpt>
      <trkpt lat="46.20423" lon="-1.36851">
        <ele>11.67</ele>
        <time>2016-08-29T13:31:15Z</time>
      </trkpt>
      <trkpt lat="46.20436" lon="-1.36843">
        <ele>10.71</ele>
        <time>2016-08-29T13:31:29Z</time>
      </trkpt>
      <trkpt lat="46.20447" lon="-1.36845">
        <ele>10.71</ele>
        <time>2016-08-29T13:31:43Z</time>
      </trkpt>
      <trkpt lat="46.20467" lon="-1.36843">
        <ele>11.67</ele>
        <time>2016-08-29T13:31:54Z</time>
      </trkpt>
      <trkpt lat="46.20469" lon="-1.36849">
        <ele>11.67</ele>
        <time>2016-08-29T13:32:03Z</time>
      </trkpt>
      <trkpt lat="46.2047" lon="-1.36851">
        <ele>12.15</ele>
        <time>2016-08-29T13:32:05Z</time>
      </trkpt>
      <trkpt lat="46.20471" lon="-1.36855">
        <ele>11.67</ele>
        <time>2016-08-29T13:32:08Z</time>
      </trkpt>
      <trkpt lat="46.20476" lon="-1.36857">
        <ele>11.19</ele>
        <time>2016-08-29T13:32:17Z</time>
      </trkpt>
      <trkpt lat="46.20476" lon="-1.36859">
        <ele>11.19</ele>
        <time>2016-08-29T13:32:29Z</time>
      </trkpt>
      <trkpt lat="46.20477" lon="-1.3686">
        <ele>10.71</ele>
        <time>2016-08-29T13:32:50Z</time>
      </trkpt>
      <trkpt lat="46.20479" lon="-1.36862">
        <ele>11.19</ele>
        <time>2016-08-29T13:32:58Z</time>
      </trkpt>
      <trkpt lat="46.20479" lon="-1.36864">
        <ele>10.71</ele>
        <time>2016-08-29T13:33:12Z</time>
      </trkpt>
      <trkpt lat="46.20481" lon="-1.36867">
        <ele>10.71</ele>
        <time>2016-08-29T13:33:23Z</time>
      </trkpt>
      <trkpt lat="46.20482" lon="-1.36869">
        <ele>11.19</ele>
        <time>2016-08-29T13:33:30Z</time>
      </trkpt>
      <trkpt lat="46.20485" lon="-1.36879">
        <ele>11.67</ele>
        <time>2016-08-29T13:33:40Z</time>
      </trkpt>
      <trkpt lat="46.20487" lon="-1.36889">
        <ele>11.67</ele>
        <time>2016-08-29T13:33:48Z</time>
      </trkpt>
      <trkpt lat="46.2049" lon="-1.369">
        <ele>11.19</ele>
        <time>2016-08-29T13:33:58Z</time>
      </trkpt>
      <trkpt lat="46.20491" lon="-1.36905">
        <ele>11.67</ele>
        <time>2016-08-29T13:34:11Z</time>
      </trkpt>
      <trkpt lat="46.20494" lon="-1.36916">
        <ele>11.19</ele>
        <time>2016-08-29T13:34:21Z</time>
      </trkpt>
      <trkpt lat="46.20495" lon="-1.36918">
        <ele>12.15</ele>
        <time>2016-08-29T13:34:23Z</time>
      </trkpt>
      <trkpt lat="46.20499" lon="-1.36926">
        <ele>11.19</ele>
        <time>2016-08-29T13:34:33Z</time>
      </trkpt>
      <trkpt lat="46.20503" lon="-1.36933">
        <ele>10.23</ele>
        <time>2016-08-29T13:34:44Z</time>
      </trkpt>
      <trkpt lat="46.20505" lon="-1.36943">
        <ele>11.19</ele>
        <time>2016-08-29T13:34:53Z</time>
      </trkpt>
      <trkpt lat="46.20508" lon="-1.36953">
        <ele>11.67</ele>
        <time>2016-08-29T13:35:03Z</time>
      </trkpt>
      <trkpt lat="46.20515" lon="-1.36953">
        <ele>11.19</ele>
        <time>2016-08-29T13:35:16Z</time>
      </trkpt>
      <trkpt lat="46.20522" lon="-1.3695">
        <ele>11.67</ele>
        <time>2016-08-29T13:35:26Z</time>
      </trkpt>
      <trkpt lat="46.20526" lon="-1.36947">
        <ele>10.71</ele>
        <time>2016-08-29T13:35:41Z</time>
      </trkpt>
      <trkpt lat="46.20526" lon="-1.36947">
        <ele>12.15</ele>
        <time>2016-08-29T13:35:44Z</time>
      </trkpt>
      <trkpt lat="46.20531" lon="-1.36952">
        <ele>11.19</ele>
        <time>2016-08-29T13:35:54Z</time>
      </trkpt>
      <trkpt lat="46.20532" lon="-1.3695">
        <ele>11.19</ele>
        <time>2016-08-29T13:36:03Z</time>
      </trkpt>
      <trkpt lat="46.20538" lon="-1.36946">
        <ele>11.19</ele>
        <time>2016-08-29T13:36:12Z</time>
      </trkpt>
      <trkpt lat="46.20545" lon="-1.36938">
        <ele>11.19</ele>
        <time>2016-08-29T13:36:22Z</time>
      </trkpt>
      <trkpt lat="46.20549" lon="-1.36935">
        <ele>11.67</ele>
        <time>2016-08-29T13:36:26Z</time>
      </trkpt>
      <trkpt lat="46.20554" lon="-1.3693">
        <ele>11.19</ele>
        <time>2016-08-29T13:36:33Z</time>
      </trkpt>
      <trkpt lat="46.20557" lon="-1.36927">
        <ele>10.23</ele>
        <time>2016-08-29T13:36:36Z</time>
      </trkpt>
      <trkpt lat="46.20568" lon="-1.36919">
        <ele>11.19</ele>
        <time>2016-08-29T13:36:48Z</time>
      </trkpt>
      <trkpt lat="46.20579" lon="-1.3691">
        <ele>11.67</ele>
        <time>2016-08-29T13:37:02Z</time>
      </trkpt>
      <trkpt lat="46.20585" lon="-1.36903">
        <ele>10.71</ele>
        <time>2016-08-29T13:37:11Z</time>
      </trkpt>
      <trkpt lat="46.20585" lon="-1.36903">
        <ele>11.19</ele>
        <time>2016-08-29T13:37:14Z</time>
      </trkpt>
      <trkpt lat="46.20588" lon="-1.36904">
        <ele>10.23</ele>
        <time>2016-08-29T13:37:17Z</time>
      </trkpt>
      <trkpt lat="46.2059" lon="-1.36909">
        <ele>11.67</ele>
        <time>2016-08-29T13:37:21Z</time>
      </trkpt>
      <trkpt lat="46.20592" lon="-1.36911">
        <ele>11.67</ele>
        <time>2016-08-29T13:37:23Z</time>
      </trkpt>
      <trkpt lat="46.20596" lon="-1.36919">
        <ele>12.15</ele>
        <time>2016-08-29T13:37:29Z</time>
      </trkpt>
      <trkpt lat="46.20599" lon="-1.36921">
        <ele>12.63</ele>
        <time>2016-08-29T13:37:32Z</time>
      </trkpt>
      <trkpt lat="46.20605" lon="-1.36921">
        <ele>16</ele>
        <time>2016-08-29T13:37:40Z</time>
      </trkpt>
      <trkpt lat="46.20612" lon="-1.36912">
        <ele>15.04</ele>
        <time>2016-08-29T13:37:50Z</time>
      </trkpt>
      <trkpt lat="46.20612" lon="-1.36911">
        <ele>15.04</ele>
        <time>2016-08-29T13:37:55Z</time>
      </trkpt>
      <trkpt lat="46.20616" lon="-1.36916">
        <ele>17.92</ele>
        <time>2016-08-29T13:38:03Z</time>
      </trkpt>
      <trkpt lat="46.20618" lon="-1.36917">
        <ele>16.96</ele>
        <time>2016-08-29T13:38:13Z</time>
      </trkpt>
      <trkpt lat="46.20618" lon="-1.36918">
        <ele>16</ele>
        <time>2016-08-29T13:38:23Z</time>
      </trkpt>
      <trkpt lat="46.20617" lon="-1.3692">
        <ele>16</ele>
        <time>2016-08-29T13:38:26Z</time>
      </trkpt>
      <trkpt lat="46.20615" lon="-1.3693">
        <ele>16</ele>
        <time>2016-08-29T13:38:33Z</time>
      </trkpt>
      <trkpt lat="46.20616" lon="-1.36937">
        <ele>16</ele>
        <time>2016-08-29T13:38:43Z</time>
      </trkpt>
      <trkpt lat="46.20616" lon="-1.36937">
        <ele>16</ele>
        <time>2016-08-29T13:38:59Z</time>
      </trkpt>
      <trkpt lat="46.20617" lon="-1.36931">
        <ele>16</ele>
        <time>2016-08-29T13:39:10Z</time>
      </trkpt>
      <trkpt lat="46.20617" lon="-1.36931">
        <ele>16.48</ele>
        <time>2016-08-29T13:39:24Z</time>
      </trkpt>
      <trkpt lat="46.20617" lon="-1.36931">
        <ele>17.44</ele>
        <time>2016-08-29T13:39:37Z</time>
      </trkpt>
      <trkpt lat="46.20617" lon="-1.36931">
        <ele>16.96</ele>
        <time>2016-08-29T13:39:38Z</time>
      </trkpt>
      <trkpt lat="46.20614" lon="-1.36943">
        <ele>16</ele>
        <time>2016-08-29T13:39:49Z</time>
      </trkpt>
      <trkpt lat="46.20613" lon="-1.36949">
        <ele>15.04</ele>
        <time>2016-08-29T13:39:55Z</time>
      </trkpt>
      <trkpt lat="46.2061" lon="-1.36961">
        <ele>16</ele>
        <time>2016-08-29T13:40:04Z</time>
      </trkpt>
      <trkpt lat="46.2061" lon="-1.36969">
        <ele>15.52</ele>
        <time>2016-08-29T13:40:09Z</time>
      </trkpt>
      <trkpt lat="46.20607" lon="-1.36982">
        <ele>14.08</ele>
        <time>2016-08-29T13:40:21Z</time>
      </trkpt>
      <trkpt lat="46.20607" lon="-1.36994">
        <ele>15.52</ele>
        <time>2016-08-29T13:40:30Z</time>
      </trkpt>
      <trkpt lat="46.20604" lon="-1.37011">
        <ele>15.04</ele>
        <time>2016-08-29T13:40:41Z</time>
      </trkpt>
      <trkpt lat="46.20604" lon="-1.37014">
        <ele>15.04</ele>
        <time>2016-08-29T13:40:52Z</time>
      </trkpt>
      <trkpt lat="46.20601" lon="-1.37018">
        <ele>15.04</ele>
        <time>2016-08-29T13:41:00Z</time>
      </trkpt>
      <trkpt lat="46.206" lon="-1.37013">
        <ele>16</ele>
        <time>2016-08-29T13:41:08Z</time>
      </trkpt>
      <trkpt lat="46.206" lon="-1.37011">
        <ele>16.48</ele>
        <time>2016-08-29T13:41:09Z</time>
      </trkpt>
      <trkpt lat="46.20601" lon="-1.37004">
        <ele>18.4</ele>
        <time>2016-08-29T13:41:14Z</time>
      </trkpt>
      <trkpt lat="46.20601" lon="-1.37001">
        <ele>17.92</ele>
        <time>2016-08-29T13:41:26Z</time>
      </trkpt>
      <trkpt lat="46.20601" lon="-1.36997">
        <ele>19.36</ele>
        <time>2016-08-29T13:41:29Z</time>
      </trkpt>
      <trkpt lat="46.20599" lon="-1.36995">
        <ele>17.92</ele>
        <time>2016-08-29T13:41:37Z</time>
      </trkpt>
      <trkpt lat="46.20597" lon="-1.36993">
        <ele>17.44</ele>
        <time>2016-08-29T13:41:52Z</time>
      </trkpt>
      <trkpt lat="46.20597" lon="-1.36992">
        <ele>18.4</ele>
        <time>2016-08-29T13:41:55Z</time>
      </trkpt>
      <trkpt lat="46.20599" lon="-1.36996">
        <ele>19.36</ele>
        <time>2016-08-29T13:42:06Z</time>
      </trkpt>
      <trkpt lat="46.20599" lon="-1.37001">
        <ele>17.92</ele>
        <time>2016-08-29T13:42:12Z</time>
      </trkpt>
      <trkpt lat="46.20598" lon="-1.37004">
        <ele>16.96</ele>
        <time>2016-08-29T13:42:14Z</time>
      </trkpt>
      <trkpt lat="46.20596" lon="-1.37017">
        <ele>13.6</ele>
        <time>2016-08-29T13:42:24Z</time>
      </trkpt>
      <trkpt lat="46.20595" lon="-1.37019">
        <ele>15.04</ele>
        <time>2016-08-29T13:42:26Z</time>
      </trkpt>
      <trkpt lat="46.20595" lon="-1.37035">
        <ele>14.08</ele>
        <time>2016-08-29T13:42:37Z</time>
      </trkpt>
      <trkpt lat="46.20598" lon="-1.37042">
        <ele>14.08</ele>
        <time>2016-08-29T13:42:46Z</time>
      </trkpt>
      <trkpt lat="46.20599" lon="-1.37042">
        <ele>14.08</ele>
        <time>2016-08-29T13:43:07Z</time>
      </trkpt>
      <trkpt lat="46.20599" lon="-1.37042">
        <ele>15.04</ele>
        <time>2016-08-29T13:43:17Z</time>
      </trkpt>
      <trkpt lat="46.206" lon="-1.3704">
        <ele>14.08</ele>
        <time>2016-08-29T13:43:29Z</time>
      </trkpt>
      <trkpt lat="46.20603" lon="-1.37026">
        <ele>14.56</ele>
        <time>2016-08-29T13:43:40Z</time>
      </trkpt>
      <trkpt lat="46.20605" lon="-1.3701">
        <ele>14.08</ele>
        <time>2016-08-29T13:43:50Z</time>
      </trkpt>
      <trkpt lat="46.20606" lon="-1.37007">
        <ele>14.56</ele>
        <time>2016-08-29T13:43:52Z</time>
      </trkpt>
      <trkpt lat="46.20609" lon="-1.36987">
        <ele>14.08</ele>
        <time>2016-08-29T13:44:05Z</time>
      </trkpt>
      <trkpt lat="46.20609" lon="-1.36986">
        <ele>14.08</ele>
        <time>2016-08-29T13:44:06Z</time>
      </trkpt>
      <trkpt lat="46.20612" lon="-1.36963">
        <ele>14.56</ele>
        <time>2016-08-29T13:44:20Z</time>
      </trkpt>
      <trkpt lat="46.20617" lon="-1.36943">
        <ele>14.08</ele>
        <time>2016-08-29T13:44:32Z</time>
      </trkpt>
      <trkpt lat="46.2062" lon="-1.36924">
        <ele>15.52</ele>
        <time>2016-08-29T13:44:44Z</time>
      </trkpt>
      <trkpt lat="46.20623" lon="-1.36911">
        <ele>14.56</ele>
        <time>2016-08-29T13:44:53Z</time>
      </trkpt>
      <trkpt lat="46.20628" lon="-1.36906">
        <ele>14.08</ele>
        <time>2016-08-29T13:44:59Z</time>
      </trkpt>
      <trkpt lat="46.2063" lon="-1.36905">
        <ele>14.08</ele>
        <time>2016-08-29T13:45:02Z</time>
      </trkpt>
      <trkpt lat="46.20645" lon="-1.36891">
        <ele>13.12</ele>
        <time>2016-08-29T13:45:17Z</time>
      </trkpt>
      <trkpt lat="46.20657" lon="-1.36882">
        <ele>14.56</ele>
        <time>2016-08-29T13:45:29Z</time>
      </trkpt>
      <trkpt lat="46.20662" lon="-1.36879">
        <ele>13.6</ele>
        <time>2016-08-29T13:45:34Z</time>
      </trkpt>
      <trkpt lat="46.20665" lon="-1.36876">
        <ele>15.04</ele>
        <time>2016-08-29T13:45:37Z</time>
      </trkpt>
      <trkpt lat="46.2067" lon="-1.36871">
        <ele>15.52</ele>
        <time>2016-08-29T13:45:43Z</time>
      </trkpt>
      <trkpt lat="46.20674" lon="-1.36867">
        <ele>14.56</ele>
        <time>2016-08-29T13:45:47Z</time>
      </trkpt>
      <trkpt lat="46.20686" lon="-1.36859">
        <ele>15.04</ele>
        <time>2016-08-29T13:45:59Z</time>
      </trkpt>
      <trkpt lat="46.20688" lon="-1.36852">
        <ele>14.08</ele>
        <time>2016-08-29T13:46:05Z</time>
      </trkpt>
      <trkpt lat="46.2069" lon="-1.36851">
        <ele>14.08</ele>
        <time>2016-08-29T13:46:07Z</time>
      </trkpt>
      <trkpt lat="46.20698" lon="-1.36852">
        <ele>15.04</ele>
        <time>2016-08-29T13:46:14Z</time>
      </trkpt>
      <trkpt lat="46.207" lon="-1.3685">
        <ele>14.08</ele>
        <time>2016-08-29T13:46:16Z</time>
      </trkpt>
      <trkpt lat="46.20712" lon="-1.3684">
        <ele>16</ele>
        <time>2016-08-29T13:46:27Z</time>
      </trkpt>
      <trkpt lat="46.20724" lon="-1.3683">
        <ele>14.08</ele>
        <time>2016-08-29T13:46:39Z</time>
      </trkpt>
      <trkpt lat="46.20728" lon="-1.36827">
        <ele>15.04</ele>
        <time>2016-08-29T13:46:43Z</time>
      </trkpt>
      <trkpt lat="46.20731" lon="-1.36823">
        <ele>14.56</ele>
        <time>2016-08-29T13:46:46Z</time>
      </trkpt>
      <trkpt lat="46.20735" lon="-1.36819">
        <ele>15.04</ele>
        <time>2016-08-29T13:46:51Z</time>
      </trkpt>
      <trkpt lat="46.20739" lon="-1.36816">
        <ele>15.52</ele>
        <time>2016-08-29T13:46:55Z</time>
      </trkpt>
      <trkpt lat="46.20742" lon="-1.36807">
        <ele>14.56</ele>
        <time>2016-08-29T13:47:07Z</time>
      </trkpt>
      <trkpt lat="46.20742" lon="-1.36807">
        <ele>14.08</ele>
        <time>2016-08-29T13:47:15Z</time>
      </trkpt>
      <trkpt lat="46.20742" lon="-1.36803">
        <ele>13.12</ele>
        <time>2016-08-29T13:47:18Z</time>
      </trkpt>
      <trkpt lat="46.20741" lon="-1.36795">
        <ele>14.08</ele>
        <time>2016-08-29T13:47:23Z</time>
      </trkpt>
      <trkpt lat="46.2074" lon="-1.36776">
        <ele>13.12</ele>
        <time>2016-08-29T13:47:34Z</time>
      </trkpt>
      <trkpt lat="46.2074" lon="-1.3677">
        <ele>13.12</ele>
        <time>2016-08-29T13:47:38Z</time>
      </trkpt>
      <trkpt lat="46.20738" lon="-1.36758">
        <ele>12.15</ele>
        <time>2016-08-29T13:47:44Z</time>
      </trkpt>
      <trkpt lat="46.20736" lon="-1.36737">
        <ele>12.63</ele>
        <time>2016-08-29T13:47:57Z</time>
      </trkpt>
      <trkpt lat="46.20737" lon="-1.36727">
        <ele>13.6</ele>
        <time>2016-08-29T13:48:03Z</time>
      </trkpt>
      <trkpt lat="46.20732" lon="-1.36719">
        <ele>13.6</ele>
        <time>2016-08-29T13:48:13Z</time>
      </trkpt>
      <trkpt lat="46.20729" lon="-1.3672">
        <ele>16</ele>
        <time>2016-08-29T13:48:18Z</time>
      </trkpt>
      <trkpt lat="46.20727" lon="-1.36719">
        <ele>16.48</ele>
        <time>2016-08-29T13:48:22Z</time>
      </trkpt>
      <trkpt lat="46.20727" lon="-1.36719">
        <ele>16.48</ele>
        <time>2016-08-29T13:48:34Z</time>
      </trkpt>
      <trkpt lat="46.20728" lon="-1.36718">
        <ele>16.48</ele>
        <time>2016-08-29T13:48:48Z</time>
      </trkpt>
      <trkpt lat="46.20728" lon="-1.36719">
        <ele>16.48</ele>
        <time>2016-08-29T13:49:07Z</time>
      </trkpt>
      <trkpt lat="46.20726" lon="-1.3672">
        <ele>16.48</ele>
        <time>2016-08-29T13:49:19Z</time>
      </trkpt>
      <trkpt lat="46.20726" lon="-1.36722">
        <ele>15.52</ele>
        <time>2016-08-29T13:49:21Z</time>
      </trkpt>
      <trkpt lat="46.20725" lon="-1.36728">
        <ele>16.96</ele>
        <time>2016-08-29T13:49:26Z</time>
      </trkpt>
      <trkpt lat="46.20725" lon="-1.36739">
        <ele>13.6</ele>
        <time>2016-08-29T13:49:35Z</time>
      </trkpt>
      <trkpt lat="46.20725" lon="-1.36743">
        <ele>11.19</ele>
        <time>2016-08-29T13:49:38Z</time>
      </trkpt>
      <trkpt lat="46.2072" lon="-1.36746">
        <ele>11.19</ele>
        <time>2016-08-29T13:49:44Z</time>
      </trkpt>
      <trkpt lat="46.20719" lon="-1.3675">
        <ele>10.71</ele>
        <time>2016-08-29T13:49:48Z</time>
      </trkpt>
      <trkpt lat="46.20718" lon="-1.36754">
        <ele>11.67</ele>
        <time>2016-08-29T13:49:52Z</time>
      </trkpt>
      <trkpt lat="46.20712" lon="-1.36769">
        <ele>9.75</ele>
        <time>2016-08-29T13:50:03Z</time>
      </trkpt>
      <trkpt lat="46.20709" lon="-1.36773">
        <ele>8.79</ele>
        <time>2016-08-29T13:50:08Z</time>
      </trkpt>
      <trkpt lat="46.20702" lon="-1.36777">
        <ele>10.23</ele>
        <time>2016-08-29T13:50:17Z</time>
      </trkpt>
      <trkpt lat="46.20699" lon="-1.36777">
        <ele>8.79</ele>
        <time>2016-08-29T13:50:26Z</time>
      </trkpt>
      <trkpt lat="46.20698" lon="-1.36777">
        <ele>9.75</ele>
        <time>2016-08-29T13:50:44Z</time>
      </trkpt>
      <trkpt lat="46.20694" lon="-1.36778">
        <ele>9.75</ele>
        <time>2016-08-29T13:50:54Z</time>
      </trkpt>
      <trkpt lat="46.20693" lon="-1.36774">
        <ele>8.31</ele>
        <time>2016-08-29T13:51:07Z</time>
      </trkpt>
      <trkpt lat="46.20692" lon="-1.36777">
        <ele>9.27</ele>
        <time>2016-08-29T13:51:18Z</time>
      </trkpt>
      <trkpt lat="46.20693" lon="-1.36788">
        <ele>9.27</ele>
        <time>2016-08-29T13:51:27Z</time>
      </trkpt>
      <trkpt lat="46.20694" lon="-1.36793">
        <ele>8.79</ele>
        <time>2016-08-29T13:51:36Z</time>
      </trkpt>
      <trkpt lat="46.20695" lon="-1.36794">
        <ele>8.79</ele>
        <time>2016-08-29T13:51:58Z</time>
      </trkpt>
      <trkpt lat="46.20695" lon="-1.36794">
        <ele>9.27</ele>
        <time>2016-08-29T13:51:59Z</time>
      </trkpt>
      <trkpt lat="46.20696" lon="-1.368">
        <ele>9.27</ele>
        <time>2016-08-29T13:52:03Z</time>
      </trkpt>
      <trkpt lat="46.20696" lon="-1.36802">
        <ele>8.79</ele>
        <time>2016-08-29T13:52:05Z</time>
      </trkpt>
      <trkpt lat="46.20694" lon="-1.36806">
        <ele>9.27</ele>
        <time>2016-08-29T13:52:09Z</time>
      </trkpt>
      <trkpt lat="46.20685" lon="-1.36813">
        <ele>9.75</ele>
        <time>2016-08-29T13:52:20Z</time>
      </trkpt>
      <trkpt lat="46.20678" lon="-1.36818">
        <ele>10.23</ele>
        <time>2016-08-29T13:52:31Z</time>
      </trkpt>
      <trkpt lat="46.20673" lon="-1.36822">
        <ele>10.71</ele>
        <time>2016-08-29T13:52:36Z</time>
      </trkpt>
      <trkpt lat="46.20665" lon="-1.3683">
        <ele>9.75</ele>
        <time>2016-08-29T13:52:46Z</time>
      </trkpt>
      <trkpt lat="46.20665" lon="-1.36831">
        <ele>9.27</ele>
        <time>2016-08-29T13:52:47Z</time>
      </trkpt>
      <trkpt lat="46.20664" lon="-1.36831">
        <ele>9.75</ele>
        <time>2016-08-29T13:52:48Z</time>
      </trkpt>
      <trkpt lat="46.20654" lon="-1.36836">
        <ele>9.75</ele>
        <time>2016-08-29T13:52:59Z</time>
      </trkpt>
      <trkpt lat="46.2065" lon="-1.3684">
        <ele>9.27</ele>
        <time>2016-08-29T13:53:05Z</time>
      </trkpt>
      <trkpt lat="46.20642" lon="-1.36846">
        <ele>10.23</ele>
        <time>2016-08-29T13:53:15Z</time>
      </trkpt>
      <trkpt lat="46.20631" lon="-1.36854">
        <ele>10.71</ele>
        <time>2016-08-29T13:53:26Z</time>
      </trkpt>
      <trkpt lat="46.20628" lon="-1.36856">
        <ele>11.19</ele>
        <time>2016-08-29T13:53:31Z</time>
      </trkpt>
      <trkpt lat="46.20618" lon="-1.36863">
        <ele>9.75</ele>
        <time>2016-08-29T13:53:43Z</time>
      </trkpt>
      <trkpt lat="46.20607" lon="-1.36871">
        <ele>9.75</ele>
        <time>2016-08-29T13:53:54Z</time>
      </trkpt>
      <trkpt lat="46.20605" lon="-1.36873">
        <ele>8.31</ele>
        <time>2016-08-29T13:53:57Z</time>
      </trkpt>
      <trkpt lat="46.20599" lon="-1.36877">
        <ele>10.23</ele>
        <time>2016-08-29T13:54:04Z</time>
      </trkpt>
      <trkpt lat="46.20587" lon="-1.36884">
        <ele>9.27</ele>
        <time>2016-08-29T13:54:16Z</time>
      </trkpt>
      <trkpt lat="46.20576" lon="-1.36894">
        <ele>8.79</ele>
        <time>2016-08-29T13:54:29Z</time>
      </trkpt>
      <trkpt lat="46.20567" lon="-1.36901">
        <ele>7.83</ele>
        <time>2016-08-29T13:54:39Z</time>
      </trkpt>
      <trkpt lat="46.20561" lon="-1.36906">
        <ele>8.79</ele>
        <time>2016-08-29T13:54:45Z</time>
      </trkpt>
      <trkpt lat="46.20553" lon="-1.36911">
        <ele>10.23</ele>
        <time>2016-08-29T13:54:53Z</time>
      </trkpt>
      <trkpt lat="46.20547" lon="-1.36916">
        <ele>9.75</ele>
        <time>2016-08-29T13:54:59Z</time>
      </trkpt>
      <trkpt lat="46.20539" lon="-1.3692">
        <ele>9.75</ele>
        <time>2016-08-29T13:55:07Z</time>
      </trkpt>
      <trkpt lat="46.20527" lon="-1.36931">
        <ele>10.71</ele>
        <time>2016-08-29T13:55:20Z</time>
      </trkpt>
      <trkpt lat="46.20518" lon="-1.3694">
        <ele>9.75</ele>
        <time>2016-08-29T13:55:33Z</time>
      </trkpt>
      <trkpt lat="46.20513" lon="-1.36938">
        <ele>9.27</ele>
        <time>2016-08-29T13:55:40Z</time>
      </trkpt>
      <trkpt lat="46.20512" lon="-1.36935">
        <ele>10.23</ele>
        <time>2016-08-29T13:55:42Z</time>
      </trkpt>
      <trkpt lat="46.20508" lon="-1.36932">
        <ele>9.75</ele>
        <time>2016-08-29T13:55:50Z</time>
      </trkpt>
      <trkpt lat="46.20508" lon="-1.36927">
        <ele>10.23</ele>
        <time>2016-08-29T13:55:54Z</time>
      </trkpt>
      <trkpt lat="46.20504" lon="-1.36917">
        <ele>9.75</ele>
        <time>2016-08-29T13:56:02Z</time>
      </trkpt>
      <trkpt lat="46.20498" lon="-1.36904">
        <ele>8.79</ele>
        <time>2016-08-29T13:56:13Z</time>
      </trkpt>
      <trkpt lat="46.20496" lon="-1.36898">
        <ele>7.35</ele>
        <time>2016-08-29T13:56:18Z</time>
      </trkpt>
      <trkpt lat="46.20492" lon="-1.36885">
        <ele>8.79</ele>
        <time>2016-08-29T13:56:28Z</time>
      </trkpt>
      <trkpt lat="46.20487" lon="-1.36872">
        <ele>10.71</ele>
        <time>2016-08-29T13:56:38Z</time>
      </trkpt>
      <trkpt lat="46.20486" lon="-1.3687">
        <ele>10.23</ele>
        <time>2016-08-29T13:56:39Z</time>
      </trkpt>
      <trkpt lat="46.20485" lon="-1.36868">
        <ele>8.79</ele>
        <time>2016-08-29T13:56:41Z</time>
      </trkpt>
      <trkpt lat="46.20482" lon="-1.36857">
        <ele>10.23</ele>
        <time>2016-08-29T13:56:50Z</time>
      </trkpt>
      <trkpt lat="46.2048" lon="-1.36855">
        <ele>9.27</ele>
        <time>2016-08-29T13:56:52Z</time>
      </trkpt>
      <trkpt lat="46.20479" lon="-1.3684">
        <ele>10.23</ele>
        <time>2016-08-29T13:57:03Z</time>
      </trkpt>
      <trkpt lat="46.20478" lon="-1.36827">
        <ele>8.31</ele>
        <time>2016-08-29T13:57:13Z</time>
      </trkpt>
      <trkpt lat="46.20479" lon="-1.3682">
        <ele>9.27</ele>
        <time>2016-08-29T13:57:19Z</time>
      </trkpt>
      <trkpt lat="46.20478" lon="-1.36808">
        <ele>9.75</ele>
        <time>2016-08-29T13:57:29Z</time>
      </trkpt>
      <trkpt lat="46.20479" lon="-1.36802">
        <ele>9.27</ele>
        <time>2016-08-29T13:57:35Z</time>
      </trkpt>
      <trkpt lat="46.20481" lon="-1.36791">
        <ele>9.75</ele>
        <time>2016-08-29T13:57:45Z</time>
      </trkpt>
      <trkpt lat="46.20481" lon="-1.36788">
        <ele>9.27</ele>
        <time>2016-08-29T13:57:51Z</time>
      </trkpt>
      <trkpt lat="46.2048" lon="-1.3679">
        <ele>9.27</ele>
        <time>2016-08-29T13:58:01Z</time>
      </trkpt>
      <trkpt lat="46.2048" lon="-1.36788">
        <ele>8.79</ele>
        <time>2016-08-29T13:58:04Z</time>
      </trkpt>
      <trkpt lat="46.20482" lon="-1.36785">
        <ele>8.79</ele>
        <time>2016-08-29T13:58:06Z</time>
      </trkpt>
      <trkpt lat="46.20487" lon="-1.36771">
        <ele>10.23</ele>
        <time>2016-08-29T13:58:16Z</time>
      </trkpt>
      <trkpt lat="46.20489" lon="-1.36763">
        <ele>10.23</ele>
        <time>2016-08-29T13:58:23Z</time>
      </trkpt>
      <trkpt lat="46.20484" lon="-1.3676">
        <ele>9.75</ele>
        <time>2016-08-29T13:58:26Z</time>
      </trkpt>
      <trkpt lat="46.20477" lon="-1.36752">
        <ele>8.79</ele>
        <time>2016-08-29T13:58:37Z</time>
      </trkpt>
      <trkpt lat="46.20479" lon="-1.36757">
        <ele>9.75</ele>
        <time>2016-08-29T13:58:54Z</time>
      </trkpt>
      <trkpt lat="46.20488" lon="-1.36754">
        <ele>10.23</ele>
        <time>2016-08-29T13:59:05Z</time>
      </trkpt>
      <trkpt lat="46.2049" lon="-1.36754">
        <ele>10.23</ele>
        <time>2016-08-29T13:59:08Z</time>
      </trkpt>
      <trkpt lat="46.20496" lon="-1.36757">
        <ele>9.75</ele>
        <time>2016-08-29T13:59:15Z</time>
      </trkpt>
      <trkpt lat="46.20499" lon="-1.36759">
        <ele>10.23</ele>
        <time>2016-08-29T13:59:18Z</time>
      </trkpt>
      <trkpt lat="46.20502" lon="-1.36759">
        <ele>10.71</ele>
        <time>2016-08-29T13:59:20Z</time>
      </trkpt>
      <trkpt lat="46.20509" lon="-1.36765">
        <ele>10.23</ele>
        <time>2016-08-29T13:59:31Z</time>
      </trkpt>
      <trkpt lat="46.20516" lon="-1.36767">
        <ele>10.71</ele>
        <time>2016-08-29T13:59:41Z</time>
      </trkpt>
      <trkpt lat="46.20519" lon="-1.36767">
        <ele>10.23</ele>
        <time>2016-08-29T13:59:50Z</time>
      </trkpt>
      <trkpt lat="46.20523" lon="-1.36762">
        <ele>10.23</ele>
        <time>2016-08-29T14:00:01Z</time>
      </trkpt>
      <trkpt lat="46.20524" lon="-1.36753">
        <ele>9.75</ele>
        <time>2016-08-29T14:00:10Z</time>
      </trkpt>
      <trkpt lat="46.20524" lon="-1.36753">
        <ele>9.75</ele>
        <time>2016-08-29T14:00:24Z</time>
      </trkpt>
      <trkpt lat="46.20524" lon="-1.36756">
        <ele>9.75</ele>
        <time>2016-08-29T14:00:36Z</time>
      </trkpt>
      <trkpt lat="46.20522" lon="-1.36768">
        <ele>10.23</ele>
        <time>2016-08-29T14:00:47Z</time>
      </trkpt>
      <trkpt lat="46.20522" lon="-1.36775">
        <ele>9.75</ele>
        <time>2016-08-29T14:00:58Z</time>
      </trkpt>
      <trkpt lat="46.20519" lon="-1.36786">
        <ele>10.23</ele>
        <time>2016-08-29T14:01:09Z</time>
      </trkpt>
      <trkpt lat="46.20518" lon="-1.36789">
        <ele>10.23</ele>
        <time>2016-08-29T14:01:12Z</time>
      </trkpt>
      <trkpt lat="46.20519" lon="-1.368">
        <ele>10.71</ele>
        <time>2016-08-29T14:01:23Z</time>
      </trkpt>
      <trkpt lat="46.20519" lon="-1.36802">
        <ele>9.27</ele>
        <time>2016-08-29T14:01:38Z</time>
      </trkpt>
      <trkpt lat="46.20521" lon="-1.36802">
        <ele>9.27</ele>
        <time>2016-08-29T14:01:59Z</time>
      </trkpt>
      <trkpt lat="46.2052" lon="-1.36803">
        <ele>9.75</ele>
        <time>2016-08-29T14:02:09Z</time>
      </trkpt>
      <trkpt lat="46.20515" lon="-1.36805">
        <ele>10.23</ele>
        <time>2016-08-29T14:02:15Z</time>
      </trkpt>
      <trkpt lat="46.2051" lon="-1.36814">
        <ele>10.23</ele>
        <time>2016-08-29T14:02:24Z</time>
      </trkpt>
      <trkpt lat="46.20506" lon="-1.36819">
        <ele>9.75</ele>
        <time>2016-08-29T14:02:32Z</time>
      </trkpt>
      <trkpt lat="46.20508" lon="-1.36824">
        <ele>8.79</ele>
        <time>2016-08-29T14:02:41Z</time>
      </trkpt>
      <trkpt lat="46.20509" lon="-1.36828">
        <ele>10.71</ele>
        <time>2016-08-29T14:02:43Z</time>
      </trkpt>
      <trkpt lat="46.2051" lon="-1.36837">
        <ele>10.23</ele>
        <time>2016-08-29T14:02:49Z</time>
      </trkpt>
      <trkpt lat="46.20515" lon="-1.36852">
        <ele>10.71</ele>
        <time>2016-08-29T14:03:00Z</time>
      </trkpt>
      <trkpt lat="46.20516" lon="-1.36854">
        <ele>9.75</ele>
        <time>2016-08-29T14:03:01Z</time>
      </trkpt>
      <trkpt lat="46.20521" lon="-1.36867">
        <ele>9.27</ele>
        <time>2016-08-29T14:03:11Z</time>
      </trkpt>
      <trkpt lat="46.20527" lon="-1.36877">
        <ele>8.79</ele>
        <time>2016-08-29T14:03:21Z</time>
      </trkpt>
      <trkpt lat="46.20531" lon="-1.36876">
        <ele>9.27</ele>
        <time>2016-08-29T14:03:32Z</time>
      </trkpt>
      <trkpt lat="46.20538" lon="-1.3687">
        <ele>7.83</ele>
        <time>2016-08-29T14:03:39Z</time>
      </trkpt>
      <trkpt lat="46.2055" lon="-1.36862">
        <ele>9.27</ele>
        <time>2016-08-29T14:03:52Z</time>
      </trkpt>
      <trkpt lat="46.20554" lon="-1.3686">
        <ele>9.27</ele>
        <time>2016-08-29T14:03:55Z</time>
      </trkpt>
      <trkpt lat="46.20558" lon="-1.36855">
        <ele>8.79</ele>
        <time>2016-08-29T14:04:01Z</time>
      </trkpt>
      <trkpt lat="46.20559" lon="-1.36854">
        <ele>9.27</ele>
        <time>2016-08-29T14:04:03Z</time>
      </trkpt>
      <trkpt lat="46.2056" lon="-1.36851">
        <ele>8.31</ele>
        <time>2016-08-29T14:04:05Z</time>
      </trkpt>
      <trkpt lat="46.20562" lon="-1.36844">
        <ele>8.79</ele>
        <time>2016-08-29T14:04:10Z</time>
      </trkpt>
      <trkpt lat="46.20569" lon="-1.36841">
        <ele>8.31</ele>
        <time>2016-08-29T14:04:17Z</time>
      </trkpt>
      <trkpt lat="46.20578" lon="-1.36834">
        <ele>8.31</ele>
        <time>2016-08-29T14:04:26Z</time>
      </trkpt>
      <trkpt lat="46.20583" lon="-1.36828">
        <ele>8.79</ele>
        <time>2016-08-29T14:04:31Z</time>
      </trkpt>
      <trkpt lat="46.20592" lon="-1.3682">
        <ele>9.27</ele>
        <time>2016-08-29T14:04:40Z</time>
      </trkpt>
      <trkpt lat="46.20601" lon="-1.36814">
        <ele>8.79</ele>
        <time>2016-08-29T14:04:49Z</time>
      </trkpt>
      <trkpt lat="46.20607" lon="-1.3681">
        <ele>8.79</ele>
        <time>2016-08-29T14:04:55Z</time>
      </trkpt>
      <trkpt lat="46.20615" lon="-1.36795">
        <ele>9.27</ele>
        <time>2016-08-29T14:05:06Z</time>
      </trkpt>
      <trkpt lat="46.20617" lon="-1.36791">
        <ele>10.23</ele>
        <time>2016-08-29T14:05:10Z</time>
      </trkpt>
      <trkpt lat="46.20621" lon="-1.36788">
        <ele>8.31</ele>
        <time>2016-08-29T14:05:14Z</time>
      </trkpt>
      <trkpt lat="46.20625" lon="-1.36786">
        <ele>8.79</ele>
        <time>2016-08-29T14:05:18Z</time>
      </trkpt>
      <trkpt lat="46.20627" lon="-1.36782">
        <ele>8.31</ele>
        <time>2016-08-29T14:05:21Z</time>
      </trkpt>
      <trkpt lat="46.20631" lon="-1.36764">
        <ele>9.27</ele>
        <time>2016-08-29T14:05:32Z</time>
      </trkpt>
      <trkpt lat="46.20631" lon="-1.36762">
        <ele>9.75</ele>
        <time>2016-08-29T14:05:34Z</time>
      </trkpt>
      <trkpt lat="46.20631" lon="-1.36757">
        <ele>10.71</ele>
        <time>2016-08-29T14:05:37Z</time>
      </trkpt>
      <trkpt lat="46.20631" lon="-1.36754">
        <ele>9.75</ele>
        <time>2016-08-29T14:05:39Z</time>
      </trkpt>
      <trkpt lat="46.20632" lon="-1.3675">
        <ele>10.23</ele>
        <time>2016-08-29T14:05:42Z</time>
      </trkpt>
      <trkpt lat="46.20633" lon="-1.36745">
        <ele>9.75</ele>
        <time>2016-08-29T14:05:45Z</time>
      </trkpt>
      <trkpt lat="46.20634" lon="-1.36735">
        <ele>9.27</ele>
        <time>2016-08-29T14:05:52Z</time>
      </trkpt>
      <trkpt lat="46.20636" lon="-1.36729">
        <ele>10.71</ele>
        <time>2016-08-29T14:05:58Z</time>
      </trkpt>
      <trkpt lat="46.20637" lon="-1.36726">
        <ele>7.83</ele>
        <time>2016-08-29T14:06:08Z</time>
      </trkpt>
      <trkpt lat="46.20635" lon="-1.36722">
        <ele>9.27</ele>
        <time>2016-08-29T14:06:10Z</time>
      </trkpt>
      <trkpt lat="46.20635" lon="-1.36718">
        <ele>9.75</ele>
        <time>2016-08-29T14:06:13Z</time>
      </trkpt>
      <trkpt lat="46.20634" lon="-1.36714">
        <ele>10.71</ele>
        <time>2016-08-29T14:06:16Z</time>
      </trkpt>
      <trkpt lat="46.20633" lon="-1.36708">
        <ele>9.75</ele>
        <time>2016-08-29T14:06:29Z</time>
      </trkpt>
      <trkpt lat="46.20632" lon="-1.3671">
        <ele>11.67</ele>
        <time>2016-08-29T14:06:37Z</time>
      </trkpt>
      <trkpt lat="46.20631" lon="-1.36713">
        <ele>11.19</ele>
        <time>2016-08-29T14:06:39Z</time>
      </trkpt>
      <trkpt lat="46.20632" lon="-1.36725">
        <ele>11.67</ele>
        <time>2016-08-29T14:06:48Z</time>
      </trkpt>
      <trkpt lat="46.20633" lon="-1.3673">
        <ele>10.23</ele>
        <time>2016-08-29T14:06:54Z</time>
      </trkpt>
      <trkpt lat="46.20634" lon="-1.36731">
        <ele>10.23</ele>
        <time>2016-08-29T14:07:10Z</time>
      </trkpt>
      <trkpt lat="46.20634" lon="-1.36731">
        <ele>10.23</ele>
        <time>2016-08-29T14:07:12Z</time>
      </trkpt>
      <trkpt lat="46.20634" lon="-1.3673">
        <ele>8.79</ele>
        <time>2016-08-29T14:07:14Z</time>
      </trkpt>
      <trkpt lat="46.20633" lon="-1.36728">
        <ele>10.23</ele>
        <time>2016-08-29T14:07:15Z</time>
      </trkpt>
      <trkpt lat="46.20633" lon="-1.36723">
        <ele>10.23</ele>
        <time>2016-08-29T14:07:18Z</time>
      </trkpt>
      <trkpt lat="46.20624" lon="-1.36711">
        <ele>8.79</ele>
        <time>2016-08-29T14:07:28Z</time>
      </trkpt>
      <trkpt lat="46.20622" lon="-1.36708">
        <ele>9.75</ele>
        <time>2016-08-29T14:07:39Z</time>
      </trkpt>
      <trkpt lat="46.20617" lon="-1.36708">
        <ele>9.75</ele>
        <time>2016-08-29T14:07:49Z</time>
      </trkpt>
      <trkpt lat="46.20617" lon="-1.36711">
        <ele>10.23</ele>
        <time>2016-08-29T14:08:08Z</time>
      </trkpt>
      <trkpt lat="46.20617" lon="-1.36712">
        <ele>9.75</ele>
        <time>2016-08-29T14:08:22Z</time>
      </trkpt>
      <trkpt lat="46.20617" lon="-1.36713">
        <ele>9.75</ele>
        <time>2016-08-29T14:08:26Z</time>
      </trkpt>
      <trkpt lat="46.20617" lon="-1.36712">
        <ele>9.27</ele>
        <time>2016-08-29T14:08:28Z</time>
      </trkpt>
      <trkpt lat="46.20614" lon="-1.36712">
        <ele>8.31</ele>
        <time>2016-08-29T14:08:31Z</time>
      </trkpt>
      <trkpt lat="46.20612" lon="-1.36711">
        <ele>9.75</ele>
        <time>2016-08-29T14:08:33Z</time>
      </trkpt>
      <trkpt lat="46.2061" lon="-1.36711">
        <ele>10.23</ele>
        <time>2016-08-29T14:08:35Z</time>
      </trkpt>
      <trkpt lat="46.20602" lon="-1.36711">
        <ele>9.75</ele>
        <time>2016-08-29T14:08:45Z</time>
      </trkpt>
      <trkpt lat="46.20597" lon="-1.3671">
        <ele>9.27</ele>
        <time>2016-08-29T14:08:50Z</time>
      </trkpt>
      <trkpt lat="46.20586" lon="-1.36708">
        <ele>10.23</ele>
        <time>2016-08-29T14:09:00Z</time>
      </trkpt>
      <trkpt lat="46.20578" lon="-1.36706">
        <ele>9.75</ele>
        <time>2016-08-29T14:09:08Z</time>
      </trkpt>
      <trkpt lat="46.20572" lon="-1.36707">
        <ele>9.27</ele>
        <time>2016-08-29T14:09:18Z</time>
      </trkpt>
      <trkpt lat="46.20566" lon="-1.36713">
        <ele>9.75</ele>
        <time>2016-08-29T14:09:25Z</time>
      </trkpt>
      <trkpt lat="46.20565" lon="-1.36715">
        <ele>10.23</ele>
        <time>2016-08-29T14:09:27Z</time>
      </trkpt>
      <trkpt lat="46.20562" lon="-1.36723">
        <ele>9.27</ele>
        <time>2016-08-29T14:09:33Z</time>
      </trkpt>
      <trkpt lat="46.20561" lon="-1.36729">
        <ele>9.75</ele>
        <time>2016-08-29T14:09:43Z</time>
      </trkpt>
      <trkpt lat="46.2056" lon="-1.36725">
        <ele>9.27</ele>
        <time>2016-08-29T14:09:54Z</time>
      </trkpt>
      <trkpt lat="46.20558" lon="-1.36725">
        <ele>9.27</ele>
        <time>2016-08-29T14:09:59Z</time>
      </trkpt>
      <trkpt lat="46.20554" lon="-1.36725">
        <ele>9.75</ele>
        <time>2016-08-29T14:10:10Z</time>
      </trkpt>
      <trkpt lat="46.20553" lon="-1.36726">
        <ele>10.23</ele>
        <time>2016-08-29T14:10:29Z</time>
      </trkpt>
      <trkpt lat="46.2055" lon="-1.36728">
        <ele>9.27</ele>
        <time>2016-08-29T14:10:43Z</time>
      </trkpt>
      <trkpt lat="46.20547" lon="-1.3673">
        <ele>9.75</ele>
        <time>2016-08-29T14:10:47Z</time>
      </trkpt>
      <trkpt lat="46.20545" lon="-1.36731">
        <ele>10.23</ele>
        <time>2016-08-29T14:10:49Z</time>
      </trkpt>
      <trkpt lat="46.20543" lon="-1.36733">
        <ele>9.75</ele>
        <time>2016-08-29T14:10:51Z</time>
      </trkpt>
      <trkpt lat="46.20532" lon="-1.36744">
        <ele>11.67</ele>
        <time>2016-08-29T14:11:02Z</time>
      </trkpt>
      <trkpt lat="46.20529" lon="-1.36747">
        <ele>10.71</ele>
        <time>2016-08-29T14:11:06Z</time>
      </trkpt>
      <trkpt lat="46.20525" lon="-1.36748">
        <ele>9.75</ele>
        <time>2016-08-29T14:11:10Z</time>
      </trkpt>
      <trkpt lat="46.20521" lon="-1.36747">
        <ele>10.71</ele>
        <time>2016-08-29T14:11:13Z</time>
      </trkpt>
      <trkpt lat="46.20519" lon="-1.36748">
        <ele>9.75</ele>
        <time>2016-08-29T14:11:15Z</time>
      </trkpt>
      <trkpt lat="46.20508" lon="-1.36745">
        <ele>9.27</ele>
        <time>2016-08-29T14:11:25Z</time>
      </trkpt>
      <trkpt lat="46.20507" lon="-1.36746">
        <ele>10.71</ele>
        <time>2016-08-29T14:11:35Z</time>
      </trkpt>
      <trkpt lat="46.20506" lon="-1.36743">
        <ele>10.23</ele>
        <time>2016-08-29T14:11:47Z</time>
      </trkpt>
      <trkpt lat="46.20507" lon="-1.36743">
        <ele>9.27</ele>
        <time>2016-08-29T14:12:05Z</time>
      </trkpt>
      <trkpt lat="46.20507" lon="-1.36742">
        <ele>9.75</ele>
        <time>2016-08-29T14:12:17Z</time>
      </trkpt>
      <trkpt lat="46.20502" lon="-1.36737">
        <ele>9.75</ele>
        <time>2016-08-29T14:12:28Z</time>
      </trkpt>
      <trkpt lat="46.205" lon="-1.36735">
        <ele>10.23</ele>
        <time>2016-08-29T14:12:37Z</time>
      </trkpt>
      <trkpt lat="46.205" lon="-1.3673">
        <ele>9.27</ele>
        <time>2016-08-29T14:12:49Z</time>
      </trkpt>
      <trkpt lat="46.205" lon="-1.3673">
        <ele>9.75</ele>
        <time>2016-08-29T14:12:55Z</time>
      </trkpt>
      <trkpt lat="46.205" lon="-1.36723">
        <ele>10.23</ele>
        <time>2016-08-29T14:13:01Z</time>
      </trkpt>
      <trkpt lat="46.20503" lon="-1.36713">
        <ele>9.27</ele>
        <time>2016-08-29T14:13:11Z</time>
      </trkpt>
      <trkpt lat="46.20504" lon="-1.36705">
        <ele>9.27</ele>
        <time>2016-08-29T14:13:21Z</time>
      </trkpt>
      <trkpt lat="46.20507" lon="-1.36698">
        <ele>9.75</ele>
        <time>2016-08-29T14:13:26Z</time>
      </trkpt>
      <trkpt lat="46.20511" lon="-1.36678">
        <ele>10.23</ele>
        <time>2016-08-29T14:13:39Z</time>
      </trkpt>
      <trkpt lat="46.20515" lon="-1.36666">
        <ele>8.31</ele>
        <time>2016-08-29T14:13:51Z</time>
      </trkpt>
      <trkpt lat="46.20522" lon="-1.36656">
        <ele>8.31</ele>
        <time>2016-08-29T14:14:02Z</time>
      </trkpt>
      <trkpt lat="46.20523" lon="-1.36651">
        <ele>9.75</ele>
        <time>2016-08-29T14:14:05Z</time>
      </trkpt>
      <trkpt lat="46.20523" lon="-1.36642">
        <ele>9.27</ele>
        <time>2016-08-29T14:14:14Z</time>
      </trkpt>
      <trkpt lat="46.20525" lon="-1.3664">
        <ele>9.27</ele>
        <time>2016-08-29T14:14:22Z</time>
      </trkpt>
      <trkpt lat="46.20525" lon="-1.3664">
        <ele>8.79</ele>
        <time>2016-08-29T14:14:31Z</time>
      </trkpt>
      <trkpt lat="46.20527" lon="-1.36642">
        <ele>9.27</ele>
        <time>2016-08-29T14:14:33Z</time>
      </trkpt>
      <trkpt lat="46.20533" lon="-1.36644">
        <ele>8.31</ele>
        <time>2016-08-29T14:14:38Z</time>
      </trkpt>
      <trkpt lat="46.20534" lon="-1.36644">
        <ele>8.79</ele>
        <time>2016-08-29T14:14:39Z</time>
      </trkpt>
      <trkpt lat="46.20536" lon="-1.36645">
        <ele>9.75</ele>
        <time>2016-08-29T14:14:41Z</time>
      </trkpt>
      <trkpt lat="46.20538" lon="-1.36645">
        <ele>10.23</ele>
        <time>2016-08-29T14:14:43Z</time>
      </trkpt>
      <trkpt lat="46.20545" lon="-1.36645">
        <ele>9.75</ele>
        <time>2016-08-29T14:14:49Z</time>
      </trkpt>
      <trkpt lat="46.20557" lon="-1.36643">
        <ele>9.75</ele>
        <time>2016-08-29T14:14:59Z</time>
      </trkpt>
      <trkpt lat="46.20565" lon="-1.36643">
        <ele>10.71</ele>
        <time>2016-08-29T14:15:07Z</time>
      </trkpt>
      <trkpt lat="46.20578" lon="-1.3664">
        <ele>9.27</ele>
        <time>2016-08-29T14:15:18Z</time>
      </trkpt>
      <trkpt lat="46.20581" lon="-1.36639">
        <ele>10.23</ele>
        <time>2016-08-29T14:15:21Z</time>
      </trkpt>
      <trkpt lat="46.20584" lon="-1.36637">
        <ele>9.75</ele>
        <time>2016-08-29T14:15:24Z</time>
      </trkpt>
      <trkpt lat="46.20587" lon="-1.36638">
        <ele>9.75</ele>
        <time>2016-08-29T14:15:27Z</time>
      </trkpt>
      <trkpt lat="46.20596" lon="-1.36636">
        <ele>8.79</ele>
        <time>2016-08-29T14:15:35Z</time>
      </trkpt>
      <trkpt lat="46.20601" lon="-1.36634">
        <ele>9.27</ele>
        <time>2016-08-29T14:15:40Z</time>
      </trkpt>
      <trkpt lat="46.2061" lon="-1.36631">
        <ele>8.31</ele>
        <time>2016-08-29T14:15:48Z</time>
      </trkpt>
      <trkpt lat="46.20618" lon="-1.36627">
        <ele>9.27</ele>
        <time>2016-08-29T14:15:55Z</time>
      </trkpt>
      <trkpt lat="46.20621" lon="-1.36627">
        <ele>9.75</ele>
        <time>2016-08-29T14:15:58Z</time>
      </trkpt>
      <trkpt lat="46.20627" lon="-1.36625">
        <ele>9.75</ele>
        <time>2016-08-29T14:16:06Z</time>
      </trkpt>
      <trkpt lat="46.20628" lon="-1.36627">
        <ele>7.83</ele>
        <time>2016-08-29T14:16:08Z</time>
      </trkpt>
      <trkpt lat="46.20629" lon="-1.36631">
        <ele>9.27</ele>
        <time>2016-08-29T14:16:21Z</time>
      </trkpt>
      <trkpt lat="46.20629" lon="-1.36631">
        <ele>8.79</ele>
        <time>2016-08-29T14:16:22Z</time>
      </trkpt>
      <trkpt lat="46.20635" lon="-1.36628">
        <ele>9.75</ele>
        <time>2016-08-29T14:16:30Z</time>
      </trkpt>
      <trkpt lat="46.20639" lon="-1.36625">
        <ele>8.79</ele>
        <time>2016-08-29T14:16:34Z</time>
      </trkpt>
      <trkpt lat="46.20643" lon="-1.36622">
        <ele>8.79</ele>
        <time>2016-08-29T14:16:38Z</time>
      </trkpt>
      <trkpt lat="46.20655" lon="-1.36617">
        <ele>9.75</ele>
        <time>2016-08-29T14:16:48Z</time>
      </trkpt>
      <trkpt lat="46.20657" lon="-1.36616">
        <ele>9.27</ele>
        <time>2016-08-29T14:16:50Z</time>
      </trkpt>
      <trkpt lat="46.20662" lon="-1.36614">
        <ele>10.23</ele>
        <time>2016-08-29T14:16:54Z</time>
      </trkpt>
      <trkpt lat="46.20668" lon="-1.36614">
        <ele>10.71</ele>
        <time>2016-08-29T14:16:59Z</time>
      </trkpt>
      <trkpt lat="46.20674" lon="-1.36613">
        <ele>11.67</ele>
        <time>2016-08-29T14:17:04Z</time>
      </trkpt>
      <trkpt lat="46.20683" lon="-1.3661">
        <ele>10.23</ele>
        <time>2016-08-29T14:17:12Z</time>
      </trkpt>
      <trkpt lat="46.20686" lon="-1.3661">
        <ele>11.19</ele>
        <time>2016-08-29T14:17:15Z</time>
      </trkpt>
      <trkpt lat="46.20688" lon="-1.36609">
        <ele>10.23</ele>
        <time>2016-08-29T14:17:17Z</time>
      </trkpt>
      <trkpt lat="46.20692" lon="-1.36607">
        <ele>11.19</ele>
        <time>2016-08-29T14:17:21Z</time>
      </trkpt>
      <trkpt lat="46.20701" lon="-1.36598">
        <ele>12.15</ele>
        <time>2016-08-29T14:17:31Z</time>
      </trkpt>
      <trkpt lat="46.20709" lon="-1.3659">
        <ele>13.12</ele>
        <time>2016-08-29T14:17:40Z</time>
      </trkpt>
      <trkpt lat="46.20716" lon="-1.36586">
        <ele>13.6</ele>
        <time>2016-08-29T14:17:48Z</time>
      </trkpt>
      <trkpt lat="46.20716" lon="-1.36585">
        <ele>13.6</ele>
        <time>2016-08-29T14:18:07Z</time>
      </trkpt>
      <trkpt lat="46.20718" lon="-1.36583">
        <ele>12.15</ele>
        <time>2016-08-29T14:18:16Z</time>
      </trkpt>
      <trkpt lat="46.20724" lon="-1.36574">
        <ele>14.08</ele>
        <time>2016-08-29T14:18:26Z</time>
      </trkpt>
      <trkpt lat="46.20724" lon="-1.36575">
        <ele>14.08</ele>
        <time>2016-08-29T14:18:27Z</time>
      </trkpt>
      <trkpt lat="46.20726" lon="-1.36575">
        <ele>15.52</ele>
        <time>2016-08-29T14:18:39Z</time>
      </trkpt>
      <trkpt lat="46.20726" lon="-1.36574">
        <ele>12.63</ele>
        <time>2016-08-29T14:18:45Z</time>
      </trkpt>
      <trkpt lat="46.20726" lon="-1.36562">
        <ele>13.12</ele>
        <time>2016-08-29T14:18:54Z</time>
      </trkpt>
      <trkpt lat="46.20729" lon="-1.36561">
        <ele>15.52</ele>
        <time>2016-08-29T14:18:57Z</time>
      </trkpt>
      <trkpt lat="46.20739" lon="-1.36558">
        <ele>13.6</ele>
        <time>2016-08-29T14:19:08Z</time>
      </trkpt>
      <trkpt lat="46.2074" lon="-1.36558">
        <ele>13.6</ele>
        <time>2016-08-29T14:19:23Z</time>
      </trkpt>
      <trkpt lat="46.20739" lon="-1.3656">
        <ele>13.6</ele>
        <time>2016-08-29T14:19:34Z</time>
      </trkpt>
      <trkpt lat="46.2074" lon="-1.3656">
        <ele>15.04</ele>
        <time>2016-08-29T14:19:37Z</time>
      </trkpt>
      <trkpt lat="46.2074" lon="-1.3656">
        <ele>14.08</ele>
        <time>2016-08-29T14:19:51Z</time>
      </trkpt>
      <trkpt lat="46.2074" lon="-1.36553">
        <ele>13.12</ele>
        <time>2016-08-29T14:20:01Z</time>
      </trkpt>
      <trkpt lat="46.20741" lon="-1.36553">
        <ele>13.6</ele>
        <time>2016-08-29T14:20:11Z</time>
      </trkpt>
      <trkpt lat="46.20741" lon="-1.36552">
        <ele>13.6</ele>
        <time>2016-08-29T14:20:31Z</time>
      </trkpt>
      <trkpt lat="46.20742" lon="-1.36549">
        <ele>14.08</ele>
        <time>2016-08-29T14:20:34Z</time>
      </trkpt>
      <trkpt lat="46.20742" lon="-1.36541">
        <ele>13.6</ele>
        <time>2016-08-29T14:20:39Z</time>
      </trkpt>
      <trkpt lat="46.20742" lon="-1.36535">
        <ele>13.6</ele>
        <time>2016-08-29T14:20:49Z</time>
      </trkpt>
      <trkpt lat="46.20742" lon="-1.36534">
        <ele>13.6</ele>
        <time>2016-08-29T14:21:02Z</time>
      </trkpt>
      <trkpt lat="46.20742" lon="-1.36531">
        <ele>12.63</ele>
        <time>2016-08-29T14:21:04Z</time>
      </trkpt>
      <trkpt lat="46.20743" lon="-1.36526">
        <ele>14.08</ele>
        <time>2016-08-29T14:21:07Z</time>
      </trkpt>
      <trkpt lat="46.20744" lon="-1.3652">
        <ele>13.12</ele>
        <time>2016-08-29T14:21:10Z</time>
      </trkpt>
      <trkpt lat="46.20744" lon="-1.36512">
        <ele>14.56</ele>
        <time>2016-08-29T14:21:14Z</time>
      </trkpt>
      <trkpt lat="46.20744" lon="-1.36509">
        <ele>13.12</ele>
        <time>2016-08-29T14:21:16Z</time>
      </trkpt>
      <trkpt lat="46.20746" lon="-1.36494">
        <ele>13.6</ele>
        <time>2016-08-29T14:21:27Z</time>
      </trkpt>
      <trkpt lat="46.20746" lon="-1.36492">
        <ele>14.08</ele>
        <time>2016-08-29T14:21:28Z</time>
      </trkpt>
      <trkpt lat="46.20747" lon="-1.36482">
        <ele>13.6</ele>
        <time>2016-08-29T14:21:34Z</time>
      </trkpt>
      <trkpt lat="46.20747" lon="-1.36478">
        <ele>13.12</ele>
        <time>2016-08-29T14:21:37Z</time>
      </trkpt>
      <trkpt lat="46.20747" lon="-1.36474">
        <ele>13.6</ele>
        <time>2016-08-29T14:21:40Z</time>
      </trkpt>
      <trkpt lat="46.20749" lon="-1.36469">
        <ele>14.56</ele>
        <time>2016-08-29T14:21:51Z</time>
      </trkpt>
      <trkpt lat="46.20748" lon="-1.36467">
        <ele>14.08</ele>
        <time>2016-08-29T14:22:10Z</time>
      </trkpt>
      <trkpt lat="46.20748" lon="-1.36466">
        <ele>14.08</ele>
        <time>2016-08-29T14:22:11Z</time>
      </trkpt>
      <trkpt lat="46.20748" lon="-1.36462">
        <ele>13.12</ele>
        <time>2016-08-29T14:22:21Z</time>
      </trkpt>
      <trkpt lat="46.20748" lon="-1.3646">
        <ele>13.12</ele>
        <time>2016-08-29T14:22:49Z</time>
      </trkpt>
      <trkpt lat="46.20747" lon="-1.36461">
        <ele>12.63</ele>
        <time>2016-08-29T14:22:57Z</time>
      </trkpt>
      <trkpt lat="46.20746" lon="-1.36459">
        <ele>13.12</ele>
        <time>2016-08-29T14:23:02Z</time>
      </trkpt>
      <trkpt lat="46.20743" lon="-1.36455">
        <ele>13.12</ele>
        <time>2016-08-29T14:23:12Z</time>
      </trkpt>
      <trkpt lat="46.20742" lon="-1.36454">
        <ele>13.6</ele>
        <time>2016-08-29T14:23:28Z</time>
      </trkpt>
      <trkpt lat="46.20738" lon="-1.3645">
        <ele>12.15</ele>
        <time>2016-08-29T14:23:34Z</time>
      </trkpt>
      <trkpt lat="46.20738" lon="-1.3645">
        <ele>13.12</ele>
        <time>2016-08-29T14:23:36Z</time>
      </trkpt>
      <trkpt lat="46.20737" lon="-1.3645">
        <ele>12.15</ele>
        <time>2016-08-29T14:23:45Z</time>
      </trkpt>
      <trkpt lat="46.20733" lon="-1.36446">
        <ele>11.67</ele>
        <time>2016-08-29T14:23:51Z</time>
      </trkpt>
      <trkpt lat="46.2073" lon="-1.36443">
        <ele>12.15</ele>
        <time>2016-08-29T14:23:54Z</time>
      </trkpt>
      <trkpt lat="46.20728" lon="-1.36441">
        <ele>12.15</ele>
        <time>2016-08-29T14:23:56Z</time>
      </trkpt>
      <trkpt lat="46.20722" lon="-1.36435">
        <ele>12.15</ele>
        <time>2016-08-29T14:24:02Z</time>
      </trkpt>
      <trkpt lat="46.20713" lon="-1.36427">
        <ele>11.67</ele>
        <time>2016-08-29T14:24:12Z</time>
      </trkpt>
      <trkpt lat="46.20707" lon="-1.36418">
        <ele>12.63</ele>
        <time>2016-08-29T14:24:25Z</time>
      </trkpt>
      <trkpt lat="46.20706" lon="-1.36419">
        <ele>12.15</ele>
        <time>2016-08-29T14:24:31Z</time>
      </trkpt>
      <trkpt lat="46.20702" lon="-1.36416">
        <ele>12.63</ele>
        <time>2016-08-29T14:24:40Z</time>
      </trkpt>
      <trkpt lat="46.207" lon="-1.36415">
        <ele>11.67</ele>
        <time>2016-08-29T14:24:42Z</time>
      </trkpt>
      <trkpt lat="46.20697" lon="-1.36411">
        <ele>12.63</ele>
        <time>2016-08-29T14:24:46Z</time>
      </trkpt>
      <trkpt lat="46.20694" lon="-1.36409">
        <ele>11.19</ele>
        <time>2016-08-29T14:24:49Z</time>
      </trkpt>
      <trkpt lat="46.2069" lon="-1.36404">
        <ele>11.67</ele>
        <time>2016-08-29T14:24:54Z</time>
      </trkpt>
      <trkpt lat="46.20688" lon="-1.36403">
        <ele>11.19</ele>
        <time>2016-08-29T14:24:56Z</time>
      </trkpt>
      <trkpt lat="46.20681" lon="-1.36396">
        <ele>12.15</ele>
        <time>2016-08-29T14:25:02Z</time>
      </trkpt>
      <trkpt lat="46.20665" lon="-1.36391">
        <ele>12.15</ele>
        <time>2016-08-29T14:25:14Z</time>
      </trkpt>
      <trkpt lat="46.20659" lon="-1.36388">
        <ele>11.67</ele>
        <time>2016-08-29T14:25:19Z</time>
      </trkpt>
      <trkpt lat="46.20656" lon="-1.36386">
        <ele>10.23</ele>
        <time>2016-08-29T14:25:29Z</time>
      </trkpt>
      <trkpt lat="46.20655" lon="-1.36387">
        <ele>10.23</ele>
        <time>2016-08-29T14:25:46Z</time>
      </trkpt>
      <trkpt lat="46.20655" lon="-1.36388">
        <ele>10.71</ele>
        <time>2016-08-29T14:26:06Z</time>
      </trkpt>
      <trkpt lat="46.20655" lon="-1.36389">
        <ele>10.71</ele>
        <time>2016-08-29T14:26:30Z</time>
      </trkpt>
      <trkpt lat="46.20654" lon="-1.36389">
        <ele>9.75</ele>
        <time>2016-08-29T14:26:56Z</time>
      </trkpt>
      <trkpt lat="46.20653" lon="-1.3639">
        <ele>10.23</ele>
        <time>2016-08-29T14:27:26Z</time>
      </trkpt>
      <trkpt lat="46.20654" lon="-1.36389">
        <ele>14.08</ele>
        <time>2016-08-29T14:27:44Z</time>
      </trkpt>
      <trkpt lat="46.20653" lon="-1.36389">
        <ele>10.23</ele>
        <time>2016-08-29T14:27:45Z</time>
      </trkpt>
      <trkpt lat="46.20648" lon="-1.36376">
        <ele>10.23</ele>
        <time>2016-08-29T14:27:56Z</time>
      </trkpt>
      <trkpt lat="46.20642" lon="-1.36361">
        <ele>11.67</ele>
        <time>2016-08-29T14:28:07Z</time>
      </trkpt>
      <trkpt lat="46.20642" lon="-1.36356">
        <ele>11.67</ele>
        <time>2016-08-29T14:28:17Z</time>
      </trkpt>
      <trkpt lat="46.20642" lon="-1.36356">
        <ele>12.15</ele>
        <time>2016-08-29T14:28:21Z</time>
      </trkpt>
      <trkpt lat="46.20641" lon="-1.36347">
        <ele>12.15</ele>
        <time>2016-08-29T14:28:30Z</time>
      </trkpt>
      <trkpt lat="46.2064" lon="-1.36346">
        <ele>11.19</ele>
        <time>2016-08-29T14:28:43Z</time>
      </trkpt>
      <trkpt lat="46.2064" lon="-1.36339">
        <ele>11.67</ele>
        <time>2016-08-29T14:28:53Z</time>
      </trkpt>
      <trkpt lat="46.2064" lon="-1.36339">
        <ele>11.19</ele>
        <time>2016-08-29T14:29:06Z</time>
      </trkpt>
      <trkpt lat="46.2064" lon="-1.36332">
        <ele>11.67</ele>
        <time>2016-08-29T14:29:11Z</time>
      </trkpt>
      <trkpt lat="46.20639" lon="-1.36309">
        <ele>11.67</ele>
        <time>2016-08-29T14:29:23Z</time>
      </trkpt>
      <trkpt lat="46.20639" lon="-1.3629">
        <ele>11.67</ele>
        <time>2016-08-29T14:29:33Z</time>
      </trkpt>
      <trkpt lat="46.20637" lon="-1.36271">
        <ele>11.19</ele>
        <time>2016-08-29T14:29:45Z</time>
      </trkpt>
      <trkpt lat="46.20635" lon="-1.36249">
        <ele>11.19</ele>
        <time>2016-08-29T14:29:58Z</time>
      </trkpt>
      <trkpt lat="46.20635" lon="-1.36232">
        <ele>11.67</ele>
        <time>2016-08-29T14:30:08Z</time>
      </trkpt>
      <trkpt lat="46.20635" lon="-1.36229">
        <ele>12.15</ele>
        <time>2016-08-29T14:30:11Z</time>
      </trkpt>
      <trkpt lat="46.20634" lon="-1.3621">
        <ele>11.19</ele>
        <time>2016-08-29T14:30:23Z</time>
      </trkpt>
      <trkpt lat="46.20634" lon="-1.36191">
        <ele>11.67</ele>
        <time>2016-08-29T14:30:33Z</time>
      </trkpt>
      <trkpt lat="46.20635" lon="-1.36186">
        <ele>11.67</ele>
        <time>2016-08-29T14:30:36Z</time>
      </trkpt>
      <trkpt lat="46.20633" lon="-1.36167">
        <ele>12.15</ele>
        <time>2016-08-29T14:30:47Z</time>
      </trkpt>
      <trkpt lat="46.20632" lon="-1.36152">
        <ele>11.19</ele>
        <time>2016-08-29T14:30:55Z</time>
      </trkpt>
      <trkpt lat="46.20631" lon="-1.36131">
        <ele>11.67</ele>
        <time>2016-08-29T14:31:05Z</time>
      </trkpt>
      <trkpt lat="46.20632" lon="-1.36113">
        <ele>11.67</ele>
        <time>2016-08-29T14:31:16Z</time>
      </trkpt>
      <trkpt lat="46.20632" lon="-1.36094">
        <ele>12.15</ele>
        <time>2016-08-29T14:31:29Z</time>
      </trkpt>
      <trkpt lat="46.20633" lon="-1.36088">
        <ele>13.12</ele>
        <time>2016-08-29T14:31:42Z</time>
      </trkpt>
      <trkpt lat="46.20632" lon="-1.36085">
        <ele>12.15</ele>
        <time>2016-08-29T14:31:54Z</time>
      </trkpt>
      <trkpt lat="46.20622" lon="-1.36077">
        <ele>10.23</ele>
        <time>2016-08-29T14:32:05Z</time>
      </trkpt>
      <trkpt lat="46.20622" lon="-1.36072">
        <ele>11.19</ele>
        <time>2016-08-29T14:32:15Z</time>
      </trkpt>
      <trkpt lat="46.20622" lon="-1.36072">
        <ele>10.71</ele>
        <time>2016-08-29T14:32:26Z</time>
      </trkpt>
      <trkpt lat="46.20621" lon="-1.36069">
        <ele>11.19</ele>
        <time>2016-08-29T14:32:29Z</time>
      </trkpt>
      <trkpt lat="46.20621" lon="-1.36064">
        <ele>10.71</ele>
        <time>2016-08-29T14:32:32Z</time>
      </trkpt>
      <trkpt lat="46.20621" lon="-1.36046">
        <ele>10.71</ele>
        <time>2016-08-29T14:32:43Z</time>
      </trkpt>
      <trkpt lat="46.20621" lon="-1.36026">
        <ele>10.71</ele>
        <time>2016-08-29T14:32:55Z</time>
      </trkpt>
      <trkpt lat="46.20623" lon="-1.36017">
        <ele>11.19</ele>
        <time>2016-08-29T14:33:01Z</time>
      </trkpt>
      <trkpt lat="46.20619" lon="-1.35999">
        <ele>11.19</ele>
        <time>2016-08-29T14:33:13Z</time>
      </trkpt>
      <trkpt lat="46.20618" lon="-1.35983">
        <ele>11.67</ele>
        <time>2016-08-29T14:33:23Z</time>
      </trkpt>
      <trkpt lat="46.20615" lon="-1.35973">
        <ele>11.67</ele>
        <time>2016-08-29T14:33:30Z</time>
      </trkpt>
      <trkpt lat="46.20612" lon="-1.35959">
        <ele>11.19</ele>
        <time>2016-08-29T14:33:41Z</time>
      </trkpt>
      <trkpt lat="46.2061" lon="-1.35955">
        <ele>11.19</ele>
        <time>2016-08-29T14:33:44Z</time>
      </trkpt>
      <trkpt lat="46.20607" lon="-1.35941">
        <ele>12.15</ele>
        <time>2016-08-29T14:33:54Z</time>
      </trkpt>
      <trkpt lat="46.20604" lon="-1.35927">
        <ele>12.63</ele>
        <time>2016-08-29T14:34:03Z</time>
      </trkpt>
      <trkpt lat="46.20605" lon="-1.35911">
        <ele>12.63</ele>
        <time>2016-08-29T14:34:13Z</time>
      </trkpt>
      <trkpt lat="46.20606" lon="-1.35898">
        <ele>11.67</ele>
        <time>2016-08-29T14:34:22Z</time>
      </trkpt>
      <trkpt lat="46.20606" lon="-1.35896">
        <ele>12.63</ele>
        <time>2016-08-29T14:34:37Z</time>
      </trkpt>
      <trkpt lat="46.20606" lon="-1.35896">
        <ele>12.15</ele>
        <time>2016-08-29T14:35:01Z</time>
      </trkpt>
      <trkpt lat="46.20606" lon="-1.35896">
        <ele>12.15</ele>
        <time>2016-08-29T14:35:03Z</time>
      </trkpt>
      <trkpt lat="46.20595" lon="-1.3589">
        <ele>11.19</ele>
        <time>2016-08-29T14:35:15Z</time>
      </trkpt>
      <trkpt lat="46.20594" lon="-1.35881">
        <ele>11.67</ele>
        <time>2016-08-29T14:35:24Z</time>
      </trkpt>
      <trkpt lat="46.20594" lon="-1.35879">
        <ele>12.63</ele>
        <time>2016-08-29T14:35:35Z</time>
      </trkpt>
      <trkpt lat="46.20595" lon="-1.35877">
        <ele>11.67</ele>
        <time>2016-08-29T14:35:49Z</time>
      </trkpt>
      <trkpt lat="46.20594" lon="-1.35876">
        <ele>11.67</ele>
        <time>2016-08-29T14:35:59Z</time>
      </trkpt>
      <trkpt lat="46.20592" lon="-1.35867">
        <ele>10.71</ele>
        <time>2016-08-29T14:36:07Z</time>
      </trkpt>
      <trkpt lat="46.20591" lon="-1.35852">
        <ele>11.67</ele>
        <time>2016-08-29T14:36:18Z</time>
      </trkpt>
      <trkpt lat="46.20592" lon="-1.35848">
        <ele>10.71</ele>
        <time>2016-08-29T14:36:30Z</time>
      </trkpt>
      <trkpt lat="46.20592" lon="-1.35844">
        <ele>11.67</ele>
        <time>2016-08-29T14:36:34Z</time>
      </trkpt>
      <trkpt lat="46.20592" lon="-1.35835">
        <ele>11.67</ele>
        <time>2016-08-29T14:36:39Z</time>
      </trkpt>
      <trkpt lat="46.20593" lon="-1.3583">
        <ele>12.15</ele>
        <time>2016-08-29T14:36:46Z</time>
      </trkpt>
      <trkpt lat="46.20593" lon="-1.35824">
        <ele>11.19</ele>
        <time>2016-08-29T14:36:50Z</time>
      </trkpt>
      <trkpt lat="46.20594" lon="-1.35806">
        <ele>10.71</ele>
        <time>2016-08-29T14:37:01Z</time>
      </trkpt>
      <trkpt lat="46.20595" lon="-1.35792">
        <ele>10.71</ele>
        <time>2016-08-29T14:37:11Z</time>
      </trkpt>
      <trkpt lat="46.20597" lon="-1.35778">
        <ele>10.71</ele>
        <time>2016-08-29T14:37:19Z</time>
      </trkpt>
      <trkpt lat="46.206" lon="-1.35772">
        <ele>11.19</ele>
        <time>2016-08-29T14:37:31Z</time>
      </trkpt>
      <trkpt lat="46.206" lon="-1.35772">
        <ele>11.67</ele>
        <time>2016-08-29T14:37:39Z</time>
      </trkpt>
      <trkpt lat="46.20601" lon="-1.35768">
        <ele>11.19</ele>
        <time>2016-08-29T14:37:42Z</time>
      </trkpt>
      <trkpt lat="46.20602" lon="-1.35763">
        <ele>10.71</ele>
        <time>2016-08-29T14:37:45Z</time>
      </trkpt>
      <trkpt lat="46.20603" lon="-1.35743">
        <ele>10.71</ele>
        <time>2016-08-29T14:37:56Z</time>
      </trkpt>
      <trkpt lat="46.20604" lon="-1.35726">
        <ele>10.71</ele>
        <time>2016-08-29T14:38:05Z</time>
      </trkpt>
      <trkpt lat="46.20605" lon="-1.3571">
        <ele>11.19</ele>
        <time>2016-08-29T14:38:14Z</time>
      </trkpt>
      <trkpt lat="46.20604" lon="-1.35688">
        <ele>10.23</ele>
        <time>2016-08-29T14:38:26Z</time>
      </trkpt>
      <trkpt lat="46.20602" lon="-1.35672">
        <ele>10.71</ele>
        <time>2016-08-29T14:38:36Z</time>
      </trkpt>
      <trkpt lat="46.20599" lon="-1.35657">
        <ele>11.19</ele>
        <time>2016-08-29T14:38:46Z</time>
      </trkpt>
      <trkpt lat="46.20598" lon="-1.35639">
        <ele>11.19</ele>
        <time>2016-08-29T14:38:57Z</time>
      </trkpt>
      <trkpt lat="46.20597" lon="-1.35626">
        <ele>12.15</ele>
        <time>2016-08-29T14:39:06Z</time>
      </trkpt>
      <trkpt lat="46.20593" lon="-1.35608">
        <ele>12.15</ele>
        <time>2016-08-29T14:39:16Z</time>
      </trkpt>
      <trkpt lat="46.20586" lon="-1.35587">
        <ele>12.63</ele>
        <time>2016-08-29T14:39:28Z</time>
      </trkpt>
      <trkpt lat="46.20576" lon="-1.35573">
        <ele>13.6</ele>
        <time>2016-08-29T14:39:40Z</time>
      </trkpt>
      <trkpt lat="46.20568" lon="-1.35557">
        <ele>13.12</ele>
        <time>2016-08-29T14:39:54Z</time>
      </trkpt>
      <trkpt lat="46.20559" lon="-1.35542">
        <ele>11.19</ele>
        <time>2016-08-29T14:40:07Z</time>
      </trkpt>
      <trkpt lat="46.20554" lon="-1.35527">
        <ele>12.15</ele>
        <time>2016-08-29T14:40:20Z</time>
      </trkpt>
      <trkpt lat="46.20555" lon="-1.35527">
        <ele>12.15</ele>
        <time>2016-08-29T14:40:36Z</time>
      </trkpt>
      <trkpt lat="46.20555" lon="-1.35527">
        <ele>11.67</ele>
        <time>2016-08-29T14:40:56Z</time>
      </trkpt>
      <trkpt lat="46.20555" lon="-1.35528">
        <ele>12.15</ele>
        <time>2016-08-29T14:41:05Z</time>
      </trkpt>
      <trkpt lat="46.20555" lon="-1.35529">
        <ele>12.15</ele>
        <time>2016-08-29T14:41:24Z</time>
      </trkpt>
      <trkpt lat="46.20555" lon="-1.35528">
        <ele>9.75</ele>
        <time>2016-08-29T14:41:36Z</time>
      </trkpt>
      <trkpt lat="46.20554" lon="-1.35528">
        <ele>13.12</ele>
        <time>2016-08-29T14:41:51Z</time>
      </trkpt>
      <trkpt lat="46.20554" lon="-1.35528">
        <ele>8.31</ele>
        <time>2016-08-29T14:41:53Z</time>
      </trkpt>
      <trkpt lat="46.20554" lon="-1.35528">
        <ele>12.15</ele>
        <time>2016-08-29T14:41:54Z</time>
      </trkpt>
      <trkpt lat="46.20554" lon="-1.35528">
        <ele>7.35</ele>
        <time>2016-08-29T14:41:56Z</time>
      </trkpt>
      <trkpt lat="46.20554" lon="-1.35528">
        <ele>12.63</ele>
        <time>2016-08-29T14:41:57Z</time>
      </trkpt>
      <trkpt lat="46.20554" lon="-1.35528">
        <ele>8.79</ele>
        <time>2016-08-29T14:41:59Z</time>
      </trkpt>
      <trkpt lat="46.20554" lon="-1.35528">
        <ele>12.15</ele>
        <time>2016-08-29T14:42:00Z</time>
      </trkpt>
      <trkpt lat="46.20554" lon="-1.35528">
        <ele>7.83</ele>
        <time>2016-08-29T14:42:01Z</time>
      </trkpt>
      <trkpt lat="46.20554" lon="-1.35528">
        <ele>11.67</ele>
        <time>2016-08-29T14:42:02Z</time>
      </trkpt>
      <trkpt lat="46.20554" lon="-1.35528">
        <ele>5.91</ele>
        <time>2016-08-29T14:42:04Z</time>
      </trkpt>
      <trkpt lat="46.20554" lon="-1.35528">
        <ele>15.52</ele>
        <time>2016-08-29T14:42:05Z</time>
      </trkpt>
      <trkpt lat="46.20554" lon="-1.35528">
        <ele>11.67</ele>
        <time>2016-08-29T14:42:07Z</time>
      </trkpt>
      <trkpt lat="46.20554" lon="-1.35528">
        <ele>12.15</ele>
        <time>2016-08-29T14:42:08Z</time>
      </trkpt>
      <trkpt lat="46.20555" lon="-1.35528">
        <ele>-4.19</ele>
        <time>2016-08-29T14:42:12Z</time>
      </trkpt>
      <trkpt lat="46.20555" lon="-1.35528">
        <ele>13.6</ele>
        <time>2016-08-29T14:42:13Z</time>
      </trkpt>
      <trkpt lat="46.20555" lon="-1.35528">
        <ele>-1.3</ele>
        <time>2016-08-29T14:42:14Z</time>
      </trkpt>
      <trkpt lat="46.20555" lon="-1.35528">
        <ele>14.56</ele>
        <time>2016-08-29T14:42:15Z</time>
      </trkpt>
      <trkpt lat="46.20555" lon="-1.35528">
        <ele>32.34</ele>
        <time>2016-08-29T14:42:16Z</time>
      </trkpt>
      <trkpt lat="46.20555" lon="-1.35527">
        <ele>29.94</ele>
        <time>2016-08-29T14:42:17Z</time>
      </trkpt>
      <trkpt lat="46.20555" lon="-1.35527">
        <ele>12.15</ele>
        <time>2016-08-29T14:42:18Z</time>
      </trkpt>
      <trkpt lat="46.20555" lon="-1.35527">
        <ele>32.34</ele>
        <time>2016-08-29T14:42:19Z</time>
      </trkpt>
      <trkpt lat="46.20555" lon="-1.35527">
        <ele>12.15</ele>
        <time>2016-08-29T14:42:20Z</time>
      </trkpt>
      <trkpt lat="46.20555" lon="-1.35527">
        <ele>11.67</ele>
        <time>2016-08-29T14:42:22Z</time>
      </trkpt>
      <trkpt lat="46.20555" lon="-1.35527">
        <ele>7.83</ele>
        <time>2016-08-29T14:42:29Z</time>
      </trkpt>
      <trkpt lat="46.20555" lon="-1.35528">
        <ele>9.27</ele>
        <time>2016-08-29T14:42:30Z</time>
      </trkpt>
      <trkpt lat="46.20555" lon="-1.35528">
        <ele>38.59</ele>
        <time>2016-08-29T14:42:31Z</time>
      </trkpt>
      <trkpt lat="46.20555" lon="-1.35528">
        <ele>11.67</ele>
        <time>2016-08-29T14:42:32Z</time>
      </trkpt>
      <trkpt lat="46.20555" lon="-1.35528">
        <ele>26.57</ele>
        <time>2016-08-29T14:42:43Z</time>
      </trkpt>
      <trkpt lat="46.20555" lon="-1.35527">
        <ele>2.06</ele>
        <time>2016-08-29T14:42:44Z</time>
      </trkpt>
      <trkpt lat="46.20555" lon="-1.35527">
        <ele>14.56</ele>
        <time>2016-08-29T14:42:45Z</time>
      </trkpt>
      <trkpt lat="46.20555" lon="-1.35527">
        <ele>11.19</ele>
        <time>2016-08-29T14:42:51Z</time>
      </trkpt>
      <trkpt lat="46.20555" lon="-1.35527">
        <ele>6.39</ele>
        <time>2016-08-29T14:42:55Z</time>
      </trkpt>
      <trkpt lat="46.20555" lon="-1.35527">
        <ele>17.92</ele>
        <time>2016-08-29T14:42:56Z</time>
      </trkpt>
      <trkpt lat="46.20555" lon="-1.35527">
        <ele>17.92</ele>
        <time>2016-08-29T14:42:57Z</time>
      </trkpt>
      <trkpt lat="46.20555" lon="-1.35527">
        <ele>12.15</ele>
        <time>2016-08-29T14:42:58Z</time>
      </trkpt>
      <trkpt lat="46.20555" lon="-1.35528">
        <ele>21.77</ele>
        <time>2016-08-29T14:43:00Z</time>
      </trkpt>
      <trkpt lat="46.20555" lon="-1.35528">
        <ele>10.23</ele>
        <time>2016-08-29T14:43:01Z</time>
      </trkpt>
      <trkpt lat="46.20555" lon="-1.35528">
        <ele>6.87</ele>
        <time>2016-08-29T14:43:02Z</time>
      </trkpt>
      <trkpt lat="46.20555" lon="-1.35528">
        <ele>15.52</ele>
        <time>2016-08-29T14:43:03Z</time>
      </trkpt>
      <trkpt lat="46.20555" lon="-1.35528">
        <ele>12.15</ele>
        <time>2016-08-29T14:43:04Z</time>
      </trkpt>
      <trkpt lat="46.20555" lon="-1.35527">
        <ele>-9.96</ele>
        <time>2016-08-29T14:43:30Z</time>
      </trkpt>
      <trkpt lat="46.20555" lon="-1.35527">
        <ele>17.44</ele>
        <time>2016-08-29T14:43:31Z</time>
      </trkpt>
      <trkpt lat="46.20555" lon="-1.35527">
        <ele>11.19</ele>
        <time>2016-08-29T14:43:32Z</time>
      </trkpt>
      <trkpt lat="46.20555" lon="-1.35527">
        <ele>6.87</ele>
        <time>2016-08-29T14:43:37Z</time>
      </trkpt>
      <trkpt lat="46.20555" lon="-1.35527">
        <ele>12.63</ele>
        <time>2016-08-29T14:43:38Z</time>
      </trkpt>
      <trkpt lat="46.20555" lon="-1.35527">
        <ele>-5.63</ele>
        <time>2016-08-29T14:43:48Z</time>
      </trkpt>
      <trkpt lat="46.20555" lon="-1.35527">
        <ele>13.6</ele>
        <time>2016-08-29T14:43:49Z</time>
      </trkpt>
      <trkpt lat="46.20555" lon="-1.35527">
        <ele>19.36</ele>
        <time>2016-08-29T14:43:53Z</time>
      </trkpt>
      <trkpt lat="46.20555" lon="-1.35527">
        <ele>13.12</ele>
        <time>2016-08-29T14:43:54Z</time>
      </trkpt>
      <trkpt lat="46.20555" lon="-1.35527">
        <ele>-11.88</ele>
        <time>2016-08-29T14:43:56Z</time>
      </trkpt>
      <trkpt lat="46.20555" lon="-1.35527">
        <ele>11.67</ele>
        <time>2016-08-29T14:43:57Z</time>
      </trkpt>
      <trkpt lat="46.20555" lon="-1.35527">
        <ele>-6.59</ele>
        <time>2016-08-29T14:43:59Z</time>
      </trkpt>
      <trkpt lat="46.20555" lon="-1.35527">
        <ele>-3.23</ele>
        <time>2016-08-29T14:44:00Z</time>
      </trkpt>
      <trkpt lat="46.20555" lon="-1.35527">
        <ele>-10.92</ele>
        <time>2016-08-29T14:44:01Z</time>
      </trkpt>
      <trkpt lat="46.20555" lon="-1.35527">
        <ele>14.08</ele>
        <time>2016-08-29T14:44:02Z</time>
      </trkpt>
      <trkpt lat="46.20555" lon="-1.35527">
        <ele>10.71</ele>
        <time>2016-08-29T14:44:03Z</time>
      </trkpt>
      <trkpt lat="46.20555" lon="-1.35527">
        <ele>8.79</ele>
        <time>2016-08-29T14:44:16Z</time>
      </trkpt>
      <trkpt lat="46.20555" lon="-1.35527">
        <ele>12.63</ele>
        <time>2016-08-29T14:44:23Z</time>
      </trkpt>
      <trkpt lat="46.20555" lon="-1.35527">
        <ele>12.63</ele>
        <time>2016-08-29T14:44:40Z</time>
      </trkpt>
      <trkpt lat="46.20555" lon="-1.35532">
        <ele>12.15</ele>
        <time>2016-08-29T14:44:47Z</time>
      </trkpt>
      <trkpt lat="46.20557" lon="-1.35538">
        <ele>12.63</ele>
        <time>2016-08-29T14:44:51Z</time>
      </trkpt>
      <trkpt lat="46.20563" lon="-1.35547">
        <ele>12.63</ele>
        <time>2016-08-29T14:44:58Z</time>
      </trkpt>
      <trkpt lat="46.20569" lon="-1.35563">
        <ele>14.08</ele>
        <time>2016-08-29T14:45:10Z</time>
      </trkpt>
      <trkpt lat="46.20575" lon="-1.35576">
        <ele>14.56</ele>
        <time>2016-08-29T14:45:19Z</time>
      </trkpt>
      <trkpt lat="46.20578" lon="-1.3558">
        <ele>13.12</ele>
        <time>2016-08-29T14:45:22Z</time>
      </trkpt>
      <trkpt lat="46.20585" lon="-1.35599">
        <ele>12.15</ele>
        <time>2016-08-29T14:45:33Z</time>
      </trkpt>
      <trkpt lat="46.2059" lon="-1.3562">
        <ele>12.15</ele>
        <time>2016-08-29T14:45:45Z</time>
      </trkpt>
      <trkpt lat="46.20591" lon="-1.35622">
        <ele>12.63</ele>
        <time>2016-08-29T14:45:46Z</time>
      </trkpt>
      <trkpt lat="46.20595" lon="-1.35645">
        <ele>11.19</ele>
        <time>2016-08-29T14:45:58Z</time>
      </trkpt>
      <trkpt lat="46.20597" lon="-1.35655">
        <ele>11.19</ele>
        <time>2016-08-29T14:46:03Z</time>
      </trkpt>
      <trkpt lat="46.206" lon="-1.35664">
        <ele>11.19</ele>
        <time>2016-08-29T14:46:13Z</time>
      </trkpt>
      <trkpt lat="46.20601" lon="-1.35664">
        <ele>11.19</ele>
        <time>2016-08-29T14:46:21Z</time>
      </trkpt>
      <trkpt lat="46.206" lon="-1.35673">
        <ele>11.67</ele>
        <time>2016-08-29T14:46:26Z</time>
      </trkpt>
      <trkpt lat="46.20601" lon="-1.35678">
        <ele>11.67</ele>
        <time>2016-08-29T14:46:33Z</time>
      </trkpt>
      <trkpt lat="46.20602" lon="-1.35681">
        <ele>11.67</ele>
        <time>2016-08-29T14:46:42Z</time>
      </trkpt>
      <trkpt lat="46.20602" lon="-1.35686">
        <ele>11.19</ele>
        <time>2016-08-29T14:46:50Z</time>
      </trkpt>
      <trkpt lat="46.20602" lon="-1.35688">
        <ele>11.19</ele>
        <time>2016-08-29T14:46:55Z</time>
      </trkpt>
      <trkpt lat="46.20603" lon="-1.35708">
        <ele>11.67</ele>
        <time>2016-08-29T14:47:06Z</time>
      </trkpt>
      <trkpt lat="46.206" lon="-1.35728">
        <ele>11.67</ele>
        <time>2016-08-29T14:47:17Z</time>
      </trkpt>
      <trkpt lat="46.20598" lon="-1.35748">
        <ele>11.19</ele>
        <time>2016-08-29T14:47:27Z</time>
      </trkpt>
      <trkpt lat="46.20597" lon="-1.35762">
        <ele>12.15</ele>
        <time>2016-08-29T14:47:34Z</time>
      </trkpt>
      <trkpt lat="46.20597" lon="-1.35763">
        <ele>11.67</ele>
        <time>2016-08-29T14:47:35Z</time>
      </trkpt>
      <trkpt lat="46.20592" lon="-1.35785">
        <ele>10.71</ele>
        <time>2016-08-29T14:47:47Z</time>
      </trkpt>
      <trkpt lat="46.2059" lon="-1.35798">
        <ele>11.19</ele>
        <time>2016-08-29T14:47:54Z</time>
      </trkpt>
      <trkpt lat="46.20586" lon="-1.35816">
        <ele>11.67</ele>
        <time>2016-08-29T14:48:04Z</time>
      </trkpt>
      <trkpt lat="46.20584" lon="-1.35838">
        <ele>11.67</ele>
        <time>2016-08-29T14:48:17Z</time>
      </trkpt>
      <trkpt lat="46.20583" lon="-1.35858">
        <ele>11.19</ele>
        <time>2016-08-29T14:48:28Z</time>
      </trkpt>
      <trkpt lat="46.20585" lon="-1.35881">
        <ele>11.67</ele>
        <time>2016-08-29T14:48:40Z</time>
      </trkpt>
      <trkpt lat="46.2059" lon="-1.35902">
        <ele>12.15</ele>
        <time>2016-08-29T14:48:52Z</time>
      </trkpt>
      <trkpt lat="46.20593" lon="-1.35916">
        <ele>12.15</ele>
        <time>2016-08-29T14:49:00Z</time>
      </trkpt>
      <trkpt lat="46.20595" lon="-1.35925">
        <ele>11.67</ele>
        <time>2016-08-29T14:49:06Z</time>
      </trkpt>
      <trkpt lat="46.20597" lon="-1.3593">
        <ele>12.15</ele>
        <time>2016-08-29T14:49:10Z</time>
      </trkpt>
      <trkpt lat="46.20602" lon="-1.35941">
        <ele>11.19</ele>
        <time>2016-08-29T14:49:17Z</time>
      </trkpt>
      <trkpt lat="46.20606" lon="-1.35946">
        <ele>11.67</ele>
        <time>2016-08-29T14:49:22Z</time>
      </trkpt>
      <trkpt lat="46.20611" lon="-1.35963">
        <ele>10.71</ele>
        <time>2016-08-29T14:49:32Z</time>
      </trkpt>
      <trkpt lat="46.20612" lon="-1.3598">
        <ele>10.23</ele>
        <time>2016-08-29T14:49:42Z</time>
      </trkpt>
      <trkpt lat="46.20615" lon="-1.35989">
        <ele>11.67</ele>
        <time>2016-08-29T14:49:47Z</time>
      </trkpt>
      <trkpt lat="46.20618" lon="-1.36001">
        <ele>11.19</ele>
        <time>2016-08-29T14:49:54Z</time>
      </trkpt>
      <trkpt lat="46.2062" lon="-1.36007">
        <ele>10.23</ele>
        <time>2016-08-29T14:49:58Z</time>
      </trkpt>
      <trkpt lat="46.20621" lon="-1.36028">
        <ele>10.23</ele>
        <time>2016-08-29T14:50:09Z</time>
      </trkpt>
      <trkpt lat="46.2062" lon="-1.36045">
        <ele>10.23</ele>
        <time>2016-08-29T14:50:19Z</time>
      </trkpt>
      <trkpt lat="46.2062" lon="-1.36054">
        <ele>10.23</ele>
        <time>2016-08-29T14:50:24Z</time>
      </trkpt>
      <trkpt lat="46.20622" lon="-1.36075">
        <ele>10.71</ele>
        <time>2016-08-29T14:50:37Z</time>
      </trkpt>
      <trkpt lat="46.20624" lon="-1.36083">
        <ele>13.12</ele>
        <time>2016-08-29T14:50:44Z</time>
      </trkpt>
      <trkpt lat="46.20622" lon="-1.36106">
        <ele>11.19</ele>
        <time>2016-08-29T14:50:57Z</time>
      </trkpt>
      <trkpt lat="46.20622" lon="-1.36112">
        <ele>10.23</ele>
        <time>2016-08-29T14:51:00Z</time>
      </trkpt>
      <trkpt lat="46.2062" lon="-1.36122">
        <ele>9.75</ele>
        <time>2016-08-29T14:51:05Z</time>
      </trkpt>
      <trkpt lat="46.20618" lon="-1.36128">
        <ele>10.23</ele>
        <time>2016-08-29T14:51:08Z</time>
      </trkpt>
      <trkpt lat="46.20617" lon="-1.36134">
        <ele>9.75</ele>
        <time>2016-08-29T14:51:12Z</time>
      </trkpt>
      <trkpt lat="46.20614" lon="-1.36152">
        <ele>9.27</ele>
        <time>2016-08-29T14:51:22Z</time>
      </trkpt>
      <trkpt lat="46.20614" lon="-1.36153">
        <ele>9.75</ele>
        <time>2016-08-29T14:51:23Z</time>
      </trkpt>
      <trkpt lat="46.2061" lon="-1.36173">
        <ele>9.75</ele>
        <time>2016-08-29T14:51:34Z</time>
      </trkpt>
      <trkpt lat="46.20606" lon="-1.36191">
        <ele>8.79</ele>
        <time>2016-08-29T14:51:45Z</time>
      </trkpt>
      <trkpt lat="46.20605" lon="-1.36195">
        <ele>9.75</ele>
        <time>2016-08-29T14:51:47Z</time>
      </trkpt>
      <trkpt lat="46.20604" lon="-1.36202">
        <ele>9.75</ele>
        <time>2016-08-29T14:51:51Z</time>
      </trkpt>
      <trkpt lat="46.20599" lon="-1.36221">
        <ele>9.27</ele>
        <time>2016-08-29T14:52:02Z</time>
      </trkpt>
      <trkpt lat="46.20596" lon="-1.36243">
        <ele>8.79</ele>
        <time>2016-08-29T14:52:13Z</time>
      </trkpt>
      <trkpt lat="46.20593" lon="-1.36257">
        <ele>9.27</ele>
        <time>2016-08-29T14:52:21Z</time>
      </trkpt>
      <trkpt lat="46.20592" lon="-1.36271">
        <ele>8.31</ele>
        <time>2016-08-29T14:52:28Z</time>
      </trkpt>
      <trkpt lat="46.20591" lon="-1.36275">
        <ele>9.27</ele>
        <time>2016-08-29T14:52:30Z</time>
      </trkpt>
      <trkpt lat="46.20591" lon="-1.36284">
        <ele>8.31</ele>
        <time>2016-08-29T14:52:35Z</time>
      </trkpt>
      <trkpt lat="46.2059" lon="-1.36288">
        <ele>8.79</ele>
        <time>2016-08-29T14:52:37Z</time>
      </trkpt>
      <trkpt lat="46.20589" lon="-1.36313">
        <ele>8.79</ele>
        <time>2016-08-29T14:52:51Z</time>
      </trkpt>
      <trkpt lat="46.20584" lon="-1.36332">
        <ele>8.31</ele>
        <time>2016-08-29T14:53:03Z</time>
      </trkpt>
      <trkpt lat="46.20577" lon="-1.36343">
        <ele>8.31</ele>
        <time>2016-08-29T14:53:13Z</time>
      </trkpt>
      <trkpt lat="46.20574" lon="-1.36361">
        <ele>8.79</ele>
        <time>2016-08-29T14:53:23Z</time>
      </trkpt>
      <trkpt lat="46.20571" lon="-1.36382">
        <ele>8.31</ele>
        <time>2016-08-29T14:53:34Z</time>
      </trkpt>
      <trkpt lat="46.2057" lon="-1.36403">
        <ele>8.31</ele>
        <time>2016-08-29T14:53:46Z</time>
      </trkpt>
      <trkpt lat="46.20568" lon="-1.36413">
        <ele>8.79</ele>
        <time>2016-08-29T14:53:52Z</time>
      </trkpt>
      <trkpt lat="46.20569" lon="-1.36425">
        <ele>8.79</ele>
        <time>2016-08-29T14:53:58Z</time>
      </trkpt>
      <trkpt lat="46.20568" lon="-1.36438">
        <ele>7.83</ele>
        <time>2016-08-29T14:54:05Z</time>
      </trkpt>
      <trkpt lat="46.20567" lon="-1.36459">
        <ele>9.27</ele>
        <time>2016-08-29T14:54:17Z</time>
      </trkpt>
      <trkpt lat="46.20567" lon="-1.36462">
        <ele>8.79</ele>
        <time>2016-08-29T14:54:19Z</time>
      </trkpt>
      <trkpt lat="46.20565" lon="-1.36468">
        <ele>8.79</ele>
        <time>2016-08-29T14:54:23Z</time>
      </trkpt>
      <trkpt lat="46.20562" lon="-1.36481">
        <ele>9.27</ele>
        <time>2016-08-29T14:54:31Z</time>
      </trkpt>
      <trkpt lat="46.20563" lon="-1.36494">
        <ele>7.83</ele>
        <time>2016-08-29T14:54:38Z</time>
      </trkpt>
      <trkpt lat="46.20562" lon="-1.36495">
        <ele>7.83</ele>
        <time>2016-08-29T14:54:39Z</time>
      </trkpt>
      <trkpt lat="46.20558" lon="-1.3651">
        <ele>9.27</ele>
        <time>2016-08-29T14:54:48Z</time>
      </trkpt>
      <trkpt lat="46.20558" lon="-1.36516">
        <ele>9.27</ele>
        <time>2016-08-29T14:54:51Z</time>
      </trkpt>
      <trkpt lat="46.20556" lon="-1.36524">
        <ele>7.83</ele>
        <time>2016-08-29T14:54:56Z</time>
      </trkpt>
      <trkpt lat="46.20555" lon="-1.36539">
        <ele>7.35</ele>
        <time>2016-08-29T14:55:05Z</time>
      </trkpt>
      <trkpt lat="46.20555" lon="-1.36555">
        <ele>7.35</ele>
        <time>2016-08-29T14:55:14Z</time>
      </trkpt>
      <trkpt lat="46.20555" lon="-1.36558">
        <ele>7.83</ele>
        <time>2016-08-29T14:55:16Z</time>
      </trkpt>
      <trkpt lat="46.20555" lon="-1.36574">
        <ele>7.35</ele>
        <time>2016-08-29T14:55:27Z</time>
      </trkpt>
      <trkpt lat="46.20554" lon="-1.36578">
        <ele>7.35</ele>
        <time>2016-08-29T14:55:30Z</time>
      </trkpt>
      <trkpt lat="46.20552" lon="-1.36585">
        <ele>7.35</ele>
        <time>2016-08-29T14:55:35Z</time>
      </trkpt>
      <trkpt lat="46.20549" lon="-1.36594">
        <ele>7.35</ele>
        <time>2016-08-29T14:55:41Z</time>
      </trkpt>
      <trkpt lat="46.20549" lon="-1.36609">
        <ele>6.87</ele>
        <time>2016-08-29T14:55:52Z</time>
      </trkpt>
      <trkpt lat="46.20547" lon="-1.36622">
        <ele>6.87</ele>
        <time>2016-08-29T14:56:01Z</time>
      </trkpt>
      <trkpt lat="46.20535" lon="-1.36632">
        <ele>7.35</ele>
        <time>2016-08-29T14:56:12Z</time>
      </trkpt>
      <trkpt lat="46.2052" lon="-1.36643">
        <ele>7.35</ele>
        <time>2016-08-29T14:56:24Z</time>
      </trkpt>
      <trkpt lat="46.20518" lon="-1.36647">
        <ele>7.35</ele>
        <time>2016-08-29T14:56:26Z</time>
      </trkpt>
      <trkpt lat="46.20512" lon="-1.36654">
        <ele>7.35</ele>
        <time>2016-08-29T14:56:32Z</time>
      </trkpt>
      <trkpt lat="46.2051" lon="-1.36658">
        <ele>7.35</ele>
        <time>2016-08-29T14:56:35Z</time>
      </trkpt>
      <trkpt lat="46.20509" lon="-1.36666">
        <ele>7.83</ele>
        <time>2016-08-29T14:56:43Z</time>
      </trkpt>
      <trkpt lat="46.2051" lon="-1.36669">
        <ele>6.87</ele>
        <time>2016-08-29T14:56:51Z</time>
      </trkpt>
      <trkpt lat="46.20511" lon="-1.36671">
        <ele>7.35</ele>
        <time>2016-08-29T14:57:09Z</time>
      </trkpt>
      <trkpt lat="46.20511" lon="-1.36673">
        <ele>6.87</ele>
        <time>2016-08-29T14:57:32Z</time>
      </trkpt>
      <trkpt lat="46.2051" lon="-1.36673">
        <ele>7.35</ele>
        <time>2016-08-29T14:57:52Z</time>
      </trkpt>
      <trkpt lat="46.2051" lon="-1.36673">
        <ele>7.35</ele>
        <time>2016-08-29T14:58:10Z</time>
      </trkpt>
      <trkpt lat="46.2051" lon="-1.36673">
        <ele>7.83</ele>
        <time>2016-08-29T14:58:28Z</time>
      </trkpt>
      <trkpt lat="46.20509" lon="-1.36673">
        <ele>8.79</ele>
        <time>2016-08-29T14:58:31Z</time>
      </trkpt>
      <trkpt lat="46.20506" lon="-1.36679">
        <ele>8.31</ele>
        <time>2016-08-29T14:58:41Z</time>
      </trkpt>
      <trkpt lat="46.20504" lon="-1.36685">
        <ele>8.79</ele>
        <time>2016-08-29T14:58:47Z</time>
      </trkpt>
      <trkpt lat="46.20502" lon="-1.36698">
        <ele>8.79</ele>
        <time>2016-08-29T14:58:58Z</time>
      </trkpt>
      <trkpt lat="46.20499" lon="-1.36705">
        <ele>8.79</ele>
        <time>2016-08-29T14:59:03Z</time>
      </trkpt>
      <trkpt lat="46.20498" lon="-1.36714">
        <ele>9.27</ele>
        <time>2016-08-29T14:59:13Z</time>
      </trkpt>
      <trkpt lat="46.20493" lon="-1.36725">
        <ele>8.79</ele>
        <time>2016-08-29T14:59:26Z</time>
      </trkpt>
      <trkpt lat="46.20491" lon="-1.36728">
        <ele>8.79</ele>
        <time>2016-08-29T14:59:39Z</time>
      </trkpt>
      <trkpt lat="46.2049" lon="-1.36733">
        <ele>8.31</ele>
        <time>2016-08-29T14:59:42Z</time>
      </trkpt>
      <trkpt lat="46.20488" lon="-1.36736">
        <ele>8.79</ele>
        <time>2016-08-29T14:59:45Z</time>
      </trkpt>
      <trkpt lat="46.20485" lon="-1.36738">
        <ele>8.31</ele>
        <time>2016-08-29T14:59:48Z</time>
      </trkpt>
      <trkpt lat="46.20478" lon="-1.36738">
        <ele>8.79</ele>
        <time>2016-08-29T14:59:54Z</time>
      </trkpt>
      <trkpt lat="46.20475" lon="-1.36742">
        <ele>8.31</ele>
        <time>2016-08-29T15:00:02Z</time>
      </trkpt>
      <trkpt lat="46.20476" lon="-1.36743">
        <ele>8.79</ele>
        <time>2016-08-29T15:00:08Z</time>
      </trkpt>
      <trkpt lat="46.20477" lon="-1.36745">
        <ele>8.79</ele>
        <time>2016-08-29T15:00:13Z</time>
      </trkpt>
      <trkpt lat="46.20478" lon="-1.36752">
        <ele>8.79</ele>
        <time>2016-08-29T15:00:20Z</time>
      </trkpt>
      <trkpt lat="46.20479" lon="-1.36755">
        <ele>8.79</ele>
        <time>2016-08-29T15:00:28Z</time>
      </trkpt>
      <trkpt lat="46.20481" lon="-1.36757">
        <ele>9.27</ele>
        <time>2016-08-29T15:00:37Z</time>
      </trkpt>
      <trkpt lat="46.20482" lon="-1.3676">
        <ele>9.75</ele>
        <time>2016-08-29T15:00:40Z</time>
      </trkpt>
      <trkpt lat="46.20481" lon="-1.36768">
        <ele>8.79</ele>
        <time>2016-08-29T15:00:46Z</time>
      </trkpt>
      <trkpt lat="46.20479" lon="-1.36772">
        <ele>8.79</ele>
        <time>2016-08-29T15:00:50Z</time>
      </trkpt>
      <trkpt lat="46.20477" lon="-1.36786">
        <ele>8.79</ele>
        <time>2016-08-29T15:01:01Z</time>
      </trkpt>
      <trkpt lat="46.20475" lon="-1.36792">
        <ele>8.79</ele>
        <time>2016-08-29T15:01:07Z</time>
      </trkpt>
      <trkpt lat="46.20474" lon="-1.36804">
        <ele>9.27</ele>
        <time>2016-08-29T15:01:15Z</time>
      </trkpt>
      <trkpt lat="46.20473" lon="-1.36813">
        <ele>8.79</ele>
        <time>2016-08-29T15:01:21Z</time>
      </trkpt>
      <trkpt lat="46.20472" lon="-1.36823">
        <ele>8.79</ele>
        <time>2016-08-29T15:01:31Z</time>
      </trkpt>
      <trkpt lat="46.20471" lon="-1.36833">
        <ele>9.27</ele>
        <time>2016-08-29T15:01:40Z</time>
      </trkpt>
      <trkpt lat="46.20468" lon="-1.36833">
        <ele>9.27</ele>
        <time>2016-08-29T15:01:50Z</time>
      </trkpt>
      <trkpt lat="46.20466" lon="-1.36834">
        <ele>8.79</ele>
        <time>2016-08-29T15:02:06Z</time>
      </trkpt>
      <trkpt lat="46.20464" lon="-1.36835">
        <ele>8.79</ele>
        <time>2016-08-29T15:02:26Z</time>
      </trkpt>
      <trkpt lat="46.20463" lon="-1.36835">
        <ele>8.79</ele>
        <time>2016-08-29T15:02:37Z</time>
      </trkpt>
      <trkpt lat="46.20463" lon="-1.36835">
        <ele>9.27</ele>
        <time>2016-08-29T15:02:56Z</time>
      </trkpt>
      <trkpt lat="46.20462" lon="-1.36835">
        <ele>8.79</ele>
        <time>2016-08-29T15:03:14Z</time>
      </trkpt>
      <trkpt lat="46.20462" lon="-1.36836">
        <ele>8.79</ele>
        <time>2016-08-29T15:03:27Z</time>
      </trkpt>
      <trkpt lat="46.20462" lon="-1.36836">
        <ele>8.79</ele>
        <time>2016-08-29T15:03:38Z</time>
      </trkpt>
      <trkpt lat="46.20467" lon="-1.36835">
        <ele>8.79</ele>
        <time>2016-08-29T15:03:47Z</time>
      </trkpt>
      <trkpt lat="46.20468" lon="-1.36834">
        <ele>8.79</ele>
        <time>2016-08-29T15:04:00Z</time>
      </trkpt>
      <trkpt lat="46.20466" lon="-1.36835">
        <ele>8.31</ele>
        <time>2016-08-29T15:04:04Z</time>
      </trkpt>
      <trkpt lat="46.20464" lon="-1.36836">
        <ele>9.27</ele>
        <time>2016-08-29T15:04:15Z</time>
      </trkpt>
      <trkpt lat="46.20465" lon="-1.36835">
        <ele>8.79</ele>
        <time>2016-08-29T15:04:17Z</time>
      </trkpt>
      <trkpt lat="46.2047" lon="-1.36835">
        <ele>8.79</ele>
        <time>2016-08-29T15:04:25Z</time>
      </trkpt>
      <trkpt lat="46.2047" lon="-1.36832">
        <ele>8.79</ele>
        <time>2016-08-29T15:04:27Z</time>
      </trkpt>
      <trkpt lat="46.20469" lon="-1.36823">
        <ele>8.79</ele>
        <time>2016-08-29T15:04:39Z</time>
      </trkpt>
      <trkpt lat="46.20471" lon="-1.36819">
        <ele>8.79</ele>
        <time>2016-08-29T15:04:51Z</time>
      </trkpt>
      <trkpt lat="46.20471" lon="-1.36819">
        <ele>8.79</ele>
        <time>2016-08-29T15:04:52Z</time>
      </trkpt>
      <trkpt lat="46.2047" lon="-1.36823">
        <ele>8.31</ele>
        <time>2016-08-29T15:04:55Z</time>
      </trkpt>
      <trkpt lat="46.20467" lon="-1.36832">
        <ele>8.31</ele>
        <time>2016-08-29T15:05:03Z</time>
      </trkpt>
      <trkpt lat="46.20463" lon="-1.36833">
        <ele>8.79</ele>
        <time>2016-08-29T15:05:13Z</time>
      </trkpt>
      <trkpt lat="46.20463" lon="-1.36833">
        <ele>8.79</ele>
        <time>2016-08-29T15:05:22Z</time>
      </trkpt>
      <trkpt lat="46.20463" lon="-1.36834">
        <ele>8.79</ele>
        <time>2016-08-29T15:05:35Z</time>
      </trkpt>
      <trkpt lat="46.20463" lon="-1.36835">
        <ele>8.31</ele>
        <time>2016-08-29T15:05:53Z</time>
      </trkpt>
      <trkpt lat="46.20463" lon="-1.36835">
        <ele>8.79</ele>
        <time>2016-08-29T15:06:05Z</time>
      </trkpt>
      <trkpt lat="46.20463" lon="-1.36835">
        <ele>8.79</ele>
        <time>2016-08-29T15:06:17Z</time>
      </trkpt>
      <trkpt lat="46.20464" lon="-1.36836">
        <ele>8.79</ele>
        <time>2016-08-29T15:06:29Z</time>
      </trkpt>
      <trkpt lat="46.20468" lon="-1.36836">
        <ele>8.31</ele>
        <time>2016-08-29T15:06:35Z</time>
      </trkpt>
      <trkpt lat="46.20473" lon="-1.36839">
        <ele>8.79</ele>
        <time>2016-08-29T15:06:41Z</time>
      </trkpt>
      <trkpt lat="46.20475" lon="-1.36842">
        <ele>7.83</ele>
        <time>2016-08-29T15:06:51Z</time>
      </trkpt>
      <trkpt lat="46.20476" lon="-1.36843">
        <ele>7.83</ele>
        <time>2016-08-29T15:07:05Z</time>
      </trkpt>
      <trkpt lat="46.20476" lon="-1.36843">
        <ele>7.83</ele>
        <time>2016-08-29T15:07:23Z</time>
      </trkpt>
      <trkpt lat="46.20476" lon="-1.36843">
        <ele>7.35</ele>
        <time>2016-08-29T15:07:46Z</time>
      </trkpt>
      <trkpt lat="46.20476" lon="-1.36843">
        <ele>8.31</ele>
        <time>2016-08-29T15:08:09Z</time>
      </trkpt>
      <trkpt lat="46.20476" lon="-1.36843">
        <ele>7.35</ele>
        <time>2016-08-29T15:08:33Z</time>
      </trkpt>
      <trkpt lat="46.20476" lon="-1.36843">
        <ele>7.35</ele>
        <time>2016-08-29T15:09:01Z</time>
      </trkpt>
      <trkpt lat="46.20476" lon="-1.36843">
        <ele>7.83</ele>
        <time>2016-08-29T15:09:24Z</time>
      </trkpt>
      <trkpt lat="46.20476" lon="-1.36843">
        <ele>7.83</ele>
        <time>2016-08-29T15:09:44Z</time>
      </trkpt>
      <trkpt lat="46.20476" lon="-1.36843">
        <ele>7.83</ele>
        <time>2016-08-29T15:10:09Z</time>
      </trkpt>
      <trkpt lat="46.20476" lon="-1.36843">
        <ele>7.35</ele>
        <time>2016-08-29T15:10:31Z</time>
      </trkpt>
      <trkpt lat="46.20476" lon="-1.36842">
        <ele>7.35</ele>
        <time>2016-08-29T15:10:48Z</time>
      </trkpt>
      <trkpt lat="46.20476" lon="-1.36842">
        <ele>7.83</ele>
        <time>2016-08-29T15:11:12Z</time>
      </trkpt>
      <trkpt lat="46.20476" lon="-1.36842">
        <ele>7.83</ele>
        <time>2016-08-29T15:11:35Z</time>
      </trkpt>
      <trkpt lat="46.20476" lon="-1.36842">
        <ele>7.35</ele>
        <time>2016-08-29T15:11:58Z</time>
      </trkpt>
      <trkpt lat="46.20476" lon="-1.36842">
        <ele>7.35</ele>
        <time>2016-08-29T15:12:25Z</time>
      </trkpt>
      <trkpt lat="46.20475" lon="-1.36842">
        <ele>7.83</ele>
        <time>2016-08-29T15:12:52Z</time>
      </trkpt>
      <trkpt lat="46.20475" lon="-1.36843">
        <ele>7.35</ele>
        <time>2016-08-29T15:13:17Z</time>
      </trkpt>
      <trkpt lat="46.20475" lon="-1.36843">
        <ele>7.35</ele>
        <time>2016-08-29T15:13:37Z</time>
      </trkpt>
      <trkpt lat="46.20475" lon="-1.36843">
        <ele>6.87</ele>
        <time>2016-08-29T15:14:00Z</time>
      </trkpt>
      <trkpt lat="46.20475" lon="-1.36843">
        <ele>7.83</ele>
        <time>2016-08-29T15:14:22Z</time>
      </trkpt>
      <trkpt lat="46.20475" lon="-1.36844">
        <ele>7.35</ele>
        <time>2016-08-29T15:14:44Z</time>
      </trkpt>
      <trkpt lat="46.20475" lon="-1.36843">
        <ele>6.87</ele>
        <time>2016-08-29T15:15:03Z</time>
      </trkpt>
      <trkpt lat="46.20475" lon="-1.36843">
        <ele>6.87</ele>
        <time>2016-08-29T15:15:22Z</time>
      </trkpt>
      <trkpt lat="46.20475" lon="-1.36843">
        <ele>7.35</ele>
        <time>2016-08-29T15:15:45Z</time>
      </trkpt>
      <trkpt lat="46.20475" lon="-1.36842">
        <ele>6.87</ele>
        <time>2016-08-29T15:16:06Z</time>
      </trkpt>
      <trkpt lat="46.20475" lon="-1.36842">
        <ele>7.35</ele>
        <time>2016-08-29T15:16:31Z</time>
      </trkpt>
      <trkpt lat="46.20474" lon="-1.36842">
        <ele>7.35</ele>
        <time>2016-08-29T15:16:57Z</time>
      </trkpt>
      <trkpt lat="46.20474" lon="-1.36842">
        <ele>7.35</ele>
        <time>2016-08-29T15:17:23Z</time>
      </trkpt>
      <trkpt lat="46.20475" lon="-1.36842">
        <ele>7.35</ele>
        <time>2016-08-29T15:17:49Z</time>
      </trkpt>
      <trkpt lat="46.20475" lon="-1.36842">
        <ele>6.87</ele>
        <time>2016-08-29T15:18:11Z</time>
      </trkpt>
      <trkpt lat="46.20475" lon="-1.36843">
        <ele>6.87</ele>
        <time>2016-08-29T15:18:38Z</time>
      </trkpt>
      <trkpt lat="46.20475" lon="-1.36843">
        <ele>7.35</ele>
        <time>2016-08-29T15:19:06Z</time>
      </trkpt>
      <trkpt lat="46.20474" lon="-1.36843">
        <ele>7.35</ele>
        <time>2016-08-29T15:19:34Z</time>
      </trkpt>
      <trkpt lat="46.20474" lon="-1.36843">
        <ele>7.35</ele>
        <time>2016-08-29T15:19:57Z</time>
      </trkpt>
      <trkpt lat="46.20474" lon="-1.36843">
        <ele>6.87</ele>
        <time>2016-08-29T15:20:18Z</time>
      </trkpt>
      <trkpt lat="46.20474" lon="-1.36843">
        <ele>7.35</ele>
        <time>2016-08-29T15:20:48Z</time>
      </trkpt>
      <trkpt lat="46.20475" lon="-1.36843">
        <ele>6.87</ele>
        <time>2016-08-29T15:21:14Z</time>
      </trkpt>
      <trkpt lat="46.20475" lon="-1.36843">
        <ele>6.87</ele>
        <time>2016-08-29T15:21:42Z</time>
      </trkpt>
      <trkpt lat="46.20475" lon="-1.36843">
        <ele>6.87</ele>
        <time>2016-08-29T15:22:08Z</time>
      </trkpt>
      <trkpt lat="46.20475" lon="-1.36843">
        <ele>6.39</ele>
        <time>2016-08-29T15:22:33Z</time>
      </trkpt>
      <trkpt lat="46.20475" lon="-1.36843">
        <ele>6.87</ele>
        <time>2016-08-29T15:22:59Z</time>
      </trkpt>
      <trkpt lat="46.20475" lon="-1.36843">
        <ele>6.39</ele>
        <time>2016-08-29T15:23:26Z</time>
      </trkpt>
      <trkpt lat="46.20475" lon="-1.36843">
        <ele>6.87</ele>
        <time>2016-08-29T15:23:50Z</time>
      </trkpt>
      <trkpt lat="46.20475" lon="-1.36844">
        <ele>6.39</ele>
        <time>2016-08-29T15:24:18Z</time>
      </trkpt>
      <trkpt lat="46.20475" lon="-1.36843">
        <ele>6.87</ele>
        <time>2016-08-29T15:24:41Z</time>
      </trkpt>
      <trkpt lat="46.20474" lon="-1.36844">
        <ele>7.83</ele>
        <time>2016-08-29T15:24:57Z</time>
      </trkpt>
      <trkpt lat="46.20471" lon="-1.36844">
        <ele>7.83</ele>
        <time>2016-08-29T15:25:01Z</time>
      </trkpt>
      <trkpt lat="46.20469" lon="-1.36843">
        <ele>7.35</ele>
        <time>2016-08-29T15:25:04Z</time>
      </trkpt>
      <trkpt lat="46.20465" lon="-1.3684">
        <ele>7.83</ele>
        <time>2016-08-29T15:25:13Z</time>
      </trkpt>
      <trkpt lat="46.20468" lon="-1.36833">
        <ele>7.35</ele>
        <time>2016-08-29T15:25:23Z</time>
      </trkpt>
      <trkpt lat="46.20468" lon="-1.36832">
        <ele>7.35</ele>
        <time>2016-08-29T15:25:24Z</time>
      </trkpt>
      <trkpt lat="46.20471" lon="-1.36823">
        <ele>7.35</ele>
        <time>2016-08-29T15:25:33Z</time>
      </trkpt>
      <trkpt lat="46.20471" lon="-1.3682">
        <ele>7.35</ele>
        <time>2016-08-29T15:25:44Z</time>
      </trkpt>
      <trkpt lat="46.20472" lon="-1.36813">
        <ele>7.83</ele>
        <time>2016-08-29T15:25:55Z</time>
      </trkpt>
      <trkpt lat="46.20472" lon="-1.3681">
        <ele>7.35</ele>
        <time>2016-08-29T15:26:08Z</time>
      </trkpt>
      <trkpt lat="46.20473" lon="-1.36803">
        <ele>6.87</ele>
        <time>2016-08-29T15:26:15Z</time>
      </trkpt>
      <trkpt lat="46.20477" lon="-1.36791">
        <ele>7.83</ele>
        <time>2016-08-29T15:26:27Z</time>
      </trkpt>
      <trkpt lat="46.20479" lon="-1.36778">
        <ele>7.35</ele>
        <time>2016-08-29T15:26:39Z</time>
      </trkpt>
      <trkpt lat="46.20482" lon="-1.36763">
        <ele>7.35</ele>
        <time>2016-08-29T15:26:51Z</time>
      </trkpt>
      <trkpt lat="46.20483" lon="-1.36761">
        <ele>7.35</ele>
        <time>2016-08-29T15:26:53Z</time>
      </trkpt>
      <trkpt lat="46.20483" lon="-1.3675">
        <ele>7.35</ele>
        <time>2016-08-29T15:26:59Z</time>
      </trkpt>
      <trkpt lat="46.20482" lon="-1.36746">
        <ele>7.35</ele>
        <time>2016-08-29T15:27:01Z</time>
      </trkpt>
      <trkpt lat="46.20471" lon="-1.36736">
        <ele>7.35</ele>
        <time>2016-08-29T15:27:13Z</time>
      </trkpt>
      <trkpt lat="46.20458" lon="-1.36743">
        <ele>7.83</ele>
        <time>2016-08-29T15:27:25Z</time>
      </trkpt>
      <trkpt lat="46.20446" lon="-1.36745">
        <ele>8.31</ele>
        <time>2016-08-29T15:27:36Z</time>
      </trkpt>
      <trkpt lat="46.20435" lon="-1.36744">
        <ele>8.31</ele>
        <time>2016-08-29T15:27:47Z</time>
      </trkpt>
      <trkpt lat="46.20434" lon="-1.36744">
        <ele>8.79</ele>
        <time>2016-08-29T15:27:49Z</time>
      </trkpt>
      <trkpt lat="46.20414" lon="-1.36742">
        <ele>9.75</ele>
        <time>2016-08-29T15:28:02Z</time>
      </trkpt>
      <trkpt lat="46.20413" lon="-1.36742">
        <ele>9.27</ele>
        <time>2016-08-29T15:28:03Z</time>
      </trkpt>
      <trkpt lat="46.20397" lon="-1.36743">
        <ele>10.71</ele>
        <time>2016-08-29T15:28:16Z</time>
      </trkpt>
      <trkpt lat="46.20391" lon="-1.36747">
        <ele>11.19</ele>
        <time>2016-08-29T15:28:25Z</time>
      </trkpt>
      <trkpt lat="46.20392" lon="-1.36748">
        <ele>10.71</ele>
        <time>2016-08-29T15:28:28Z</time>
      </trkpt>
      <trkpt lat="46.20393" lon="-1.36759">
        <ele>11.19</ele>
        <time>2016-08-29T15:28:36Z</time>
      </trkpt>
      <trkpt lat="46.20396" lon="-1.36764">
        <ele>10.71</ele>
        <time>2016-08-29T15:28:40Z</time>
      </trkpt>
      <trkpt lat="46.20396" lon="-1.36782">
        <ele>11.19</ele>
        <time>2016-08-29T15:28:52Z</time>
      </trkpt>
      <trkpt lat="46.20394" lon="-1.36796">
        <ele>10.71</ele>
        <time>2016-08-29T15:29:01Z</time>
      </trkpt>
      <trkpt lat="46.20393" lon="-1.36799">
        <ele>10.71</ele>
        <time>2016-08-29T15:29:03Z</time>
      </trkpt>
      <trkpt lat="46.20392" lon="-1.36808">
        <ele>11.19</ele>
        <time>2016-08-29T15:29:08Z</time>
      </trkpt>
      <trkpt lat="46.20392" lon="-1.36818">
        <ele>11.19</ele>
        <time>2016-08-29T15:29:14Z</time>
      </trkpt>
      <trkpt lat="46.20391" lon="-1.36836">
        <ele>11.19</ele>
        <time>2016-08-29T15:29:25Z</time>
      </trkpt>
      <trkpt lat="46.20392" lon="-1.36842">
        <ele>11.19</ele>
        <time>2016-08-29T15:29:28Z</time>
      </trkpt>
      <trkpt lat="46.20391" lon="-1.3686">
        <ele>11.19</ele>
        <time>2016-08-29T15:29:40Z</time>
      </trkpt>
      <trkpt lat="46.20389" lon="-1.36861">
        <ele>10.71</ele>
        <time>2016-08-29T15:29:42Z</time>
      </trkpt>
      <trkpt lat="46.20385" lon="-1.3687">
        <ele>12.15</ele>
        <time>2016-08-29T15:29:52Z</time>
      </trkpt>
      <trkpt lat="46.20383" lon="-1.36883">
        <ele>12.15</ele>
        <time>2016-08-29T15:30:02Z</time>
      </trkpt>
      <trkpt lat="46.2038" lon="-1.36888">
        <ele>12.63</ele>
        <time>2016-08-29T15:30:15Z</time>
      </trkpt>
      <trkpt lat="46.2038" lon="-1.36891">
        <ele>12.15</ele>
        <time>2016-08-29T15:30:27Z</time>
      </trkpt>
      <trkpt lat="46.20378" lon="-1.36894">
        <ele>12.15</ele>
        <time>2016-08-29T15:30:45Z</time>
      </trkpt>
      <trkpt lat="46.20378" lon="-1.36894">
        <ele>12.15</ele>
        <time>2016-08-29T15:30:57Z</time>
      </trkpt>
      <trkpt lat="46.20378" lon="-1.36895">
        <ele>12.15</ele>
        <time>2016-08-29T15:31:12Z</time>
      </trkpt>
      <trkpt lat="46.20377" lon="-1.36899">
        <ele>12.15</ele>
        <time>2016-08-29T15:31:15Z</time>
      </trkpt>
      <trkpt lat="46.20375" lon="-1.36911">
        <ele>13.12</ele>
        <time>2016-08-29T15:31:24Z</time>
      </trkpt>
      <trkpt lat="46.20373" lon="-1.3692">
        <ele>13.6</ele>
        <time>2016-08-29T15:31:31Z</time>
      </trkpt>
      <trkpt lat="46.20371" lon="-1.36926">
        <ele>13.12</ele>
        <time>2016-08-29T15:31:35Z</time>
      </trkpt>
      <trkpt lat="46.20368" lon="-1.36943">
        <ele>14.08</ele>
        <time>2016-08-29T15:31:46Z</time>
      </trkpt>
      <trkpt lat="46.20359" lon="-1.36945">
        <ele>14.56</ele>
        <time>2016-08-29T15:31:54Z</time>
      </trkpt>
      <trkpt lat="46.20346" lon="-1.36948">
        <ele>15.52</ele>
        <time>2016-08-29T15:32:03Z</time>
      </trkpt>
      <trkpt lat="46.20331" lon="-1.36944">
        <ele>16</ele>
        <time>2016-08-29T15:32:15Z</time>
      </trkpt>
      <trkpt lat="46.2032" lon="-1.36946">
        <ele>16.48</ele>
        <time>2016-08-29T15:32:25Z</time>
      </trkpt>
      <trkpt lat="46.2031" lon="-1.36948">
        <ele>17.44</ele>
        <time>2016-08-29T15:32:35Z</time>
      </trkpt>
      <trkpt lat="46.20303" lon="-1.36952">
        <ele>17.92</ele>
        <time>2016-08-29T15:32:44Z</time>
      </trkpt>
      <trkpt lat="46.20297" lon="-1.36955">
        <ele>17.92</ele>
        <time>2016-08-29T15:32:53Z</time>
      </trkpt>
      <trkpt lat="46.20291" lon="-1.36955">
        <ele>17.44</ele>
        <time>2016-08-29T15:33:01Z</time>
      </trkpt>
      <trkpt lat="46.203" lon="-1.36962">
        <ele>17.44</ele>
        <time>2016-08-29T15:33:09Z</time>
      </trkpt>
      <trkpt lat="46.20303" lon="-1.36953">
        <ele>17.92</ele>
        <time>2016-08-29T15:33:14Z</time>
      </trkpt>
      <trkpt lat="46.20302" lon="-1.36943">
        <ele>17.92</ele>
        <time>2016-08-29T15:33:24Z</time>
      </trkpt>
      <trkpt lat="46.20299" lon="-1.36924">
        <ele>18.4</ele>
        <time>2016-08-29T15:33:36Z</time>
      </trkpt>
      <trkpt lat="46.20298" lon="-1.36915">
        <ele>19.36</ele>
        <time>2016-08-29T15:33:45Z</time>
      </trkpt>
      <trkpt lat="46.20298" lon="-1.3691">
        <ele>18.88</ele>
        <time>2016-08-29T15:33:47Z</time>
      </trkpt>
      <trkpt lat="46.20298" lon="-1.36905">
        <ele>18.4</ele>
        <time>2016-08-29T15:33:50Z</time>
      </trkpt>
      <trkpt lat="46.20295" lon="-1.36904">
        <ele>18.88</ele>
        <time>2016-08-29T15:33:54Z</time>
      </trkpt>
      <trkpt lat="46.20284" lon="-1.36887">
        <ele>19.36</ele>
        <time>2016-08-29T15:34:07Z</time>
      </trkpt>
      <trkpt lat="46.20276" lon="-1.36882">
        <ele>19.36</ele>
        <time>2016-08-29T15:34:15Z</time>
      </trkpt>
      <trkpt lat="46.20264" lon="-1.36881">
        <ele>19.84</ele>
        <time>2016-08-29T15:34:26Z</time>
      </trkpt>
      <trkpt lat="46.20263" lon="-1.36881">
        <ele>20.32</ele>
        <time>2016-08-29T15:34:27Z</time>
      </trkpt>
      <trkpt lat="46.2025" lon="-1.36882">
        <ele>19.84</ele>
        <time>2016-08-29T15:34:37Z</time>
      </trkpt>
      <trkpt lat="46.20241" lon="-1.36883">
        <ele>19.84</ele>
        <time>2016-08-29T15:34:44Z</time>
      </trkpt>
      <trkpt lat="46.20228" lon="-1.36886">
        <ele>20.32</ele>
        <time>2016-08-29T15:34:53Z</time>
      </trkpt>
      <trkpt lat="46.20222" lon="-1.36886">
        <ele>19.84</ele>
        <time>2016-08-29T15:34:58Z</time>
      </trkpt>
      <trkpt lat="46.20219" lon="-1.36878">
        <ele>19.84</ele>
        <time>2016-08-29T15:35:02Z</time>
      </trkpt>
      <trkpt lat="46.20217" lon="-1.36875">
        <ele>20.32</ele>
        <time>2016-08-29T15:35:08Z</time>
      </trkpt>
      <trkpt lat="46.20215" lon="-1.36875">
        <ele>20.32</ele>
        <time>2016-08-29T15:35:10Z</time>
      </trkpt>
      <trkpt lat="46.20212" lon="-1.36873">
        <ele>19.36</ele>
        <time>2016-08-29T15:35:18Z</time>
      </trkpt>
      <trkpt lat="46.20211" lon="-1.36871">
        <ele>20.32</ele>
        <time>2016-08-29T15:35:37Z</time>
      </trkpt>
      <trkpt lat="46.20211" lon="-1.36871">
        <ele>16.48</ele>
        <time>2016-08-29T15:35:40Z</time>
      </trkpt>
      <trkpt lat="46.20211" lon="-1.36871">
        <ele>23.21</ele>
        <time>2016-08-29T15:35:41Z</time>
      </trkpt>
      <trkpt lat="46.2021" lon="-1.3687">
        <ele>17.44</ele>
        <time>2016-08-29T15:35:55Z</time>
      </trkpt>
      <trkpt lat="46.2021" lon="-1.3687">
        <ele>21.77</ele>
        <time>2016-08-29T15:35:56Z</time>
      </trkpt>
      <trkpt lat="46.2021" lon="-1.3687">
        <ele>8.79</ele>
        <time>2016-08-29T15:35:58Z</time>
      </trkpt>
      <trkpt lat="46.2021" lon="-1.3687">
        <ele>23.69</ele>
        <time>2016-08-29T15:35:59Z</time>
      </trkpt>
      <trkpt lat="46.2021" lon="-1.3687">
        <ele>27.53</ele>
        <time>2016-08-29T15:36:04Z</time>
      </trkpt>
      <trkpt lat="46.2021" lon="-1.3687">
        <ele>19.84</ele>
        <time>2016-08-29T15:36:05Z</time>
      </trkpt>
      <trkpt lat="46.2021" lon="-1.3687">
        <ele>18.4</ele>
        <time>2016-08-29T15:36:14Z</time>
      </trkpt>
      <trkpt lat="46.2021" lon="-1.3687">
        <ele>20.32</ele>
        <time>2016-08-29T15:36:16Z</time>
      </trkpt>
      <trkpt lat="46.2021" lon="-1.36871">
        <ele>20.32</ele>
        <time>2016-08-29T15:36:40Z</time>
      </trkpt>
      <trkpt lat="46.20209" lon="-1.36872">
        <ele>19.84</ele>
        <time>2016-08-29T15:37:03Z</time>
      </trkpt>
      <trkpt lat="46.20209" lon="-1.36873">
        <ele>20.32</ele>
        <time>2016-08-29T15:37:19Z</time>
      </trkpt>
      <trkpt lat="46.20209" lon="-1.36872">
        <ele>20.32</ele>
        <time>2016-08-29T15:37:34Z</time>
      </trkpt>
      <trkpt lat="46.2021" lon="-1.36871">
        <ele>20.32</ele>
        <time>2016-08-29T15:37:47Z</time>
      </trkpt>
      <trkpt lat="46.2021" lon="-1.36873">
        <ele>19.84</ele>
        <time>2016-08-29T15:38:11Z</time>
      </trkpt>
      <trkpt lat="46.2021" lon="-1.36873">
        <ele>20.32</ele>
        <time>2016-08-29T15:38:40Z</time>
      </trkpt>
      <trkpt lat="46.2021" lon="-1.36873">
        <ele>20.32</ele>
        <time>2016-08-29T15:38:52Z</time>
      </trkpt>
      <trkpt lat="46.20211" lon="-1.3687">
        <ele>19.84</ele>
        <time>2016-08-29T15:39:02Z</time>
      </trkpt>
      <trkpt lat="46.20211" lon="-1.36868">
        <ele>19.84</ele>
        <time>2016-08-29T15:39:04Z</time>
      </trkpt>
      <trkpt lat="46.20211" lon="-1.36864">
        <ele>19.84</ele>
        <time>2016-08-29T15:39:07Z</time>
      </trkpt>
      <trkpt lat="46.20211" lon="-1.36844">
        <ele>19.84</ele>
        <time>2016-08-29T15:39:14Z</time>
      </trkpt>
      <trkpt lat="46.20212" lon="-1.3681">
        <ele>19.84</ele>
        <time>2016-08-29T15:39:24Z</time>
      </trkpt>
      <trkpt lat="46.20214" lon="-1.36782">
        <ele>19.36</ele>
        <time>2016-08-29T15:39:30Z</time>
      </trkpt>
      <trkpt lat="46.20206" lon="-1.36773">
        <ele>18.88</ele>
        <time>2016-08-29T15:39:34Z</time>
      </trkpt>
      <trkpt lat="46.20181" lon="-1.36764">
        <ele>20.32</ele>
        <time>2016-08-29T15:39:44Z</time>
      </trkpt>
      <trkpt lat="46.20164" lon="-1.36735">
        <ele>19.84</ele>
        <time>2016-08-29T15:39:53Z</time>
      </trkpt>
      <trkpt lat="46.20155" lon="-1.36689">
        <ele>19.84</ele>
        <time>2016-08-29T15:40:02Z</time>
      </trkpt>
      <trkpt lat="46.20149" lon="-1.36671">
        <ele>20.32</ele>
        <time>2016-08-29T15:40:06Z</time>
      </trkpt>
      <trkpt lat="46.20145" lon="-1.3664">
        <ele>19.36</ele>
        <time>2016-08-29T15:40:12Z</time>
      </trkpt>
      <trkpt lat="46.20138" lon="-1.36607">
        <ele>18.88</ele>
        <time>2016-08-29T15:40:18Z</time>
      </trkpt>
      <trkpt lat="46.20131" lon="-1.36584">
        <ele>18.88</ele>
        <time>2016-08-29T15:40:22Z</time>
      </trkpt>
      <trkpt lat="46.20129" lon="-1.36579">
        <ele>18.88</ele>
        <time>2016-08-29T15:40:23Z</time>
      </trkpt>
      <trkpt lat="46.20119" lon="-1.36534">
        <ele>17.92</ele>
        <time>2016-08-29T15:40:30Z</time>
      </trkpt>
      <trkpt lat="46.20118" lon="-1.36527">
        <ele>17.92</ele>
        <time>2016-08-29T15:40:31Z</time>
      </trkpt>
      <trkpt lat="46.20107" lon="-1.36477">
        <ele>17.44</ele>
        <time>2016-08-29T15:40:39Z</time>
      </trkpt>
      <trkpt lat="46.20105" lon="-1.36471">
        <ele>17.44</ele>
        <time>2016-08-29T15:40:40Z</time>
      </trkpt>
      <trkpt lat="46.20103" lon="-1.36465">
        <ele>17.44</ele>
        <time>2016-08-29T15:40:41Z</time>
      </trkpt>
      <trkpt lat="46.20092" lon="-1.36412">
        <ele>16.96</ele>
        <time>2016-08-29T15:40:52Z</time>
      </trkpt>
      <trkpt lat="46.20082" lon="-1.36371">
        <ele>16.48</ele>
        <time>2016-08-29T15:41:00Z</time>
      </trkpt>
      <trkpt lat="46.20062" lon="-1.363">
        <ele>16.48</ele>
        <time>2016-08-29T15:41:13Z</time>
      </trkpt>
      <trkpt lat="46.20059" lon="-1.36287">
        <ele>16.48</ele>
        <time>2016-08-29T15:41:17Z</time>
      </trkpt>
      <trkpt lat="46.20073" lon="-1.36253">
        <ele>15.52</ele>
        <time>2016-08-29T15:41:26Z</time>
      </trkpt>
      <trkpt lat="46.20078" lon="-1.36219">
        <ele>16.48</ele>
        <time>2016-08-29T15:41:35Z</time>
      </trkpt>
      <trkpt lat="46.20076" lon="-1.36209">
        <ele>16</ele>
        <time>2016-08-29T15:41:39Z</time>
      </trkpt>
      <trkpt lat="46.20075" lon="-1.36207">
        <ele>16</ele>
        <time>2016-08-29T15:41:40Z</time>
      </trkpt>
      <trkpt lat="46.20074" lon="-1.36206">
        <ele>15.52</ele>
        <time>2016-08-29T15:41:41Z</time>
      </trkpt>
      <trkpt lat="46.20072" lon="-1.36204">
        <ele>16</ele>
        <time>2016-08-29T15:41:42Z</time>
      </trkpt>
      <trkpt lat="46.20071" lon="-1.36203">
        <ele>16</ele>
        <time>2016-08-29T15:41:43Z</time>
      </trkpt>
      <trkpt lat="46.2007" lon="-1.36201">
        <ele>16</ele>
        <time>2016-08-29T15:41:44Z</time>
      </trkpt>
      <trkpt lat="46.20069" lon="-1.362">
        <ele>16</ele>
        <time>2016-08-29T15:41:45Z</time>
      </trkpt>
      <trkpt lat="46.20067" lon="-1.36198">
        <ele>16.48</ele>
        <time>2016-08-29T15:41:46Z</time>
      </trkpt>
      <trkpt lat="46.2005" lon="-1.36176">
        <ele>16</ele>
        <time>2016-08-29T15:41:58Z</time>
      </trkpt>
      <trkpt lat="46.20031" lon="-1.36154">
        <ele>16.48</ele>
        <time>2016-08-29T15:42:08Z</time>
      </trkpt>
      <trkpt lat="46.20012" lon="-1.36126">
        <ele>15.52</ele>
        <time>2016-08-29T15:42:16Z</time>
      </trkpt>
      <trkpt lat="46.20001" lon="-1.36116">
        <ele>15.04</ele>
        <time>2016-08-29T15:42:19Z</time>
      </trkpt>
      <trkpt lat="46.19998" lon="-1.36111">
        <ele>15.04</ele>
        <time>2016-08-29T15:42:20Z</time>
      </trkpt>
      <trkpt lat="46.19985" lon="-1.36091">
        <ele>14.56</ele>
        <time>2016-08-29T15:42:24Z</time>
      </trkpt>
      <trkpt lat="46.19983" lon="-1.36085">
        <ele>15.04</ele>
        <time>2016-08-29T15:42:25Z</time>
      </trkpt>
      <trkpt lat="46.19982" lon="-1.36079">
        <ele>14.56</ele>
        <time>2016-08-29T15:42:26Z</time>
      </trkpt>
      <trkpt lat="46.19981" lon="-1.36067">
        <ele>14.56</ele>
        <time>2016-08-29T15:42:28Z</time>
      </trkpt>
      <trkpt lat="46.19981" lon="-1.3606">
        <ele>14.56</ele>
        <time>2016-08-29T15:42:29Z</time>
      </trkpt>
      <trkpt lat="46.19984" lon="-1.35995">
        <ele>15.52</ele>
        <time>2016-08-29T15:42:39Z</time>
      </trkpt>
      <trkpt lat="46.19983" lon="-1.35989">
        <ele>15.04</ele>
        <time>2016-08-29T15:42:40Z</time>
      </trkpt>
      <trkpt lat="46.1998" lon="-1.35984">
        <ele>16</ele>
        <time>2016-08-29T15:42:41Z</time>
      </trkpt>
      <trkpt lat="46.19978" lon="-1.35979">
        <ele>15.52</ele>
        <time>2016-08-29T15:42:42Z</time>
      </trkpt>
      <trkpt lat="46.19975" lon="-1.35974">
        <ele>15.04</ele>
        <time>2016-08-29T15:42:43Z</time>
      </trkpt>
      <trkpt lat="46.1994" lon="-1.35918">
        <ele>15.52</ele>
        <time>2016-08-29T15:42:56Z</time>
      </trkpt>
      <trkpt lat="46.19914" lon="-1.35875">
        <ele>16</ele>
        <time>2016-08-29T15:43:07Z</time>
      </trkpt>
      <trkpt lat="46.19913" lon="-1.35875">
        <ele>20.32</ele>
        <time>2016-08-29T15:43:11Z</time>
      </trkpt>
      <trkpt lat="46.19913" lon="-1.35875">
        <ele>25.61</ele>
        <time>2016-08-29T15:43:12Z</time>
      </trkpt>
      <trkpt lat="46.19913" lon="-1.35875">
        <ele>14.56</ele>
        <time>2016-08-29T15:43:13Z</time>
      </trkpt>
      <trkpt lat="46.19913" lon="-1.35875">
        <ele>16.96</ele>
        <time>2016-08-29T15:43:14Z</time>
      </trkpt>
      <trkpt lat="46.1991" lon="-1.35869">
        <ele>16.48</ele>
        <time>2016-08-29T15:43:25Z</time>
      </trkpt>
      <trkpt lat="46.19911" lon="-1.35868">
        <ele>16.48</ele>
        <time>2016-08-29T15:43:32Z</time>
      </trkpt>
      <trkpt lat="46.19912" lon="-1.35869">
        <ele>15.52</ele>
        <time>2016-08-29T15:43:33Z</time>
      </trkpt>
      <trkpt lat="46.19913" lon="-1.3587">
        <ele>16</ele>
        <time>2016-08-29T15:43:34Z</time>
      </trkpt>
      <trkpt lat="46.19927" lon="-1.35896">
        <ele>14.08</ele>
        <time>2016-08-29T15:43:42Z</time>
      </trkpt>
      <trkpt lat="46.19936" lon="-1.35907">
        <ele>14.56</ele>
        <time>2016-08-29T15:43:46Z</time>
      </trkpt>
      <trkpt lat="46.1994" lon="-1.35906">
        <ele>14.56</ele>
        <time>2016-08-29T15:43:47Z</time>
      </trkpt>
      <trkpt lat="46.19943" lon="-1.35904">
        <ele>14.56</ele>
        <time>2016-08-29T15:43:48Z</time>
      </trkpt>
      <trkpt lat="46.19995" lon="-1.35857">
        <ele>14.08</ele>
        <time>2016-08-29T15:44:02Z</time>
      </trkpt>
      <trkpt lat="46.2005" lon="-1.35809">
        <ele>11.19</ele>
        <time>2016-08-29T15:44:15Z</time>
      </trkpt>
      <trkpt lat="46.20055" lon="-1.35806">
        <ele>14.08</ele>
        <time>2016-08-29T15:44:16Z</time>
      </trkpt>
      <trkpt lat="46.20109" lon="-1.35759">
        <ele>12.15</ele>
        <time>2016-08-29T15:44:28Z</time>
      </trkpt>
      <trkpt lat="46.20165" lon="-1.35709">
        <ele>12.15</ele>
        <time>2016-08-29T15:44:40Z</time>
      </trkpt>
      <trkpt lat="46.2023" lon="-1.3564">
        <ele>12.15</ele>
        <time>2016-08-29T15:44:55Z</time>
      </trkpt>
      <trkpt lat="46.20289" lon="-1.35576">
        <ele>11.67</ele>
        <time>2016-08-29T15:45:09Z</time>
      </trkpt>
      <trkpt lat="46.20345" lon="-1.35525">
        <ele>10.23</ele>
        <time>2016-08-29T15:45:22Z</time>
      </trkpt>
      <trkpt lat="46.20373" lon="-1.35483">
        <ele>9.75</ele>
        <time>2016-08-29T15:45:30Z</time>
      </trkpt>
      <trkpt lat="46.20374" lon="-1.35478">
        <ele>9.75</ele>
        <time>2016-08-29T15:45:31Z</time>
      </trkpt>
      <trkpt lat="46.20373" lon="-1.35472">
        <ele>10.23</ele>
        <time>2016-08-29T15:45:32Z</time>
      </trkpt>
      <trkpt lat="46.2037" lon="-1.35467">
        <ele>9.75</ele>
        <time>2016-08-29T15:45:33Z</time>
      </trkpt>
      <trkpt lat="46.20367" lon="-1.35463">
        <ele>10.23</ele>
        <time>2016-08-29T15:45:34Z</time>
      </trkpt>
      <trkpt lat="46.20364" lon="-1.3546">
        <ele>9.75</ele>
        <time>2016-08-29T15:45:35Z</time>
      </trkpt>
      <trkpt lat="46.20362" lon="-1.35455">
        <ele>9.75</ele>
        <time>2016-08-29T15:45:36Z</time>
      </trkpt>
      <trkpt lat="46.2036" lon="-1.3545">
        <ele>9.75</ele>
        <time>2016-08-29T15:45:37Z</time>
      </trkpt>
      <trkpt lat="46.20358" lon="-1.35444">
        <ele>9.75</ele>
        <time>2016-08-29T15:45:38Z</time>
      </trkpt>
      <trkpt lat="46.2033" lon="-1.35346">
        <ele>10.23</ele>
        <time>2016-08-29T15:45:53Z</time>
      </trkpt>
      <trkpt lat="46.20317" lon="-1.35289">
        <ele>11.67</ele>
        <time>2016-08-29T15:46:04Z</time>
      </trkpt>
      <trkpt lat="46.20318" lon="-1.35285">
        <ele>12.15</ele>
        <time>2016-08-29T15:46:05Z</time>
      </trkpt>
      <trkpt lat="46.20319" lon="-1.35283">
        <ele>12.63</ele>
        <time>2016-08-29T15:46:06Z</time>
      </trkpt>
      <trkpt lat="46.20321" lon="-1.35281">
        <ele>12.15</ele>
        <time>2016-08-29T15:46:07Z</time>
      </trkpt>
      <trkpt lat="46.20322" lon="-1.35278">
        <ele>13.12</ele>
        <time>2016-08-29T15:46:08Z</time>
      </trkpt>
      <trkpt lat="46.20321" lon="-1.35275">
        <ele>13.12</ele>
        <time>2016-08-29T15:46:09Z</time>
      </trkpt>
      <trkpt lat="46.20321" lon="-1.35271">
        <ele>13.12</ele>
        <time>2016-08-29T15:46:10Z</time>
      </trkpt>
      <trkpt lat="46.20319" lon="-1.35267">
        <ele>13.12</ele>
        <time>2016-08-29T15:46:11Z</time>
      </trkpt>
      <trkpt lat="46.20306" lon="-1.35238">
        <ele>13.12</ele>
        <time>2016-08-29T15:46:17Z</time>
      </trkpt>
      <trkpt lat="46.20301" lon="-1.35228">
        <ele>13.12</ele>
        <time>2016-08-29T15:46:19Z</time>
      </trkpt>
      <trkpt lat="46.203" lon="-1.35222">
        <ele>13.12</ele>
        <time>2016-08-29T15:46:20Z</time>
      </trkpt>
      <trkpt lat="46.203" lon="-1.35216">
        <ele>16.48</ele>
        <time>2016-08-29T15:46:21Z</time>
      </trkpt>
      <trkpt lat="46.203" lon="-1.3521">
        <ele>9.75</ele>
        <time>2016-08-29T15:46:22Z</time>
      </trkpt>
      <trkpt lat="46.203" lon="-1.35205">
        <ele>14.08</ele>
        <time>2016-08-29T15:46:23Z</time>
      </trkpt>
      <trkpt lat="46.20302" lon="-1.35115">
        <ele>13.6</ele>
        <time>2016-08-29T15:46:37Z</time>
      </trkpt>
      <trkpt lat="46.20301" lon="-1.35108">
        <ele>13.6</ele>
        <time>2016-08-29T15:46:38Z</time>
      </trkpt>
      <trkpt lat="46.20299" lon="-1.35102">
        <ele>13.12</ele>
        <time>2016-08-29T15:46:39Z</time>
      </trkpt>
      <trkpt lat="46.20298" lon="-1.35095">
        <ele>13.6</ele>
        <time>2016-08-29T15:46:40Z</time>
      </trkpt>
      <trkpt lat="46.20296" lon="-1.35089">
        <ele>13.6</ele>
        <time>2016-08-29T15:46:41Z</time>
      </trkpt>
      <trkpt lat="46.20294" lon="-1.35083">
        <ele>13.12</ele>
        <time>2016-08-29T15:46:42Z</time>
      </trkpt>
      <trkpt lat="46.20291" lon="-1.35076">
        <ele>13.6</ele>
        <time>2016-08-29T15:46:43Z</time>
      </trkpt>
      <trkpt lat="46.20273" lon="-1.35029">
        <ele>13.12</ele>
        <time>2016-08-29T15:46:53Z</time>
      </trkpt>
      <trkpt lat="46.20274" lon="-1.35027">
        <ele>13.6</ele>
        <time>2016-08-29T15:46:54Z</time>
      </trkpt>
      <trkpt lat="46.20275" lon="-1.35026">
        <ele>13.6</ele>
        <time>2016-08-29T15:46:55Z</time>
      </trkpt>
      <trkpt lat="46.20277" lon="-1.35026">
        <ele>13.6</ele>
        <time>2016-08-29T15:46:56Z</time>
      </trkpt>
      <trkpt lat="46.20278" lon="-1.35025">
        <ele>13.6</ele>
        <time>2016-08-29T15:46:57Z</time>
      </trkpt>
      <trkpt lat="46.20299" lon="-1.35007">
        <ele>13.12</ele>
        <time>2016-08-29T15:47:06Z</time>
      </trkpt>
      <trkpt lat="46.20326" lon="-1.3498">
        <ele>12.15</ele>
        <time>2016-08-29T15:47:15Z</time>
      </trkpt>
      <trkpt lat="46.20328" lon="-1.34976">
        <ele>12.63</ele>
        <time>2016-08-29T15:47:16Z</time>
      </trkpt>
      <trkpt lat="46.20328" lon="-1.34971">
        <ele>12.63</ele>
        <time>2016-08-29T15:47:17Z</time>
      </trkpt>
      <trkpt lat="46.20328" lon="-1.34967">
        <ele>12.63</ele>
        <time>2016-08-29T15:47:18Z</time>
      </trkpt>
      <trkpt lat="46.20326" lon="-1.34962">
        <ele>12.63</ele>
        <time>2016-08-29T15:47:19Z</time>
      </trkpt>
      <trkpt lat="46.20325" lon="-1.34958">
        <ele>12.63</ele>
        <time>2016-08-29T15:47:20Z</time>
      </trkpt>
      <trkpt lat="46.20305" lon="-1.34908">
        <ele>12.63</ele>
        <time>2016-08-29T15:47:31Z</time>
      </trkpt>
      <trkpt lat="46.20281" lon="-1.34852">
        <ele>13.12</ele>
        <time>2016-08-29T15:47:43Z</time>
      </trkpt>
      <trkpt lat="46.20257" lon="-1.34803">
        <ele>13.6</ele>
        <time>2016-08-29T15:47:55Z</time>
      </trkpt>
      <trkpt lat="46.20245" lon="-1.34785">
        <ele>13.6</ele>
        <time>2016-08-29T15:48:02Z</time>
      </trkpt>
      <trkpt lat="46.2023" lon="-1.34747">
        <ele>13.12</ele>
        <time>2016-08-29T15:48:12Z</time>
      </trkpt>
      <trkpt lat="46.20206" lon="-1.34687">
        <ele>11.19</ele>
        <time>2016-08-29T15:48:24Z</time>
      </trkpt>
      <trkpt lat="46.2017" lon="-1.34604">
        <ele>8.79</ele>
        <time>2016-08-29T15:48:37Z</time>
      </trkpt>
      <trkpt lat="46.20163" lon="-1.34592">
        <ele>8.79</ele>
        <time>2016-08-29T15:48:39Z</time>
      </trkpt>
      <trkpt lat="46.20159" lon="-1.34587">
        <ele>8.79</ele>
        <time>2016-08-29T15:48:40Z</time>
      </trkpt>
      <trkpt lat="46.20156" lon="-1.34581">
        <ele>7.83</ele>
        <time>2016-08-29T15:48:41Z</time>
      </trkpt>
      <trkpt lat="46.20153" lon="-1.34574">
        <ele>7.83</ele>
        <time>2016-08-29T15:48:42Z</time>
      </trkpt>
      <trkpt lat="46.20151" lon="-1.34568">
        <ele>8.31</ele>
        <time>2016-08-29T15:48:43Z</time>
      </trkpt>
      <trkpt lat="46.20149" lon="-1.34562">
        <ele>8.79</ele>
        <time>2016-08-29T15:48:44Z</time>
      </trkpt>
      <trkpt lat="46.20148" lon="-1.34556">
        <ele>8.79</ele>
        <time>2016-08-29T15:48:45Z</time>
      </trkpt>
      <trkpt lat="46.20145" lon="-1.3455">
        <ele>8.79</ele>
        <time>2016-08-29T15:48:46Z</time>
      </trkpt>
      <trkpt lat="46.20141" lon="-1.34545">
        <ele>8.31</ele>
        <time>2016-08-29T15:48:47Z</time>
      </trkpt>
      <trkpt lat="46.20098" lon="-1.34497">
        <ele>7.83</ele>
        <time>2016-08-29T15:48:59Z</time>
      </trkpt>
      <trkpt lat="46.20055" lon="-1.34433">
        <ele>8.31</ele>
        <time>2016-08-29T15:49:12Z</time>
      </trkpt>
      <trkpt lat="46.20026" lon="-1.34345">
        <ele>8.79</ele>
        <time>2016-08-29T15:49:26Z</time>
      </trkpt>
      <trkpt lat="46.20017" lon="-1.3428">
        <ele>8.31</ele>
        <time>2016-08-29T15:49:36Z</time>
      </trkpt>
      <trkpt lat="46.20017" lon="-1.34274">
        <ele>7.83</ele>
        <time>2016-08-29T15:49:37Z</time>
      </trkpt>
      <trkpt lat="46.20017" lon="-1.34239">
        <ele>7.83</ele>
        <time>2016-08-29T15:49:43Z</time>
      </trkpt>
      <trkpt lat="46.20015" lon="-1.34233">
        <ele>8.31</ele>
        <time>2016-08-29T15:49:44Z</time>
      </trkpt>
      <trkpt lat="46.20013" lon="-1.34228">
        <ele>8.79</ele>
        <time>2016-08-29T15:49:45Z</time>
      </trkpt>
      <trkpt lat="46.20012" lon="-1.34223">
        <ele>8.31</ele>
        <time>2016-08-29T15:49:46Z</time>
      </trkpt>
      <trkpt lat="46.2001" lon="-1.34218">
        <ele>8.79</ele>
        <time>2016-08-29T15:49:47Z</time>
      </trkpt>
      <trkpt lat="46.20002" lon="-1.34185">
        <ele>8.31</ele>
        <time>2016-08-29T15:49:53Z</time>
      </trkpt>
      <trkpt lat="46.19988" lon="-1.34121">
        <ele>9.27</ele>
        <time>2016-08-29T15:50:05Z</time>
      </trkpt>
      <trkpt lat="46.19957" lon="-1.34077">
        <ele>8.31</ele>
        <time>2016-08-29T15:50:17Z</time>
      </trkpt>
      <trkpt lat="46.19926" lon="-1.34026">
        <ele>8.31</ele>
        <time>2016-08-29T15:50:29Z</time>
      </trkpt>
      <trkpt lat="46.19878" lon="-1.33969">
        <ele>8.31</ele>
        <time>2016-08-29T15:50:43Z</time>
      </trkpt>
      <trkpt lat="46.19829" lon="-1.33895">
        <ele>7.83</ele>
        <time>2016-08-29T15:50:58Z</time>
      </trkpt>
      <trkpt lat="46.19806" lon="-1.33825">
        <ele>8.31</ele>
        <time>2016-08-29T15:51:10Z</time>
      </trkpt>
      <trkpt lat="46.1979" lon="-1.33812">
        <ele>7.35</ele>
        <time>2016-08-29T15:51:15Z</time>
      </trkpt>
      <trkpt lat="46.19788" lon="-1.33807">
        <ele>7.35</ele>
        <time>2016-08-29T15:51:16Z</time>
      </trkpt>
      <trkpt lat="46.19786" lon="-1.33802">
        <ele>7.35</ele>
        <time>2016-08-29T15:51:17Z</time>
      </trkpt>
      <trkpt lat="46.19784" lon="-1.33797">
        <ele>7.35</ele>
        <time>2016-08-29T15:51:18Z</time>
      </trkpt>
      <trkpt lat="46.19782" lon="-1.33792">
        <ele>7.83</ele>
        <time>2016-08-29T15:51:19Z</time>
      </trkpt>
      <trkpt lat="46.1978" lon="-1.33787">
        <ele>8.31</ele>
        <time>2016-08-29T15:51:20Z</time>
      </trkpt>
      <trkpt lat="46.19777" lon="-1.33782">
        <ele>7.83</ele>
        <time>2016-08-29T15:51:21Z</time>
      </trkpt>
      <trkpt lat="46.19775" lon="-1.33777">
        <ele>7.35</ele>
        <time>2016-08-29T15:51:22Z</time>
      </trkpt>
      <trkpt lat="46.19771" lon="-1.33772">
        <ele>7.83</ele>
        <time>2016-08-29T15:51:23Z</time>
      </trkpt>
      <trkpt lat="46.19768" lon="-1.33768">
        <ele>8.31</ele>
        <time>2016-08-29T15:51:24Z</time>
      </trkpt>
      <trkpt lat="46.19753" lon="-1.33745">
        <ele>7.83</ele>
        <time>2016-08-29T15:51:32Z</time>
      </trkpt>
      <trkpt lat="46.19751" lon="-1.33742">
        <ele>8.79</ele>
        <time>2016-08-29T15:51:33Z</time>
      </trkpt>
      <trkpt lat="46.19748" lon="-1.3374">
        <ele>8.79</ele>
        <time>2016-08-29T15:51:34Z</time>
      </trkpt>
      <trkpt lat="46.19745" lon="-1.33738">
        <ele>7.83</ele>
        <time>2016-08-29T15:51:35Z</time>
      </trkpt>
      <trkpt lat="46.19742" lon="-1.33736">
        <ele>7.83</ele>
        <time>2016-08-29T15:51:36Z</time>
      </trkpt>
      <trkpt lat="46.19739" lon="-1.33733">
        <ele>8.31</ele>
        <time>2016-08-29T15:51:37Z</time>
      </trkpt>
      <trkpt lat="46.19698" lon="-1.33691">
        <ele>8.31</ele>
        <time>2016-08-29T15:51:49Z</time>
      </trkpt>
      <trkpt lat="46.19641" lon="-1.33632">
        <ele>8.31</ele>
        <time>2016-08-29T15:52:04Z</time>
      </trkpt>
      <trkpt lat="46.19592" lon="-1.33586">
        <ele>9.27</ele>
        <time>2016-08-29T15:52:17Z</time>
      </trkpt>
      <trkpt lat="46.19563" lon="-1.33561">
        <ele>9.75</ele>
        <time>2016-08-29T15:52:26Z</time>
      </trkpt>
      <trkpt lat="46.1953" lon="-1.33533">
        <ele>9.75</ele>
        <time>2016-08-29T15:52:35Z</time>
      </trkpt>
      <trkpt lat="46.19526" lon="-1.3353">
        <ele>9.27</ele>
        <time>2016-08-29T15:52:36Z</time>
      </trkpt>
      <trkpt lat="46.19477" lon="-1.33482">
        <ele>8.79</ele>
        <time>2016-08-29T15:52:49Z</time>
      </trkpt>
      <trkpt lat="46.19427" lon="-1.33418">
        <ele>8.31</ele>
        <time>2016-08-29T15:53:03Z</time>
      </trkpt>
      <trkpt lat="46.19386" lon="-1.33361">
        <ele>9.27</ele>
        <time>2016-08-29T15:53:16Z</time>
      </trkpt>
      <trkpt lat="46.19348" lon="-1.33308">
        <ele>10.23</ele>
        <time>2016-08-29T15:53:29Z</time>
      </trkpt>
      <trkpt lat="46.19343" lon="-1.333">
        <ele>10.71</ele>
        <time>2016-08-29T15:53:31Z</time>
      </trkpt>
      <trkpt lat="46.19328" lon="-1.33279">
        <ele>10.71</ele>
        <time>2016-08-29T15:53:36Z</time>
      </trkpt>
      <trkpt lat="46.19325" lon="-1.33274">
        <ele>10.71</ele>
        <time>2016-08-29T15:53:37Z</time>
      </trkpt>
      <trkpt lat="46.19322" lon="-1.3327">
        <ele>10.71</ele>
        <time>2016-08-29T15:53:38Z</time>
      </trkpt>
      <trkpt lat="46.19319" lon="-1.33266">
        <ele>10.71</ele>
        <time>2016-08-29T15:53:39Z</time>
      </trkpt>
      <trkpt lat="46.19316" lon="-1.33262">
        <ele>10.71</ele>
        <time>2016-08-29T15:53:40Z</time>
      </trkpt>
      <trkpt lat="46.1931" lon="-1.33253">
        <ele>10.71</ele>
        <time>2016-08-29T15:53:42Z</time>
      </trkpt>
      <trkpt lat="46.19273" lon="-1.33204">
        <ele>9.75</ele>
        <time>2016-08-29T15:53:55Z</time>
      </trkpt>
      <trkpt lat="46.19255" lon="-1.3318">
        <ele>8.79</ele>
        <time>2016-08-29T15:54:01Z</time>
      </trkpt>
      <trkpt lat="46.19217" lon="-1.33116">
        <ele>7.83</ele>
        <time>2016-08-29T15:54:13Z</time>
      </trkpt>
      <trkpt lat="46.19171" lon="-1.33046">
        <ele>7.35</ele>
        <time>2016-08-29T15:54:27Z</time>
      </trkpt>
      <trkpt lat="46.19141" lon="-1.33">
        <ele>8.31</ele>
        <time>2016-08-29T15:54:37Z</time>
      </trkpt>
      <trkpt lat="46.19114" lon="-1.32974">
        <ele>7.35</ele>
        <time>2016-08-29T15:54:45Z</time>
      </trkpt>
      <trkpt lat="46.19111" lon="-1.3297">
        <ele>7.83</ele>
        <time>2016-08-29T15:54:46Z</time>
      </trkpt>
      <trkpt lat="46.19108" lon="-1.32965">
        <ele>7.35</ele>
        <time>2016-08-29T15:54:47Z</time>
      </trkpt>
      <trkpt lat="46.19105" lon="-1.3296">
        <ele>7.35</ele>
        <time>2016-08-29T15:54:48Z</time>
      </trkpt>
      <trkpt lat="46.19103" lon="-1.32954">
        <ele>7.35</ele>
        <time>2016-08-29T15:54:49Z</time>
      </trkpt>
      <trkpt lat="46.19101" lon="-1.32948">
        <ele>7.83</ele>
        <time>2016-08-29T15:54:50Z</time>
      </trkpt>
      <trkpt lat="46.19093" lon="-1.32931">
        <ele>7.83</ele>
        <time>2016-08-29T15:54:53Z</time>
      </trkpt>
      <trkpt lat="46.19051" lon="-1.32864">
        <ele>7.83</ele>
        <time>2016-08-29T15:55:06Z</time>
      </trkpt>
      <trkpt lat="46.19028" lon="-1.32828">
        <ele>7.83</ele>
        <time>2016-08-29T15:55:13Z</time>
      </trkpt>
      <trkpt lat="46.18985" lon="-1.32762">
        <ele>8.31</ele>
        <time>2016-08-29T15:55:26Z</time>
      </trkpt>
      <trkpt lat="46.18952" lon="-1.3271">
        <ele>7.83</ele>
        <time>2016-08-29T15:55:36Z</time>
      </trkpt>
      <trkpt lat="46.18932" lon="-1.32678">
        <ele>7.83</ele>
        <time>2016-08-29T15:55:42Z</time>
      </trkpt>
      <trkpt lat="46.18928" lon="-1.32674">
        <ele>7.35</ele>
        <time>2016-08-29T15:55:43Z</time>
      </trkpt>
      <trkpt lat="46.18923" lon="-1.32672">
        <ele>7.83</ele>
        <time>2016-08-29T15:55:44Z</time>
      </trkpt>
      <trkpt lat="46.18919" lon="-1.32673">
        <ele>7.83</ele>
        <time>2016-08-29T15:55:45Z</time>
      </trkpt>
      <trkpt lat="46.18915" lon="-1.32675">
        <ele>7.83</ele>
        <time>2016-08-29T15:55:46Z</time>
      </trkpt>
      <trkpt lat="46.18912" lon="-1.32679">
        <ele>7.35</ele>
        <time>2016-08-29T15:55:47Z</time>
      </trkpt>
      <trkpt lat="46.18909" lon="-1.32683">
        <ele>7.35</ele>
        <time>2016-08-29T15:55:48Z</time>
      </trkpt>
      <trkpt lat="46.18879" lon="-1.32715">
        <ele>9.75</ele>
        <time>2016-08-29T15:55:58Z</time>
      </trkpt>
      <trkpt lat="46.18864" lon="-1.32745">
        <ele>10.23</ele>
        <time>2016-08-29T15:56:06Z</time>
      </trkpt>
      <trkpt lat="46.18844" lon="-1.32783">
        <ele>11.19</ele>
        <time>2016-08-29T15:56:15Z</time>
      </trkpt>
      <trkpt lat="46.18833" lon="-1.32805">
        <ele>9.75</ele>
        <time>2016-08-29T15:56:21Z</time>
      </trkpt>
      <trkpt lat="46.18831" lon="-1.32807">
        <ele>9.75</ele>
        <time>2016-08-29T15:56:22Z</time>
      </trkpt>
      <trkpt lat="46.18829" lon="-1.32808">
        <ele>9.75</ele>
        <time>2016-08-29T15:56:23Z</time>
      </trkpt>
      <trkpt lat="46.18827" lon="-1.3281">
        <ele>9.27</ele>
        <time>2016-08-29T15:56:24Z</time>
      </trkpt>
      <trkpt lat="46.18824" lon="-1.32812">
        <ele>8.79</ele>
        <time>2016-08-29T15:56:25Z</time>
      </trkpt>
      <trkpt lat="46.18821" lon="-1.32813">
        <ele>8.79</ele>
        <time>2016-08-29T15:56:26Z</time>
      </trkpt>
      <trkpt lat="46.18804" lon="-1.32835">
        <ele>9.27</ele>
        <time>2016-08-29T15:56:34Z</time>
      </trkpt>
      <trkpt lat="46.18795" lon="-1.32848">
        <ele>9.27</ele>
        <time>2016-08-29T15:56:41Z</time>
      </trkpt>
      <trkpt lat="46.18795" lon="-1.3285">
        <ele>8.79</ele>
        <time>2016-08-29T15:56:42Z</time>
      </trkpt>
      <trkpt lat="46.18796" lon="-1.32851">
        <ele>8.79</ele>
        <time>2016-08-29T15:56:43Z</time>
      </trkpt>
      <trkpt lat="46.18796" lon="-1.32852">
        <ele>8.31</ele>
        <time>2016-08-29T15:56:44Z</time>
      </trkpt>
      <trkpt lat="46.18797" lon="-1.32854">
        <ele>8.79</ele>
        <time>2016-08-29T15:56:45Z</time>
      </trkpt>
      <trkpt lat="46.18817" lon="-1.32884">
        <ele>8.31</ele>
        <time>2016-08-29T15:56:55Z</time>
      </trkpt>
      <trkpt lat="46.18837" lon="-1.32906">
        <ele>8.31</ele>
        <time>2016-08-29T15:57:03Z</time>
      </trkpt>
      <trkpt lat="46.18839" lon="-1.3291">
        <ele>8.79</ele>
        <time>2016-08-29T15:57:04Z</time>
      </trkpt>
      <trkpt lat="46.18842" lon="-1.32913">
        <ele>8.79</ele>
        <time>2016-08-29T15:57:05Z</time>
      </trkpt>
      <trkpt lat="46.18845" lon="-1.32916">
        <ele>8.31</ele>
        <time>2016-08-29T15:57:06Z</time>
      </trkpt>
      <trkpt lat="46.18847" lon="-1.32918">
        <ele>8.79</ele>
        <time>2016-08-29T15:57:07Z</time>
      </trkpt>
      <trkpt lat="46.18849" lon="-1.32921">
        <ele>8.79</ele>
        <time>2016-08-29T15:57:08Z</time>
      </trkpt>
      <trkpt lat="46.18852" lon="-1.32922">
        <ele>8.79</ele>
        <time>2016-08-29T15:57:09Z</time>
      </trkpt>
      <trkpt lat="46.18854" lon="-1.32921">
        <ele>8.31</ele>
        <time>2016-08-29T15:57:10Z</time>
      </trkpt>
      <trkpt lat="46.18854" lon="-1.32919">
        <ele>9.27</ele>
        <time>2016-08-29T15:57:11Z</time>
      </trkpt>
      <trkpt lat="46.18854" lon="-1.32917">
        <ele>9.27</ele>
        <time>2016-08-29T15:57:12Z</time>
      </trkpt>
      <trkpt lat="46.18854" lon="-1.32915">
        <ele>9.27</ele>
        <time>2016-08-29T15:57:13Z</time>
      </trkpt>
      <trkpt lat="46.18853" lon="-1.32913">
        <ele>9.27</ele>
        <time>2016-08-29T15:57:14Z</time>
      </trkpt>
      <trkpt lat="46.18852" lon="-1.32912">
        <ele>9.75</ele>
        <time>2016-08-29T15:57:15Z</time>
      </trkpt>
      <trkpt lat="46.1885" lon="-1.32909">
        <ele>9.75</ele>
        <time>2016-08-29T15:57:17Z</time>
      </trkpt>
      <trkpt lat="46.18846" lon="-1.32903">
        <ele>10.23</ele>
        <time>2016-08-29T15:57:28Z</time>
      </trkpt>
      <trkpt lat="46.18846" lon="-1.32903">
        <ele>13.6</ele>
        <time>2016-08-29T15:57:31Z</time>
      </trkpt>
      <trkpt lat="46.18846" lon="-1.32903">
        <ele>10.23</ele>
        <time>2016-08-29T15:57:32Z</time>
      </trkpt>
      <trkpt lat="46.18846" lon="-1.32903">
        <ele>5.42</ele>
        <time>2016-08-29T15:57:35Z</time>
      </trkpt>
      <trkpt lat="46.18846" lon="-1.32903">
        <ele>10.23</ele>
        <time>2016-08-29T15:57:36Z</time>
      </trkpt>
      <trkpt lat="46.18846" lon="-1.32903">
        <ele>-6.59</ele>
        <time>2016-08-29T15:57:37Z</time>
      </trkpt>
      <trkpt lat="46.18846" lon="-1.32903">
        <ele>13.12</ele>
        <time>2016-08-29T15:57:38Z</time>
      </trkpt>
      <trkpt lat="46.18846" lon="-1.32903">
        <ele>10.23</ele>
        <time>2016-08-29T15:57:39Z</time>
      </trkpt>
      <trkpt lat="46.18846" lon="-1.32903">
        <ele>3.5</ele>
        <time>2016-08-29T15:57:46Z</time>
      </trkpt>
      <trkpt lat="46.18846" lon="-1.32903">
        <ele>6.87</ele>
        <time>2016-08-29T15:57:47Z</time>
      </trkpt>
      <trkpt lat="46.18846" lon="-1.32903">
        <ele>12.63</ele>
        <time>2016-08-29T15:57:48Z</time>
      </trkpt>
      <trkpt lat="46.18845" lon="-1.32903">
        <ele>1.1</ele>
        <time>2016-08-29T15:57:50Z</time>
      </trkpt>
      <trkpt lat="46.18845" lon="-1.32903">
        <ele>12.15</ele>
        <time>2016-08-29T15:57:51Z</time>
      </trkpt>
      <trkpt lat="46.18845" lon="-1.32903">
        <ele>15.04</ele>
        <time>2016-08-29T15:57:56Z</time>
      </trkpt>
      <trkpt lat="46.18845" lon="-1.32903">
        <ele>6.39</ele>
        <time>2016-08-29T15:57:57Z</time>
      </trkpt>
      <trkpt lat="46.18845" lon="-1.32903">
        <ele>10.71</ele>
        <time>2016-08-29T15:57:58Z</time>
      </trkpt>
      <trkpt lat="46.18845" lon="-1.32903">
        <ele>4.46</ele>
        <time>2016-08-29T15:57:59Z</time>
      </trkpt>
      <trkpt lat="46.18845" lon="-1.32902">
        <ele>11.19</ele>
        <time>2016-08-29T15:58:00Z</time>
      </trkpt>
      <trkpt lat="46.18845" lon="-1.32902">
        <ele>4.46</ele>
        <time>2016-08-29T15:58:02Z</time>
      </trkpt>
      <trkpt lat="46.18845" lon="-1.32902">
        <ele>11.19</ele>
        <time>2016-08-29T15:58:03Z</time>
      </trkpt>
      <trkpt lat="46.18845" lon="-1.32902">
        <ele>14.56</ele>
        <time>2016-08-29T15:58:04Z</time>
      </trkpt>
      <trkpt lat="46.18845" lon="-1.32902">
        <ele>10.71</ele>
        <time>2016-08-29T15:58:05Z</time>
      </trkpt>
      <trkpt lat="46.18845" lon="-1.32902">
        <ele>14.56</ele>
        <time>2016-08-29T15:58:11Z</time>
      </trkpt>
      <trkpt lat="46.18845" lon="-1.32902">
        <ele>13.12</ele>
        <time>2016-08-29T15:58:12Z</time>
      </trkpt>
      <trkpt lat="46.18845" lon="-1.32902">
        <ele>26.57</ele>
        <time>2016-08-29T15:58:13Z</time>
      </trkpt>
      <trkpt lat="46.18845" lon="-1.32902">
        <ele>10.71</ele>
        <time>2016-08-29T15:58:14Z</time>
      </trkpt>
      <trkpt lat="46.18845" lon="-1.32902">
        <ele>-13.8</ele>
        <time>2016-08-29T15:58:16Z</time>
      </trkpt>
      <trkpt lat="46.18845" lon="-1.32902">
        <ele>18.4</ele>
        <time>2016-08-29T15:58:17Z</time>
      </trkpt>
      <trkpt lat="46.18845" lon="-1.32902">
        <ele>14.56</ele>
        <time>2016-08-29T15:58:18Z</time>
      </trkpt>
      <trkpt lat="46.18845" lon="-1.32902">
        <ele>4.94</ele>
        <time>2016-08-29T15:58:19Z</time>
      </trkpt>
      <trkpt lat="46.18845" lon="-1.32902">
        <ele>11.19</ele>
        <time>2016-08-29T15:58:20Z</time>
      </trkpt>
      <trkpt lat="46.18845" lon="-1.32902">
        <ele>-3.71</ele>
        <time>2016-08-29T15:58:23Z</time>
      </trkpt>
      <trkpt lat="46.18845" lon="-1.32901">
        <ele>17.92</ele>
        <time>2016-08-29T15:58:24Z</time>
      </trkpt>
      <trkpt lat="46.18845" lon="-1.32901">
        <ele>21.77</ele>
        <time>2016-08-29T15:58:25Z</time>
      </trkpt>
      <trkpt lat="46.18845" lon="-1.32901">
        <ele>12.15</ele>
        <time>2016-08-29T15:58:26Z</time>
      </trkpt>
      <trkpt lat="46.18845" lon="-1.32901">
        <ele>14.56</ele>
        <time>2016-08-29T15:58:27Z</time>
      </trkpt>
      <trkpt lat="46.18845" lon="-1.32901">
        <ele>22.73</ele>
        <time>2016-08-29T15:58:28Z</time>
      </trkpt>
      <trkpt lat="46.18845" lon="-1.32901">
        <ele>9.75</ele>
        <time>2016-08-29T15:58:29Z</time>
      </trkpt>
      <trkpt lat="46.18845" lon="-1.32901">
        <ele>28.02</ele>
        <time>2016-08-29T15:58:34Z</time>
      </trkpt>
      <trkpt lat="46.18845" lon="-1.32901">
        <ele>10.23</ele>
        <time>2016-08-29T15:58:35Z</time>
      </trkpt>
      <trkpt lat="46.18845" lon="-1.32901">
        <ele>1.1</ele>
        <time>2016-08-29T15:58:37Z</time>
      </trkpt>
      <trkpt lat="46.18845" lon="-1.32902">
        <ele>18.88</ele>
        <time>2016-08-29T15:58:39Z</time>
      </trkpt>
      <trkpt lat="46.18845" lon="-1.32902">
        <ele>10.23</ele>
        <time>2016-08-29T15:58:40Z</time>
      </trkpt>
      <trkpt lat="46.18845" lon="-1.32902">
        <ele>30.42</ele>
        <time>2016-08-29T15:58:42Z</time>
      </trkpt>
      <trkpt lat="46.18845" lon="-1.32902">
        <ele>-11.4</ele>
        <time>2016-08-29T15:58:43Z</time>
      </trkpt>
      <trkpt lat="46.18845" lon="-1.32902">
        <ele>13.12</ele>
        <time>2016-08-29T15:58:44Z</time>
      </trkpt>
      <trkpt lat="46.18845" lon="-1.32901">
        <ele>9.27</ele>
        <time>2016-08-29T15:58:45Z</time>
      </trkpt>
      <trkpt lat="46.18843" lon="-1.32901">
        <ele>9.27</ele>
        <time>2016-08-29T15:58:56Z</time>
      </trkpt>
      <trkpt lat="46.18842" lon="-1.32901">
        <ele>9.27</ele>
        <time>2016-08-29T15:59:19Z</time>
      </trkpt>
      <trkpt lat="46.18843" lon="-1.32901">
        <ele>9.27</ele>
        <time>2016-08-29T15:59:39Z</time>
      </trkpt>
      <trkpt lat="46.18842" lon="-1.32901">
        <ele>9.27</ele>
        <time>2016-08-29T16:00:01Z</time>
      </trkpt>
      <trkpt lat="46.18843" lon="-1.32901">
        <ele>9.27</ele>
        <time>2016-08-29T16:00:23Z</time>
      </trkpt>
      <trkpt lat="46.18842" lon="-1.329">
        <ele>2.54</ele>
        <time>2016-08-29T16:00:37Z</time>
      </trkpt>
      <trkpt lat="46.18842" lon="-1.329">
        <ele>12.63</ele>
        <time>2016-08-29T16:00:38Z</time>
      </trkpt>
      <trkpt lat="46.18842" lon="-1.329">
        <ele>7.35</ele>
        <time>2016-08-29T16:00:41Z</time>
      </trkpt>
      <trkpt lat="46.18842" lon="-1.329">
        <ele>3.02</ele>
        <time>2016-08-29T16:00:47Z</time>
      </trkpt>
      <trkpt lat="46.18842" lon="-1.329">
        <ele>7.83</ele>
        <time>2016-08-29T16:00:48Z</time>
      </trkpt>
      <trkpt lat="46.18842" lon="-1.32899">
        <ele>13.12</ele>
        <time>2016-08-29T16:00:49Z</time>
      </trkpt>
      <trkpt lat="46.18842" lon="-1.32899">
        <ele>19.84</ele>
        <time>2016-08-29T16:00:50Z</time>
      </trkpt>
      <trkpt lat="46.18842" lon="-1.32899">
        <ele>13.6</ele>
        <time>2016-08-29T16:00:51Z</time>
      </trkpt>
      <trkpt lat="46.18842" lon="-1.329">
        <ele>11.19</ele>
        <time>2016-08-29T16:00:52Z</time>
      </trkpt>
      <trkpt lat="46.18842" lon="-1.329">
        <ele>-0.82</ele>
        <time>2016-08-29T16:00:53Z</time>
      </trkpt>
      <trkpt lat="46.18842" lon="-1.329">
        <ele>8.31</ele>
        <time>2016-08-29T16:00:54Z</time>
      </trkpt>
      <trkpt lat="46.18842" lon="-1.329">
        <ele>10.71</ele>
        <time>2016-08-29T16:00:55Z</time>
      </trkpt>
      <trkpt lat="46.18842" lon="-1.329">
        <ele>11.19</ele>
        <time>2016-08-29T16:00:56Z</time>
      </trkpt>
      <trkpt lat="46.18843" lon="-1.329">
        <ele>4.46</ele>
        <time>2016-08-29T16:01:09Z</time>
      </trkpt>
      <trkpt lat="46.18843" lon="-1.329">
        <ele>11.67</ele>
        <time>2016-08-29T16:01:10Z</time>
      </trkpt>
      <trkpt lat="46.18843" lon="-1.329">
        <ele>-18.13</ele>
        <time>2016-08-29T16:01:14Z</time>
      </trkpt>
      <trkpt lat="46.18843" lon="-1.329">
        <ele>30.42</ele>
        <time>2016-08-29T16:01:15Z</time>
      </trkpt>
      <trkpt lat="46.18843" lon="-1.329">
        <ele>-21.49</ele>
        <time>2016-08-29T16:01:16Z</time>
      </trkpt>
      <trkpt lat="46.18843" lon="-1.329">
        <ele>16</ele>
        <time>2016-08-29T16:01:17Z</time>
      </trkpt>
      <trkpt lat="46.18843" lon="-1.329">
        <ele>9.75</ele>
        <time>2016-08-29T16:01:18Z</time>
      </trkpt>
      <trkpt lat="46.18843" lon="-1.32901">
        <ele>1.58</ele>
        <time>2016-08-29T16:01:21Z</time>
      </trkpt>
      <trkpt lat="46.18843" lon="-1.32901">
        <ele>8.31</ele>
        <time>2016-08-29T16:01:22Z</time>
      </trkpt>
      <trkpt lat="46.18843" lon="-1.32901">
        <ele>11.19</ele>
        <time>2016-08-29T16:01:23Z</time>
      </trkpt>
      <trkpt lat="46.18844" lon="-1.32901">
        <ele>9.75</ele>
        <time>2016-08-29T16:01:25Z</time>
      </trkpt>
      <trkpt lat="46.18844" lon="-1.32901">
        <ele>30.9</ele>
        <time>2016-08-29T16:01:30Z</time>
      </trkpt>
      <trkpt lat="46.18844" lon="-1.32901">
        <ele>-2.27</ele>
        <time>2016-08-29T16:01:31Z</time>
      </trkpt>
      <trkpt lat="46.18844" lon="-1.32901">
        <ele>10.23</ele>
        <time>2016-08-29T16:01:32Z</time>
      </trkpt>
      <trkpt lat="46.18844" lon="-1.32901">
        <ele>-14.28</ele>
        <time>2016-08-29T16:01:33Z</time>
      </trkpt>
      <trkpt lat="46.18844" lon="-1.32901">
        <ele>12.15</ele>
        <time>2016-08-29T16:01:34Z</time>
      </trkpt>
      <trkpt lat="46.18844" lon="-1.32901">
        <ele>9.75</ele>
        <time>2016-08-29T16:01:37Z</time>
      </trkpt>
      <trkpt lat="46.18842" lon="-1.329">
        <ele>9.75</ele>
        <time>2016-08-29T16:01:54Z</time>
      </trkpt>
      <trkpt lat="46.18842" lon="-1.32899">
        <ele>7.83</ele>
        <time>2016-08-29T16:01:56Z</time>
      </trkpt>
      <trkpt lat="46.18842" lon="-1.32899">
        <ele>10.23</ele>
        <time>2016-08-29T16:01:57Z</time>
      </trkpt>
      <trkpt lat="46.18841" lon="-1.32899">
        <ele>1.58</ele>
        <time>2016-08-29T16:02:00Z</time>
      </trkpt>
      <trkpt lat="46.18841" lon="-1.32898">
        <ele>15.52</ele>
        <time>2016-08-29T16:02:01Z</time>
      </trkpt>
      <trkpt lat="46.18841" lon="-1.32898">
        <ele>15.52</ele>
        <time>2016-08-29T16:02:02Z</time>
      </trkpt>
      <trkpt lat="46.1884" lon="-1.32898">
        <ele>9.27</ele>
        <time>2016-08-29T16:02:03Z</time>
      </trkpt>
      <trkpt lat="46.1884" lon="-1.32898">
        <ele>9.75</ele>
        <time>2016-08-29T16:02:05Z</time>
      </trkpt>
      <trkpt lat="46.18841" lon="-1.329">
        <ele>5.91</ele>
        <time>2016-08-29T16:02:12Z</time>
      </trkpt>
      <trkpt lat="46.18841" lon="-1.329">
        <ele>9.27</ele>
        <time>2016-08-29T16:02:13Z</time>
      </trkpt>
      <trkpt lat="46.18842" lon="-1.329">
        <ele>5.42</ele>
        <time>2016-08-29T16:02:14Z</time>
      </trkpt>
      <trkpt lat="46.18844" lon="-1.32902">
        <ele>10.23</ele>
        <time>2016-08-29T16:02:15Z</time>
      </trkpt>
      <trkpt lat="46.18845" lon="-1.32903">
        <ele>4.46</ele>
        <time>2016-08-29T16:02:16Z</time>
      </trkpt>
      <trkpt lat="46.18845" lon="-1.32903">
        <ele>9.75</ele>
        <time>2016-08-29T16:02:18Z</time>
      </trkpt>
      <trkpt lat="46.18845" lon="-1.32903">
        <ele>9.27</ele>
        <time>2016-08-29T16:02:19Z</time>
      </trkpt>
      <trkpt lat="46.18845" lon="-1.32903">
        <ele>-30.62</ele>
        <time>2016-08-29T16:02:20Z</time>
      </trkpt>
      <trkpt lat="46.18845" lon="-1.32903">
        <ele>13.6</ele>
        <time>2016-08-29T16:02:21Z</time>
      </trkpt>
      <trkpt lat="46.18845" lon="-1.32903">
        <ele>9.75</ele>
        <time>2016-08-29T16:02:22Z</time>
      </trkpt>
      <trkpt lat="46.18845" lon="-1.32902">
        <ele>-32.55</ele>
        <time>2016-08-29T16:02:23Z</time>
      </trkpt>
      <trkpt lat="46.18845" lon="-1.32903">
        <ele>14.08</ele>
        <time>2016-08-29T16:02:24Z</time>
      </trkpt>
      <trkpt lat="46.18845" lon="-1.32904">
        <ele>8.79</ele>
        <time>2016-08-29T16:02:26Z</time>
      </trkpt>
      <trkpt lat="46.18846" lon="-1.32905">
        <ele>9.27</ele>
        <time>2016-08-29T16:02:27Z</time>
      </trkpt>
      <trkpt lat="46.18846" lon="-1.32905">
        <ele>-26.3</ele>
        <time>2016-08-29T16:02:29Z</time>
      </trkpt>
      <trkpt lat="46.18846" lon="-1.32905">
        <ele>13.6</ele>
        <time>2016-08-29T16:02:30Z</time>
      </trkpt>
      <trkpt lat="46.18846" lon="-1.32905">
        <ele>9.27</ele>
        <time>2016-08-29T16:02:31Z</time>
      </trkpt>
      <trkpt lat="46.18843" lon="-1.32902">
        <ele>9.75</ele>
        <time>2016-08-29T16:02:45Z</time>
      </trkpt>
      <trkpt lat="46.18843" lon="-1.32902">
        <ele>4.46</ele>
        <time>2016-08-29T16:02:52Z</time>
      </trkpt>
      <trkpt lat="46.18843" lon="-1.32902">
        <ele>33.3</ele>
        <time>2016-08-29T16:02:53Z</time>
      </trkpt>
      <trkpt lat="46.18843" lon="-1.32902">
        <ele>10.71</ele>
        <time>2016-08-29T16:02:54Z</time>
      </trkpt>
      <trkpt lat="46.18843" lon="-1.32902">
        <ele>16</ele>
        <time>2016-08-29T16:02:56Z</time>
      </trkpt>
      <trkpt lat="46.18843" lon="-1.32903">
        <ele>22.25</ele>
        <time>2016-08-29T16:02:57Z</time>
      </trkpt>
      <trkpt lat="46.18843" lon="-1.32903">
        <ele>10.23</ele>
        <time>2016-08-29T16:02:58Z</time>
      </trkpt>
      <trkpt lat="46.18842" lon="-1.32903">
        <ele>9.27</ele>
        <time>2016-08-29T16:03:11Z</time>
      </trkpt>
      <trkpt lat="46.18842" lon="-1.32904">
        <ele>-4.67</ele>
        <time>2016-08-29T16:03:19Z</time>
      </trkpt>
      <trkpt lat="46.18842" lon="-1.32904">
        <ele>10.23</ele>
        <time>2016-08-29T16:03:20Z</time>
      </trkpt>
      <trkpt lat="46.18842" lon="-1.32904">
        <ele>-9.96</ele>
        <time>2016-08-29T16:03:28Z</time>
      </trkpt>
      <trkpt lat="46.18842" lon="-1.32904">
        <ele>11.67</ele>
        <time>2016-08-29T16:03:29Z</time>
      </trkpt>
      <trkpt lat="46.18842" lon="-1.32904">
        <ele>0.14</ele>
        <time>2016-08-29T16:03:30Z</time>
      </trkpt>
      <trkpt lat="46.18842" lon="-1.32904">
        <ele>13.6</ele>
        <time>2016-08-29T16:03:32Z</time>
      </trkpt>
      <trkpt lat="46.18842" lon="-1.32904">
        <ele>9.75</ele>
        <time>2016-08-29T16:03:33Z</time>
      </trkpt>
      <trkpt lat="46.18842" lon="-1.32903">
        <ele>-4.19</ele>
        <time>2016-08-29T16:03:48Z</time>
      </trkpt>
      <trkpt lat="46.18842" lon="-1.32903">
        <ele>11.19</ele>
        <time>2016-08-29T16:03:49Z</time>
      </trkpt>
      <trkpt lat="46.18842" lon="-1.32903">
        <ele>7.83</ele>
        <time>2016-08-29T16:03:54Z</time>
      </trkpt>
      <trkpt lat="46.18842" lon="-1.32903">
        <ele>-10.44</ele>
        <time>2016-08-29T16:03:56Z</time>
      </trkpt>
      <trkpt lat="46.18842" lon="-1.32903">
        <ele>10.23</ele>
        <time>2016-08-29T16:03:57Z</time>
      </trkpt>
      <trkpt lat="46.18842" lon="-1.32903">
        <ele>13.6</ele>
        <time>2016-08-29T16:04:01Z</time>
      </trkpt>
      <trkpt lat="46.18842" lon="-1.32903">
        <ele>2.54</ele>
        <time>2016-08-29T16:04:02Z</time>
      </trkpt>
      <trkpt lat="46.18842" lon="-1.32903">
        <ele>10.71</ele>
        <time>2016-08-29T16:04:03Z</time>
      </trkpt>
      <trkpt lat="46.18842" lon="-1.32903">
        <ele>7.35</ele>
        <time>2016-08-29T16:04:05Z</time>
      </trkpt>
      <trkpt lat="46.18841" lon="-1.32903">
        <ele>9.27</ele>
        <time>2016-08-29T16:04:06Z</time>
      </trkpt>
      <trkpt lat="46.18841" lon="-1.32903">
        <ele>-14.28</ele>
        <time>2016-08-29T16:04:07Z</time>
      </trkpt>
      <trkpt lat="46.18841" lon="-1.32903">
        <ele>-20.05</ele>
        <time>2016-08-29T16:04:08Z</time>
      </trkpt>
      <trkpt lat="46.18841" lon="-1.32903">
        <ele>12.63</ele>
        <time>2016-08-29T16:04:09Z</time>
      </trkpt>
      <trkpt lat="46.18841" lon="-1.32903">
        <ele>8.31</ele>
        <time>2016-08-29T16:04:10Z</time>
      </trkpt>
      <trkpt lat="46.18841" lon="-1.32903">
        <ele>9.75</ele>
        <time>2016-08-29T16:04:12Z</time>
      </trkpt>
      <trkpt lat="46.18842" lon="-1.32903">
        <ele>9.27</ele>
        <time>2016-08-29T16:04:21Z</time>
      </trkpt>
      <trkpt lat="46.18842" lon="-1.32903">
        <ele>32.82</ele>
        <time>2016-08-29T16:04:25Z</time>
      </trkpt>
      <trkpt lat="46.18842" lon="-1.32903">
        <ele>19.84</ele>
        <time>2016-08-29T16:04:26Z</time>
      </trkpt>
      <trkpt lat="46.18842" lon="-1.32903">
        <ele>8.31</ele>
        <time>2016-08-29T16:04:27Z</time>
      </trkpt>
      <trkpt lat="46.18842" lon="-1.32903">
        <ele>29.46</ele>
        <time>2016-08-29T16:04:28Z</time>
      </trkpt>
      <trkpt lat="46.18842" lon="-1.32903">
        <ele>-24.38</ele>
        <time>2016-08-29T16:04:29Z</time>
      </trkpt>
      <trkpt lat="46.18842" lon="-1.32903">
        <ele>7.83</ele>
        <time>2016-08-29T16:04:30Z</time>
      </trkpt>
      <trkpt lat="46.18842" lon="-1.32903">
        <ele>21.29</ele>
        <time>2016-08-29T16:04:31Z</time>
      </trkpt>
      <trkpt lat="46.18842" lon="-1.32903">
        <ele>9.75</ele>
        <time>2016-08-29T16:04:32Z</time>
      </trkpt>
      <trkpt lat="46.18842" lon="-1.32902">
        <ele>6.39</ele>
        <time>2016-08-29T16:04:35Z</time>
      </trkpt>
      <trkpt lat="46.18843" lon="-1.32902">
        <ele>6.39</ele>
        <time>2016-08-29T16:04:36Z</time>
      </trkpt>
      <trkpt lat="46.18843" lon="-1.32902">
        <ele>10.71</ele>
        <time>2016-08-29T16:04:37Z</time>
      </trkpt>
      <trkpt lat="46.18843" lon="-1.32902">
        <ele>20.32</ele>
        <time>2016-08-29T16:04:38Z</time>
      </trkpt>
      <trkpt lat="46.18843" lon="-1.32903">
        <ele>15.04</ele>
        <time>2016-08-29T16:04:39Z</time>
      </trkpt>
      <trkpt lat="46.18843" lon="-1.32903">
        <ele>6.39</ele>
        <time>2016-08-29T16:04:40Z</time>
      </trkpt>
      <trkpt lat="46.18843" lon="-1.32903">
        <ele>9.75</ele>
        <time>2016-08-29T16:04:41Z</time>
      </trkpt>
      <trkpt lat="46.18843" lon="-1.32906">
        <ele>8.79</ele>
        <time>2016-08-29T16:05:03Z</time>
      </trkpt>
      <trkpt lat="46.18843" lon="-1.32906">
        <ele>-2.75</ele>
        <time>2016-08-29T16:05:05Z</time>
      </trkpt>
      <trkpt lat="46.18844" lon="-1.32906">
        <ele>10.71</ele>
        <time>2016-08-29T16:05:06Z</time>
      </trkpt>
      <trkpt lat="46.18844" lon="-1.32906">
        <ele>9.75</ele>
        <time>2016-08-29T16:05:07Z</time>
      </trkpt>
      <trkpt lat="46.18844" lon="-1.32906">
        <ele>14.56</ele>
        <time>2016-08-29T16:05:08Z</time>
      </trkpt>
      <trkpt lat="46.18844" lon="-1.32906">
        <ele>9.27</ele>
        <time>2016-08-29T16:05:09Z</time>
      </trkpt>
      <trkpt lat="46.18844" lon="-1.32906">
        <ele>-23.9</ele>
        <time>2016-08-29T16:05:13Z</time>
      </trkpt>
      <trkpt lat="46.18844" lon="-1.32906">
        <ele>-15.24</ele>
        <time>2016-08-29T16:05:14Z</time>
      </trkpt>
      <trkpt lat="46.18844" lon="-1.32906">
        <ele>9.75</ele>
        <time>2016-08-29T16:05:15Z</time>
      </trkpt>
      <trkpt lat="46.18844" lon="-1.32906">
        <ele>9.27</ele>
        <time>2016-08-29T16:05:16Z</time>
      </trkpt>
      <trkpt lat="46.18844" lon="-1.32906">
        <ele>34.26</ele>
        <time>2016-08-29T16:05:17Z</time>
      </trkpt>
      <trkpt lat="46.18844" lon="-1.32906">
        <ele>31.38</ele>
        <time>2016-08-29T16:05:18Z</time>
      </trkpt>
      <trkpt lat="46.18844" lon="-1.32906">
        <ele>10.23</ele>
        <time>2016-08-29T16:05:19Z</time>
      </trkpt>
      <trkpt lat="46.18844" lon="-1.32906">
        <ele>23.21</ele>
        <time>2016-08-29T16:05:20Z</time>
      </trkpt>
      <trkpt lat="46.18843" lon="-1.32906">
        <ele>-26.78</ele>
        <time>2016-08-29T16:05:21Z</time>
      </trkpt>
      <trkpt lat="46.18843" lon="-1.32906">
        <ele>17.92</ele>
        <time>2016-08-29T16:05:22Z</time>
      </trkpt>
      <trkpt lat="46.18843" lon="-1.32906">
        <ele>10.23</ele>
        <time>2016-08-29T16:05:23Z</time>
      </trkpt>
      <trkpt lat="46.18843" lon="-1.32906">
        <ele>-25.34</ele>
        <time>2016-08-29T16:05:24Z</time>
      </trkpt>
      <trkpt lat="46.18843" lon="-1.32906">
        <ele>6.39</ele>
        <time>2016-08-29T16:05:25Z</time>
      </trkpt>
      <trkpt lat="46.18843" lon="-1.32906">
        <ele>14.08</ele>
        <time>2016-08-29T16:05:26Z</time>
      </trkpt>
      <trkpt lat="46.18843" lon="-1.32906">
        <ele>-5.63</ele>
        <time>2016-08-29T16:05:27Z</time>
      </trkpt>
      <trkpt lat="46.18843" lon="-1.32906">
        <ele>13.6</ele>
        <time>2016-08-29T16:05:28Z</time>
      </trkpt>
      <trkpt lat="46.18843" lon="-1.32906">
        <ele>9.75</ele>
        <time>2016-08-29T16:05:29Z</time>
      </trkpt>
      <trkpt lat="46.18843" lon="-1.32906">
        <ele>-13.32</ele>
        <time>2016-08-29T16:05:36Z</time>
      </trkpt>
      <trkpt lat="46.18843" lon="-1.32906">
        <ele>12.63</ele>
        <time>2016-08-29T16:05:37Z</time>
      </trkpt>
      <trkpt lat="46.18843" lon="-1.32906">
        <ele>9.75</ele>
        <time>2016-08-29T16:05:38Z</time>
      </trkpt>
      <trkpt lat="46.18842" lon="-1.32908">
        <ele>-11.88</ele>
        <time>2016-08-29T16:05:41Z</time>
      </trkpt>
      <trkpt lat="46.18842" lon="-1.32908">
        <ele>14.08</ele>
        <time>2016-08-29T16:05:42Z</time>
      </trkpt>
      <trkpt lat="46.18841" lon="-1.32909">
        <ele>12.15</ele>
        <time>2016-08-29T16:05:43Z</time>
      </trkpt>
      <trkpt lat="46.18841" lon="-1.32909">
        <ele>-9</ele>
        <time>2016-08-29T16:05:45Z</time>
      </trkpt>
      <trkpt lat="46.18841" lon="-1.32909">
        <ele>14.56</ele>
        <time>2016-08-29T16:05:46Z</time>
      </trkpt>
      <trkpt lat="46.1884" lon="-1.32909">
        <ele>10.23</ele>
        <time>2016-08-29T16:05:47Z</time>
      </trkpt>
      <trkpt lat="46.18841" lon="-1.32908">
        <ele>-15.24</ele>
        <time>2016-08-29T16:05:50Z</time>
      </trkpt>
      <trkpt lat="46.18841" lon="-1.32907">
        <ele>13.12</ele>
        <time>2016-08-29T16:05:51Z</time>
      </trkpt>
      <trkpt lat="46.18841" lon="-1.32907">
        <ele>27.53</ele>
        <time>2016-08-29T16:05:52Z</time>
      </trkpt>
      <trkpt lat="46.18841" lon="-1.32906">
        <ele>10.23</ele>
        <time>2016-08-29T16:05:53Z</time>
      </trkpt>
      <trkpt lat="46.18841" lon="-1.32901">
        <ele>9.75</ele>
        <time>2016-08-29T16:05:57Z</time>
      </trkpt>
      <trkpt lat="46.18839" lon="-1.32896">
        <ele>-8.51</ele>
        <time>2016-08-29T16:06:04Z</time>
      </trkpt>
      <trkpt lat="46.18839" lon="-1.32896">
        <ele>12.15</ele>
        <time>2016-08-29T16:06:05Z</time>
      </trkpt>
      <trkpt lat="46.18839" lon="-1.32897">
        <ele>17.44</ele>
        <time>2016-08-29T16:06:06Z</time>
      </trkpt>
      <trkpt lat="46.18839" lon="-1.32898">
        <ele>10.23</ele>
        <time>2016-08-29T16:06:07Z</time>
      </trkpt>
      <trkpt lat="46.18839" lon="-1.32898">
        <ele>21.29</ele>
        <time>2016-08-29T16:06:08Z</time>
      </trkpt>
      <trkpt lat="46.18839" lon="-1.329">
        <ele>10.23</ele>
        <time>2016-08-29T16:06:09Z</time>
      </trkpt>
      <trkpt lat="46.18841" lon="-1.32902">
        <ele>-1.3</ele>
        <time>2016-08-29T16:06:12Z</time>
      </trkpt>
      <trkpt lat="46.18841" lon="-1.32903">
        <ele>16.48</ele>
        <time>2016-08-29T16:06:13Z</time>
      </trkpt>
      <trkpt lat="46.18841" lon="-1.32903">
        <ele>10.23</ele>
        <time>2016-08-29T16:06:14Z</time>
      </trkpt>
      <trkpt lat="46.1884" lon="-1.329">
        <ele>2.54</ele>
        <time>2016-08-29T16:06:24Z</time>
      </trkpt>
      <trkpt lat="46.1884" lon="-1.329">
        <ele>15.04</ele>
        <time>2016-08-29T16:06:25Z</time>
      </trkpt>
      <trkpt lat="46.1884" lon="-1.329">
        <ele>10.23</ele>
        <time>2016-08-29T16:06:26Z</time>
      </trkpt>
      <trkpt lat="46.1884" lon="-1.32899">
        <ele>3.98</ele>
        <time>2016-08-29T16:06:27Z</time>
      </trkpt>
      <trkpt lat="46.1884" lon="-1.32899">
        <ele>3.02</ele>
        <time>2016-08-29T16:06:28Z</time>
      </trkpt>
      <trkpt lat="46.18839" lon="-1.32899">
        <ele>20.32</ele>
        <time>2016-08-29T16:06:29Z</time>
      </trkpt>
      <trkpt lat="46.18839" lon="-1.32898">
        <ele>-14.28</ele>
        <time>2016-08-29T16:06:30Z</time>
      </trkpt>
      <trkpt lat="46.18838" lon="-1.32898">
        <ele>13.6</ele>
        <time>2016-08-29T16:06:31Z</time>
      </trkpt>
      <trkpt lat="46.18837" lon="-1.32899">
        <ele>9.27</ele>
        <time>2016-08-29T16:06:47Z</time>
      </trkpt>
      <trkpt lat="46.18837" lon="-1.32899">
        <ele>-5.15</ele>
        <time>2016-08-29T16:06:50Z</time>
      </trkpt>
      <trkpt lat="46.18837" lon="-1.32899">
        <ele>10.71</ele>
        <time>2016-08-29T16:06:51Z</time>
      </trkpt>
      <trkpt lat="46.18837" lon="-1.32899">
        <ele>5.42</ele>
        <time>2016-08-29T16:06:52Z</time>
      </trkpt>
      <trkpt lat="46.18837" lon="-1.32899">
        <ele>8.79</ele>
        <time>2016-08-29T16:06:53Z</time>
      </trkpt>
      <trkpt lat="46.1884" lon="-1.32902">
        <ele>12.15</ele>
        <time>2016-08-29T16:06:59Z</time>
      </trkpt>
      <trkpt lat="46.1884" lon="-1.32903">
        <ele>9.27</ele>
        <time>2016-08-29T16:07:00Z</time>
      </trkpt>
      <trkpt lat="46.18845" lon="-1.32908">
        <ele>9.27</ele>
        <time>2016-08-29T16:07:21Z</time>
      </trkpt>
      <trkpt lat="46.18846" lon="-1.3291">
        <ele>8.79</ele>
        <time>2016-08-29T16:07:41Z</time>
      </trkpt>
      <trkpt lat="46.18846" lon="-1.32911">
        <ele>9.27</ele>
        <time>2016-08-29T16:08:03Z</time>
      </trkpt>
      <trkpt lat="46.18846" lon="-1.3291">
        <ele>9.75</ele>
        <time>2016-08-29T16:08:28Z</time>
      </trkpt>
      <trkpt lat="46.18845" lon="-1.32913">
        <ele>9.75</ele>
        <time>2016-08-29T16:08:42Z</time>
      </trkpt>
      <trkpt lat="46.18845" lon="-1.32912">
        <ele>9.75</ele>
        <time>2016-08-29T16:08:53Z</time>
      </trkpt>
      <trkpt lat="46.18845" lon="-1.32908">
        <ele>10.23</ele>
        <time>2016-08-29T16:09:12Z</time>
      </trkpt>
      <trkpt lat="46.18848" lon="-1.32913">
        <ele>9.27</ele>
        <time>2016-08-29T16:09:26Z</time>
      </trkpt>
      <trkpt lat="46.18849" lon="-1.32914">
        <ele>9.27</ele>
        <time>2016-08-29T16:09:27Z</time>
      </trkpt>
      <trkpt lat="46.1885" lon="-1.32915">
        <ele>9.27</ele>
        <time>2016-08-29T16:09:28Z</time>
      </trkpt>
      <trkpt lat="46.18851" lon="-1.32924">
        <ele>9.27</ele>
        <time>2016-08-29T16:09:33Z</time>
      </trkpt>
      <trkpt lat="46.1885" lon="-1.32925">
        <ele>8.79</ele>
        <time>2016-08-29T16:09:34Z</time>
      </trkpt>
      <trkpt lat="46.18848" lon="-1.32925">
        <ele>8.79</ele>
        <time>2016-08-29T16:09:35Z</time>
      </trkpt>
      <trkpt lat="46.18847" lon="-1.32924">
        <ele>8.79</ele>
        <time>2016-08-29T16:09:36Z</time>
      </trkpt>
      <trkpt lat="46.18846" lon="-1.32923">
        <ele>9.75</ele>
        <time>2016-08-29T16:09:37Z</time>
      </trkpt>
      <trkpt lat="46.18845" lon="-1.32921">
        <ele>8.79</ele>
        <time>2016-08-29T16:09:38Z</time>
      </trkpt>
      <trkpt lat="46.18844" lon="-1.3292">
        <ele>8.79</ele>
        <time>2016-08-29T16:09:39Z</time>
      </trkpt>
      <trkpt lat="46.18824" lon="-1.32897">
        <ele>9.27</ele>
        <time>2016-08-29T16:09:51Z</time>
      </trkpt>
      <trkpt lat="46.18814" lon="-1.32885">
        <ele>9.27</ele>
        <time>2016-08-29T16:09:57Z</time>
      </trkpt>
      <trkpt lat="46.18812" lon="-1.32883">
        <ele>9.27</ele>
        <time>2016-08-29T16:09:58Z</time>
      </trkpt>
      <trkpt lat="46.18811" lon="-1.32881">
        <ele>8.79</ele>
        <time>2016-08-29T16:09:59Z</time>
      </trkpt>
      <trkpt lat="46.18809" lon="-1.32879">
        <ele>8.79</ele>
        <time>2016-08-29T16:10:00Z</time>
      </trkpt>
      <trkpt lat="46.18807" lon="-1.32877">
        <ele>8.31</ele>
        <time>2016-08-29T16:10:01Z</time>
      </trkpt>
      <trkpt lat="46.18806" lon="-1.32874">
        <ele>8.79</ele>
        <time>2016-08-29T16:10:02Z</time>
      </trkpt>
      <trkpt lat="46.18805" lon="-1.32872">
        <ele>8.31</ele>
        <time>2016-08-29T16:10:03Z</time>
      </trkpt>
      <trkpt lat="46.18803" lon="-1.3287">
        <ele>9.27</ele>
        <time>2016-08-29T16:10:04Z</time>
      </trkpt>
      <trkpt lat="46.18802" lon="-1.32867">
        <ele>8.79</ele>
        <time>2016-08-29T16:10:05Z</time>
      </trkpt>
      <trkpt lat="46.18787" lon="-1.32836">
        <ele>8.79</ele>
        <time>2016-08-29T16:10:15Z</time>
      </trkpt>
      <trkpt lat="46.18773" lon="-1.32799">
        <ele>7.83</ele>
        <time>2016-08-29T16:10:26Z</time>
      </trkpt>
      <trkpt lat="46.18768" lon="-1.32788">
        <ele>8.31</ele>
        <time>2016-08-29T16:10:31Z</time>
      </trkpt>
      <trkpt lat="46.18768" lon="-1.32786">
        <ele>12.15</ele>
        <time>2016-08-29T16:10:32Z</time>
      </trkpt>
      <trkpt lat="46.18767" lon="-1.32785">
        <ele>15.04</ele>
        <time>2016-08-29T16:10:33Z</time>
      </trkpt>
      <trkpt lat="46.18766" lon="-1.32785">
        <ele>8.31</ele>
        <time>2016-08-29T16:10:34Z</time>
      </trkpt>
      <trkpt lat="46.18766" lon="-1.32785">
        <ele>8.79</ele>
        <time>2016-08-29T16:10:35Z</time>
      </trkpt>
      <trkpt lat="46.18767" lon="-1.32785">
        <ele>8.31</ele>
        <time>2016-08-29T16:10:38Z</time>
      </trkpt>
      <trkpt lat="46.18766" lon="-1.32783">
        <ele>8.31</ele>
        <time>2016-08-29T16:10:39Z</time>
      </trkpt>
      <trkpt lat="46.18765" lon="-1.32781">
        <ele>8.31</ele>
        <time>2016-08-29T16:10:40Z</time>
      </trkpt>
      <trkpt lat="46.18753" lon="-1.32745">
        <ele>7.83</ele>
        <time>2016-08-29T16:10:48Z</time>
      </trkpt>
      <trkpt lat="46.18742" lon="-1.32698">
        <ele>7.35</ele>
        <time>2016-08-29T16:10:58Z</time>
      </trkpt>
      <trkpt lat="46.1874" lon="-1.32664">
        <ele>7.35</ele>
        <time>2016-08-29T16:11:07Z</time>
      </trkpt>
      <trkpt lat="46.18738" lon="-1.32648">
        <ele>7.83</ele>
        <time>2016-08-29T16:11:13Z</time>
      </trkpt>
      <trkpt lat="46.18738" lon="-1.32646">
        <ele>7.83</ele>
        <time>2016-08-29T16:11:14Z</time>
      </trkpt>
      <trkpt lat="46.18737" lon="-1.32643">
        <ele>7.35</ele>
        <time>2016-08-29T16:11:15Z</time>
      </trkpt>
      <trkpt lat="46.18737" lon="-1.32641">
        <ele>7.35</ele>
        <time>2016-08-29T16:11:16Z</time>
      </trkpt>
      <trkpt lat="46.18736" lon="-1.32639">
        <ele>7.35</ele>
        <time>2016-08-29T16:11:17Z</time>
      </trkpt>
      <trkpt lat="46.18735" lon="-1.32637">
        <ele>7.83</ele>
        <time>2016-08-29T16:11:18Z</time>
      </trkpt>
      <trkpt lat="46.18735" lon="-1.32635">
        <ele>7.35</ele>
        <time>2016-08-29T16:11:19Z</time>
      </trkpt>
      <trkpt lat="46.18734" lon="-1.32633">
        <ele>7.35</ele>
        <time>2016-08-29T16:11:21Z</time>
      </trkpt>
      <trkpt lat="46.18733" lon="-1.3263">
        <ele>6.87</ele>
        <time>2016-08-29T16:11:22Z</time>
      </trkpt>
      <trkpt lat="46.18733" lon="-1.32627">
        <ele>6.87</ele>
        <time>2016-08-29T16:11:23Z</time>
      </trkpt>
      <trkpt lat="46.18732" lon="-1.32624">
        <ele>7.35</ele>
        <time>2016-08-29T16:11:24Z</time>
      </trkpt>
      <trkpt lat="46.18731" lon="-1.32621">
        <ele>6.87</ele>
        <time>2016-08-29T16:11:25Z</time>
      </trkpt>
      <trkpt lat="46.18719" lon="-1.32595">
        <ele>7.35</ele>
        <time>2016-08-29T16:11:35Z</time>
      </trkpt>
      <trkpt lat="46.18714" lon="-1.32573">
        <ele>6.87</ele>
        <time>2016-08-29T16:11:43Z</time>
      </trkpt>
      <trkpt lat="46.18713" lon="-1.32571">
        <ele>6.87</ele>
        <time>2016-08-29T16:11:44Z</time>
      </trkpt>
      <trkpt lat="46.18713" lon="-1.32569">
        <ele>6.87</ele>
        <time>2016-08-29T16:11:45Z</time>
      </trkpt>
      <trkpt lat="46.18712" lon="-1.32567">
        <ele>6.87</ele>
        <time>2016-08-29T16:11:46Z</time>
      </trkpt>
      <trkpt lat="46.18712" lon="-1.32564">
        <ele>6.87</ele>
        <time>2016-08-29T16:11:47Z</time>
      </trkpt>
      <trkpt lat="46.18712" lon="-1.32562">
        <ele>6.87</ele>
        <time>2016-08-29T16:11:48Z</time>
      </trkpt>
      <trkpt lat="46.18713" lon="-1.32559">
        <ele>6.87</ele>
        <time>2016-08-29T16:11:49Z</time>
      </trkpt>
      <trkpt lat="46.18713" lon="-1.32557">
        <ele>6.87</ele>
        <time>2016-08-29T16:11:50Z</time>
      </trkpt>
      <trkpt lat="46.18714" lon="-1.32555">
        <ele>6.87</ele>
        <time>2016-08-29T16:11:51Z</time>
      </trkpt>
      <trkpt lat="46.18714" lon="-1.32554">
        <ele>6.87</ele>
        <time>2016-08-29T16:11:52Z</time>
      </trkpt>
      <trkpt lat="46.18715" lon="-1.32552">
        <ele>6.39</ele>
        <time>2016-08-29T16:11:53Z</time>
      </trkpt>
      <trkpt lat="46.18715" lon="-1.32551">
        <ele>6.39</ele>
        <time>2016-08-29T16:11:54Z</time>
      </trkpt>
      <trkpt lat="46.18716" lon="-1.32549">
        <ele>6.87</ele>
        <time>2016-08-29T16:11:55Z</time>
      </trkpt>
      <trkpt lat="46.18716" lon="-1.32547">
        <ele>7.35</ele>
        <time>2016-08-29T16:11:56Z</time>
      </trkpt>
      <trkpt lat="46.18725" lon="-1.32526">
        <ele>6.39</ele>
        <time>2016-08-29T16:12:05Z</time>
      </trkpt>
      <trkpt lat="46.18727" lon="-1.32523">
        <ele>6.39</ele>
        <time>2016-08-29T16:12:06Z</time>
      </trkpt>
      <trkpt lat="46.18739" lon="-1.32494">
        <ele>5.91</ele>
        <time>2016-08-29T16:12:16Z</time>
      </trkpt>
      <trkpt lat="46.18755" lon="-1.32464">
        <ele>6.87</ele>
        <time>2016-08-29T16:12:25Z</time>
      </trkpt>
      <trkpt lat="46.18757" lon="-1.3244">
        <ele>6.87</ele>
        <time>2016-08-29T16:12:32Z</time>
      </trkpt>
      <trkpt lat="46.18755" lon="-1.32438">
        <ele>6.87</ele>
        <time>2016-08-29T16:12:33Z</time>
      </trkpt>
      <trkpt lat="46.18753" lon="-1.32437">
        <ele>7.35</ele>
        <time>2016-08-29T16:12:34Z</time>
      </trkpt>
      <trkpt lat="46.18751" lon="-1.32436">
        <ele>7.35</ele>
        <time>2016-08-29T16:12:35Z</time>
      </trkpt>
      <trkpt lat="46.18749" lon="-1.32436">
        <ele>6.87</ele>
        <time>2016-08-29T16:12:36Z</time>
      </trkpt>
      <trkpt lat="46.18746" lon="-1.32435">
        <ele>6.87</ele>
        <time>2016-08-29T16:12:37Z</time>
      </trkpt>
      <trkpt lat="46.18738" lon="-1.32426">
        <ele>6.39</ele>
        <time>2016-08-29T16:12:42Z</time>
      </trkpt>
      <trkpt lat="46.18737" lon="-1.32424">
        <ele>6.87</ele>
        <time>2016-08-29T16:12:43Z</time>
      </trkpt>
      <trkpt lat="46.18737" lon="-1.32423">
        <ele>6.87</ele>
        <time>2016-08-29T16:12:44Z</time>
      </trkpt>
      <trkpt lat="46.18737" lon="-1.32421">
        <ele>7.35</ele>
        <time>2016-08-29T16:12:53Z</time>
      </trkpt>
      <trkpt lat="46.18737" lon="-1.32421">
        <ele>7.35</ele>
        <time>2016-08-29T16:13:15Z</time>
      </trkpt>
      <trkpt lat="46.18735" lon="-1.32421">
        <ele>7.83</ele>
        <time>2016-08-29T16:13:26Z</time>
      </trkpt>
      <trkpt lat="46.18735" lon="-1.32423">
        <ele>7.83</ele>
        <time>2016-08-29T16:13:27Z</time>
      </trkpt>
      <trkpt lat="46.18736" lon="-1.32426">
        <ele>7.35</ele>
        <time>2016-08-29T16:13:29Z</time>
      </trkpt>
      <trkpt lat="46.18737" lon="-1.32428">
        <ele>7.35</ele>
        <time>2016-08-29T16:13:30Z</time>
      </trkpt>
      <trkpt lat="46.18738" lon="-1.32429">
        <ele>7.35</ele>
        <time>2016-08-29T16:13:31Z</time>
      </trkpt>
      <trkpt lat="46.1874" lon="-1.32431">
        <ele>7.35</ele>
        <time>2016-08-29T16:13:32Z</time>
      </trkpt>
      <trkpt lat="46.18741" lon="-1.32433">
        <ele>7.35</ele>
        <time>2016-08-29T16:13:33Z</time>
      </trkpt>
      <trkpt lat="46.18743" lon="-1.32433">
        <ele>6.87</ele>
        <time>2016-08-29T16:13:34Z</time>
      </trkpt>
      <trkpt lat="46.18745" lon="-1.32432">
        <ele>6.87</ele>
        <time>2016-08-29T16:13:35Z</time>
      </trkpt>
      <trkpt lat="46.18746" lon="-1.32432">
        <ele>6.87</ele>
        <time>2016-08-29T16:13:36Z</time>
      </trkpt>
      <trkpt lat="46.18748" lon="-1.32431">
        <ele>7.35</ele>
        <time>2016-08-29T16:13:37Z</time>
      </trkpt>
      <trkpt lat="46.18761" lon="-1.32425">
        <ele>7.35</ele>
        <time>2016-08-29T16:13:46Z</time>
      </trkpt>
      <trkpt lat="46.18763" lon="-1.32424">
        <ele>7.35</ele>
        <time>2016-08-29T16:13:58Z</time>
      </trkpt>
      <trkpt lat="46.18764" lon="-1.32424">
        <ele>6.87</ele>
        <time>2016-08-29T16:14:09Z</time>
      </trkpt>
      <trkpt lat="46.18765" lon="-1.32424">
        <ele>6.87</ele>
        <time>2016-08-29T16:14:10Z</time>
      </trkpt>
      <trkpt lat="46.18766" lon="-1.32423">
        <ele>7.35</ele>
        <time>2016-08-29T16:14:11Z</time>
      </trkpt>
      <trkpt lat="46.18781" lon="-1.32415">
        <ele>6.87</ele>
        <time>2016-08-29T16:14:19Z</time>
      </trkpt>
      <trkpt lat="46.18807" lon="-1.32402">
        <ele>7.35</ele>
        <time>2016-08-29T16:14:32Z</time>
      </trkpt>
      <trkpt lat="46.18812" lon="-1.32398">
        <ele>6.87</ele>
        <time>2016-08-29T16:14:42Z</time>
      </trkpt>
      <trkpt lat="46.18815" lon="-1.32395">
        <ele>7.35</ele>
        <time>2016-08-29T16:14:54Z</time>
      </trkpt>
      <trkpt lat="46.18816" lon="-1.32397">
        <ele>6.87</ele>
        <time>2016-08-29T16:15:04Z</time>
      </trkpt>
      <trkpt lat="46.18817" lon="-1.32399">
        <ele>6.39</ele>
        <time>2016-08-29T16:15:05Z</time>
      </trkpt>
      <trkpt lat="46.18818" lon="-1.324">
        <ele>6.87</ele>
        <time>2016-08-29T16:15:06Z</time>
      </trkpt>
      <trkpt lat="46.1882" lon="-1.324">
        <ele>7.35</ele>
        <time>2016-08-29T16:15:07Z</time>
      </trkpt>
      <trkpt lat="46.18822" lon="-1.324">
        <ele>6.87</ele>
        <time>2016-08-29T16:15:08Z</time>
      </trkpt>
      <trkpt lat="46.18824" lon="-1.32399">
        <ele>6.87</ele>
        <time>2016-08-29T16:15:09Z</time>
      </trkpt>
      <trkpt lat="46.18846" lon="-1.3238">
        <ele>7.35</ele>
        <time>2016-08-29T16:15:18Z</time>
      </trkpt>
      <trkpt lat="46.18847" lon="-1.32376">
        <ele>7.35</ele>
        <time>2016-08-29T16:15:19Z</time>
      </trkpt>
      <trkpt lat="46.18847" lon="-1.32372">
        <ele>7.35</ele>
        <time>2016-08-29T16:15:20Z</time>
      </trkpt>
      <trkpt lat="46.18847" lon="-1.32368">
        <ele>7.35</ele>
        <time>2016-08-29T16:15:21Z</time>
      </trkpt>
      <trkpt lat="46.18846" lon="-1.32365">
        <ele>7.83</ele>
        <time>2016-08-29T16:15:22Z</time>
      </trkpt>
      <trkpt lat="46.18845" lon="-1.32362">
        <ele>7.35</ele>
        <time>2016-08-29T16:15:23Z</time>
      </trkpt>
      <trkpt lat="46.18844" lon="-1.32358">
        <ele>7.35</ele>
        <time>2016-08-29T16:15:24Z</time>
      </trkpt>
      <trkpt lat="46.18843" lon="-1.32353">
        <ele>7.83</ele>
        <time>2016-08-29T16:15:31Z</time>
      </trkpt>
      <trkpt lat="46.18843" lon="-1.32347">
        <ele>7.35</ele>
        <time>2016-08-29T16:15:51Z</time>
      </trkpt>
      <trkpt lat="46.18842" lon="-1.32332">
        <ele>6.87</ele>
        <time>2016-08-29T16:15:59Z</time>
      </trkpt>
      <trkpt lat="46.18842" lon="-1.32327">
        <ele>7.35</ele>
        <time>2016-08-29T16:16:08Z</time>
      </trkpt>
      <trkpt lat="46.18842" lon="-1.3232">
        <ele>7.83</ele>
        <time>2016-08-29T16:16:23Z</time>
      </trkpt>
      <trkpt lat="46.18842" lon="-1.32316">
        <ele>7.35</ele>
        <time>2016-08-29T16:16:36Z</time>
      </trkpt>
      <trkpt lat="46.18842" lon="-1.32315">
        <ele>7.35</ele>
        <time>2016-08-29T16:16:49Z</time>
      </trkpt>
      <trkpt lat="46.18842" lon="-1.32316">
        <ele>6.39</ele>
        <time>2016-08-29T16:16:51Z</time>
      </trkpt>
      <trkpt lat="46.18842" lon="-1.3232">
        <ele>7.35</ele>
        <time>2016-08-29T16:16:56Z</time>
      </trkpt>
      <trkpt lat="46.18842" lon="-1.32326">
        <ele>5.91</ele>
        <time>2016-08-29T16:17:01Z</time>
      </trkpt>
      <trkpt lat="46.18843" lon="-1.32328">
        <ele>6.39</ele>
        <time>2016-08-29T16:17:02Z</time>
      </trkpt>
      <trkpt lat="46.18843" lon="-1.32331">
        <ele>6.87</ele>
        <time>2016-08-29T16:17:03Z</time>
      </trkpt>
      <trkpt lat="46.18843" lon="-1.32332">
        <ele>6.87</ele>
        <time>2016-08-29T16:17:04Z</time>
      </trkpt>
      <trkpt lat="46.18843" lon="-1.32337">
        <ele>6.87</ele>
        <time>2016-08-29T16:17:07Z</time>
      </trkpt>
      <trkpt lat="46.18842" lon="-1.3234">
        <ele>6.87</ele>
        <time>2016-08-29T16:17:16Z</time>
      </trkpt>
      <trkpt lat="46.18842" lon="-1.3234">
        <ele>6.39</ele>
        <time>2016-08-29T16:17:28Z</time>
      </trkpt>
      <trkpt lat="46.18842" lon="-1.32341">
        <ele>6.87</ele>
        <time>2016-08-29T16:17:45Z</time>
      </trkpt>
      <trkpt lat="46.18844" lon="-1.32354">
        <ele>6.39</ele>
        <time>2016-08-29T16:17:54Z</time>
      </trkpt>
      <trkpt lat="46.18844" lon="-1.32381">
        <ele>5.42</ele>
        <time>2016-08-29T16:18:01Z</time>
      </trkpt>
      <trkpt lat="46.18843" lon="-1.32384">
        <ele>6.39</ele>
        <time>2016-08-29T16:18:02Z</time>
      </trkpt>
      <trkpt lat="46.1884" lon="-1.32386">
        <ele>7.35</ele>
        <time>2016-08-29T16:18:03Z</time>
      </trkpt>
      <trkpt lat="46.18838" lon="-1.32387">
        <ele>6.87</ele>
        <time>2016-08-29T16:18:04Z</time>
      </trkpt>
      <trkpt lat="46.18835" lon="-1.32389">
        <ele>6.39</ele>
        <time>2016-08-29T16:18:05Z</time>
      </trkpt>
      <trkpt lat="46.18832" lon="-1.32391">
        <ele>6.87</ele>
        <time>2016-08-29T16:18:06Z</time>
      </trkpt>
      <trkpt lat="46.18811" lon="-1.32407">
        <ele>5.91</ele>
        <time>2016-08-29T16:18:14Z</time>
      </trkpt>
      <trkpt lat="46.18809" lon="-1.3241">
        <ele>6.39</ele>
        <time>2016-08-29T16:18:15Z</time>
      </trkpt>
      <trkpt lat="46.18809" lon="-1.32413">
        <ele>6.87</ele>
        <time>2016-08-29T16:18:16Z</time>
      </trkpt>
      <trkpt lat="46.1881" lon="-1.32415">
        <ele>6.39</ele>
        <time>2016-08-29T16:18:17Z</time>
      </trkpt>
      <trkpt lat="46.18811" lon="-1.32417">
        <ele>6.39</ele>
        <time>2016-08-29T16:18:18Z</time>
      </trkpt>
      <trkpt lat="46.18812" lon="-1.3242">
        <ele>6.39</ele>
        <time>2016-08-29T16:18:19Z</time>
      </trkpt>
      <trkpt lat="46.18813" lon="-1.32422">
        <ele>6.87</ele>
        <time>2016-08-29T16:18:20Z</time>
      </trkpt>
      <trkpt lat="46.18813" lon="-1.32424">
        <ele>7.35</ele>
        <time>2016-08-29T16:18:21Z</time>
      </trkpt>
      <trkpt lat="46.18814" lon="-1.32426">
        <ele>6.87</ele>
        <time>2016-08-29T16:18:22Z</time>
      </trkpt>
      <trkpt lat="46.18814" lon="-1.32429">
        <ele>6.39</ele>
        <time>2016-08-29T16:18:23Z</time>
      </trkpt>
      <trkpt lat="46.18815" lon="-1.32432">
        <ele>6.87</ele>
        <time>2016-08-29T16:18:24Z</time>
      </trkpt>
      <trkpt lat="46.18816" lon="-1.32435">
        <ele>6.87</ele>
        <time>2016-08-29T16:18:25Z</time>
      </trkpt>
      <trkpt lat="46.18817" lon="-1.32438">
        <ele>-1.3</ele>
        <time>2016-08-29T16:18:26Z</time>
      </trkpt>
      <trkpt lat="46.18819" lon="-1.32442">
        <ele>6.87</ele>
        <time>2016-08-29T16:18:27Z</time>
      </trkpt>
      <trkpt lat="46.18821" lon="-1.32446">
        <ele>6.39</ele>
        <time>2016-08-29T16:18:28Z</time>
      </trkpt>
      <trkpt lat="46.18823" lon="-1.3245">
        <ele>6.39</ele>
        <time>2016-08-29T16:18:29Z</time>
      </trkpt>
      <trkpt lat="46.18825" lon="-1.32454">
        <ele>6.39</ele>
        <time>2016-08-29T16:18:30Z</time>
      </trkpt>
      <trkpt lat="46.18827" lon="-1.32458">
        <ele>6.39</ele>
        <time>2016-08-29T16:18:31Z</time>
      </trkpt>
      <trkpt lat="46.18829" lon="-1.32463">
        <ele>6.39</ele>
        <time>2016-08-29T16:18:32Z</time>
      </trkpt>
      <trkpt lat="46.18848" lon="-1.32509">
        <ele>6.87</ele>
        <time>2016-08-29T16:18:43Z</time>
      </trkpt>
      <trkpt lat="46.18876" lon="-1.32565">
        <ele>6.39</ele>
        <time>2016-08-29T16:18:57Z</time>
      </trkpt>
      <trkpt lat="46.18882" lon="-1.32581">
        <ele>6.87</ele>
        <time>2016-08-29T16:19:01Z</time>
      </trkpt>
      <trkpt lat="46.18885" lon="-1.32584">
        <ele>6.87</ele>
        <time>2016-08-29T16:19:02Z</time>
      </trkpt>
      <trkpt lat="46.18886" lon="-1.32588">
        <ele>6.87</ele>
        <time>2016-08-29T16:19:03Z</time>
      </trkpt>
      <trkpt lat="46.18918" lon="-1.32649">
        <ele>5.42</ele>
        <time>2016-08-29T16:19:17Z</time>
      </trkpt>
      <trkpt lat="46.18923" lon="-1.32664">
        <ele>6.87</ele>
        <time>2016-08-29T16:19:21Z</time>
      </trkpt>
      <trkpt lat="46.18922" lon="-1.32668">
        <ele>7.35</ele>
        <time>2016-08-29T16:19:22Z</time>
      </trkpt>
      <trkpt lat="46.18919" lon="-1.32675">
        <ele>6.87</ele>
        <time>2016-08-29T16:19:24Z</time>
      </trkpt>
      <trkpt lat="46.18884" lon="-1.3271">
        <ele>7.83</ele>
        <time>2016-08-29T16:19:35Z</time>
      </trkpt>
      <trkpt lat="46.18861" lon="-1.32752">
        <ele>9.27</ele>
        <time>2016-08-29T16:19:45Z</time>
      </trkpt>
      <trkpt lat="46.18839" lon="-1.32792">
        <ele>8.31</ele>
        <time>2016-08-29T16:19:56Z</time>
      </trkpt>
      <trkpt lat="46.18832" lon="-1.32802">
        <ele>8.31</ele>
        <time>2016-08-29T16:20:01Z</time>
      </trkpt>
      <trkpt lat="46.1883" lon="-1.32804">
        <ele>7.83</ele>
        <time>2016-08-29T16:20:02Z</time>
      </trkpt>
      <trkpt lat="46.18805" lon="-1.32832">
        <ele>7.35</ele>
        <time>2016-08-29T16:20:12Z</time>
      </trkpt>
      <trkpt lat="46.18794" lon="-1.32848">
        <ele>7.83</ele>
        <time>2016-08-29T16:20:20Z</time>
      </trkpt>
      <trkpt lat="46.18793" lon="-1.3285">
        <ele>7.35</ele>
        <time>2016-08-29T16:20:29Z</time>
      </trkpt>
      <trkpt lat="46.18794" lon="-1.32852">
        <ele>7.35</ele>
        <time>2016-08-29T16:20:30Z</time>
      </trkpt>
      <trkpt lat="46.18795" lon="-1.32853">
        <ele>7.35</ele>
        <time>2016-08-29T16:20:31Z</time>
      </trkpt>
      <trkpt lat="46.18796" lon="-1.32855">
        <ele>6.87</ele>
        <time>2016-08-29T16:20:32Z</time>
      </trkpt>
      <trkpt lat="46.18797" lon="-1.32857">
        <ele>6.87</ele>
        <time>2016-08-29T16:20:33Z</time>
      </trkpt>
      <trkpt lat="46.18798" lon="-1.3286">
        <ele>6.39</ele>
        <time>2016-08-29T16:20:34Z</time>
      </trkpt>
      <trkpt lat="46.18799" lon="-1.32862">
        <ele>7.35</ele>
        <time>2016-08-29T16:20:35Z</time>
      </trkpt>
      <trkpt lat="46.18801" lon="-1.32865">
        <ele>7.35</ele>
        <time>2016-08-29T16:20:36Z</time>
      </trkpt>
      <trkpt lat="46.18803" lon="-1.32868">
        <ele>10.71</ele>
        <time>2016-08-29T16:20:37Z</time>
      </trkpt>
      <trkpt lat="46.18806" lon="-1.32871">
        <ele>4.94</ele>
        <time>2016-08-29T16:20:38Z</time>
      </trkpt>
      <trkpt lat="46.18808" lon="-1.32874">
        <ele>7.35</ele>
        <time>2016-08-29T16:20:39Z</time>
      </trkpt>
      <trkpt lat="46.1881" lon="-1.32877">
        <ele>6.87</ele>
        <time>2016-08-29T16:20:40Z</time>
      </trkpt>
      <trkpt lat="46.18812" lon="-1.3288">
        <ele>7.35</ele>
        <time>2016-08-29T16:20:41Z</time>
      </trkpt>
      <trkpt lat="46.18816" lon="-1.32887">
        <ele>6.87</ele>
        <time>2016-08-29T16:20:43Z</time>
      </trkpt>
      <trkpt lat="46.18817" lon="-1.3289">
        <ele>7.35</ele>
        <time>2016-08-29T16:20:44Z</time>
      </trkpt>
      <trkpt lat="46.18816" lon="-1.32894">
        <ele>6.87</ele>
        <time>2016-08-29T16:20:45Z</time>
      </trkpt>
      <trkpt lat="46.18815" lon="-1.32898">
        <ele>7.35</ele>
        <time>2016-08-29T16:20:46Z</time>
      </trkpt>
      <trkpt lat="46.18813" lon="-1.32901">
        <ele>7.83</ele>
        <time>2016-08-29T16:20:47Z</time>
      </trkpt>
      <trkpt lat="46.18798" lon="-1.32925">
        <ele>7.83</ele>
        <time>2016-08-29T16:20:56Z</time>
      </trkpt>
      <trkpt lat="46.18792" lon="-1.32946">
        <ele>8.79</ele>
        <time>2016-08-29T16:21:06Z</time>
      </trkpt>
      <trkpt lat="46.18793" lon="-1.3295">
        <ele>8.31</ele>
        <time>2016-08-29T16:21:09Z</time>
      </trkpt>
      <trkpt lat="46.18793" lon="-1.32952">
        <ele>8.31</ele>
        <time>2016-08-29T16:21:10Z</time>
      </trkpt>
      <trkpt lat="46.18794" lon="-1.32956">
        <ele>8.31</ele>
        <time>2016-08-29T16:21:11Z</time>
      </trkpt>
      <trkpt lat="46.18799" lon="-1.32993">
        <ele>8.79</ele>
        <time>2016-08-29T16:21:21Z</time>
      </trkpt>
      <trkpt lat="46.18802" lon="-1.33003">
        <ele>8.79</ele>
        <time>2016-08-29T16:21:24Z</time>
      </trkpt>
      <trkpt lat="46.18801" lon="-1.33006">
        <ele>8.79</ele>
        <time>2016-08-29T16:21:25Z</time>
      </trkpt>
      <trkpt lat="46.18799" lon="-1.33009">
        <ele>8.79</ele>
        <time>2016-08-29T16:21:26Z</time>
      </trkpt>
      <trkpt lat="46.18765" lon="-1.33041">
        <ele>7.83</ele>
        <time>2016-08-29T16:21:37Z</time>
      </trkpt>
      <trkpt lat="46.18727" lon="-1.33068">
        <ele>10.23</ele>
        <time>2016-08-29T16:21:48Z</time>
      </trkpt>
      <trkpt lat="46.18684" lon="-1.33089">
        <ele>10.71</ele>
        <time>2016-08-29T16:21:59Z</time>
      </trkpt>
      <trkpt lat="46.18672" lon="-1.33094">
        <ele>10.71</ele>
        <time>2016-08-29T16:22:02Z</time>
      </trkpt>
      <trkpt lat="46.18651" lon="-1.33104">
        <ele>10.71</ele>
        <time>2016-08-29T16:22:08Z</time>
      </trkpt>
      <trkpt lat="46.18649" lon="-1.33109">
        <ele>10.23</ele>
        <time>2016-08-29T16:22:09Z</time>
      </trkpt>
      <trkpt lat="46.18648" lon="-1.33114">
        <ele>10.71</ele>
        <time>2016-08-29T16:22:10Z</time>
      </trkpt>
      <trkpt lat="46.18648" lon="-1.3312">
        <ele>10.71</ele>
        <time>2016-08-29T16:22:11Z</time>
      </trkpt>
      <trkpt lat="46.18648" lon="-1.33125">
        <ele>11.19</ele>
        <time>2016-08-29T16:22:12Z</time>
      </trkpt>
      <trkpt lat="46.18648" lon="-1.33187">
        <ele>11.67</ele>
        <time>2016-08-29T16:22:23Z</time>
      </trkpt>
      <trkpt lat="46.1865" lon="-1.33217">
        <ele>11.19</ele>
        <time>2016-08-29T16:22:28Z</time>
      </trkpt>
      <trkpt lat="46.18651" lon="-1.33223">
        <ele>11.67</ele>
        <time>2016-08-29T16:22:29Z</time>
      </trkpt>
      <trkpt lat="46.18657" lon="-1.33296">
        <ele>11.67</ele>
        <time>2016-08-29T16:22:41Z</time>
      </trkpt>
      <trkpt lat="46.18662" lon="-1.33349">
        <ele>12.63</ele>
        <time>2016-08-29T16:22:52Z</time>
      </trkpt>
      <trkpt lat="46.18664" lon="-1.33352">
        <ele>11.19</ele>
        <time>2016-08-29T16:22:53Z</time>
      </trkpt>
      <trkpt lat="46.18667" lon="-1.33354">
        <ele>11.67</ele>
        <time>2016-08-29T16:22:54Z</time>
      </trkpt>
      <trkpt lat="46.18669" lon="-1.33357">
        <ele>11.67</ele>
        <time>2016-08-29T16:22:55Z</time>
      </trkpt>
      <trkpt lat="46.18671" lon="-1.3336">
        <ele>11.67</ele>
        <time>2016-08-29T16:22:56Z</time>
      </trkpt>
      <trkpt lat="46.18671" lon="-1.33364">
        <ele>11.19</ele>
        <time>2016-08-29T16:22:57Z</time>
      </trkpt>
      <trkpt lat="46.1867" lon="-1.33367">
        <ele>12.63</ele>
        <time>2016-08-29T16:22:58Z</time>
      </trkpt>
      <trkpt lat="46.18668" lon="-1.33368">
        <ele>12.63</ele>
        <time>2016-08-29T16:22:59Z</time>
      </trkpt>
      <trkpt lat="46.18666" lon="-1.33369">
        <ele>13.12</ele>
        <time>2016-08-29T16:23:00Z</time>
      </trkpt>
      <trkpt lat="46.18664" lon="-1.33371">
        <ele>13.12</ele>
        <time>2016-08-29T16:23:01Z</time>
      </trkpt>
      <trkpt lat="46.18663" lon="-1.33374">
        <ele>12.63</ele>
        <time>2016-08-29T16:23:02Z</time>
      </trkpt>
      <trkpt lat="46.18661" lon="-1.33377">
        <ele>12.63</ele>
        <time>2016-08-29T16:23:03Z</time>
      </trkpt>
      <trkpt lat="46.18641" lon="-1.33418">
        <ele>13.6</ele>
        <time>2016-08-29T16:23:13Z</time>
      </trkpt>
      <trkpt lat="46.18618" lon="-1.33471">
        <ele>14.08</ele>
        <time>2016-08-29T16:23:24Z</time>
      </trkpt>
      <trkpt lat="46.18615" lon="-1.33476">
        <ele>14.56</ele>
        <time>2016-08-29T16:23:25Z</time>
      </trkpt>
      <trkpt lat="46.18574" lon="-1.33542">
        <ele>14.56</ele>
        <time>2016-08-29T16:23:39Z</time>
      </trkpt>
      <trkpt lat="46.18563" lon="-1.33563">
        <ele>14.08</ele>
        <time>2016-08-29T16:23:43Z</time>
      </trkpt>
      <trkpt lat="46.18561" lon="-1.33568">
        <ele>14.08</ele>
        <time>2016-08-29T16:23:44Z</time>
      </trkpt>
      <trkpt lat="46.18559" lon="-1.33573">
        <ele>14.08</ele>
        <time>2016-08-29T16:23:45Z</time>
      </trkpt>
      <trkpt lat="46.18557" lon="-1.33578">
        <ele>14.08</ele>
        <time>2016-08-29T16:23:46Z</time>
      </trkpt>
      <trkpt lat="46.18553" lon="-1.33581">
        <ele>13.6</ele>
        <time>2016-08-29T16:23:47Z</time>
      </trkpt>
      <trkpt lat="46.18549" lon="-1.33583">
        <ele>13.6</ele>
        <time>2016-08-29T16:23:48Z</time>
      </trkpt>
      <trkpt lat="46.18544" lon="-1.33584">
        <ele>13.6</ele>
        <time>2016-08-29T16:23:49Z</time>
      </trkpt>
      <trkpt lat="46.18513" lon="-1.33597">
        <ele>13.12</ele>
        <time>2016-08-29T16:23:58Z</time>
      </trkpt>
      <trkpt lat="46.18503" lon="-1.33603">
        <ele>13.12</ele>
        <time>2016-08-29T16:24:05Z</time>
      </trkpt>
      <trkpt lat="46.18502" lon="-1.33604">
        <ele>9.75</ele>
        <time>2016-08-29T16:24:08Z</time>
      </trkpt>
      <trkpt lat="46.18502" lon="-1.33604">
        <ele>13.12</ele>
        <time>2016-08-29T16:24:09Z</time>
      </trkpt>
      <trkpt lat="46.18501" lon="-1.33604">
        <ele>8.79</ele>
        <time>2016-08-29T16:24:19Z</time>
      </trkpt>
      <trkpt lat="46.18501" lon="-1.33604">
        <ele>16</ele>
        <time>2016-08-29T16:24:20Z</time>
      </trkpt>
      <trkpt lat="46.18501" lon="-1.33604">
        <ele>13.12</ele>
        <time>2016-08-29T16:24:21Z</time>
      </trkpt>
      <trkpt lat="46.18501" lon="-1.33604">
        <ele>17.44</ele>
        <time>2016-08-29T16:24:23Z</time>
      </trkpt>
      <trkpt lat="46.18501" lon="-1.33604">
        <ele>13.12</ele>
        <time>2016-08-29T16:24:24Z</time>
      </trkpt>
      <trkpt lat="46.185" lon="-1.33608">
        <ele>13.12</ele>
        <time>2016-08-29T16:24:29Z</time>
      </trkpt>
      <trkpt lat="46.185" lon="-1.33609">
        <ele>13.12</ele>
        <time>2016-08-29T16:24:30Z</time>
      </trkpt>
      <trkpt lat="46.185" lon="-1.33611">
        <ele>13.12</ele>
        <time>2016-08-29T16:24:31Z</time>
      </trkpt>
      <trkpt lat="46.18501" lon="-1.33613">
        <ele>12.63</ele>
        <time>2016-08-29T16:24:32Z</time>
      </trkpt>
      <trkpt lat="46.18502" lon="-1.33615">
        <ele>12.63</ele>
        <time>2016-08-29T16:24:33Z</time>
      </trkpt>
      <trkpt lat="46.18504" lon="-1.33619">
        <ele>12.15</ele>
        <time>2016-08-29T16:24:34Z</time>
      </trkpt>
      <trkpt lat="46.18523" lon="-1.33651">
        <ele>12.63</ele>
        <time>2016-08-29T16:24:43Z</time>
      </trkpt>
      <trkpt lat="46.18544" lon="-1.3368">
        <ele>13.6</ele>
        <time>2016-08-29T16:24:51Z</time>
      </trkpt>
      <trkpt lat="46.18547" lon="-1.33684">
        <ele>13.12</ele>
        <time>2016-08-29T16:24:52Z</time>
      </trkpt>
      <trkpt lat="46.18552" lon="-1.33693">
        <ele>12.63</ele>
        <time>2016-08-29T16:24:54Z</time>
      </trkpt>
      <trkpt lat="46.18586" lon="-1.33751">
        <ele>13.12</ele>
        <time>2016-08-29T16:25:07Z</time>
      </trkpt>
      <trkpt lat="46.18619" lon="-1.33774">
        <ele>13.6</ele>
        <time>2016-08-29T16:25:17Z</time>
      </trkpt>
      <trkpt lat="46.18638" lon="-1.33807">
        <ele>14.08</ele>
        <time>2016-08-29T16:25:25Z</time>
      </trkpt>
      <trkpt lat="46.18643" lon="-1.33816">
        <ele>8.79</ele>
        <time>2016-08-29T16:25:27Z</time>
      </trkpt>
      <trkpt lat="46.18644" lon="-1.33822">
        <ele>14.08</ele>
        <time>2016-08-29T16:25:28Z</time>
      </trkpt>
      <trkpt lat="46.1865" lon="-1.33838">
        <ele>13.6</ele>
        <time>2016-08-29T16:25:32Z</time>
      </trkpt>
      <trkpt lat="46.18649" lon="-1.33842">
        <ele>13.12</ele>
        <time>2016-08-29T16:25:33Z</time>
      </trkpt>
      <trkpt lat="46.18649" lon="-1.33846">
        <ele>13.6</ele>
        <time>2016-08-29T16:25:34Z</time>
      </trkpt>
      <trkpt lat="46.18648" lon="-1.33849">
        <ele>13.6</ele>
        <time>2016-08-29T16:25:35Z</time>
      </trkpt>
      <trkpt lat="46.18647" lon="-1.33851">
        <ele>14.08</ele>
        <time>2016-08-29T16:25:36Z</time>
      </trkpt>
      <trkpt lat="46.18648" lon="-1.33853">
        <ele>13.12</ele>
        <time>2016-08-29T16:25:41Z</time>
      </trkpt>
      <trkpt lat="46.18649" lon="-1.33851">
        <ele>13.6</ele>
        <time>2016-08-29T16:25:42Z</time>
      </trkpt>
      <trkpt lat="46.18649" lon="-1.33849">
        <ele>13.6</ele>
        <time>2016-08-29T16:25:43Z</time>
      </trkpt>
      <trkpt lat="46.1865" lon="-1.33847">
        <ele>13.6</ele>
        <time>2016-08-29T16:25:44Z</time>
      </trkpt>
      <trkpt lat="46.18651" lon="-1.33844">
        <ele>14.08</ele>
        <time>2016-08-29T16:25:45Z</time>
      </trkpt>
      <trkpt lat="46.18653" lon="-1.3384">
        <ele>13.6</ele>
        <time>2016-08-29T16:25:46Z</time>
      </trkpt>
      <trkpt lat="46.18655" lon="-1.33838">
        <ele>13.6</ele>
        <time>2016-08-29T16:25:47Z</time>
      </trkpt>
      <trkpt lat="46.18657" lon="-1.33838">
        <ele>13.6</ele>
        <time>2016-08-29T16:25:48Z</time>
      </trkpt>
      <trkpt lat="46.18659" lon="-1.33838">
        <ele>13.6</ele>
        <time>2016-08-29T16:25:49Z</time>
      </trkpt>
      <trkpt lat="46.18667" lon="-1.33838">
        <ele>14.08</ele>
        <time>2016-08-29T16:25:57Z</time>
      </trkpt>
      <trkpt lat="46.18703" lon="-1.33837">
        <ele>14.08</ele>
        <time>2016-08-29T16:26:07Z</time>
      </trkpt>
      <trkpt lat="46.18732" lon="-1.33835">
        <ele>14.56</ele>
        <time>2016-08-29T16:26:16Z</time>
      </trkpt>
      <trkpt lat="46.18734" lon="-1.33834">
        <ele>14.56</ele>
        <time>2016-08-29T16:26:17Z</time>
      </trkpt>
      <trkpt lat="46.18734" lon="-1.33833">
        <ele>14.08</ele>
        <time>2016-08-29T16:26:18Z</time>
      </trkpt>
      <trkpt lat="46.18735" lon="-1.33834">
        <ele>14.56</ele>
        <time>2016-08-29T16:26:19Z</time>
      </trkpt>
      <trkpt lat="46.18735" lon="-1.33835">
        <ele>14.56</ele>
        <time>2016-08-29T16:26:20Z</time>
      </trkpt>
      <trkpt lat="46.18732" lon="-1.33834">
        <ele>14.56</ele>
        <time>2016-08-29T16:26:23Z</time>
      </trkpt>
      <trkpt lat="46.18717" lon="-1.33836">
        <ele>14.08</ele>
        <time>2016-08-29T16:26:29Z</time>
      </trkpt>
      <trkpt lat="46.18698" lon="-1.33837">
        <ele>14.08</ele>
        <time>2016-08-29T16:26:34Z</time>
      </trkpt>
      <trkpt lat="46.18664" lon="-1.33838">
        <ele>14.56</ele>
        <time>2016-08-29T16:26:44Z</time>
      </trkpt>
      <trkpt lat="46.18664" lon="-1.3384">
        <ele>14.56</ele>
        <time>2016-08-29T16:26:45Z</time>
      </trkpt>
      <trkpt lat="46.18664" lon="-1.33842">
        <ele>14.56</ele>
        <time>2016-08-29T16:26:46Z</time>
      </trkpt>
      <trkpt lat="46.18663" lon="-1.33845">
        <ele>14.56</ele>
        <time>2016-08-29T16:26:47Z</time>
      </trkpt>
      <trkpt lat="46.18663" lon="-1.33849">
        <ele>14.56</ele>
        <time>2016-08-29T16:26:48Z</time>
      </trkpt>
      <trkpt lat="46.18663" lon="-1.33852">
        <ele>14.56</ele>
        <time>2016-08-29T16:26:49Z</time>
      </trkpt>
      <trkpt lat="46.18664" lon="-1.33854">
        <ele>14.08</ele>
        <time>2016-08-29T16:26:50Z</time>
      </trkpt>
      <trkpt lat="46.18664" lon="-1.33858">
        <ele>14.08</ele>
        <time>2016-08-29T16:26:51Z</time>
      </trkpt>
      <trkpt lat="46.18664" lon="-1.33861">
        <ele>14.08</ele>
        <time>2016-08-29T16:26:52Z</time>
      </trkpt>
      <trkpt lat="46.18663" lon="-1.33863">
        <ele>14.56</ele>
        <time>2016-08-29T16:26:53Z</time>
      </trkpt>
      <trkpt lat="46.18663" lon="-1.33865">
        <ele>14.56</ele>
        <time>2016-08-29T16:27:01Z</time>
      </trkpt>
      <trkpt lat="46.18662" lon="-1.33865">
        <ele>14.56</ele>
        <time>2016-08-29T16:27:16Z</time>
      </trkpt>
      <trkpt lat="46.18662" lon="-1.33864">
        <ele>15.04</ele>
        <time>2016-08-29T16:27:24Z</time>
      </trkpt>
      <trkpt lat="46.18663" lon="-1.33848">
        <ele>14.08</ele>
        <time>2016-08-29T16:27:34Z</time>
      </trkpt>
      <trkpt lat="46.18663" lon="-1.33842">
        <ele>14.56</ele>
        <time>2016-08-29T16:27:37Z</time>
      </trkpt>
      <trkpt lat="46.18662" lon="-1.33841">
        <ele>14.08</ele>
        <time>2016-08-29T16:27:38Z</time>
      </trkpt>
      <trkpt lat="46.1866" lon="-1.33839">
        <ele>14.56</ele>
        <time>2016-08-29T16:27:41Z</time>
      </trkpt>
      <trkpt lat="46.18657" lon="-1.33841">
        <ele>14.08</ele>
        <time>2016-08-29T16:27:43Z</time>
      </trkpt>
      <trkpt lat="46.18655" lon="-1.33843">
        <ele>14.08</ele>
        <time>2016-08-29T16:27:44Z</time>
      </trkpt>
      <trkpt lat="46.18653" lon="-1.33846">
        <ele>14.08</ele>
        <time>2016-08-29T16:27:45Z</time>
      </trkpt>
      <trkpt lat="46.18635" lon="-1.33879">
        <ele>14.08</ele>
        <time>2016-08-29T16:27:54Z</time>
      </trkpt>
      <trkpt lat="46.18603" lon="-1.33913">
        <ele>14.08</ele>
        <time>2016-08-29T16:28:04Z</time>
      </trkpt>
      <trkpt lat="46.1856" lon="-1.33949">
        <ele>14.08</ele>
        <time>2016-08-29T16:28:16Z</time>
      </trkpt>
      <trkpt lat="46.18557" lon="-1.33953">
        <ele>14.56</ele>
        <time>2016-08-29T16:28:17Z</time>
      </trkpt>
      <trkpt lat="46.18555" lon="-1.33958">
        <ele>14.08</ele>
        <time>2016-08-29T16:28:18Z</time>
      </trkpt>
      <trkpt lat="46.18554" lon="-1.33963">
        <ele>13.6</ele>
        <time>2016-08-29T16:28:19Z</time>
      </trkpt>
      <trkpt lat="46.18553" lon="-1.33968">
        <ele>14.08</ele>
        <time>2016-08-29T16:28:20Z</time>
      </trkpt>
      <trkpt lat="46.18553" lon="-1.33973">
        <ele>13.6</ele>
        <time>2016-08-29T16:28:21Z</time>
      </trkpt>
      <trkpt lat="46.18555" lon="-1.33977">
        <ele>14.08</ele>
        <time>2016-08-29T16:28:22Z</time>
      </trkpt>
      <trkpt lat="46.18557" lon="-1.33981">
        <ele>13.6</ele>
        <time>2016-08-29T16:28:23Z</time>
      </trkpt>
      <trkpt lat="46.1856" lon="-1.33984">
        <ele>13.6</ele>
        <time>2016-08-29T16:28:24Z</time>
      </trkpt>
      <trkpt lat="46.18564" lon="-1.33985">
        <ele>14.08</ele>
        <time>2016-08-29T16:28:25Z</time>
      </trkpt>
      <trkpt lat="46.18567" lon="-1.33986">
        <ele>14.08</ele>
        <time>2016-08-29T16:28:26Z</time>
      </trkpt>
      <trkpt lat="46.18571" lon="-1.33987">
        <ele>14.56</ele>
        <time>2016-08-29T16:28:27Z</time>
      </trkpt>
      <trkpt lat="46.18574" lon="-1.33989">
        <ele>14.56</ele>
        <time>2016-08-29T16:28:28Z</time>
      </trkpt>
      <trkpt lat="46.18615" lon="-1.34019">
        <ele>14.08</ele>
        <time>2016-08-29T16:28:40Z</time>
      </trkpt>
      <trkpt lat="46.18638" lon="-1.34046">
        <ele>14.56</ele>
        <time>2016-08-29T16:28:47Z</time>
      </trkpt>
      <trkpt lat="46.18659" lon="-1.34094">
        <ele>15.04</ele>
        <time>2016-08-29T16:28:57Z</time>
      </trkpt>
      <trkpt lat="46.1868" lon="-1.34148">
        <ele>14.08</ele>
        <time>2016-08-29T16:29:08Z</time>
      </trkpt>
      <trkpt lat="46.18694" lon="-1.34185">
        <ele>14.56</ele>
        <time>2016-08-29T16:29:16Z</time>
      </trkpt>
      <trkpt lat="46.18711" lon="-1.34225">
        <ele>15.04</ele>
        <time>2016-08-29T16:29:24Z</time>
      </trkpt>
      <trkpt lat="46.18713" lon="-1.34231">
        <ele>14.56</ele>
        <time>2016-08-29T16:29:25Z</time>
      </trkpt>
      <trkpt lat="46.18716" lon="-1.34236">
        <ele>14.56</ele>
        <time>2016-08-29T16:29:26Z</time>
      </trkpt>
      <trkpt lat="46.18727" lon="-1.34272">
        <ele>14.56</ele>
        <time>2016-08-29T16:29:35Z</time>
      </trkpt>
      <trkpt lat="46.18727" lon="-1.34274">
        <ele>15.04</ele>
        <time>2016-08-29T16:29:36Z</time>
      </trkpt>
      <trkpt lat="46.18729" lon="-1.34277">
        <ele>15.04</ele>
        <time>2016-08-29T16:29:37Z</time>
      </trkpt>
      <trkpt lat="46.18731" lon="-1.34279">
        <ele>14.56</ele>
        <time>2016-08-29T16:29:38Z</time>
      </trkpt>
      <trkpt lat="46.18732" lon="-1.34281">
        <ele>14.56</ele>
        <time>2016-08-29T16:29:39Z</time>
      </trkpt>
      <trkpt lat="46.1875" lon="-1.34308">
        <ele>14.56</ele>
        <time>2016-08-29T16:29:48Z</time>
      </trkpt>
      <trkpt lat="46.1876" lon="-1.34328">
        <ele>15.04</ele>
        <time>2016-08-29T16:29:55Z</time>
      </trkpt>
      <trkpt lat="46.18762" lon="-1.34334">
        <ele>15.04</ele>
        <time>2016-08-29T16:30:03Z</time>
      </trkpt>
      <trkpt lat="46.18761" lon="-1.34336">
        <ele>15.04</ele>
        <time>2016-08-29T16:30:04Z</time>
      </trkpt>
      <trkpt lat="46.1876" lon="-1.34339">
        <ele>14.56</ele>
        <time>2016-08-29T16:30:05Z</time>
      </trkpt>
      <trkpt lat="46.18761" lon="-1.34343">
        <ele>14.56</ele>
        <time>2016-08-29T16:30:06Z</time>
      </trkpt>
      <trkpt lat="46.18762" lon="-1.34346">
        <ele>14.08</ele>
        <time>2016-08-29T16:30:07Z</time>
      </trkpt>
      <trkpt lat="46.18762" lon="-1.34362">
        <ele>14.56</ele>
        <time>2016-08-29T16:30:12Z</time>
      </trkpt>
      <trkpt lat="46.18739" lon="-1.3439">
        <ele>14.56</ele>
        <time>2016-08-29T16:30:21Z</time>
      </trkpt>
      <trkpt lat="46.18718" lon="-1.34416">
        <ele>18.88</ele>
        <time>2016-08-29T16:30:29Z</time>
      </trkpt>
      <trkpt lat="46.18715" lon="-1.34419">
        <ele>8.31</ele>
        <time>2016-08-29T16:30:30Z</time>
      </trkpt>
      <trkpt lat="46.18711" lon="-1.34422">
        <ele>16</ele>
        <time>2016-08-29T16:30:31Z</time>
      </trkpt>
      <trkpt lat="46.18699" lon="-1.34435">
        <ele>9.27</ele>
        <time>2016-08-29T16:30:35Z</time>
      </trkpt>
      <trkpt lat="46.18696" lon="-1.34438">
        <ele>16</ele>
        <time>2016-08-29T16:30:36Z</time>
      </trkpt>
      <trkpt lat="46.18693" lon="-1.3444">
        <ele>12.15</ele>
        <time>2016-08-29T16:30:37Z</time>
      </trkpt>
      <trkpt lat="46.1869" lon="-1.34443">
        <ele>18.88</ele>
        <time>2016-08-29T16:30:38Z</time>
      </trkpt>
      <trkpt lat="46.18687" lon="-1.34447">
        <ele>15.52</ele>
        <time>2016-08-29T16:30:39Z</time>
      </trkpt>
      <trkpt lat="46.18666" lon="-1.34465">
        <ele>15.52</ele>
        <time>2016-08-29T16:30:46Z</time>
      </trkpt>
      <trkpt lat="46.18647" lon="-1.34483">
        <ele>7.35</ele>
        <time>2016-08-29T16:30:54Z</time>
      </trkpt>
      <trkpt lat="46.18645" lon="-1.34485">
        <ele>16.96</ele>
        <time>2016-08-29T16:30:55Z</time>
      </trkpt>
      <trkpt lat="46.1862" lon="-1.34507">
        <ele>15.04</ele>
        <time>2016-08-29T16:31:04Z</time>
      </trkpt>
      <trkpt lat="46.18609" lon="-1.34517">
        <ele>15.04</ele>
        <time>2016-08-29T16:31:07Z</time>
      </trkpt>
      <trkpt lat="46.18605" lon="-1.3452">
        <ele>15.04</ele>
        <time>2016-08-29T16:31:08Z</time>
      </trkpt>
      <trkpt lat="46.18598" lon="-1.34526">
        <ele>15.52</ele>
        <time>2016-08-29T16:31:10Z</time>
      </trkpt>
      <trkpt lat="46.18595" lon="-1.3453">
        <ele>15.04</ele>
        <time>2016-08-29T16:31:11Z</time>
      </trkpt>
      <trkpt lat="46.18591" lon="-1.34533">
        <ele>15.04</ele>
        <time>2016-08-29T16:31:12Z</time>
      </trkpt>
      <trkpt lat="46.18587" lon="-1.34536">
        <ele>15.52</ele>
        <time>2016-08-29T16:31:13Z</time>
      </trkpt>
      <trkpt lat="46.18584" lon="-1.34539">
        <ele>15.04</ele>
        <time>2016-08-29T16:31:14Z</time>
      </trkpt>
      <trkpt lat="46.18568" lon="-1.34551">
        <ele>15.04</ele>
        <time>2016-08-29T16:31:18Z</time>
      </trkpt>
      <trkpt lat="46.18564" lon="-1.34553">
        <ele>15.04</ele>
        <time>2016-08-29T16:31:19Z</time>
      </trkpt>
      <trkpt lat="46.18518" lon="-1.3458">
        <ele>15.04</ele>
        <time>2016-08-29T16:31:31Z</time>
      </trkpt>
      <trkpt lat="46.18516" lon="-1.34584">
        <ele>17.92</ele>
        <time>2016-08-29T16:31:37Z</time>
      </trkpt>
      <trkpt lat="46.18516" lon="-1.34584">
        <ele>13.6</ele>
        <time>2016-08-29T16:31:40Z</time>
      </trkpt>
      <trkpt lat="46.18516" lon="-1.34584">
        <ele>7.35</ele>
        <time>2016-08-29T16:31:43Z</time>
      </trkpt>
      <trkpt lat="46.18516" lon="-1.34584">
        <ele>18.4</ele>
        <time>2016-08-29T16:31:44Z</time>
      </trkpt>
      <trkpt lat="46.18516" lon="-1.34584">
        <ele>12.63</ele>
        <time>2016-08-29T16:31:45Z</time>
      </trkpt>
      <trkpt lat="46.18516" lon="-1.34585">
        <ele>21.29</ele>
        <time>2016-08-29T16:31:46Z</time>
      </trkpt>
      <trkpt lat="46.18516" lon="-1.34585">
        <ele>16</ele>
        <time>2016-08-29T16:31:47Z</time>
      </trkpt>
      <trkpt lat="46.18516" lon="-1.34585">
        <ele>5.91</ele>
        <time>2016-08-29T16:31:50Z</time>
      </trkpt>
      <trkpt lat="46.18516" lon="-1.34585">
        <ele>20.32</ele>
        <time>2016-08-29T16:31:51Z</time>
      </trkpt>
      <trkpt lat="46.18516" lon="-1.34585">
        <ele>15.52</ele>
        <time>2016-08-29T16:31:52Z</time>
      </trkpt>
      <trkpt lat="46.18516" lon="-1.34585">
        <ele>18.88</ele>
        <time>2016-08-29T16:31:53Z</time>
      </trkpt>
      <trkpt lat="46.18516" lon="-1.34585">
        <ele>9.27</ele>
        <time>2016-08-29T16:31:54Z</time>
      </trkpt>
      <trkpt lat="46.18516" lon="-1.34585">
        <ele>20.32</ele>
        <time>2016-08-29T16:31:55Z</time>
      </trkpt>
      <trkpt lat="46.18515" lon="-1.34584">
        <ele>15.52</ele>
        <time>2016-08-29T16:31:56Z</time>
      </trkpt>
      <trkpt lat="46.18515" lon="-1.34584">
        <ele>21.29</ele>
        <time>2016-08-29T16:31:58Z</time>
      </trkpt>
      <trkpt lat="46.18515" lon="-1.34585">
        <ele>15.52</ele>
        <time>2016-08-29T16:31:59Z</time>
      </trkpt>
      <trkpt lat="46.18515" lon="-1.34585">
        <ele>21.29</ele>
        <time>2016-08-29T16:32:03Z</time>
      </trkpt>
      <trkpt lat="46.18515" lon="-1.34585">
        <ele>19.84</ele>
        <time>2016-08-29T16:32:04Z</time>
      </trkpt>
      <trkpt lat="46.18515" lon="-1.34585">
        <ele>16</ele>
        <time>2016-08-29T16:32:05Z</time>
      </trkpt>
      <trkpt lat="46.18515" lon="-1.34585">
        <ele>15.04</ele>
        <time>2016-08-29T16:32:07Z</time>
      </trkpt>
      <trkpt lat="46.18515" lon="-1.34586">
        <ele>15.04</ele>
        <time>2016-08-29T16:32:13Z</time>
      </trkpt>
      <trkpt lat="46.18514" lon="-1.34586">
        <ele>15.04</ele>
        <time>2016-08-29T16:32:14Z</time>
      </trkpt>
      <trkpt lat="46.18512" lon="-1.34587">
        <ele>15.04</ele>
        <time>2016-08-29T16:32:15Z</time>
      </trkpt>
      <trkpt lat="46.1851" lon="-1.34587">
        <ele>15.04</ele>
        <time>2016-08-29T16:32:16Z</time>
      </trkpt>
      <trkpt lat="46.18507" lon="-1.34588">
        <ele>15.04</ele>
        <time>2016-08-29T16:32:17Z</time>
      </trkpt>
      <trkpt lat="46.18505" lon="-1.34588">
        <ele>15.04</ele>
        <time>2016-08-29T16:32:18Z</time>
      </trkpt>
      <trkpt lat="46.18501" lon="-1.34589">
        <ele>15.04</ele>
        <time>2016-08-29T16:32:24Z</time>
      </trkpt>
      <trkpt lat="46.18493" lon="-1.34592">
        <ele>15.04</ele>
        <time>2016-08-29T16:32:39Z</time>
      </trkpt>
      <trkpt lat="46.18464" lon="-1.34605">
        <ele>14.56</ele>
        <time>2016-08-29T16:32:48Z</time>
      </trkpt>
      <trkpt lat="46.18456" lon="-1.34608">
        <ele>14.56</ele>
        <time>2016-08-29T16:32:50Z</time>
      </trkpt>
      <trkpt lat="46.18444" lon="-1.34614">
        <ele>15.04</ele>
        <time>2016-08-29T16:32:53Z</time>
      </trkpt>
      <trkpt lat="46.18436" lon="-1.34618">
        <ele>15.04</ele>
        <time>2016-08-29T16:32:55Z</time>
      </trkpt>
      <trkpt lat="46.18432" lon="-1.3462">
        <ele>14.56</ele>
        <time>2016-08-29T16:32:56Z</time>
      </trkpt>
      <trkpt lat="46.18428" lon="-1.34622">
        <ele>15.04</ele>
        <time>2016-08-29T16:32:57Z</time>
      </trkpt>
      <trkpt lat="46.18411" lon="-1.34629">
        <ele>15.04</ele>
        <time>2016-08-29T16:33:01Z</time>
      </trkpt>
      <trkpt lat="46.18394" lon="-1.34633">
        <ele>15.52</ele>
        <time>2016-08-29T16:33:05Z</time>
      </trkpt>
      <trkpt lat="46.1836" lon="-1.34642">
        <ele>15.04</ele>
        <time>2016-08-29T16:33:13Z</time>
      </trkpt>
      <trkpt lat="46.18356" lon="-1.34644">
        <ele>15.04</ele>
        <time>2016-08-29T16:33:14Z</time>
      </trkpt>
      <trkpt lat="46.18323" lon="-1.34661">
        <ele>14.56</ele>
        <time>2016-08-29T16:33:22Z</time>
      </trkpt>
      <trkpt lat="46.18315" lon="-1.34664">
        <ele>14.56</ele>
        <time>2016-08-29T16:33:24Z</time>
      </trkpt>
      <trkpt lat="46.18284" lon="-1.34681">
        <ele>14.08</ele>
        <time>2016-08-29T16:33:32Z</time>
      </trkpt>
      <trkpt lat="46.1828" lon="-1.34684">
        <ele>13.6</ele>
        <time>2016-08-29T16:33:33Z</time>
      </trkpt>
      <trkpt lat="46.1825" lon="-1.34699">
        <ele>14.08</ele>
        <time>2016-08-29T16:33:42Z</time>
      </trkpt>
      <trkpt lat="46.18245" lon="-1.34697">
        <ele>14.56</ele>
        <time>2016-08-29T16:33:44Z</time>
      </trkpt>
      <trkpt lat="46.18225" lon="-1.34683">
        <ele>14.08</ele>
        <time>2016-08-29T16:33:50Z</time>
      </trkpt>
      <trkpt lat="46.18197" lon="-1.34681">
        <ele>14.08</ele>
        <time>2016-08-29T16:33:57Z</time>
      </trkpt>
      <trkpt lat="46.18169" lon="-1.34682">
        <ele>15.04</ele>
        <time>2016-08-29T16:34:05Z</time>
      </trkpt>
      <trkpt lat="46.18161" lon="-1.34685">
        <ele>14.08</ele>
        <time>2016-08-29T16:34:07Z</time>
      </trkpt>
      <trkpt lat="46.18156" lon="-1.34686">
        <ele>14.08</ele>
        <time>2016-08-29T16:34:08Z</time>
      </trkpt>
      <trkpt lat="46.18125" lon="-1.34688">
        <ele>14.56</ele>
        <time>2016-08-29T16:34:15Z</time>
      </trkpt>
      <trkpt lat="46.18121" lon="-1.34687">
        <ele>14.56</ele>
        <time>2016-08-29T16:34:16Z</time>
      </trkpt>
      <trkpt lat="46.18112" lon="-1.34682">
        <ele>14.56</ele>
        <time>2016-08-29T16:34:18Z</time>
      </trkpt>
      <trkpt lat="46.18079" lon="-1.34655">
        <ele>13.6</ele>
        <time>2016-08-29T16:34:27Z</time>
      </trkpt>
      <trkpt lat="46.18075" lon="-1.34653">
        <ele>14.08</ele>
        <time>2016-08-29T16:34:28Z</time>
      </trkpt>
      <trkpt lat="46.1807" lon="-1.34653">
        <ele>13.6</ele>
        <time>2016-08-29T16:34:29Z</time>
      </trkpt>
      <trkpt lat="46.18066" lon="-1.34652">
        <ele>13.6</ele>
        <time>2016-08-29T16:34:30Z</time>
      </trkpt>
      <trkpt lat="46.18062" lon="-1.34653">
        <ele>13.6</ele>
        <time>2016-08-29T16:34:31Z</time>
      </trkpt>
      <trkpt lat="46.18059" lon="-1.34653">
        <ele>13.6</ele>
        <time>2016-08-29T16:34:32Z</time>
      </trkpt>
      <trkpt lat="46.18055" lon="-1.34653">
        <ele>13.6</ele>
        <time>2016-08-29T16:34:33Z</time>
      </trkpt>
      <trkpt lat="46.18051" lon="-1.34652">
        <ele>13.6</ele>
        <time>2016-08-29T16:34:34Z</time>
      </trkpt>
      <trkpt lat="46.18035" lon="-1.3465">
        <ele>13.12</ele>
        <time>2016-08-29T16:34:38Z</time>
      </trkpt>
      <trkpt lat="46.18022" lon="-1.3465">
        <ele>13.6</ele>
        <time>2016-08-29T16:34:42Z</time>
      </trkpt>
      <trkpt lat="46.18017" lon="-1.34649">
        <ele>14.08</ele>
        <time>2016-08-29T16:34:44Z</time>
      </trkpt>
      <trkpt lat="46.18013" lon="-1.34649">
        <ele>14.08</ele>
        <time>2016-08-29T16:34:45Z</time>
      </trkpt>
      <trkpt lat="46.17993" lon="-1.34647">
        <ele>13.6</ele>
        <time>2016-08-29T16:34:51Z</time>
      </trkpt>
      <trkpt lat="46.17987" lon="-1.34646">
        <ele>14.08</ele>
        <time>2016-08-29T16:34:53Z</time>
      </trkpt>
      <trkpt lat="46.17963" lon="-1.34643">
        <ele>13.12</ele>
        <time>2016-08-29T16:35:02Z</time>
      </trkpt>
      <trkpt lat="46.1795" lon="-1.3464">
        <ele>14.08</ele>
        <time>2016-08-29T16:35:09Z</time>
      </trkpt>
      <trkpt lat="46.17922" lon="-1.3464">
        <ele>13.6</ele>
        <time>2016-08-29T16:35:18Z</time>
      </trkpt>
      <trkpt lat="46.17908" lon="-1.34639">
        <ele>13.12</ele>
        <time>2016-08-29T16:35:24Z</time>
      </trkpt>
      <trkpt lat="46.17906" lon="-1.34639">
        <ele>13.6</ele>
        <time>2016-08-29T16:35:25Z</time>
      </trkpt>
      <trkpt lat="46.17904" lon="-1.34639">
        <ele>13.12</ele>
        <time>2016-08-29T16:35:26Z</time>
      </trkpt>
      <trkpt lat="46.17902" lon="-1.34639">
        <ele>13.12</ele>
        <time>2016-08-29T16:35:27Z</time>
      </trkpt>
      <trkpt lat="46.179" lon="-1.34638">
        <ele>13.6</ele>
        <time>2016-08-29T16:35:28Z</time>
      </trkpt>
      <trkpt lat="46.17875" lon="-1.34634">
        <ele>13.12</ele>
        <time>2016-08-29T16:35:37Z</time>
      </trkpt>
      <trkpt lat="46.17844" lon="-1.3463">
        <ele>13.12</ele>
        <time>2016-08-29T16:35:49Z</time>
      </trkpt>
      <trkpt lat="46.1783" lon="-1.3463">
        <ele>13.12</ele>
        <time>2016-08-29T16:35:55Z</time>
      </trkpt>
      <trkpt lat="46.17827" lon="-1.34631">
        <ele>13.12</ele>
        <time>2016-08-29T16:35:56Z</time>
      </trkpt>
      <trkpt lat="46.17804" lon="-1.34646">
        <ele>12.63</ele>
        <time>2016-08-29T16:36:04Z</time>
      </trkpt>
      <trkpt lat="46.17776" lon="-1.34669">
        <ele>12.63</ele>
        <time>2016-08-29T16:36:13Z</time>
      </trkpt>
      <trkpt lat="46.17746" lon="-1.34698">
        <ele>13.12</ele>
        <time>2016-08-29T16:36:23Z</time>
      </trkpt>
      <trkpt lat="46.17718" lon="-1.34722">
        <ele>13.6</ele>
        <time>2016-08-29T16:36:32Z</time>
      </trkpt>
      <trkpt lat="46.17702" lon="-1.34756">
        <ele>12.15</ele>
        <time>2016-08-29T16:36:40Z</time>
      </trkpt>
      <trkpt lat="46.177" lon="-1.34788">
        <ele>12.15</ele>
        <time>2016-08-29T16:36:48Z</time>
      </trkpt>
      <trkpt lat="46.17698" lon="-1.34801">
        <ele>12.63</ele>
        <time>2016-08-29T16:36:56Z</time>
      </trkpt>
      <trkpt lat="46.17696" lon="-1.34807">
        <ele>12.63</ele>
        <time>2016-08-29T16:37:02Z</time>
      </trkpt>
      <trkpt lat="46.17695" lon="-1.34808">
        <ele>12.63</ele>
        <time>2016-08-29T16:37:03Z</time>
      </trkpt>
      <trkpt lat="46.17694" lon="-1.34809">
        <ele>12.63</ele>
        <time>2016-08-29T16:37:04Z</time>
      </trkpt>
      <trkpt lat="46.17693" lon="-1.3481">
        <ele>13.12</ele>
        <time>2016-08-29T16:37:05Z</time>
      </trkpt>
      <trkpt lat="46.17692" lon="-1.34811">
        <ele>13.12</ele>
        <time>2016-08-29T16:37:06Z</time>
      </trkpt>
      <trkpt lat="46.17691" lon="-1.34813">
        <ele>13.12</ele>
        <time>2016-08-29T16:37:07Z</time>
      </trkpt>
      <trkpt lat="46.17691" lon="-1.34815">
        <ele>13.12</ele>
        <time>2016-08-29T16:37:08Z</time>
      </trkpt>
      <trkpt lat="46.1769" lon="-1.34816">
        <ele>12.63</ele>
        <time>2016-08-29T16:37:09Z</time>
      </trkpt>
      <trkpt lat="46.17689" lon="-1.34817">
        <ele>13.12</ele>
        <time>2016-08-29T16:37:10Z</time>
      </trkpt>
      <trkpt lat="46.17688" lon="-1.34818">
        <ele>12.15</ele>
        <time>2016-08-29T16:37:11Z</time>
      </trkpt>
      <trkpt lat="46.17683" lon="-1.34834">
        <ele>12.63</ele>
        <time>2016-08-29T16:37:21Z</time>
      </trkpt>
      <trkpt lat="46.17681" lon="-1.34836">
        <ele>12.63</ele>
        <time>2016-08-29T16:37:22Z</time>
      </trkpt>
      <trkpt lat="46.1768" lon="-1.34838">
        <ele>13.12</ele>
        <time>2016-08-29T16:37:23Z</time>
      </trkpt>
      <trkpt lat="46.1768" lon="-1.34839">
        <ele>12.63</ele>
        <time>2016-08-29T16:37:24Z</time>
      </trkpt>
      <trkpt lat="46.17678" lon="-1.34844">
        <ele>12.15</ele>
        <time>2016-08-29T16:37:29Z</time>
      </trkpt>
      <trkpt lat="46.17677" lon="-1.34845">
        <ele>12.15</ele>
        <time>2016-08-29T16:37:30Z</time>
      </trkpt>
      <trkpt lat="46.17676" lon="-1.34847">
        <ele>12.63</ele>
        <time>2016-08-29T16:37:31Z</time>
      </trkpt>
      <trkpt lat="46.1767" lon="-1.34858">
        <ele>12.15</ele>
        <time>2016-08-29T16:37:40Z</time>
      </trkpt>
      <trkpt lat="46.17668" lon="-1.3486">
        <ele>12.63</ele>
        <time>2016-08-29T16:37:42Z</time>
      </trkpt>
      <trkpt lat="46.17666" lon="-1.34862">
        <ele>12.63</ele>
        <time>2016-08-29T16:37:43Z</time>
      </trkpt>
      <trkpt lat="46.17664" lon="-1.34863">
        <ele>11.67</ele>
        <time>2016-08-29T16:37:44Z</time>
      </trkpt>
      <trkpt lat="46.17663" lon="-1.34864">
        <ele>12.63</ele>
        <time>2016-08-29T16:37:45Z</time>
      </trkpt>
      <trkpt lat="46.17661" lon="-1.34865">
        <ele>12.63</ele>
        <time>2016-08-29T16:37:46Z</time>
      </trkpt>
      <trkpt lat="46.17641" lon="-1.34878">
        <ele>12.63</ele>
        <time>2016-08-29T16:37:56Z</time>
      </trkpt>
      <trkpt lat="46.17639" lon="-1.34878">
        <ele>13.12</ele>
        <time>2016-08-29T16:37:57Z</time>
      </trkpt>
      <trkpt lat="46.17637" lon="-1.34878">
        <ele>12.63</ele>
        <time>2016-08-29T16:37:58Z</time>
      </trkpt>
      <trkpt lat="46.17611" lon="-1.34887">
        <ele>13.12</ele>
        <time>2016-08-29T16:38:08Z</time>
      </trkpt>
      <trkpt lat="46.17588" lon="-1.34896">
        <ele>13.12</ele>
        <time>2016-08-29T16:38:18Z</time>
      </trkpt>
      <trkpt lat="46.17585" lon="-1.34896">
        <ele>13.12</ele>
        <time>2016-08-29T16:38:19Z</time>
      </trkpt>
      <trkpt lat="46.17583" lon="-1.34894">
        <ele>13.6</ele>
        <time>2016-08-29T16:38:20Z</time>
      </trkpt>
      <trkpt lat="46.17582" lon="-1.34892">
        <ele>13.6</ele>
        <time>2016-08-29T16:38:21Z</time>
      </trkpt>
      <trkpt lat="46.17581" lon="-1.34891">
        <ele>13.6</ele>
        <time>2016-08-29T16:38:22Z</time>
      </trkpt>
      <trkpt lat="46.1758" lon="-1.34891">
        <ele>14.08</ele>
        <time>2016-08-29T16:38:23Z</time>
      </trkpt>
      <trkpt lat="46.17579" lon="-1.34891">
        <ele>14.08</ele>
        <time>2016-08-29T16:38:24Z</time>
      </trkpt>
      <trkpt lat="46.17577" lon="-1.34891">
        <ele>14.08</ele>
        <time>2016-08-29T16:38:25Z</time>
      </trkpt>
      <trkpt lat="46.17576" lon="-1.34892">
        <ele>14.08</ele>
        <time>2016-08-29T16:38:26Z</time>
      </trkpt>
      <trkpt lat="46.17573" lon="-1.34893">
        <ele>14.08</ele>
        <time>2016-08-29T16:38:28Z</time>
      </trkpt>
      <trkpt lat="46.17571" lon="-1.34893">
        <ele>14.56</ele>
        <time>2016-08-29T16:38:29Z</time>
      </trkpt>
      <trkpt lat="46.1757" lon="-1.34894">
        <ele>14.56</ele>
        <time>2016-08-29T16:38:30Z</time>
      </trkpt>
      <trkpt lat="46.17568" lon="-1.34894">
        <ele>14.56</ele>
        <time>2016-08-29T16:38:31Z</time>
      </trkpt>
      <trkpt lat="46.17566" lon="-1.34894">
        <ele>15.04</ele>
        <time>2016-08-29T16:38:32Z</time>
      </trkpt>
      <trkpt lat="46.17546" lon="-1.34894">
        <ele>15.52</ele>
        <time>2016-08-29T16:38:41Z</time>
      </trkpt>
      <trkpt lat="46.17522" lon="-1.349">
        <ele>15.04</ele>
        <time>2016-08-29T16:38:51Z</time>
      </trkpt>
      <trkpt lat="46.17502" lon="-1.34898">
        <ele>16</ele>
        <time>2016-08-29T16:39:02Z</time>
      </trkpt>
      <trkpt lat="46.17476" lon="-1.34901">
        <ele>14.08</ele>
        <time>2016-08-29T16:39:14Z</time>
      </trkpt>
      <trkpt lat="46.17455" lon="-1.34906">
        <ele>13.6</ele>
        <time>2016-08-29T16:39:22Z</time>
      </trkpt>
      <trkpt lat="46.17452" lon="-1.34908">
        <ele>14.08</ele>
        <time>2016-08-29T16:39:23Z</time>
      </trkpt>
      <trkpt lat="46.17449" lon="-1.34909">
        <ele>13.6</ele>
        <time>2016-08-29T16:39:24Z</time>
      </trkpt>
      <trkpt lat="46.17429" lon="-1.34916">
        <ele>13.6</ele>
        <time>2016-08-29T16:39:32Z</time>
      </trkpt>
      <trkpt lat="46.174" lon="-1.34926">
        <ele>14.56</ele>
        <time>2016-08-29T16:39:40Z</time>
      </trkpt>
      <trkpt lat="46.1737" lon="-1.34932">
        <ele>13.6</ele>
        <time>2016-08-29T16:39:47Z</time>
      </trkpt>
      <trkpt lat="46.17365" lon="-1.34933">
        <ele>13.6</ele>
        <time>2016-08-29T16:39:48Z</time>
      </trkpt>
      <trkpt lat="46.17361" lon="-1.34934">
        <ele>13.6</ele>
        <time>2016-08-29T16:39:49Z</time>
      </trkpt>
      <trkpt lat="46.17356" lon="-1.34935">
        <ele>13.12</ele>
        <time>2016-08-29T16:39:50Z</time>
      </trkpt>
      <trkpt lat="46.17351" lon="-1.34935">
        <ele>13.12</ele>
        <time>2016-08-29T16:39:51Z</time>
      </trkpt>
      <trkpt lat="46.17347" lon="-1.34935">
        <ele>13.12</ele>
        <time>2016-08-29T16:39:52Z</time>
      </trkpt>
      <trkpt lat="46.17344" lon="-1.34936">
        <ele>13.12</ele>
        <time>2016-08-29T16:39:53Z</time>
      </trkpt>
      <trkpt lat="46.17323" lon="-1.34945">
        <ele>13.12</ele>
        <time>2016-08-29T16:39:58Z</time>
      </trkpt>
      <trkpt lat="46.17284" lon="-1.34957">
        <ele>11.19</ele>
        <time>2016-08-29T16:40:07Z</time>
      </trkpt>
      <trkpt lat="46.1728" lon="-1.3496">
        <ele>13.12</ele>
        <time>2016-08-29T16:40:08Z</time>
      </trkpt>
      <trkpt lat="46.17266" lon="-1.34983">
        <ele>13.12</ele>
        <time>2016-08-29T16:40:13Z</time>
      </trkpt>
      <trkpt lat="46.17264" lon="-1.34988">
        <ele>12.63</ele>
        <time>2016-08-29T16:40:14Z</time>
      </trkpt>
      <trkpt lat="46.17262" lon="-1.34993">
        <ele>13.12</ele>
        <time>2016-08-29T16:40:15Z</time>
      </trkpt>
      <trkpt lat="46.1726" lon="-1.34997">
        <ele>12.63</ele>
        <time>2016-08-29T16:40:16Z</time>
      </trkpt>
      <trkpt lat="46.17258" lon="-1.35002">
        <ele>13.12</ele>
        <time>2016-08-29T16:40:17Z</time>
      </trkpt>
      <trkpt lat="46.17239" lon="-1.35031">
        <ele>12.63</ele>
        <time>2016-08-29T16:40:23Z</time>
      </trkpt>
      <trkpt lat="46.17235" lon="-1.35036">
        <ele>12.63</ele>
        <time>2016-08-29T16:40:24Z</time>
      </trkpt>
      <trkpt lat="46.17225" lon="-1.35049">
        <ele>12.63</ele>
        <time>2016-08-29T16:40:27Z</time>
      </trkpt>
      <trkpt lat="46.17223" lon="-1.35054">
        <ele>12.63</ele>
        <time>2016-08-29T16:40:28Z</time>
      </trkpt>
      <trkpt lat="46.1722" lon="-1.35059">
        <ele>12.63</ele>
        <time>2016-08-29T16:40:29Z</time>
      </trkpt>
      <trkpt lat="46.17217" lon="-1.35064">
        <ele>12.63</ele>
        <time>2016-08-29T16:40:30Z</time>
      </trkpt>
      <trkpt lat="46.17214" lon="-1.35068">
        <ele>12.63</ele>
        <time>2016-08-29T16:40:31Z</time>
      </trkpt>
      <trkpt lat="46.17212" lon="-1.35073">
        <ele>13.12</ele>
        <time>2016-08-29T16:40:32Z</time>
      </trkpt>
      <trkpt lat="46.17209" lon="-1.35078">
        <ele>13.12</ele>
        <time>2016-08-29T16:40:33Z</time>
      </trkpt>
      <trkpt lat="46.17206" lon="-1.35082">
        <ele>12.63</ele>
        <time>2016-08-29T16:40:34Z</time>
      </trkpt>
      <trkpt lat="46.17203" lon="-1.35087">
        <ele>12.63</ele>
        <time>2016-08-29T16:40:35Z</time>
      </trkpt>
      <trkpt lat="46.172" lon="-1.35092">
        <ele>12.63</ele>
        <time>2016-08-29T16:40:36Z</time>
      </trkpt>
      <trkpt lat="46.17197" lon="-1.35097">
        <ele>12.63</ele>
        <time>2016-08-29T16:40:37Z</time>
      </trkpt>
      <trkpt lat="46.17194" lon="-1.35101">
        <ele>12.15</ele>
        <time>2016-08-29T16:40:38Z</time>
      </trkpt>
      <trkpt lat="46.17192" lon="-1.35106">
        <ele>12.63</ele>
        <time>2016-08-29T16:40:39Z</time>
      </trkpt>
      <trkpt lat="46.17184" lon="-1.35121">
        <ele>12.63</ele>
        <time>2016-08-29T16:40:42Z</time>
      </trkpt>
      <trkpt lat="46.17168" lon="-1.35153">
        <ele>12.63</ele>
        <time>2016-08-29T16:40:48Z</time>
      </trkpt>
      <trkpt lat="46.17165" lon="-1.35158">
        <ele>12.63</ele>
        <time>2016-08-29T16:40:49Z</time>
      </trkpt>
      <trkpt lat="46.17157" lon="-1.35175">
        <ele>12.15</ele>
        <time>2016-08-29T16:40:52Z</time>
      </trkpt>
      <trkpt lat="46.17154" lon="-1.35181">
        <ele>12.15</ele>
        <time>2016-08-29T16:40:53Z</time>
      </trkpt>
      <trkpt lat="46.17137" lon="-1.35211">
        <ele>11.19</ele>
        <time>2016-08-29T16:40:59Z</time>
      </trkpt>
      <trkpt lat="46.17133" lon="-1.35216">
        <ele>10.23</ele>
        <time>2016-08-29T16:41:00Z</time>
      </trkpt>
      <trkpt lat="46.1713" lon="-1.35221">
        <ele>10.71</ele>
        <time>2016-08-29T16:41:01Z</time>
      </trkpt>
      <trkpt lat="46.17126" lon="-1.35227">
        <ele>10.23</ele>
        <time>2016-08-29T16:41:02Z</time>
      </trkpt>
      <trkpt lat="46.17123" lon="-1.35232">
        <ele>10.71</ele>
        <time>2016-08-29T16:41:03Z</time>
      </trkpt>
      <trkpt lat="46.17099" lon="-1.35274">
        <ele>9.75</ele>
        <time>2016-08-29T16:41:12Z</time>
      </trkpt>
      <trkpt lat="46.17069" lon="-1.35283">
        <ele>10.23</ele>
        <time>2016-08-29T16:41:20Z</time>
      </trkpt>
      <trkpt lat="46.17064" lon="-1.35284">
        <ele>10.23</ele>
        <time>2016-08-29T16:41:21Z</time>
      </trkpt>
      <trkpt lat="46.17061" lon="-1.35284">
        <ele>9.75</ele>
        <time>2016-08-29T16:41:22Z</time>
      </trkpt>
      <trkpt lat="46.17036" lon="-1.35299">
        <ele>9.75</ele>
        <time>2016-08-29T16:41:31Z</time>
      </trkpt>
      <trkpt lat="46.17025" lon="-1.35309">
        <ele>9.27</ele>
        <time>2016-08-29T16:41:34Z</time>
      </trkpt>
      <trkpt lat="46.1702" lon="-1.35312">
        <ele>9.27</ele>
        <time>2016-08-29T16:41:35Z</time>
      </trkpt>
      <trkpt lat="46.16993" lon="-1.35332">
        <ele>9.75</ele>
        <time>2016-08-29T16:41:42Z</time>
      </trkpt>
      <trkpt lat="46.16989" lon="-1.35336">
        <ele>9.75</ele>
        <time>2016-08-29T16:41:43Z</time>
      </trkpt>
      <trkpt lat="46.16963" lon="-1.35356">
        <ele>9.27</ele>
        <time>2016-08-29T16:41:50Z</time>
      </trkpt>
      <trkpt lat="46.1696" lon="-1.3536">
        <ele>9.75</ele>
        <time>2016-08-29T16:41:51Z</time>
      </trkpt>
      <trkpt lat="46.16956" lon="-1.35362">
        <ele>8.79</ele>
        <time>2016-08-29T16:41:52Z</time>
      </trkpt>
      <trkpt lat="46.16919" lon="-1.35388">
        <ele>9.27</ele>
        <time>2016-08-29T16:42:01Z</time>
      </trkpt>
      <trkpt lat="46.16887" lon="-1.35411">
        <ele>8.79</ele>
        <time>2016-08-29T16:42:10Z</time>
      </trkpt>
      <trkpt lat="46.16884" lon="-1.35415">
        <ele>9.27</ele>
        <time>2016-08-29T16:42:11Z</time>
      </trkpt>
      <trkpt lat="46.16873" lon="-1.35434">
        <ele>8.79</ele>
        <time>2016-08-29T16:42:15Z</time>
      </trkpt>
      <trkpt lat="46.16855" lon="-1.35461">
        <ele>8.31</ele>
        <time>2016-08-29T16:42:21Z</time>
      </trkpt>
      <trkpt lat="46.16852" lon="-1.35466">
        <ele>7.83</ele>
        <time>2016-08-29T16:42:22Z</time>
      </trkpt>
      <trkpt lat="46.16849" lon="-1.35471">
        <ele>8.31</ele>
        <time>2016-08-29T16:42:23Z</time>
      </trkpt>
      <trkpt lat="46.16847" lon="-1.35476">
        <ele>7.83</ele>
        <time>2016-08-29T16:42:24Z</time>
      </trkpt>
      <trkpt lat="46.16844" lon="-1.3548">
        <ele>8.31</ele>
        <time>2016-08-29T16:42:25Z</time>
      </trkpt>
      <trkpt lat="46.16825" lon="-1.35508">
        <ele>7.35</ele>
        <time>2016-08-29T16:42:31Z</time>
      </trkpt>
      <trkpt lat="46.16822" lon="-1.35513">
        <ele>7.35</ele>
        <time>2016-08-29T16:42:32Z</time>
      </trkpt>
      <trkpt lat="46.16819" lon="-1.35518">
        <ele>7.35</ele>
        <time>2016-08-29T16:42:33Z</time>
      </trkpt>
      <trkpt lat="46.16794" lon="-1.35556">
        <ele>7.35</ele>
        <time>2016-08-29T16:42:41Z</time>
      </trkpt>
      <trkpt lat="46.16782" lon="-1.35577">
        <ele>7.35</ele>
        <time>2016-08-29T16:42:45Z</time>
      </trkpt>
      <trkpt lat="46.16779" lon="-1.35582">
        <ele>7.35</ele>
        <time>2016-08-29T16:42:46Z</time>
      </trkpt>
      <trkpt lat="46.16777" lon="-1.35586">
        <ele>7.35</ele>
        <time>2016-08-29T16:42:47Z</time>
      </trkpt>
      <trkpt lat="46.16774" lon="-1.35591">
        <ele>7.35</ele>
        <time>2016-08-29T16:42:48Z</time>
      </trkpt>
      <trkpt lat="46.1677" lon="-1.35596">
        <ele>7.35</ele>
        <time>2016-08-29T16:42:49Z</time>
      </trkpt>
      <trkpt lat="46.16767" lon="-1.35602">
        <ele>7.35</ele>
        <time>2016-08-29T16:42:50Z</time>
      </trkpt>
      <trkpt lat="46.16764" lon="-1.35607">
        <ele>6.87</ele>
        <time>2016-08-29T16:42:51Z</time>
      </trkpt>
      <trkpt lat="46.16761" lon="-1.35612">
        <ele>6.87</ele>
        <time>2016-08-29T16:42:52Z</time>
      </trkpt>
      <trkpt lat="46.16753" lon="-1.35622">
        <ele>6.87</ele>
        <time>2016-08-29T16:42:54Z</time>
      </trkpt>
      <trkpt lat="46.16727" lon="-1.35659">
        <ele>6.87</ele>
        <time>2016-08-29T16:43:01Z</time>
      </trkpt>
      <trkpt lat="46.16723" lon="-1.35664">
        <ele>6.39</ele>
        <time>2016-08-29T16:43:02Z</time>
      </trkpt>
      <trkpt lat="46.16719" lon="-1.3567">
        <ele>5.91</ele>
        <time>2016-08-29T16:43:03Z</time>
      </trkpt>
      <trkpt lat="46.16689" lon="-1.35716">
        <ele>6.87</ele>
        <time>2016-08-29T16:43:13Z</time>
      </trkpt>
      <trkpt lat="46.16668" lon="-1.35741">
        <ele>7.35</ele>
        <time>2016-08-29T16:43:21Z</time>
      </trkpt>
      <trkpt lat="46.16665" lon="-1.3574">
        <ele>7.35</ele>
        <time>2016-08-29T16:43:22Z</time>
      </trkpt>
      <trkpt lat="46.16663" lon="-1.35737">
        <ele>7.35</ele>
        <time>2016-08-29T16:43:23Z</time>
      </trkpt>
      <trkpt lat="46.16661" lon="-1.35733">
        <ele>6.87</ele>
        <time>2016-08-29T16:43:24Z</time>
      </trkpt>
      <trkpt lat="46.16659" lon="-1.35729">
        <ele>7.35</ele>
        <time>2016-08-29T16:43:25Z</time>
      </trkpt>
      <trkpt lat="46.16657" lon="-1.35724">
        <ele>7.35</ele>
        <time>2016-08-29T16:43:26Z</time>
      </trkpt>
      <trkpt lat="46.16655" lon="-1.3572">
        <ele>7.35</ele>
        <time>2016-08-29T16:43:27Z</time>
      </trkpt>
      <trkpt lat="46.16653" lon="-1.35716">
        <ele>7.83</ele>
        <time>2016-08-29T16:43:28Z</time>
      </trkpt>
      <trkpt lat="46.16651" lon="-1.35712">
        <ele>7.35</ele>
        <time>2016-08-29T16:43:29Z</time>
      </trkpt>
      <trkpt lat="46.16649" lon="-1.35708">
        <ele>7.35</ele>
        <time>2016-08-29T16:43:30Z</time>
      </trkpt>
      <trkpt lat="46.16631" lon="-1.35671">
        <ele>7.83</ele>
        <time>2016-08-29T16:43:41Z</time>
      </trkpt>
      <trkpt lat="46.16622" lon="-1.35651">
        <ele>8.31</ele>
        <time>2016-08-29T16:43:52Z</time>
      </trkpt>
      <trkpt lat="46.16617" lon="-1.35646">
        <ele>8.31</ele>
        <time>2016-08-29T16:44:01Z</time>
      </trkpt>
      <trkpt lat="46.16615" lon="-1.35647">
        <ele>8.31</ele>
        <time>2016-08-29T16:44:02Z</time>
      </trkpt>
      <trkpt lat="46.16614" lon="-1.35649">
        <ele>7.83</ele>
        <time>2016-08-29T16:44:03Z</time>
      </trkpt>
      <trkpt lat="46.16613" lon="-1.35652">
        <ele>8.31</ele>
        <time>2016-08-29T16:44:04Z</time>
      </trkpt>
      <trkpt lat="46.16611" lon="-1.35655">
        <ele>7.83</ele>
        <time>2016-08-29T16:44:05Z</time>
      </trkpt>
      <trkpt lat="46.1661" lon="-1.35658">
        <ele>7.83</ele>
        <time>2016-08-29T16:44:06Z</time>
      </trkpt>
      <trkpt lat="46.16609" lon="-1.35662">
        <ele>7.83</ele>
        <time>2016-08-29T16:44:07Z</time>
      </trkpt>
      <trkpt lat="46.16608" lon="-1.35666">
        <ele>8.31</ele>
        <time>2016-08-29T16:44:08Z</time>
      </trkpt>
      <trkpt lat="46.16592" lon="-1.35692">
        <ele>7.83</ele>
        <time>2016-08-29T16:44:15Z</time>
      </trkpt>
      <trkpt lat="46.16562" lon="-1.35718">
        <ele>7.83</ele>
        <time>2016-08-29T16:44:25Z</time>
      </trkpt>
      <trkpt lat="46.16549" lon="-1.3573">
        <ele>7.83</ele>
        <time>2016-08-29T16:44:29Z</time>
      </trkpt>
      <trkpt lat="46.16546" lon="-1.35733">
        <ele>7.83</ele>
        <time>2016-08-29T16:44:30Z</time>
      </trkpt>
      <trkpt lat="46.16543" lon="-1.35734">
        <ele>7.83</ele>
        <time>2016-08-29T16:44:31Z</time>
      </trkpt>
      <trkpt lat="46.1654" lon="-1.35736">
        <ele>7.83</ele>
        <time>2016-08-29T16:44:32Z</time>
      </trkpt>
      <trkpt lat="46.16537" lon="-1.3574">
        <ele>7.83</ele>
        <time>2016-08-29T16:44:33Z</time>
      </trkpt>
      <trkpt lat="46.16535" lon="-1.35743">
        <ele>7.83</ele>
        <time>2016-08-29T16:44:34Z</time>
      </trkpt>
      <trkpt lat="46.16533" lon="-1.35746">
        <ele>7.83</ele>
        <time>2016-08-29T16:44:35Z</time>
      </trkpt>
      <trkpt lat="46.1652" lon="-1.35765">
        <ele>8.79</ele>
        <time>2016-08-29T16:44:43Z</time>
      </trkpt>
      <trkpt lat="46.16518" lon="-1.35768">
        <ele>13.6</ele>
        <time>2016-08-29T16:44:48Z</time>
      </trkpt>
      <trkpt lat="46.16518" lon="-1.35769">
        <ele>9.75</ele>
        <time>2016-08-29T16:44:49Z</time>
      </trkpt>
      <trkpt lat="46.16512" lon="-1.35778">
        <ele>9.75</ele>
        <time>2016-08-29T16:44:58Z</time>
      </trkpt>
      <trkpt lat="46.16501" lon="-1.35796">
        <ele>10.23</ele>
        <time>2016-08-29T16:45:07Z</time>
      </trkpt>
      <trkpt lat="46.16489" lon="-1.35811">
        <ele>10.71</ele>
        <time>2016-08-29T16:45:15Z</time>
      </trkpt>
      <trkpt lat="46.16487" lon="-1.35813">
        <ele>10.71</ele>
        <time>2016-08-29T16:45:16Z</time>
      </trkpt>
      <trkpt lat="46.16486" lon="-1.35814">
        <ele>10.71</ele>
        <time>2016-08-29T16:45:17Z</time>
      </trkpt>
      <trkpt lat="46.16484" lon="-1.35816">
        <ele>10.71</ele>
        <time>2016-08-29T16:45:18Z</time>
      </trkpt>
      <trkpt lat="46.16482" lon="-1.35818">
        <ele>10.71</ele>
        <time>2016-08-29T16:45:19Z</time>
      </trkpt>
      <trkpt lat="46.16479" lon="-1.3582">
        <ele>10.71</ele>
        <time>2016-08-29T16:45:20Z</time>
      </trkpt>
      <trkpt lat="46.16477" lon="-1.35822">
        <ele>10.71</ele>
        <time>2016-08-29T16:45:21Z</time>
      </trkpt>
      <trkpt lat="46.16475" lon="-1.35824">
        <ele>11.19</ele>
        <time>2016-08-29T16:45:22Z</time>
      </trkpt>
      <trkpt lat="46.16473" lon="-1.35826">
        <ele>10.23</ele>
        <time>2016-08-29T16:45:23Z</time>
      </trkpt>
      <trkpt lat="46.16471" lon="-1.35828">
        <ele>10.71</ele>
        <time>2016-08-29T16:45:24Z</time>
      </trkpt>
      <trkpt lat="46.16468" lon="-1.3583">
        <ele>10.23</ele>
        <time>2016-08-29T16:45:25Z</time>
      </trkpt>
      <trkpt lat="46.16466" lon="-1.35831">
        <ele>10.23</ele>
        <time>2016-08-29T16:45:26Z</time>
      </trkpt>
      <trkpt lat="46.16464" lon="-1.35833">
        <ele>10.23</ele>
        <time>2016-08-29T16:45:27Z</time>
      </trkpt>
      <trkpt lat="46.16462" lon="-1.35834">
        <ele>11.19</ele>
        <time>2016-08-29T16:45:28Z</time>
      </trkpt>
      <trkpt lat="46.1646" lon="-1.35836">
        <ele>10.71</ele>
        <time>2016-08-29T16:45:29Z</time>
      </trkpt>
      <trkpt lat="46.16458" lon="-1.35837">
        <ele>10.71</ele>
        <time>2016-08-29T16:45:30Z</time>
      </trkpt>
      <trkpt lat="46.16456" lon="-1.35838">
        <ele>10.71</ele>
        <time>2016-08-29T16:45:31Z</time>
      </trkpt>
      <trkpt lat="46.16454" lon="-1.35839">
        <ele>10.71</ele>
        <time>2016-08-29T16:45:32Z</time>
      </trkpt>
      <trkpt lat="46.16453" lon="-1.3584">
        <ele>10.71</ele>
        <time>2016-08-29T16:45:33Z</time>
      </trkpt>
      <trkpt lat="46.1645" lon="-1.35841">
        <ele>10.71</ele>
        <time>2016-08-29T16:45:34Z</time>
      </trkpt>
      <trkpt lat="46.16449" lon="-1.35842">
        <ele>10.71</ele>
        <time>2016-08-29T16:45:35Z</time>
      </trkpt>
      <trkpt lat="46.16433" lon="-1.35853">
        <ele>10.23</ele>
        <time>2016-08-29T16:45:42Z</time>
      </trkpt>
      <trkpt lat="46.16432" lon="-1.35855">
        <ele>10.71</ele>
        <time>2016-08-29T16:45:43Z</time>
      </trkpt>
      <trkpt lat="46.16432" lon="-1.35857">
        <ele>10.71</ele>
        <time>2016-08-29T16:45:44Z</time>
      </trkpt>
      <trkpt lat="46.16431" lon="-1.35858">
        <ele>10.71</ele>
        <time>2016-08-29T16:45:45Z</time>
      </trkpt>
      <trkpt lat="46.16431" lon="-1.35862">
        <ele>10.23</ele>
        <time>2016-08-29T16:45:46Z</time>
      </trkpt>
      <trkpt lat="46.1643" lon="-1.35866">
        <ele>10.23</ele>
        <time>2016-08-29T16:45:47Z</time>
      </trkpt>
      <trkpt lat="46.16428" lon="-1.3587">
        <ele>10.23</ele>
        <time>2016-08-29T16:45:48Z</time>
      </trkpt>
      <trkpt lat="46.16427" lon="-1.35875">
        <ele>9.75</ele>
        <time>2016-08-29T16:45:49Z</time>
      </trkpt>
      <trkpt lat="46.16425" lon="-1.35879">
        <ele>9.27</ele>
        <time>2016-08-29T16:45:50Z</time>
      </trkpt>
      <trkpt lat="46.16422" lon="-1.35891">
        <ele>8.31</ele>
        <time>2016-08-29T16:45:52Z</time>
      </trkpt>
      <trkpt lat="46.16419" lon="-1.35904">
        <ele>7.83</ele>
        <time>2016-08-29T16:45:54Z</time>
      </trkpt>
      <trkpt lat="46.16414" lon="-1.35916">
        <ele>7.83</ele>
        <time>2016-08-29T16:45:56Z</time>
      </trkpt>
      <trkpt lat="46.16412" lon="-1.3592">
        <ele>7.83</ele>
        <time>2016-08-29T16:45:57Z</time>
      </trkpt>
      <trkpt lat="46.16409" lon="-1.35923">
        <ele>7.83</ele>
        <time>2016-08-29T16:45:58Z</time>
      </trkpt>
      <trkpt lat="46.16406" lon="-1.35926">
        <ele>7.83</ele>
        <time>2016-08-29T16:45:59Z</time>
      </trkpt>
      <trkpt lat="46.16403" lon="-1.3593">
        <ele>7.83</ele>
        <time>2016-08-29T16:46:00Z</time>
      </trkpt>
      <trkpt lat="46.164" lon="-1.35933">
        <ele>7.83</ele>
        <time>2016-08-29T16:46:01Z</time>
      </trkpt>
      <trkpt lat="46.16387" lon="-1.35958">
        <ele>8.79</ele>
        <time>2016-08-29T16:46:07Z</time>
      </trkpt>
      <trkpt lat="46.16365" lon="-1.35996">
        <ele>8.31</ele>
        <time>2016-08-29T16:46:16Z</time>
      </trkpt>
      <trkpt lat="46.16342" lon="-1.36016">
        <ele>8.79</ele>
        <time>2016-08-29T16:46:23Z</time>
      </trkpt>
      <trkpt lat="46.16319" lon="-1.36043">
        <ele>9.27</ele>
        <time>2016-08-29T16:46:31Z</time>
      </trkpt>
      <trkpt lat="46.1631" lon="-1.36072">
        <ele>9.27</ele>
        <time>2016-08-29T16:46:38Z</time>
      </trkpt>
      <trkpt lat="46.16302" lon="-1.36083">
        <ele>8.79</ele>
        <time>2016-08-29T16:46:42Z</time>
      </trkpt>
      <trkpt lat="46.163" lon="-1.36087">
        <ele>8.79</ele>
        <time>2016-08-29T16:46:43Z</time>
      </trkpt>
      <trkpt lat="46.16299" lon="-1.36091">
        <ele>8.79</ele>
        <time>2016-08-29T16:46:44Z</time>
      </trkpt>
      <trkpt lat="46.16298" lon="-1.36095">
        <ele>9.27</ele>
        <time>2016-08-29T16:46:45Z</time>
      </trkpt>
      <trkpt lat="46.16297" lon="-1.36099">
        <ele>9.27</ele>
        <time>2016-08-29T16:46:46Z</time>
      </trkpt>
      <trkpt lat="46.16295" lon="-1.36103">
        <ele>8.79</ele>
        <time>2016-08-29T16:46:47Z</time>
      </trkpt>
      <trkpt lat="46.16283" lon="-1.36132">
        <ele>8.31</ele>
        <time>2016-08-29T16:46:56Z</time>
      </trkpt>
      <trkpt lat="46.16282" lon="-1.36135">
        <ele>8.79</ele>
        <time>2016-08-29T16:46:57Z</time>
      </trkpt>
      <trkpt lat="46.16282" lon="-1.36138">
        <ele>-1.79</ele>
        <time>2016-08-29T16:46:58Z</time>
      </trkpt>
      <trkpt lat="46.16281" lon="-1.36141">
        <ele>9.75</ele>
        <time>2016-08-29T16:46:59Z</time>
      </trkpt>
      <trkpt lat="46.1627" lon="-1.3618">
        <ele>9.27</ele>
        <time>2016-08-29T16:47:10Z</time>
      </trkpt>
      <trkpt lat="46.16263" lon="-1.36203">
        <ele>8.79</ele>
        <time>2016-08-29T16:47:17Z</time>
      </trkpt>
      <trkpt lat="46.16262" lon="-1.36206">
        <ele>9.27</ele>
        <time>2016-08-29T16:47:18Z</time>
      </trkpt>
      <trkpt lat="46.16262" lon="-1.36209">
        <ele>8.79</ele>
        <time>2016-08-29T16:47:19Z</time>
      </trkpt>
      <trkpt lat="46.16261" lon="-1.36213">
        <ele>8.79</ele>
        <time>2016-08-29T16:47:20Z</time>
      </trkpt>
      <trkpt lat="46.16261" lon="-1.36217">
        <ele>9.27</ele>
        <time>2016-08-29T16:47:21Z</time>
      </trkpt>
      <trkpt lat="46.16261" lon="-1.3622">
        <ele>9.27</ele>
        <time>2016-08-29T16:47:22Z</time>
      </trkpt>
      <trkpt lat="46.16261" lon="-1.36224">
        <ele>9.27</ele>
        <time>2016-08-29T16:47:23Z</time>
      </trkpt>
      <trkpt lat="46.16258" lon="-1.36236">
        <ele>9.75</ele>
        <time>2016-08-29T16:47:27Z</time>
      </trkpt>
      <trkpt lat="46.16257" lon="-1.36237">
        <ele>9.27</ele>
        <time>2016-08-29T16:47:28Z</time>
      </trkpt>
      <trkpt lat="46.16255" lon="-1.36237">
        <ele>9.27</ele>
        <time>2016-08-29T16:47:29Z</time>
      </trkpt>
      <trkpt lat="46.16254" lon="-1.36238">
        <ele>9.27</ele>
        <time>2016-08-29T16:47:30Z</time>
      </trkpt>
      <trkpt lat="46.16252" lon="-1.3624">
        <ele>8.79</ele>
        <time>2016-08-29T16:47:42Z</time>
      </trkpt>
      <trkpt lat="46.16251" lon="-1.36241">
        <ele>9.27</ele>
        <time>2016-08-29T16:47:52Z</time>
      </trkpt>
      <trkpt lat="46.1625" lon="-1.36241">
        <ele>9.75</ele>
        <time>2016-08-29T16:47:53Z</time>
      </trkpt>
      <trkpt lat="46.16244" lon="-1.36241">
        <ele>9.27</ele>
        <time>2016-08-29T16:48:06Z</time>
      </trkpt>
      <trkpt lat="46.16244" lon="-1.36241">
        <ele>9.27</ele>
        <time>2016-08-29T16:48:22Z</time>
      </trkpt>
      <trkpt lat="46.16244" lon="-1.3624">
        <ele>9.27</ele>
        <time>2016-08-29T16:48:35Z</time>
      </trkpt>
      <trkpt lat="46.16244" lon="-1.3624">
        <ele>9.27</ele>
        <time>2016-08-29T16:48:38Z</time>
      </trkpt>
      <trkpt lat="46.16254" lon="-1.3624">
        <ele>9.27</ele>
        <time>2016-08-29T16:48:43Z</time>
      </trkpt>
      <trkpt lat="46.16256" lon="-1.36257">
        <ele>8.79</ele>
        <time>2016-08-29T16:48:49Z</time>
      </trkpt>
      <trkpt lat="46.16246" lon="-1.36285">
        <ele>8.31</ele>
        <time>2016-08-29T16:48:59Z</time>
      </trkpt>
      <trkpt lat="46.16236" lon="-1.36321">
        <ele>6.87</ele>
        <time>2016-08-29T16:49:12Z</time>
      </trkpt>
      <trkpt lat="46.16234" lon="-1.36329">
        <ele>6.39</ele>
        <time>2016-08-29T16:49:19Z</time>
      </trkpt>
      <trkpt lat="46.16234" lon="-1.36329">
        <ele>6.39</ele>
        <time>2016-08-29T16:49:40Z</time>
      </trkpt>
      <trkpt lat="46.16234" lon="-1.3633">
        <ele>6.39</ele>
        <time>2016-08-29T16:49:51Z</time>
      </trkpt>
      <trkpt lat="46.16234" lon="-1.3633">
        <ele>9.75</ele>
        <time>2016-08-29T16:50:08Z</time>
      </trkpt>
      <trkpt lat="46.16234" lon="-1.3633">
        <ele>5.91</ele>
        <time>2016-08-29T16:50:09Z</time>
      </trkpt>
      <trkpt lat="46.16233" lon="-1.36332">
        <ele>5.91</ele>
        <time>2016-08-29T16:50:22Z</time>
      </trkpt>
      <trkpt lat="46.1622" lon="-1.3636">
        <ele>4.46</ele>
        <time>2016-08-29T16:50:30Z</time>
      </trkpt>
      <trkpt lat="46.16218" lon="-1.36364">
        <ele>3.98</ele>
        <time>2016-08-29T16:50:37Z</time>
      </trkpt>
      <trkpt lat="46.16218" lon="-1.36364">
        <ele>3.5</ele>
        <time>2016-08-29T16:50:45Z</time>
      </trkpt>
      <trkpt lat="46.16231" lon="-1.36389">
        <ele>2.06</ele>
        <time>2016-08-29T16:50:56Z</time>
      </trkpt>
      <trkpt lat="46.16247" lon="-1.36419">
        <ele>2.06</ele>
        <time>2016-08-29T16:51:08Z</time>
      </trkpt>
      <trkpt lat="46.16248" lon="-1.3642">
        <ele>1.58</ele>
        <time>2016-08-29T16:51:09Z</time>
      </trkpt>
      <trkpt lat="46.16249" lon="-1.36411">
        <ele>3.02</ele>
        <time>2016-08-29T16:51:16Z</time>
      </trkpt>
      <trkpt lat="46.16229" lon="-1.36384">
        <ele>3.02</ele>
        <time>2016-08-29T16:51:28Z</time>
      </trkpt>
      <trkpt lat="46.16222" lon="-1.36365">
        <ele>3.5</ele>
        <time>2016-08-29T16:51:36Z</time>
      </trkpt>
      <trkpt lat="46.16224" lon="-1.36352">
        <ele>3.98</ele>
        <time>2016-08-29T16:51:40Z</time>
      </trkpt>
      <trkpt lat="46.1624" lon="-1.36312">
        <ele>7.35</ele>
        <time>2016-08-29T16:51:51Z</time>
      </trkpt>
      <trkpt lat="46.16253" lon="-1.36271">
        <ele>8.79</ele>
        <time>2016-08-29T16:52:02Z</time>
      </trkpt>
      <trkpt lat="46.16262" lon="-1.36246">
        <ele>8.79</ele>
        <time>2016-08-29T16:52:10Z</time>
      </trkpt>
      <trkpt lat="46.16272" lon="-1.3626">
        <ele>8.31</ele>
        <time>2016-08-29T16:52:18Z</time>
      </trkpt>
      <trkpt lat="46.16273" lon="-1.36266">
        <ele>8.31</ele>
        <time>2016-08-29T16:52:20Z</time>
      </trkpt>
      <trkpt lat="46.16288" lon="-1.36298">
        <ele>7.83</ele>
        <time>2016-08-29T16:52:32Z</time>
      </trkpt>
      <trkpt lat="46.16288" lon="-1.36301">
        <ele>2.06</ele>
        <time>2016-08-29T16:52:40Z</time>
      </trkpt>
      <trkpt lat="46.16288" lon="-1.36301">
        <ele>8.31</ele>
        <time>2016-08-29T16:52:41Z</time>
      </trkpt>
      <trkpt lat="46.16288" lon="-1.36301">
        <ele>0.14</ele>
        <time>2016-08-29T16:52:42Z</time>
      </trkpt>
      <trkpt lat="46.16288" lon="-1.36301">
        <ele>10.23</ele>
        <time>2016-08-29T16:52:43Z</time>
      </trkpt>
      <trkpt lat="46.16288" lon="-1.363">
        <ele>5.42</ele>
        <time>2016-08-29T16:52:46Z</time>
      </trkpt>
      <trkpt lat="46.16288" lon="-1.363">
        <ele>10.23</ele>
        <time>2016-08-29T16:52:51Z</time>
      </trkpt>
      <trkpt lat="46.16288" lon="-1.363">
        <ele>30.42</ele>
        <time>2016-08-29T16:52:52Z</time>
      </trkpt>
      <trkpt lat="46.16288" lon="-1.363">
        <ele>8.79</ele>
        <time>2016-08-29T16:52:53Z</time>
      </trkpt>
      <trkpt lat="46.16288" lon="-1.363">
        <ele>26.57</ele>
        <time>2016-08-29T16:52:54Z</time>
      </trkpt>
      <trkpt lat="46.16288" lon="-1.363">
        <ele>8.31</ele>
        <time>2016-08-29T16:52:55Z</time>
      </trkpt>
      <trkpt lat="46.16288" lon="-1.363">
        <ele>1.58</ele>
        <time>2016-08-29T16:52:57Z</time>
      </trkpt>
      <trkpt lat="46.16288" lon="-1.363">
        <ele>8.31</ele>
        <time>2016-08-29T16:52:58Z</time>
      </trkpt>
      <trkpt lat="46.16288" lon="-1.363">
        <ele>13.6</ele>
        <time>2016-08-29T16:52:59Z</time>
      </trkpt>
      <trkpt lat="46.16288" lon="-1.363">
        <ele>2.06</ele>
        <time>2016-08-29T16:53:00Z</time>
      </trkpt>
      <trkpt lat="46.16288" lon="-1.363">
        <ele>12.63</ele>
        <time>2016-08-29T16:53:01Z</time>
      </trkpt>
      <trkpt lat="46.16288" lon="-1.363">
        <ele>1.58</ele>
        <time>2016-08-29T16:53:02Z</time>
      </trkpt>
      <trkpt lat="46.16288" lon="-1.363">
        <ele>9.75</ele>
        <time>2016-08-29T16:53:03Z</time>
      </trkpt>
      <trkpt lat="46.16288" lon="-1.363">
        <ele>5.42</ele>
        <time>2016-08-29T16:53:06Z</time>
      </trkpt>
      <trkpt lat="46.16288" lon="-1.363">
        <ele>16</ele>
        <time>2016-08-29T16:53:07Z</time>
      </trkpt>
      <trkpt lat="46.16288" lon="-1.363">
        <ele>7.35</ele>
        <time>2016-08-29T16:53:08Z</time>
      </trkpt>
      <trkpt lat="46.16289" lon="-1.363">
        <ele>18.88</ele>
        <time>2016-08-29T16:53:20Z</time>
      </trkpt>
      <trkpt lat="46.16289" lon="-1.363">
        <ele>8.79</ele>
        <time>2016-08-29T16:53:21Z</time>
      </trkpt>
      <trkpt lat="46.16289" lon="-1.363">
        <ele>20.32</ele>
        <time>2016-08-29T16:53:22Z</time>
      </trkpt>
      <trkpt lat="46.16289" lon="-1.363">
        <ele>8.31</ele>
        <time>2016-08-29T16:53:23Z</time>
      </trkpt>
      <trkpt lat="46.16288" lon="-1.363">
        <ele>-11.4</ele>
        <time>2016-08-29T16:53:24Z</time>
      </trkpt>
      <trkpt lat="46.16289" lon="-1.363">
        <ele>10.71</ele>
        <time>2016-08-29T16:53:25Z</time>
      </trkpt>
      <trkpt lat="46.16289" lon="-1.363">
        <ele>26.57</ele>
        <time>2016-08-29T16:53:31Z</time>
      </trkpt>
      <trkpt lat="46.16289" lon="-1.363">
        <ele>8.79</ele>
        <time>2016-08-29T16:53:32Z</time>
      </trkpt>
      <trkpt lat="46.16289" lon="-1.363">
        <ele>17.44</ele>
        <time>2016-08-29T16:53:34Z</time>
      </trkpt>
      <trkpt lat="46.16289" lon="-1.363">
        <ele>9.27</ele>
        <time>2016-08-29T16:53:35Z</time>
      </trkpt>
      <trkpt lat="46.16289" lon="-1.363">
        <ele>7.83</ele>
        <time>2016-08-29T16:53:48Z</time>
      </trkpt>
      <trkpt lat="46.16292" lon="-1.36299">
        <ele>8.31</ele>
        <time>2016-08-29T16:54:03Z</time>
      </trkpt>
      <trkpt lat="46.16292" lon="-1.363">
        <ele>8.31</ele>
        <time>2016-08-29T16:54:05Z</time>
      </trkpt>
      <trkpt lat="46.16292" lon="-1.36305">
        <ele>7.83</ele>
        <time>2016-08-29T16:54:09Z</time>
      </trkpt>
      <trkpt lat="46.16297" lon="-1.36313">
        <ele>7.83</ele>
        <time>2016-08-29T16:54:15Z</time>
      </trkpt>
      <trkpt lat="46.16307" lon="-1.36337">
        <ele>7.83</ele>
        <time>2016-08-29T16:54:28Z</time>
      </trkpt>
      <trkpt lat="46.16318" lon="-1.36357">
        <ele>7.83</ele>
        <time>2016-08-29T16:54:41Z</time>
      </trkpt>
      <trkpt lat="46.16328" lon="-1.36375">
        <ele>7.83</ele>
        <time>2016-08-29T16:54:52Z</time>
      </trkpt>
      <trkpt lat="46.16338" lon="-1.36391">
        <ele>8.31</ele>
        <time>2016-08-29T16:55:03Z</time>
      </trkpt>
      <trkpt lat="46.16345" lon="-1.36399">
        <ele>8.31</ele>
        <time>2016-08-29T16:55:10Z</time>
      </trkpt>
      <trkpt lat="46.16362" lon="-1.36414">
        <ele>8.79</ele>
        <time>2016-08-29T16:55:24Z</time>
      </trkpt>
      <trkpt lat="46.16368" lon="-1.36418">
        <ele>12.63</ele>
        <time>2016-08-29T16:55:29Z</time>
      </trkpt>
      <trkpt lat="46.16369" lon="-1.36419">
        <ele>8.31</ele>
        <time>2016-08-29T16:55:30Z</time>
      </trkpt>
      <trkpt lat="46.16384" lon="-1.36428">
        <ele>8.31</ele>
        <time>2016-08-29T16:55:42Z</time>
      </trkpt>
      <trkpt lat="46.16395" lon="-1.36434">
        <ele>8.31</ele>
        <time>2016-08-29T16:55:54Z</time>
      </trkpt>
      <trkpt lat="46.16403" lon="-1.36435">
        <ele>7.83</ele>
        <time>2016-08-29T16:56:08Z</time>
      </trkpt>
      <trkpt lat="46.16419" lon="-1.36445">
        <ele>8.31</ele>
        <time>2016-08-29T16:56:22Z</time>
      </trkpt>
      <trkpt lat="46.1643" lon="-1.36456">
        <ele>5.42</ele>
        <time>2016-08-29T16:56:34Z</time>
      </trkpt>
      <trkpt lat="46.1643" lon="-1.36456">
        <ele>9.27</ele>
        <time>2016-08-29T16:56:35Z</time>
      </trkpt>
      <trkpt lat="46.16432" lon="-1.36458">
        <ele>7.83</ele>
        <time>2016-08-29T16:56:48Z</time>
      </trkpt>
      <trkpt lat="46.16434" lon="-1.36457">
        <ele>8.31</ele>
        <time>2016-08-29T16:56:57Z</time>
      </trkpt>
      <trkpt lat="46.16448" lon="-1.36462">
        <ele>8.31</ele>
        <time>2016-08-29T16:57:08Z</time>
      </trkpt>
      <trkpt lat="46.16449" lon="-1.36462">
        <ele>8.31</ele>
        <time>2016-08-29T16:57:09Z</time>
      </trkpt>
      <trkpt lat="46.16465" lon="-1.36471">
        <ele>8.79</ele>
        <time>2016-08-29T16:57:21Z</time>
      </trkpt>
      <trkpt lat="46.16484" lon="-1.36474">
        <ele>8.79</ele>
        <time>2016-08-29T16:57:34Z</time>
      </trkpt>
      <trkpt lat="46.16489" lon="-1.36474">
        <ele>8.31</ele>
        <time>2016-08-29T16:57:44Z</time>
      </trkpt>
      <trkpt lat="46.1649" lon="-1.36474">
        <ele>8.31</ele>
        <time>2016-08-29T16:57:47Z</time>
      </trkpt>
      <trkpt lat="46.16511" lon="-1.36486">
        <ele>7.83</ele>
        <time>2016-08-29T16:58:01Z</time>
      </trkpt>
      <trkpt lat="46.16525" lon="-1.36499">
        <ele>7.35</ele>
        <time>2016-08-29T16:58:12Z</time>
      </trkpt>
      <trkpt lat="46.16539" lon="-1.36506">
        <ele>7.35</ele>
        <time>2016-08-29T16:58:22Z</time>
      </trkpt>
      <trkpt lat="46.16556" lon="-1.36511">
        <ele>7.35</ele>
        <time>2016-08-29T16:58:33Z</time>
      </trkpt>
      <trkpt lat="46.16566" lon="-1.3651">
        <ele>7.35</ele>
        <time>2016-08-29T16:58:44Z</time>
      </trkpt>
      <trkpt lat="46.16573" lon="-1.36505">
        <ele>16.48</ele>
        <time>2016-08-29T16:58:49Z</time>
      </trkpt>
      <trkpt lat="46.16577" lon="-1.36502">
        <ele>7.35</ele>
        <time>2016-08-29T16:58:52Z</time>
      </trkpt>
      <trkpt lat="46.16588" lon="-1.36486">
        <ele>7.35</ele>
        <time>2016-08-29T16:59:02Z</time>
      </trkpt>
      <trkpt lat="46.16591" lon="-1.36484">
        <ele>7.35</ele>
        <time>2016-08-29T16:59:04Z</time>
      </trkpt>
      <trkpt lat="46.1661" lon="-1.36471">
        <ele>7.83</ele>
        <time>2016-08-29T16:59:19Z</time>
      </trkpt>
      <trkpt lat="46.16634" lon="-1.36465">
        <ele>7.35</ele>
        <time>2016-08-29T16:59:34Z</time>
      </trkpt>
      <trkpt lat="46.16651" lon="-1.36458">
        <ele>7.83</ele>
        <time>2016-08-29T16:59:46Z</time>
      </trkpt>
      <trkpt lat="46.16669" lon="-1.36449">
        <ele>8.31</ele>
        <time>2016-08-29T16:59:58Z</time>
      </trkpt>
      <trkpt lat="46.16677" lon="-1.36447">
        <ele>8.31</ele>
        <time>2016-08-29T17:00:09Z</time>
      </trkpt>
      <trkpt lat="46.16677" lon="-1.36447">
        <ele>8.79</ele>
        <time>2016-08-29T17:00:13Z</time>
      </trkpt>
      <trkpt lat="46.1668" lon="-1.3644">
        <ele>8.31</ele>
        <time>2016-08-29T17:00:17Z</time>
      </trkpt>
      <trkpt lat="46.16685" lon="-1.36435">
        <ele>8.79</ele>
        <time>2016-08-29T17:00:22Z</time>
      </trkpt>
      <trkpt lat="46.16691" lon="-1.36436">
        <ele>8.79</ele>
        <time>2016-08-29T17:00:27Z</time>
      </trkpt>
      <trkpt lat="46.16707" lon="-1.36433">
        <ele>9.75</ele>
        <time>2016-08-29T17:00:39Z</time>
      </trkpt>
      <trkpt lat="46.16711" lon="-1.36426">
        <ele>9.75</ele>
        <time>2016-08-29T17:00:44Z</time>
      </trkpt>
      <trkpt lat="46.16714" lon="-1.3642">
        <ele>9.75</ele>
        <time>2016-08-29T17:00:52Z</time>
      </trkpt>
      <trkpt lat="46.16728" lon="-1.36415">
        <ele>9.75</ele>
        <time>2016-08-29T17:01:03Z</time>
      </trkpt>
      <trkpt lat="46.16741" lon="-1.36404">
        <ele>9.75</ele>
        <time>2016-08-29T17:01:14Z</time>
      </trkpt>
      <trkpt lat="46.16753" lon="-1.36389">
        <ele>9.27</ele>
        <time>2016-08-29T17:01:25Z</time>
      </trkpt>
      <trkpt lat="46.16765" lon="-1.36374">
        <ele>9.75</ele>
        <time>2016-08-29T17:01:36Z</time>
      </trkpt>
      <trkpt lat="46.16779" lon="-1.36362">
        <ele>9.75</ele>
        <time>2016-08-29T17:01:48Z</time>
      </trkpt>
      <trkpt lat="46.16796" lon="-1.36345">
        <ele>9.75</ele>
        <time>2016-08-29T17:02:02Z</time>
      </trkpt>
      <trkpt lat="46.16801" lon="-1.3634">
        <ele>9.75</ele>
        <time>2016-08-29T17:02:06Z</time>
      </trkpt>
      <trkpt lat="46.16814" lon="-1.36329">
        <ele>8.31</ele>
        <time>2016-08-29T17:02:14Z</time>
      </trkpt>
      <trkpt lat="46.16821" lon="-1.36326">
        <ele>8.31</ele>
        <time>2016-08-29T17:02:16Z</time>
      </trkpt>
      <trkpt lat="46.16825" lon="-1.36324">
        <ele>8.31</ele>
        <time>2016-08-29T17:02:17Z</time>
      </trkpt>
      <trkpt lat="46.1686" lon="-1.3632">
        <ele>8.79</ele>
        <time>2016-08-29T17:02:27Z</time>
      </trkpt>
      <trkpt lat="46.16872" lon="-1.36321">
        <ele>12.63</ele>
        <time>2016-08-29T17:02:33Z</time>
      </trkpt>
      <trkpt lat="46.16872" lon="-1.36322">
        <ele>9.27</ele>
        <time>2016-08-29T17:02:34Z</time>
      </trkpt>
      <trkpt lat="46.16872" lon="-1.36321">
        <ele>17.44</ele>
        <time>2016-08-29T17:02:38Z</time>
      </trkpt>
      <trkpt lat="46.16872" lon="-1.36322">
        <ele>9.75</ele>
        <time>2016-08-29T17:02:39Z</time>
      </trkpt>
      <trkpt lat="46.16873" lon="-1.3632">
        <ele>9.27</ele>
        <time>2016-08-29T17:02:40Z</time>
      </trkpt>
      <trkpt lat="46.16873" lon="-1.36318">
        <ele>9.75</ele>
        <time>2016-08-29T17:02:41Z</time>
      </trkpt>
      <trkpt lat="46.16873" lon="-1.36315">
        <ele>8.79</ele>
        <time>2016-08-29T17:02:42Z</time>
      </trkpt>
      <trkpt lat="46.16873" lon="-1.36311">
        <ele>9.75</ele>
        <time>2016-08-29T17:02:43Z</time>
      </trkpt>
      <trkpt lat="46.16873" lon="-1.36307">
        <ele>9.27</ele>
        <time>2016-08-29T17:02:44Z</time>
      </trkpt>
      <trkpt lat="46.16874" lon="-1.36303">
        <ele>9.27</ele>
        <time>2016-08-29T17:02:45Z</time>
      </trkpt>
      <trkpt lat="46.16875" lon="-1.36299">
        <ele>6.39</ele>
        <time>2016-08-29T17:02:46Z</time>
      </trkpt>
      <trkpt lat="46.16875" lon="-1.36294">
        <ele>11.67</ele>
        <time>2016-08-29T17:02:47Z</time>
      </trkpt>
      <trkpt lat="46.16875" lon="-1.36289">
        <ele>9.27</ele>
        <time>2016-08-29T17:02:48Z</time>
      </trkpt>
      <trkpt lat="46.16875" lon="-1.36284">
        <ele>9.27</ele>
        <time>2016-08-29T17:02:49Z</time>
      </trkpt>
      <trkpt lat="46.16869" lon="-1.36232">
        <ele>9.75</ele>
        <time>2016-08-29T17:02:59Z</time>
      </trkpt>
      <trkpt lat="46.16871" lon="-1.36193">
        <ele>9.27</ele>
        <time>2016-08-29T17:03:08Z</time>
      </trkpt>
      <trkpt lat="46.16877" lon="-1.36187">
        <ele>9.75</ele>
        <time>2016-08-29T17:03:10Z</time>
      </trkpt>
      <trkpt lat="46.1688" lon="-1.36186">
        <ele>9.27</ele>
        <time>2016-08-29T17:03:11Z</time>
      </trkpt>
      <trkpt lat="46.16884" lon="-1.36185">
        <ele>9.27</ele>
        <time>2016-08-29T17:03:12Z</time>
      </trkpt>
      <trkpt lat="46.16888" lon="-1.36186">
        <ele>9.27</ele>
        <time>2016-08-29T17:03:13Z</time>
      </trkpt>
      <trkpt lat="46.16891" lon="-1.36188">
        <ele>9.27</ele>
        <time>2016-08-29T17:03:14Z</time>
      </trkpt>
      <trkpt lat="46.16895" lon="-1.36191">
        <ele>8.79</ele>
        <time>2016-08-29T17:03:15Z</time>
      </trkpt>
      <trkpt lat="46.16913" lon="-1.36204">
        <ele>9.27</ele>
        <time>2016-08-29T17:03:20Z</time>
      </trkpt>
      <trkpt lat="46.16916" lon="-1.36207">
        <ele>9.27</ele>
        <time>2016-08-29T17:03:21Z</time>
      </trkpt>
      <trkpt lat="46.16956" lon="-1.36231">
        <ele>9.75</ele>
        <time>2016-08-29T17:03:31Z</time>
      </trkpt>
      <trkpt lat="46.17014" lon="-1.36262">
        <ele>9.75</ele>
        <time>2016-08-29T17:03:45Z</time>
      </trkpt>
      <trkpt lat="46.17074" lon="-1.363">
        <ele>9.27</ele>
        <time>2016-08-29T17:03:59Z</time>
      </trkpt>
      <trkpt lat="46.17087" lon="-1.36307">
        <ele>9.27</ele>
        <time>2016-08-29T17:04:02Z</time>
      </trkpt>
      <trkpt lat="46.17099" lon="-1.36318">
        <ele>8.79</ele>
        <time>2016-08-29T17:04:05Z</time>
      </trkpt>
      <trkpt lat="46.17148" lon="-1.36373">
        <ele>7.35</ele>
        <time>2016-08-29T17:04:17Z</time>
      </trkpt>
      <trkpt lat="46.17209" lon="-1.36439">
        <ele>6.87</ele>
        <time>2016-08-29T17:04:31Z</time>
      </trkpt>
      <trkpt lat="46.17228" lon="-1.36455">
        <ele>6.87</ele>
        <time>2016-08-29T17:04:35Z</time>
      </trkpt>
      <trkpt lat="46.17232" lon="-1.36459">
        <ele>10.23</ele>
        <time>2016-08-29T17:04:36Z</time>
      </trkpt>
      <trkpt lat="46.17236" lon="-1.36463">
        <ele>6.87</ele>
        <time>2016-08-29T17:04:37Z</time>
      </trkpt>
      <trkpt lat="46.1728" lon="-1.36511">
        <ele>8.31</ele>
        <time>2016-08-29T17:04:49Z</time>
      </trkpt>
      <trkpt lat="46.17293" lon="-1.36528">
        <ele>8.31</ele>
        <time>2016-08-29T17:04:53Z</time>
      </trkpt>
      <trkpt lat="46.17334" lon="-1.3659">
        <ele>9.27</ele>
        <time>2016-08-29T17:05:07Z</time>
      </trkpt>
      <trkpt lat="46.1734" lon="-1.36599">
        <ele>9.27</ele>
        <time>2016-08-29T17:05:09Z</time>
      </trkpt>
      <trkpt lat="46.1735" lon="-1.36611">
        <ele>9.27</ele>
        <time>2016-08-29T17:05:12Z</time>
      </trkpt>
      <trkpt lat="46.17353" lon="-1.36616">
        <ele>9.27</ele>
        <time>2016-08-29T17:05:13Z</time>
      </trkpt>
      <trkpt lat="46.17355" lon="-1.3662">
        <ele>9.27</ele>
        <time>2016-08-29T17:05:14Z</time>
      </trkpt>
      <trkpt lat="46.17358" lon="-1.36625">
        <ele>9.27</ele>
        <time>2016-08-29T17:05:15Z</time>
      </trkpt>
      <trkpt lat="46.17361" lon="-1.36629">
        <ele>9.75</ele>
        <time>2016-08-29T17:05:16Z</time>
      </trkpt>
      <trkpt lat="46.17375" lon="-1.36652">
        <ele>9.75</ele>
        <time>2016-08-29T17:05:21Z</time>
      </trkpt>
      <trkpt lat="46.17376" lon="-1.36657">
        <ele>9.75</ele>
        <time>2016-08-29T17:05:22Z</time>
      </trkpt>
      <trkpt lat="46.17384" lon="-1.36673">
        <ele>9.75</ele>
        <time>2016-08-29T17:05:25Z</time>
      </trkpt>
      <trkpt lat="46.17386" lon="-1.36678">
        <ele>10.23</ele>
        <time>2016-08-29T17:05:26Z</time>
      </trkpt>
      <trkpt lat="46.17403" lon="-1.36704">
        <ele>10.23</ele>
        <time>2016-08-29T17:05:33Z</time>
      </trkpt>
      <trkpt lat="46.1743" lon="-1.36738">
        <ele>10.71</ele>
        <time>2016-08-29T17:05:42Z</time>
      </trkpt>
      <trkpt lat="46.17451" lon="-1.36758">
        <ele>11.67</ele>
        <time>2016-08-29T17:05:48Z</time>
      </trkpt>
      <trkpt lat="46.17455" lon="-1.36761">
        <ele>11.67</ele>
        <time>2016-08-29T17:05:49Z</time>
      </trkpt>
      <trkpt lat="46.17471" lon="-1.36775">
        <ele>11.19</ele>
        <time>2016-08-29T17:05:53Z</time>
      </trkpt>
      <trkpt lat="46.17475" lon="-1.36778">
        <ele>11.67</ele>
        <time>2016-08-29T17:05:54Z</time>
      </trkpt>
      <trkpt lat="46.17479" lon="-1.36781">
        <ele>11.19</ele>
        <time>2016-08-29T17:05:55Z</time>
      </trkpt>
      <trkpt lat="46.17483" lon="-1.36784">
        <ele>11.67</ele>
        <time>2016-08-29T17:05:56Z</time>
      </trkpt>
      <trkpt lat="46.17487" lon="-1.36788">
        <ele>11.67</ele>
        <time>2016-08-29T17:05:57Z</time>
      </trkpt>
      <trkpt lat="46.17491" lon="-1.36792">
        <ele>11.19</ele>
        <time>2016-08-29T17:05:58Z</time>
      </trkpt>
      <trkpt lat="46.17495" lon="-1.36795">
        <ele>11.19</ele>
        <time>2016-08-29T17:05:59Z</time>
      </trkpt>
      <trkpt lat="46.17499" lon="-1.36799">
        <ele>11.19</ele>
        <time>2016-08-29T17:06:00Z</time>
      </trkpt>
      <trkpt lat="46.17511" lon="-1.36805">
        <ele>11.67</ele>
        <time>2016-08-29T17:06:03Z</time>
      </trkpt>
      <trkpt lat="46.17555" lon="-1.36846">
        <ele>11.19</ele>
        <time>2016-08-29T17:06:14Z</time>
      </trkpt>
      <trkpt lat="46.17589" lon="-1.36883">
        <ele>10.23</ele>
        <time>2016-08-29T17:06:23Z</time>
      </trkpt>
      <trkpt lat="46.17596" lon="-1.36891">
        <ele>10.71</ele>
        <time>2016-08-29T17:06:25Z</time>
      </trkpt>
      <trkpt lat="46.17599" lon="-1.36896">
        <ele>10.71</ele>
        <time>2016-08-29T17:06:26Z</time>
      </trkpt>
      <trkpt lat="46.17602" lon="-1.36902">
        <ele>10.23</ele>
        <time>2016-08-29T17:06:27Z</time>
      </trkpt>
      <trkpt lat="46.17633" lon="-1.36974">
        <ele>9.75</ele>
        <time>2016-08-29T17:06:39Z</time>
      </trkpt>
      <trkpt lat="46.17651" lon="-1.37005">
        <ele>9.75</ele>
        <time>2016-08-29T17:06:45Z</time>
      </trkpt>
      <trkpt lat="46.17655" lon="-1.37009">
        <ele>9.27</ele>
        <time>2016-08-29T17:06:46Z</time>
      </trkpt>
      <trkpt lat="46.1766" lon="-1.37012">
        <ele>9.27</ele>
        <time>2016-08-29T17:06:47Z</time>
      </trkpt>
      <trkpt lat="46.17663" lon="-1.37014">
        <ele>9.27</ele>
        <time>2016-08-29T17:06:48Z</time>
      </trkpt>
      <trkpt lat="46.17667" lon="-1.37016">
        <ele>9.27</ele>
        <time>2016-08-29T17:06:49Z</time>
      </trkpt>
      <trkpt lat="46.1767" lon="-1.37018">
        <ele>9.75</ele>
        <time>2016-08-29T17:06:50Z</time>
      </trkpt>
      <trkpt lat="46.17674" lon="-1.37019">
        <ele>9.27</ele>
        <time>2016-08-29T17:06:51Z</time>
      </trkpt>
      <trkpt lat="46.17677" lon="-1.3702">
        <ele>8.79</ele>
        <time>2016-08-29T17:06:52Z</time>
      </trkpt>
      <trkpt lat="46.17681" lon="-1.37022">
        <ele>9.27</ele>
        <time>2016-08-29T17:06:53Z</time>
      </trkpt>
      <trkpt lat="46.17686" lon="-1.37024">
        <ele>9.27</ele>
        <time>2016-08-29T17:06:54Z</time>
      </trkpt>
      <trkpt lat="46.17691" lon="-1.37026">
        <ele>9.27</ele>
        <time>2016-08-29T17:06:55Z</time>
      </trkpt>
      <trkpt lat="46.17719" lon="-1.37039">
        <ele>8.79</ele>
        <time>2016-08-29T17:07:01Z</time>
      </trkpt>
      <trkpt lat="46.17737" lon="-1.37052">
        <ele>8.31</ele>
        <time>2016-08-29T17:07:05Z</time>
      </trkpt>
      <trkpt lat="46.17742" lon="-1.37055">
        <ele>7.83</ele>
        <time>2016-08-29T17:07:06Z</time>
      </trkpt>
      <trkpt lat="46.17747" lon="-1.37058">
        <ele>7.83</ele>
        <time>2016-08-29T17:07:07Z</time>
      </trkpt>
      <trkpt lat="46.17752" lon="-1.3706">
        <ele>7.83</ele>
        <time>2016-08-29T17:07:08Z</time>
      </trkpt>
      <trkpt lat="46.17757" lon="-1.37063">
        <ele>7.35</ele>
        <time>2016-08-29T17:07:09Z</time>
      </trkpt>
      <trkpt lat="46.17761" lon="-1.37066">
        <ele>7.35</ele>
        <time>2016-08-29T17:07:10Z</time>
      </trkpt>
      <trkpt lat="46.17765" lon="-1.37071">
        <ele>6.87</ele>
        <time>2016-08-29T17:07:11Z</time>
      </trkpt>
      <trkpt lat="46.1777" lon="-1.37076">
        <ele>6.39</ele>
        <time>2016-08-29T17:07:12Z</time>
      </trkpt>
      <trkpt lat="46.17775" lon="-1.37083">
        <ele>6.39</ele>
        <time>2016-08-29T17:07:13Z</time>
      </trkpt>
      <trkpt lat="46.17804" lon="-1.37127">
        <ele>6.39</ele>
        <time>2016-08-29T17:07:20Z</time>
      </trkpt>
      <trkpt lat="46.17808" lon="-1.37133">
        <ele>6.87</ele>
        <time>2016-08-29T17:07:21Z</time>
      </trkpt>
      <trkpt lat="46.17811" lon="-1.37138">
        <ele>6.87</ele>
        <time>2016-08-29T17:07:22Z</time>
      </trkpt>
      <trkpt lat="46.1784" lon="-1.37171">
        <ele>7.83</ele>
        <time>2016-08-29T17:07:31Z</time>
      </trkpt>
      <trkpt lat="46.17843" lon="-1.37174">
        <ele>8.31</ele>
        <time>2016-08-29T17:07:32Z</time>
      </trkpt>
      <trkpt lat="46.17846" lon="-1.37177">
        <ele>8.31</ele>
        <time>2016-08-29T17:07:33Z</time>
      </trkpt>
      <trkpt lat="46.17849" lon="-1.37182">
        <ele>8.31</ele>
        <time>2016-08-29T17:07:34Z</time>
      </trkpt>
      <trkpt lat="46.17851" lon="-1.37187">
        <ele>8.79</ele>
        <time>2016-08-29T17:07:35Z</time>
      </trkpt>
      <trkpt lat="46.17853" lon="-1.37193">
        <ele>8.79</ele>
        <time>2016-08-29T17:07:36Z</time>
      </trkpt>
      <trkpt lat="46.17854" lon="-1.37199">
        <ele>8.79</ele>
        <time>2016-08-29T17:07:37Z</time>
      </trkpt>
      <trkpt lat="46.17854" lon="-1.37206">
        <ele>8.79</ele>
        <time>2016-08-29T17:07:38Z</time>
      </trkpt>
      <trkpt lat="46.17854" lon="-1.37218">
        <ele>8.79</ele>
        <time>2016-08-29T17:07:40Z</time>
      </trkpt>
      <trkpt lat="46.17852" lon="-1.37261">
        <ele>8.79</ele>
        <time>2016-08-29T17:07:47Z</time>
      </trkpt>
      <trkpt lat="46.17853" lon="-1.37267">
        <ele>8.31</ele>
        <time>2016-08-29T17:07:48Z</time>
      </trkpt>
      <trkpt lat="46.17854" lon="-1.37274">
        <ele>8.31</ele>
        <time>2016-08-29T17:07:49Z</time>
      </trkpt>
      <trkpt lat="46.17855" lon="-1.3728">
        <ele>8.31</ele>
        <time>2016-08-29T17:07:50Z</time>
      </trkpt>
      <trkpt lat="46.17856" lon="-1.37286">
        <ele>8.31</ele>
        <time>2016-08-29T17:07:51Z</time>
      </trkpt>
      <trkpt lat="46.17856" lon="-1.37292">
        <ele>8.31</ele>
        <time>2016-08-29T17:07:52Z</time>
      </trkpt>
      <trkpt lat="46.17858" lon="-1.37323">
        <ele>8.31</ele>
        <time>2016-08-29T17:07:57Z</time>
      </trkpt>
      <trkpt lat="46.17858" lon="-1.37329">
        <ele>8.31</ele>
        <time>2016-08-29T17:07:58Z</time>
      </trkpt>
      <trkpt lat="46.1786" lon="-1.37335">
        <ele>8.79</ele>
        <time>2016-08-29T17:07:59Z</time>
      </trkpt>
      <trkpt lat="46.17862" lon="-1.3734">
        <ele>8.31</ele>
        <time>2016-08-29T17:08:00Z</time>
      </trkpt>
      <trkpt lat="46.17864" lon="-1.37345">
        <ele>8.79</ele>
        <time>2016-08-29T17:08:01Z</time>
      </trkpt>
      <trkpt lat="46.17866" lon="-1.37349">
        <ele>8.31</ele>
        <time>2016-08-29T17:08:02Z</time>
      </trkpt>
      <trkpt lat="46.17868" lon="-1.37353">
        <ele>8.31</ele>
        <time>2016-08-29T17:08:03Z</time>
      </trkpt>
      <trkpt lat="46.1787" lon="-1.37358">
        <ele>8.31</ele>
        <time>2016-08-29T17:08:04Z</time>
      </trkpt>
      <trkpt lat="46.17872" lon="-1.37362">
        <ele>8.31</ele>
        <time>2016-08-29T17:08:05Z</time>
      </trkpt>
      <trkpt lat="46.17874" lon="-1.37367">
        <ele>7.83</ele>
        <time>2016-08-29T17:08:06Z</time>
      </trkpt>
      <trkpt lat="46.17877" lon="-1.37371">
        <ele>7.83</ele>
        <time>2016-08-29T17:08:07Z</time>
      </trkpt>
      <trkpt lat="46.17879" lon="-1.37376">
        <ele>7.83</ele>
        <time>2016-08-29T17:08:08Z</time>
      </trkpt>
      <trkpt lat="46.17881" lon="-1.3738">
        <ele>7.83</ele>
        <time>2016-08-29T17:08:09Z</time>
      </trkpt>
      <trkpt lat="46.17884" lon="-1.37383">
        <ele>7.83</ele>
        <time>2016-08-29T17:08:10Z</time>
      </trkpt>
      <trkpt lat="46.17888" lon="-1.37385">
        <ele>7.83</ele>
        <time>2016-08-29T17:08:11Z</time>
      </trkpt>
      <trkpt lat="46.17891" lon="-1.37386">
        <ele>8.31</ele>
        <time>2016-08-29T17:08:12Z</time>
      </trkpt>
      <trkpt lat="46.17894" lon="-1.37386">
        <ele>8.31</ele>
        <time>2016-08-29T17:08:13Z</time>
      </trkpt>
      <trkpt lat="46.17898" lon="-1.37386">
        <ele>8.31</ele>
        <time>2016-08-29T17:08:14Z</time>
      </trkpt>
      <trkpt lat="46.17902" lon="-1.37386">
        <ele>8.31</ele>
        <time>2016-08-29T17:08:15Z</time>
      </trkpt>
      <trkpt lat="46.17906" lon="-1.37385">
        <ele>8.31</ele>
        <time>2016-08-29T17:08:16Z</time>
      </trkpt>
      <trkpt lat="46.1791" lon="-1.37386">
        <ele>8.31</ele>
        <time>2016-08-29T17:08:17Z</time>
      </trkpt>
      <trkpt lat="46.17928" lon="-1.37388">
        <ele>8.31</ele>
        <time>2016-08-29T17:08:22Z</time>
      </trkpt>
      <trkpt lat="46.1793" lon="-1.37391">
        <ele>8.79</ele>
        <time>2016-08-29T17:08:23Z</time>
      </trkpt>
      <trkpt lat="46.17932" lon="-1.37394">
        <ele>9.27</ele>
        <time>2016-08-29T17:08:28Z</time>
      </trkpt>
      <trkpt lat="46.17933" lon="-1.37397">
        <ele>9.75</ele>
        <time>2016-08-29T17:08:29Z</time>
      </trkpt>
      <trkpt lat="46.17934" lon="-1.374">
        <ele>9.27</ele>
        <time>2016-08-29T17:08:30Z</time>
      </trkpt>
      <trkpt lat="46.17936" lon="-1.37403">
        <ele>9.27</ele>
        <time>2016-08-29T17:08:31Z</time>
      </trkpt>
      <trkpt lat="46.17937" lon="-1.37405">
        <ele>9.27</ele>
        <time>2016-08-29T17:08:32Z</time>
      </trkpt>
      <trkpt lat="46.17938" lon="-1.37409">
        <ele>8.79</ele>
        <time>2016-08-29T17:08:33Z</time>
      </trkpt>
      <trkpt lat="46.17939" lon="-1.37413">
        <ele>8.79</ele>
        <time>2016-08-29T17:08:34Z</time>
      </trkpt>
      <trkpt lat="46.17942" lon="-1.37417">
        <ele>8.79</ele>
        <time>2016-08-29T17:08:35Z</time>
      </trkpt>
      <trkpt lat="46.17944" lon="-1.37422">
        <ele>8.79</ele>
        <time>2016-08-29T17:08:36Z</time>
      </trkpt>
      <trkpt lat="46.17945" lon="-1.37428">
        <ele>8.31</ele>
        <time>2016-08-29T17:08:37Z</time>
      </trkpt>
      <trkpt lat="46.17945" lon="-1.37434">
        <ele>8.79</ele>
        <time>2016-08-29T17:08:38Z</time>
      </trkpt>
      <trkpt lat="46.17945" lon="-1.3744">
        <ele>8.79</ele>
        <time>2016-08-29T17:08:39Z</time>
      </trkpt>
      <trkpt lat="46.17944" lon="-1.37447">
        <ele>8.79</ele>
        <time>2016-08-29T17:08:40Z</time>
      </trkpt>
      <trkpt lat="46.17943" lon="-1.37467">
        <ele>7.35</ele>
        <time>2016-08-29T17:08:43Z</time>
      </trkpt>
      <trkpt lat="46.17942" lon="-1.37475">
        <ele>7.35</ele>
        <time>2016-08-29T17:08:44Z</time>
      </trkpt>
      <trkpt lat="46.17939" lon="-1.37483">
        <ele>6.87</ele>
        <time>2016-08-29T17:08:45Z</time>
      </trkpt>
      <trkpt lat="46.17936" lon="-1.37489">
        <ele>6.87</ele>
        <time>2016-08-29T17:08:46Z</time>
      </trkpt>
      <trkpt lat="46.17933" lon="-1.37493">
        <ele>7.35</ele>
        <time>2016-08-29T17:08:47Z</time>
      </trkpt>
      <trkpt lat="46.1793" lon="-1.37497">
        <ele>7.83</ele>
        <time>2016-08-29T17:08:48Z</time>
      </trkpt>
      <trkpt lat="46.17928" lon="-1.37502">
        <ele>8.31</ele>
        <time>2016-08-29T17:08:49Z</time>
      </trkpt>
      <trkpt lat="46.17926" lon="-1.37508">
        <ele>7.35</ele>
        <time>2016-08-29T17:08:50Z</time>
      </trkpt>
      <trkpt lat="46.17926" lon="-1.37515">
        <ele>7.83</ele>
        <time>2016-08-29T17:08:51Z</time>
      </trkpt>
      <trkpt lat="46.17926" lon="-1.37522">
        <ele>7.83</ele>
        <time>2016-08-29T17:08:52Z</time>
      </trkpt>
      <trkpt lat="46.17927" lon="-1.37528">
        <ele>6.87</ele>
        <time>2016-08-29T17:08:53Z</time>
      </trkpt>
      <trkpt lat="46.17929" lon="-1.37535">
        <ele>7.35</ele>
        <time>2016-08-29T17:08:54Z</time>
      </trkpt>
      <trkpt lat="46.17932" lon="-1.3754">
        <ele>7.35</ele>
        <time>2016-08-29T17:08:55Z</time>
      </trkpt>
      <trkpt lat="46.17935" lon="-1.37544">
        <ele>7.83</ele>
        <time>2016-08-29T17:08:56Z</time>
      </trkpt>
      <trkpt lat="46.17938" lon="-1.37547">
        <ele>7.83</ele>
        <time>2016-08-29T17:08:57Z</time>
      </trkpt>
      <trkpt lat="46.17945" lon="-1.37553">
        <ele>7.35</ele>
        <time>2016-08-29T17:08:59Z</time>
      </trkpt>
      <trkpt lat="46.17948" lon="-1.37553">
        <ele>7.35</ele>
        <time>2016-08-29T17:09:00Z</time>
      </trkpt>
      <trkpt lat="46.17952" lon="-1.37552">
        <ele>7.83</ele>
        <time>2016-08-29T17:09:01Z</time>
      </trkpt>
      <trkpt lat="46.17956" lon="-1.37553">
        <ele>8.31</ele>
        <time>2016-08-29T17:09:02Z</time>
      </trkpt>
      <trkpt lat="46.17959" lon="-1.37556">
        <ele>8.31</ele>
        <time>2016-08-29T17:09:03Z</time>
      </trkpt>
      <trkpt lat="46.17963" lon="-1.37558">
        <ele>8.31</ele>
        <time>2016-08-29T17:09:04Z</time>
      </trkpt>
      <trkpt lat="46.17984" lon="-1.37579">
        <ele>9.75</ele>
        <time>2016-08-29T17:09:11Z</time>
      </trkpt>
      <trkpt lat="46.17999" lon="-1.37588">
        <ele>9.27</ele>
        <time>2016-08-29T17:09:16Z</time>
      </trkpt>
      <trkpt lat="46.18036" lon="-1.37603">
        <ele>10.23</ele>
        <time>2016-08-29T17:09:25Z</time>
      </trkpt>
      <trkpt lat="46.18077" lon="-1.37622">
        <ele>10.23</ele>
        <time>2016-08-29T17:09:34Z</time>
      </trkpt>
      <trkpt lat="46.18111" lon="-1.37637">
        <ele>10.23</ele>
        <time>2016-08-29T17:09:42Z</time>
      </trkpt>
      <trkpt lat="46.18119" lon="-1.37644">
        <ele>9.27</ele>
        <time>2016-08-29T17:09:44Z</time>
      </trkpt>
      <trkpt lat="46.18121" lon="-1.3765">
        <ele>9.75</ele>
        <time>2016-08-29T17:09:45Z</time>
      </trkpt>
      <trkpt lat="46.18122" lon="-1.37657">
        <ele>9.27</ele>
        <time>2016-08-29T17:09:46Z</time>
      </trkpt>
      <trkpt lat="46.18124" lon="-1.37664">
        <ele>9.27</ele>
        <time>2016-08-29T17:09:47Z</time>
      </trkpt>
      <trkpt lat="46.18125" lon="-1.37672">
        <ele>9.27</ele>
        <time>2016-08-29T17:09:48Z</time>
      </trkpt>
      <trkpt lat="46.18126" lon="-1.37678">
        <ele>9.75</ele>
        <time>2016-08-29T17:09:49Z</time>
      </trkpt>
      <trkpt lat="46.18134" lon="-1.37717">
        <ele>9.75</ele>
        <time>2016-08-29T17:09:54Z</time>
      </trkpt>
      <trkpt lat="46.18152" lon="-1.37801">
        <ele>8.31</ele>
        <time>2016-08-29T17:10:04Z</time>
      </trkpt>
      <trkpt lat="46.18157" lon="-1.37822">
        <ele>7.83</ele>
        <time>2016-08-29T17:10:07Z</time>
      </trkpt>
      <trkpt lat="46.1816" lon="-1.37834">
        <ele>8.31</ele>
        <time>2016-08-29T17:10:09Z</time>
      </trkpt>
      <trkpt lat="46.18183" lon="-1.37922">
        <ele>7.83</ele>
        <time>2016-08-29T17:10:21Z</time>
      </trkpt>
      <trkpt lat="46.18197" lon="-1.3799">
        <ele>6.87</ele>
        <time>2016-08-29T17:10:30Z</time>
      </trkpt>
      <trkpt lat="46.182" lon="-1.37996">
        <ele>7.35</ele>
        <time>2016-08-29T17:10:31Z</time>
      </trkpt>
      <trkpt lat="46.18204" lon="-1.38001">
        <ele>7.83</ele>
        <time>2016-08-29T17:10:32Z</time>
      </trkpt>
      <trkpt lat="46.18208" lon="-1.38005">
        <ele>7.35</ele>
        <time>2016-08-29T17:10:33Z</time>
      </trkpt>
      <trkpt lat="46.18212" lon="-1.38008">
        <ele>7.83</ele>
        <time>2016-08-29T17:10:34Z</time>
      </trkpt>
      <trkpt lat="46.18225" lon="-1.38018">
        <ele>7.83</ele>
        <time>2016-08-29T17:10:37Z</time>
      </trkpt>
      <trkpt lat="46.18233" lon="-1.38025">
        <ele>7.83</ele>
        <time>2016-08-29T17:10:39Z</time>
      </trkpt>
      <trkpt lat="46.18236" lon="-1.3803">
        <ele>7.83</ele>
        <time>2016-08-29T17:10:40Z</time>
      </trkpt>
      <trkpt lat="46.18244" lon="-1.38039">
        <ele>7.83</ele>
        <time>2016-08-29T17:10:42Z</time>
      </trkpt>
      <trkpt lat="46.18248" lon="-1.38044">
        <ele>7.83</ele>
        <time>2016-08-29T17:10:43Z</time>
      </trkpt>
      <trkpt lat="46.18252" lon="-1.38048">
        <ele>7.83</ele>
        <time>2016-08-29T17:10:44Z</time>
      </trkpt>
      <trkpt lat="46.18256" lon="-1.38052">
        <ele>8.31</ele>
        <time>2016-08-29T17:10:45Z</time>
      </trkpt>
      <trkpt lat="46.18261" lon="-1.38056">
        <ele>7.83</ele>
        <time>2016-08-29T17:10:46Z</time>
      </trkpt>
      <trkpt lat="46.18266" lon="-1.38059">
        <ele>7.83</ele>
        <time>2016-08-29T17:10:47Z</time>
      </trkpt>
      <trkpt lat="46.18271" lon="-1.38061">
        <ele>10.23</ele>
        <time>2016-08-29T17:10:48Z</time>
      </trkpt>
      <trkpt lat="46.18275" lon="-1.38063">
        <ele>3.98</ele>
        <time>2016-08-29T17:10:49Z</time>
      </trkpt>
      <trkpt lat="46.1828" lon="-1.38064">
        <ele>10.23</ele>
        <time>2016-08-29T17:10:50Z</time>
      </trkpt>
      <trkpt lat="46.18284" lon="-1.38064">
        <ele>7.83</ele>
        <time>2016-08-29T17:10:51Z</time>
      </trkpt>
      <trkpt lat="46.18289" lon="-1.38065">
        <ele>7.83</ele>
        <time>2016-08-29T17:10:52Z</time>
      </trkpt>
      <trkpt lat="46.18293" lon="-1.38067">
        <ele>7.83</ele>
        <time>2016-08-29T17:10:53Z</time>
      </trkpt>
      <trkpt lat="46.18332" lon="-1.38082">
        <ele>8.31</ele>
        <time>2016-08-29T17:11:02Z</time>
      </trkpt>
      <trkpt lat="46.18344" lon="-1.38086">
        <ele>8.31</ele>
        <time>2016-08-29T17:11:05Z</time>
      </trkpt>
      <trkpt lat="46.18348" lon="-1.38087">
        <ele>8.31</ele>
        <time>2016-08-29T17:11:06Z</time>
      </trkpt>
      <trkpt lat="46.18352" lon="-1.38089">
        <ele>8.31</ele>
        <time>2016-08-29T17:11:07Z</time>
      </trkpt>
      <trkpt lat="46.18356" lon="-1.38091">
        <ele>7.83</ele>
        <time>2016-08-29T17:11:08Z</time>
      </trkpt>
      <trkpt lat="46.18361" lon="-1.38093">
        <ele>7.83</ele>
        <time>2016-08-29T17:11:09Z</time>
      </trkpt>
      <trkpt lat="46.18365" lon="-1.38098">
        <ele>7.83</ele>
        <time>2016-08-29T17:11:10Z</time>
      </trkpt>
      <trkpt lat="46.18377" lon="-1.38108">
        <ele>8.31</ele>
        <time>2016-08-29T17:11:12Z</time>
      </trkpt>
      <trkpt lat="46.18388" lon="-1.38116">
        <ele>7.83</ele>
        <time>2016-08-29T17:11:14Z</time>
      </trkpt>
      <trkpt lat="46.18393" lon="-1.3812">
        <ele>7.83</ele>
        <time>2016-08-29T17:11:15Z</time>
      </trkpt>
      <trkpt lat="46.18398" lon="-1.38124">
        <ele>7.83</ele>
        <time>2016-08-29T17:11:16Z</time>
      </trkpt>
      <trkpt lat="46.18402" lon="-1.38128">
        <ele>6.87</ele>
        <time>2016-08-29T17:11:17Z</time>
      </trkpt>
      <trkpt lat="46.18407" lon="-1.38132">
        <ele>7.35</ele>
        <time>2016-08-29T17:11:18Z</time>
      </trkpt>
      <trkpt lat="46.1842" lon="-1.38145">
        <ele>6.39</ele>
        <time>2016-08-29T17:11:21Z</time>
      </trkpt>
      <trkpt lat="46.1843" lon="-1.38153">
        <ele>5.91</ele>
        <time>2016-08-29T17:11:23Z</time>
      </trkpt>
      <trkpt lat="46.18434" lon="-1.38158">
        <ele>4.94</ele>
        <time>2016-08-29T17:11:24Z</time>
      </trkpt>
      <trkpt lat="46.18442" lon="-1.38168">
        <ele>5.42</ele>
        <time>2016-08-29T17:11:26Z</time>
      </trkpt>
      <trkpt lat="46.18451" lon="-1.38177">
        <ele>5.42</ele>
        <time>2016-08-29T17:11:28Z</time>
      </trkpt>
      <trkpt lat="46.18457" lon="-1.3818">
        <ele>5.42</ele>
        <time>2016-08-29T17:11:29Z</time>
      </trkpt>
      <trkpt lat="46.18462" lon="-1.38182">
        <ele>4.94</ele>
        <time>2016-08-29T17:11:30Z</time>
      </trkpt>
      <trkpt lat="46.18468" lon="-1.38185">
        <ele>4.94</ele>
        <time>2016-08-29T17:11:31Z</time>
      </trkpt>
      <trkpt lat="46.18473" lon="-1.38191">
        <ele>4.46</ele>
        <time>2016-08-29T17:11:32Z</time>
      </trkpt>
      <trkpt lat="46.18478" lon="-1.38198">
        <ele>4.94</ele>
        <time>2016-08-29T17:11:33Z</time>
      </trkpt>
      <trkpt lat="46.1848" lon="-1.38205">
        <ele>4.46</ele>
        <time>2016-08-29T17:11:34Z</time>
      </trkpt>
      <trkpt lat="46.18479" lon="-1.38212">
        <ele>4.94</ele>
        <time>2016-08-29T17:11:35Z</time>
      </trkpt>
      <trkpt lat="46.18477" lon="-1.38218">
        <ele>4.94</ele>
        <time>2016-08-29T17:11:36Z</time>
      </trkpt>
      <trkpt lat="46.18474" lon="-1.38224">
        <ele>4.94</ele>
        <time>2016-08-29T17:11:37Z</time>
      </trkpt>
      <trkpt lat="46.18471" lon="-1.3823">
        <ele>4.94</ele>
        <time>2016-08-29T17:11:38Z</time>
      </trkpt>
      <trkpt lat="46.18434" lon="-1.38287">
        <ele>4.46</ele>
        <time>2016-08-29T17:11:48Z</time>
      </trkpt>
      <trkpt lat="46.18408" lon="-1.38325">
        <ele>4.46</ele>
        <time>2016-08-29T17:11:55Z</time>
      </trkpt>
      <trkpt lat="46.18406" lon="-1.38332">
        <ele>3.98</ele>
        <time>2016-08-29T17:11:56Z</time>
      </trkpt>
      <trkpt lat="46.18405" lon="-1.3834">
        <ele>4.46</ele>
        <time>2016-08-29T17:11:57Z</time>
      </trkpt>
      <trkpt lat="46.18407" lon="-1.38346">
        <ele>4.94</ele>
        <time>2016-08-29T17:11:58Z</time>
      </trkpt>
      <trkpt lat="46.18409" lon="-1.38351">
        <ele>4.94</ele>
        <time>2016-08-29T17:11:59Z</time>
      </trkpt>
      <trkpt lat="46.18412" lon="-1.38357">
        <ele>4.94</ele>
        <time>2016-08-29T17:12:00Z</time>
      </trkpt>
      <trkpt lat="46.18415" lon="-1.38362">
        <ele>4.94</ele>
        <time>2016-08-29T17:12:01Z</time>
      </trkpt>
      <trkpt lat="46.18418" lon="-1.38368">
        <ele>4.46</ele>
        <time>2016-08-29T17:12:02Z</time>
      </trkpt>
      <trkpt lat="46.18458" lon="-1.38439">
        <ele>5.42</ele>
        <time>2016-08-29T17:12:15Z</time>
      </trkpt>
      <trkpt lat="46.18461" lon="-1.38442">
        <ele>4.94</ele>
        <time>2016-08-29T17:12:16Z</time>
      </trkpt>
      <trkpt lat="46.18465" lon="-1.38445">
        <ele>5.91</ele>
        <time>2016-08-29T17:12:17Z</time>
      </trkpt>
      <trkpt lat="46.1847" lon="-1.38447">
        <ele>5.91</ele>
        <time>2016-08-29T17:12:19Z</time>
      </trkpt>
      <trkpt lat="46.18472" lon="-1.38451">
        <ele>5.91</ele>
        <time>2016-08-29T17:12:20Z</time>
      </trkpt>
      <trkpt lat="46.18472" lon="-1.38456">
        <ele>5.91</ele>
        <time>2016-08-29T17:12:21Z</time>
      </trkpt>
      <trkpt lat="46.18472" lon="-1.38461">
        <ele>6.39</ele>
        <time>2016-08-29T17:12:22Z</time>
      </trkpt>
      <trkpt lat="46.18472" lon="-1.38467">
        <ele>5.91</ele>
        <time>2016-08-29T17:12:23Z</time>
      </trkpt>
      <trkpt lat="46.18474" lon="-1.38472">
        <ele>5.42</ele>
        <time>2016-08-29T17:12:24Z</time>
      </trkpt>
      <trkpt lat="46.18476" lon="-1.38477">
        <ele>5.42</ele>
        <time>2016-08-29T17:12:25Z</time>
      </trkpt>
      <trkpt lat="46.18479" lon="-1.38482">
        <ele>5.91</ele>
        <time>2016-08-29T17:12:26Z</time>
      </trkpt>
      <trkpt lat="46.18481" lon="-1.38487">
        <ele>5.91</ele>
        <time>2016-08-29T17:12:27Z</time>
      </trkpt>
      <trkpt lat="46.18493" lon="-1.38508">
        <ele>6.39</ele>
        <time>2016-08-29T17:12:32Z</time>
      </trkpt>
      <trkpt lat="46.18492" lon="-1.38514">
        <ele>6.87</ele>
        <time>2016-08-29T17:12:33Z</time>
      </trkpt>
      <trkpt lat="46.18492" lon="-1.38519">
        <ele>6.87</ele>
        <time>2016-08-29T17:12:34Z</time>
      </trkpt>
      <trkpt lat="46.18492" lon="-1.38524">
        <ele>6.87</ele>
        <time>2016-08-29T17:12:35Z</time>
      </trkpt>
      <trkpt lat="46.18494" lon="-1.3853">
        <ele>6.87</ele>
        <time>2016-08-29T17:12:36Z</time>
      </trkpt>
      <trkpt lat="46.18495" lon="-1.38535">
        <ele>6.39</ele>
        <time>2016-08-29T17:12:37Z</time>
      </trkpt>
      <trkpt lat="46.18497" lon="-1.38541">
        <ele>6.87</ele>
        <time>2016-08-29T17:12:38Z</time>
      </trkpt>
      <trkpt lat="46.18509" lon="-1.38607">
        <ele>6.87</ele>
        <time>2016-08-29T17:12:49Z</time>
      </trkpt>
      <trkpt lat="46.18509" lon="-1.38613">
        <ele>7.35</ele>
        <time>2016-08-29T17:12:50Z</time>
      </trkpt>
      <trkpt lat="46.18509" lon="-1.38619">
        <ele>6.39</ele>
        <time>2016-08-29T17:12:51Z</time>
      </trkpt>
      <trkpt lat="46.18508" lon="-1.38688">
        <ele>6.87</ele>
        <time>2016-08-29T17:13:02Z</time>
      </trkpt>
      <trkpt lat="46.18515" lon="-1.38703">
        <ele>6.87</ele>
        <time>2016-08-29T17:13:06Z</time>
      </trkpt>
      <trkpt lat="46.18516" lon="-1.38705">
        <ele>6.87</ele>
        <time>2016-08-29T17:13:07Z</time>
      </trkpt>
      <trkpt lat="46.18516" lon="-1.38706">
        <ele>6.87</ele>
        <time>2016-08-29T17:13:08Z</time>
      </trkpt>
      <trkpt lat="46.18516" lon="-1.38708">
        <ele>6.87</ele>
        <time>2016-08-29T17:13:09Z</time>
      </trkpt>
      <trkpt lat="46.18516" lon="-1.38711">
        <ele>6.87</ele>
        <time>2016-08-29T17:13:10Z</time>
      </trkpt>
      <trkpt lat="46.18515" lon="-1.38713">
        <ele>6.87</ele>
        <time>2016-08-29T17:13:11Z</time>
      </trkpt>
      <trkpt lat="46.18514" lon="-1.38716">
        <ele>6.87</ele>
        <time>2016-08-29T17:13:12Z</time>
      </trkpt>
      <trkpt lat="46.18512" lon="-1.38719">
        <ele>7.35</ele>
        <time>2016-08-29T17:13:13Z</time>
      </trkpt>
      <trkpt lat="46.1851" lon="-1.38719">
        <ele>7.35</ele>
        <time>2016-08-29T17:13:14Z</time>
      </trkpt>
      <trkpt lat="46.18507" lon="-1.38719">
        <ele>6.87</ele>
        <time>2016-08-29T17:13:15Z</time>
      </trkpt>
      <trkpt lat="46.18505" lon="-1.3872">
        <ele>7.35</ele>
        <time>2016-08-29T17:13:16Z</time>
      </trkpt>
      <trkpt lat="46.18503" lon="-1.38723">
        <ele>7.35</ele>
        <time>2016-08-29T17:13:17Z</time>
      </trkpt>
      <trkpt lat="46.18502" lon="-1.38727">
        <ele>7.35</ele>
        <time>2016-08-29T17:13:18Z</time>
      </trkpt>
      <trkpt lat="46.18501" lon="-1.38731">
        <ele>7.35</ele>
        <time>2016-08-29T17:13:19Z</time>
      </trkpt>
      <trkpt lat="46.185" lon="-1.38735">
        <ele>6.87</ele>
        <time>2016-08-29T17:13:20Z</time>
      </trkpt>
      <trkpt lat="46.18499" lon="-1.3874">
        <ele>6.87</ele>
        <time>2016-08-29T17:13:21Z</time>
      </trkpt>
      <trkpt lat="46.185" lon="-1.38808">
        <ele>7.35</ele>
        <time>2016-08-29T17:13:32Z</time>
      </trkpt>
      <trkpt lat="46.18506" lon="-1.38863">
        <ele>7.83</ele>
        <time>2016-08-29T17:13:41Z</time>
      </trkpt>
      <trkpt lat="46.18507" lon="-1.38869">
        <ele>7.83</ele>
        <time>2016-08-29T17:13:42Z</time>
      </trkpt>
      <trkpt lat="46.18508" lon="-1.38882">
        <ele>7.83</ele>
        <time>2016-08-29T17:13:44Z</time>
      </trkpt>
      <trkpt lat="46.18519" lon="-1.38941">
        <ele>7.35</ele>
        <time>2016-08-29T17:13:53Z</time>
      </trkpt>
      <trkpt lat="46.18521" lon="-1.38973">
        <ele>7.83</ele>
        <time>2016-08-29T17:13:58Z</time>
      </trkpt>
      <trkpt lat="46.1852" lon="-1.38979">
        <ele>7.83</ele>
        <time>2016-08-29T17:13:59Z</time>
      </trkpt>
      <trkpt lat="46.1852" lon="-1.38985">
        <ele>7.83</ele>
        <time>2016-08-29T17:14:00Z</time>
      </trkpt>
      <trkpt lat="46.18509" lon="-1.39084">
        <ele>7.83</ele>
        <time>2016-08-29T17:14:15Z</time>
      </trkpt>
      <trkpt lat="46.18487" lon="-1.39175">
        <ele>8.31</ele>
        <time>2016-08-29T17:14:29Z</time>
      </trkpt>
      <trkpt lat="46.18482" lon="-1.39195">
        <ele>7.35</ele>
        <time>2016-08-29T17:14:32Z</time>
      </trkpt>
      <trkpt lat="46.18475" lon="-1.3923">
        <ele>7.83</ele>
        <time>2016-08-29T17:14:38Z</time>
      </trkpt>
      <trkpt lat="46.18474" lon="-1.39237">
        <ele>7.35</ele>
        <time>2016-08-29T17:14:39Z</time>
      </trkpt>
      <trkpt lat="46.18474" lon="-1.39243">
        <ele>7.35</ele>
        <time>2016-08-29T17:14:40Z</time>
      </trkpt>
      <trkpt lat="46.18476" lon="-1.39248">
        <ele>6.87</ele>
        <time>2016-08-29T17:14:41Z</time>
      </trkpt>
      <trkpt lat="46.18478" lon="-1.39253">
        <ele>7.35</ele>
        <time>2016-08-29T17:14:42Z</time>
      </trkpt>
      <trkpt lat="46.1848" lon="-1.39258">
        <ele>6.87</ele>
        <time>2016-08-29T17:14:43Z</time>
      </trkpt>
      <trkpt lat="46.18499" lon="-1.39299">
        <ele>7.35</ele>
        <time>2016-08-29T17:14:53Z</time>
      </trkpt>
      <trkpt lat="46.185" lon="-1.39302">
        <ele>6.87</ele>
        <time>2016-08-29T17:14:54Z</time>
      </trkpt>
      <trkpt lat="46.18502" lon="-1.39302">
        <ele>7.83</ele>
        <time>2016-08-29T17:14:55Z</time>
      </trkpt>
      <trkpt lat="46.18504" lon="-1.39303">
        <ele>7.83</ele>
        <time>2016-08-29T17:14:56Z</time>
      </trkpt>
      <trkpt lat="46.18507" lon="-1.39305">
        <ele>7.83</ele>
        <time>2016-08-29T17:14:58Z</time>
      </trkpt>
      <trkpt lat="46.18508" lon="-1.3931">
        <ele>7.83</ele>
        <time>2016-08-29T17:15:08Z</time>
      </trkpt>
      <trkpt lat="46.18507" lon="-1.39312">
        <ele>7.83</ele>
        <time>2016-08-29T17:15:19Z</time>
      </trkpt>
      <trkpt lat="46.18507" lon="-1.39312">
        <ele>8.31</ele>
        <time>2016-08-29T17:15:31Z</time>
      </trkpt>
      <trkpt lat="46.18508" lon="-1.39311">
        <ele>7.83</ele>
        <time>2016-08-29T17:15:43Z</time>
      </trkpt>
      <trkpt lat="46.18509" lon="-1.3931">
        <ele>7.83</ele>
        <time>2016-08-29T17:15:58Z</time>
      </trkpt>
      <trkpt lat="46.1851" lon="-1.39309">
        <ele>7.83</ele>
        <time>2016-08-29T17:16:23Z</time>
      </trkpt>
      <trkpt lat="46.18509" lon="-1.39309">
        <ele>8.31</ele>
        <time>2016-08-29T17:16:47Z</time>
      </trkpt>
      <trkpt lat="46.18508" lon="-1.39307">
        <ele>7.83</ele>
        <time>2016-08-29T17:17:09Z</time>
      </trkpt>
      <trkpt lat="46.18508" lon="-1.39307">
        <ele>8.31</ele>
        <time>2016-08-29T17:17:26Z</time>
      </trkpt>
      <trkpt lat="46.18508" lon="-1.39309">
        <ele>8.31</ele>
        <time>2016-08-29T17:17:52Z</time>
      </trkpt>
      <trkpt lat="46.18508" lon="-1.39318">
        <ele>7.83</ele>
        <time>2016-08-29T17:18:01Z</time>
      </trkpt>
      <trkpt lat="46.18512" lon="-1.3932">
        <ele>7.35</ele>
        <time>2016-08-29T17:18:12Z</time>
      </trkpt>
      <trkpt lat="46.18512" lon="-1.3932">
        <ele>7.35</ele>
        <time>2016-08-29T17:18:27Z</time>
      </trkpt>
      <trkpt lat="46.18512" lon="-1.3932">
        <ele>7.83</ele>
        <time>2016-08-29T17:18:43Z</time>
      </trkpt>
      <trkpt lat="46.18509" lon="-1.3932">
        <ele>7.83</ele>
        <time>2016-08-29T17:18:58Z</time>
      </trkpt>
      <trkpt lat="46.18509" lon="-1.39317">
        <ele>7.83</ele>
        <time>2016-08-29T17:19:14Z</time>
      </trkpt>
      <trkpt lat="46.18517" lon="-1.39307">
        <ele>7.83</ele>
        <time>2016-08-29T17:19:30Z</time>
      </trkpt>
      <trkpt lat="46.18521" lon="-1.39303">
        <ele>7.35</ele>
        <time>2016-08-29T17:19:48Z</time>
      </trkpt>
      <trkpt lat="46.18522" lon="-1.39303">
        <ele>7.83</ele>
        <time>2016-08-29T17:20:05Z</time>
      </trkpt>
      <trkpt lat="46.18526" lon="-1.39304">
        <ele>7.35</ele>
        <time>2016-08-29T17:20:09Z</time>
      </trkpt>
      <trkpt lat="46.18527" lon="-1.39304">
        <ele>7.35</ele>
        <time>2016-08-29T17:20:10Z</time>
      </trkpt>
      <trkpt lat="46.18529" lon="-1.39303">
        <ele>7.35</ele>
        <time>2016-08-29T17:20:11Z</time>
      </trkpt>
      <trkpt lat="46.18543" lon="-1.39305">
        <ele>7.35</ele>
        <time>2016-08-29T17:20:27Z</time>
      </trkpt>
      <trkpt lat="46.18534" lon="-1.39306">
        <ele>7.35</ele>
        <time>2016-08-29T17:20:43Z</time>
      </trkpt>
      <trkpt lat="46.18531" lon="-1.39296">
        <ele>7.35</ele>
        <time>2016-08-29T17:20:59Z</time>
      </trkpt>
      <trkpt lat="46.1853" lon="-1.39297">
        <ele>7.35</ele>
        <time>2016-08-29T17:21:15Z</time>
      </trkpt>
      <trkpt lat="46.18529" lon="-1.39298">
        <ele>7.35</ele>
        <time>2016-08-29T17:21:35Z</time>
      </trkpt>
      <trkpt lat="46.18529" lon="-1.39302">
        <ele>7.35</ele>
        <time>2016-08-29T17:21:49Z</time>
      </trkpt>
      <trkpt lat="46.18529" lon="-1.39297">
        <ele>7.35</ele>
        <time>2016-08-29T17:22:06Z</time>
      </trkpt>
      <trkpt lat="46.18531" lon="-1.39296">
        <ele>6.87</ele>
        <time>2016-08-29T17:22:18Z</time>
      </trkpt>
      <trkpt lat="46.18531" lon="-1.39299">
        <ele>7.35</ele>
        <time>2016-08-29T17:22:34Z</time>
      </trkpt>
      <trkpt lat="46.18531" lon="-1.393">
        <ele>7.83</ele>
        <time>2016-08-29T17:22:53Z</time>
      </trkpt>
      <trkpt lat="46.18531" lon="-1.39302">
        <ele>6.87</ele>
        <time>2016-08-29T17:23:14Z</time>
      </trkpt>
      <trkpt lat="46.18531" lon="-1.39303">
        <ele>7.35</ele>
        <time>2016-08-29T17:23:34Z</time>
      </trkpt>
      <trkpt lat="46.18532" lon="-1.39303">
        <ele>7.35</ele>
        <time>2016-08-29T17:23:53Z</time>
      </trkpt>
      <trkpt lat="46.18533" lon="-1.39303">
        <ele>7.35</ele>
        <time>2016-08-29T17:24:08Z</time>
      </trkpt>
      <trkpt lat="46.18533" lon="-1.39306">
        <ele>7.35</ele>
        <time>2016-08-29T17:24:23Z</time>
      </trkpt>
      <trkpt lat="46.18535" lon="-1.39304">
        <ele>7.35</ele>
        <time>2016-08-29T17:24:39Z</time>
      </trkpt>
      <trkpt lat="46.18534" lon="-1.39303">
        <ele>7.35</ele>
        <time>2016-08-29T17:24:56Z</time>
      </trkpt>
      <trkpt lat="46.18533" lon="-1.39303">
        <ele>7.35</ele>
        <time>2016-08-29T17:25:14Z</time>
      </trkpt>
      <trkpt lat="46.18533" lon="-1.39303">
        <ele>6.87</ele>
        <time>2016-08-29T17:25:34Z</time>
      </trkpt>
      <trkpt lat="46.18533" lon="-1.39304">
        <ele>7.35</ele>
        <time>2016-08-29T17:25:51Z</time>
      </trkpt>
      <trkpt lat="46.18533" lon="-1.39304">
        <ele>6.87</ele>
        <time>2016-08-29T17:26:08Z</time>
      </trkpt>
      <trkpt lat="46.18534" lon="-1.39305">
        <ele>7.35</ele>
        <time>2016-08-29T17:26:25Z</time>
      </trkpt>
      <trkpt lat="46.18537" lon="-1.39309">
        <ele>7.35</ele>
        <time>2016-08-29T17:26:39Z</time>
      </trkpt>
      <trkpt lat="46.18539" lon="-1.39307">
        <ele>7.35</ele>
        <time>2016-08-29T17:26:54Z</time>
      </trkpt>
      <trkpt lat="46.18538" lon="-1.39311">
        <ele>7.35</ele>
        <time>2016-08-29T17:27:10Z</time>
      </trkpt>
      <trkpt lat="46.18535" lon="-1.39306">
        <ele>6.87</ele>
        <time>2016-08-29T17:27:26Z</time>
      </trkpt>
      <trkpt lat="46.18503" lon="-1.39347">
        <ele>7.35</ele>
        <time>2016-08-29T17:27:40Z</time>
      </trkpt>
      <trkpt lat="46.18533" lon="-1.39316">
        <ele>6.87</ele>
        <time>2016-08-29T17:27:57Z</time>
      </trkpt>
      <trkpt lat="46.18535" lon="-1.39325">
        <ele>7.35</ele>
        <time>2016-08-29T17:28:12Z</time>
      </trkpt>
      <trkpt lat="46.18537" lon="-1.39326">
        <ele>6.87</ele>
        <time>2016-08-29T17:28:27Z</time>
      </trkpt>
      <trkpt lat="46.18537" lon="-1.39326">
        <ele>6.87</ele>
        <time>2016-08-29T17:28:46Z</time>
      </trkpt>
      <trkpt lat="46.18537" lon="-1.39323">
        <ele>6.87</ele>
        <time>2016-08-29T17:29:02Z</time>
      </trkpt>
      <trkpt lat="46.18536" lon="-1.39321">
        <ele>6.87</ele>
        <time>2016-08-29T17:29:21Z</time>
      </trkpt>
      <trkpt lat="46.18533" lon="-1.39317">
        <ele>6.87</ele>
        <time>2016-08-29T17:29:41Z</time>
      </trkpt>
      <trkpt lat="46.18531" lon="-1.39314">
        <ele>6.87</ele>
        <time>2016-08-29T17:29:56Z</time>
      </trkpt>
      <trkpt lat="46.18532" lon="-1.39306">
        <ele>6.39</ele>
        <time>2016-08-29T17:30:09Z</time>
      </trkpt>
      <trkpt lat="46.1853" lon="-1.393">
        <ele>6.39</ele>
        <time>2016-08-29T17:30:24Z</time>
      </trkpt>
      <trkpt lat="46.18503" lon="-1.39346">
        <ele>4.94</ele>
        <time>2016-08-29T17:30:29Z</time>
      </trkpt>
      <trkpt lat="46.18503" lon="-1.39347">
        <ele>8.31</ele>
        <time>2016-08-29T17:30:30Z</time>
      </trkpt>
      <trkpt lat="46.18503" lon="-1.39346">
        <ele>2.54</ele>
        <time>2016-08-29T17:30:34Z</time>
      </trkpt>
      <trkpt lat="46.18503" lon="-1.39346">
        <ele>7.83</ele>
        <time>2016-08-29T17:30:40Z</time>
      </trkpt>
      <trkpt lat="46.18503" lon="-1.39346">
        <ele>9.75</ele>
        <time>2016-08-29T17:30:41Z</time>
      </trkpt>
      <trkpt lat="46.18503" lon="-1.39346">
        <ele>6.39</ele>
        <time>2016-08-29T17:30:42Z</time>
      </trkpt>
      <trkpt lat="46.18503" lon="-1.39346">
        <ele>7.83</ele>
        <time>2016-08-29T17:30:52Z</time>
      </trkpt>
      <trkpt lat="46.18503" lon="-1.39346">
        <ele>6.39</ele>
        <time>2016-08-29T17:30:53Z</time>
      </trkpt>
      <trkpt lat="46.18525" lon="-1.39311">
        <ele>6.87</ele>
        <time>2016-08-29T17:30:58Z</time>
      </trkpt>
      <trkpt lat="46.18528" lon="-1.39305">
        <ele>7.35</ele>
        <time>2016-08-29T17:31:14Z</time>
      </trkpt>
      <trkpt lat="46.18527" lon="-1.39304">
        <ele>6.87</ele>
        <time>2016-08-29T17:31:31Z</time>
      </trkpt>
      <trkpt lat="46.18532" lon="-1.39305">
        <ele>7.35</ele>
        <time>2016-08-29T17:31:47Z</time>
      </trkpt>
      <trkpt lat="46.18536" lon="-1.39312">
        <ele>7.35</ele>
        <time>2016-08-29T17:32:03Z</time>
      </trkpt>
      <trkpt lat="46.18538" lon="-1.39309">
        <ele>6.87</ele>
        <time>2016-08-29T17:32:17Z</time>
      </trkpt>
      <trkpt lat="46.18535" lon="-1.39302">
        <ele>6.87</ele>
        <time>2016-08-29T17:32:36Z</time>
      </trkpt>
      <trkpt lat="46.18533" lon="-1.39302">
        <ele>6.87</ele>
        <time>2016-08-29T17:32:48Z</time>
      </trkpt>
      <trkpt lat="46.18525" lon="-1.39314">
        <ele>6.39</ele>
        <time>2016-08-29T17:33:02Z</time>
      </trkpt>
      <trkpt lat="46.18524" lon="-1.39322">
        <ele>7.35</ele>
        <time>2016-08-29T17:33:19Z</time>
      </trkpt>
      <trkpt lat="46.18521" lon="-1.39325">
        <ele>6.87</ele>
        <time>2016-08-29T17:33:34Z</time>
      </trkpt>
      <trkpt lat="46.18519" lon="-1.39326">
        <ele>6.87</ele>
        <time>2016-08-29T17:33:52Z</time>
      </trkpt>
      <trkpt lat="46.18519" lon="-1.39326">
        <ele>6.87</ele>
        <time>2016-08-29T17:34:13Z</time>
      </trkpt>
      <trkpt lat="46.18518" lon="-1.39326">
        <ele>6.87</ele>
        <time>2016-08-29T17:34:31Z</time>
      </trkpt>
      <trkpt lat="46.18518" lon="-1.39326">
        <ele>6.87</ele>
        <time>2016-08-29T17:34:50Z</time>
      </trkpt>
      <trkpt lat="46.18518" lon="-1.39326">
        <ele>6.87</ele>
        <time>2016-08-29T17:35:10Z</time>
      </trkpt>
      <trkpt lat="46.18518" lon="-1.39326">
        <ele>6.39</ele>
        <time>2016-08-29T17:35:29Z</time>
      </trkpt>
      <trkpt lat="46.18518" lon="-1.39327">
        <ele>6.39</ele>
        <time>2016-08-29T17:35:48Z</time>
      </trkpt>
      <trkpt lat="46.18515" lon="-1.39328">
        <ele>6.87</ele>
        <time>2016-08-29T17:36:03Z</time>
      </trkpt>
      <trkpt lat="46.1851" lon="-1.39323">
        <ele>6.87</ele>
        <time>2016-08-29T17:36:07Z</time>
      </trkpt>
      <trkpt lat="46.18506" lon="-1.39314">
        <ele>6.39</ele>
        <time>2016-08-29T17:36:11Z</time>
      </trkpt>
      <trkpt lat="46.18507" lon="-1.39307">
        <ele>6.87</ele>
        <time>2016-08-29T17:36:20Z</time>
      </trkpt>
      <trkpt lat="46.18507" lon="-1.39307">
        <ele>3.98</ele>
        <time>2016-08-29T17:36:29Z</time>
      </trkpt>
      <trkpt lat="46.18507" lon="-1.39307">
        <ele>9.27</ele>
        <time>2016-08-29T17:36:30Z</time>
      </trkpt>
      <trkpt lat="46.18507" lon="-1.39306">
        <ele>4.94</ele>
        <time>2016-08-29T17:36:33Z</time>
      </trkpt>
      <trkpt lat="46.18507" lon="-1.39304">
        <ele>6.87</ele>
        <time>2016-08-29T17:36:54Z</time>
      </trkpt>
      <trkpt lat="46.18508" lon="-1.39305">
        <ele>7.35</ele>
        <time>2016-08-29T17:37:15Z</time>
      </trkpt>
      <trkpt lat="46.18509" lon="-1.39307">
        <ele>6.87</ele>
        <time>2016-08-29T17:37:27Z</time>
      </trkpt>
      <trkpt lat="46.18509" lon="-1.39309">
        <ele>7.35</ele>
        <time>2016-08-29T17:37:41Z</time>
      </trkpt>
      <trkpt lat="46.18501" lon="-1.39313">
        <ele>7.35</ele>
        <time>2016-08-29T17:37:53Z</time>
      </trkpt>
      <trkpt lat="46.18499" lon="-1.39313">
        <ele>7.35</ele>
        <time>2016-08-29T17:37:55Z</time>
      </trkpt>
      <trkpt lat="46.18493" lon="-1.39316">
        <ele>7.83</ele>
        <time>2016-08-29T17:38:06Z</time>
      </trkpt>
      <trkpt lat="46.18493" lon="-1.39316">
        <ele>7.35</ele>
        <time>2016-08-29T17:38:15Z</time>
      </trkpt>
      <trkpt lat="46.18488" lon="-1.39342">
        <ele>7.35</ele>
        <time>2016-08-29T17:38:23Z</time>
      </trkpt>
      <trkpt lat="46.18463" lon="-1.3939">
        <ele>6.87</ele>
        <time>2016-08-29T17:38:33Z</time>
      </trkpt>
      <trkpt lat="46.18455" lon="-1.39405">
        <ele>6.87</ele>
        <time>2016-08-29T17:38:36Z</time>
      </trkpt>
      <trkpt lat="46.18431" lon="-1.39452">
        <ele>6.87</ele>
        <time>2016-08-29T17:38:45Z</time>
      </trkpt>
      <trkpt lat="46.18429" lon="-1.39458">
        <ele>6.87</ele>
        <time>2016-08-29T17:38:46Z</time>
      </trkpt>
      <trkpt lat="46.18421" lon="-1.39481">
        <ele>6.87</ele>
        <time>2016-08-29T17:38:50Z</time>
      </trkpt>
      <trkpt lat="46.1839" lon="-1.39566">
        <ele>6.87</ele>
        <time>2016-08-29T17:39:04Z</time>
      </trkpt>
      <trkpt lat="46.18361" lon="-1.39642">
        <ele>7.83</ele>
        <time>2016-08-29T17:39:17Z</time>
      </trkpt>
      <trkpt lat="46.18352" lon="-1.39695">
        <ele>7.35</ele>
        <time>2016-08-29T17:39:25Z</time>
      </trkpt>
      <trkpt lat="46.18353" lon="-1.39701">
        <ele>7.35</ele>
        <time>2016-08-29T17:39:26Z</time>
      </trkpt>
      <trkpt lat="46.18354" lon="-1.39707">
        <ele>6.39</ele>
        <time>2016-08-29T17:39:27Z</time>
      </trkpt>
      <trkpt lat="46.18354" lon="-1.39712">
        <ele>6.39</ele>
        <time>2016-08-29T17:39:28Z</time>
      </trkpt>
      <trkpt lat="46.18354" lon="-1.39719">
        <ele>6.87</ele>
        <time>2016-08-29T17:39:29Z</time>
      </trkpt>
      <trkpt lat="46.18355" lon="-1.39725">
        <ele>6.39</ele>
        <time>2016-08-29T17:39:30Z</time>
      </trkpt>
      <trkpt lat="46.18357" lon="-1.39731">
        <ele>6.39</ele>
        <time>2016-08-29T17:39:31Z</time>
      </trkpt>
      <trkpt lat="46.18359" lon="-1.39736">
        <ele>6.39</ele>
        <time>2016-08-29T17:39:32Z</time>
      </trkpt>
      <trkpt lat="46.18401" lon="-1.39794">
        <ele>6.39</ele>
        <time>2016-08-29T17:39:44Z</time>
      </trkpt>
      <trkpt lat="46.18432" lon="-1.39828">
        <ele>6.87</ele>
        <time>2016-08-29T17:39:52Z</time>
      </trkpt>
      <trkpt lat="46.18443" lon="-1.39841">
        <ele>6.39</ele>
        <time>2016-08-29T17:39:55Z</time>
      </trkpt>
      <trkpt lat="46.18447" lon="-1.39845">
        <ele>6.39</ele>
        <time>2016-08-29T17:39:56Z</time>
      </trkpt>
      <trkpt lat="46.18451" lon="-1.39849">
        <ele>6.39</ele>
        <time>2016-08-29T17:39:57Z</time>
      </trkpt>
      <trkpt lat="46.18463" lon="-1.39861">
        <ele>6.87</ele>
        <time>2016-08-29T17:40:00Z</time>
      </trkpt>
      <trkpt lat="46.1849" lon="-1.39892">
        <ele>6.87</ele>
        <time>2016-08-29T17:40:07Z</time>
      </trkpt>
      <trkpt lat="46.18545" lon="-1.39956">
        <ele>6.87</ele>
        <time>2016-08-29T17:40:21Z</time>
      </trkpt>
      <trkpt lat="46.18593" lon="-1.4002">
        <ele>5.91</ele>
        <time>2016-08-29T17:40:34Z</time>
      </trkpt>
      <trkpt lat="46.18624" lon="-1.40074">
        <ele>5.42</ele>
        <time>2016-08-29T17:40:44Z</time>
      </trkpt>
      <trkpt lat="46.18625" lon="-1.40079">
        <ele>5.91</ele>
        <time>2016-08-29T17:40:45Z</time>
      </trkpt>
      <trkpt lat="46.18626" lon="-1.40085">
        <ele>5.91</ele>
        <time>2016-08-29T17:40:46Z</time>
      </trkpt>
      <trkpt lat="46.18626" lon="-1.40091">
        <ele>5.91</ele>
        <time>2016-08-29T17:40:47Z</time>
      </trkpt>
      <trkpt lat="46.18625" lon="-1.40097">
        <ele>6.39</ele>
        <time>2016-08-29T17:40:48Z</time>
      </trkpt>
      <trkpt lat="46.18619" lon="-1.4018">
        <ele>5.42</ele>
        <time>2016-08-29T17:41:00Z</time>
      </trkpt>
      <trkpt lat="46.18622" lon="-1.40262">
        <ele>5.91</ele>
        <time>2016-08-29T17:41:12Z</time>
      </trkpt>
      <trkpt lat="46.18624" lon="-1.40274">
        <ele>5.42</ele>
        <time>2016-08-29T17:41:14Z</time>
      </trkpt>
      <trkpt lat="46.18634" lon="-1.40341">
        <ele>5.42</ele>
        <time>2016-08-29T17:41:25Z</time>
      </trkpt>
      <trkpt lat="46.18634" lon="-1.40347">
        <ele>5.42</ele>
        <time>2016-08-29T17:41:26Z</time>
      </trkpt>
      <trkpt lat="46.18633" lon="-1.40353">
        <ele>4.94</ele>
        <time>2016-08-29T17:41:27Z</time>
      </trkpt>
      <trkpt lat="46.18631" lon="-1.40358">
        <ele>4.94</ele>
        <time>2016-08-29T17:41:28Z</time>
      </trkpt>
      <trkpt lat="46.18629" lon="-1.40364">
        <ele>4.94</ele>
        <time>2016-08-29T17:41:29Z</time>
      </trkpt>
      <trkpt lat="46.18627" lon="-1.40369">
        <ele>4.46</ele>
        <time>2016-08-29T17:41:30Z</time>
      </trkpt>
      <trkpt lat="46.18624" lon="-1.40375">
        <ele>5.42</ele>
        <time>2016-08-29T17:41:31Z</time>
      </trkpt>
      <trkpt lat="46.18605" lon="-1.40409">
        <ele>4.94</ele>
        <time>2016-08-29T17:41:39Z</time>
      </trkpt>
      <trkpt lat="46.18605" lon="-1.40413">
        <ele>4.94</ele>
        <time>2016-08-29T17:41:40Z</time>
      </trkpt>
      <trkpt lat="46.18609" lon="-1.40418">
        <ele>4.46</ele>
        <time>2016-08-29T17:41:42Z</time>
      </trkpt>
      <trkpt lat="46.18617" lon="-1.40423">
        <ele>3.98</ele>
        <time>2016-08-29T17:41:44Z</time>
      </trkpt>
      <trkpt lat="46.18636" lon="-1.40433">
        <ele>4.46</ele>
        <time>2016-08-29T17:41:49Z</time>
      </trkpt>
      <trkpt lat="46.18648" lon="-1.40437">
        <ele>4.46</ele>
        <time>2016-08-29T17:41:52Z</time>
      </trkpt>
      <trkpt lat="46.18664" lon="-1.40439">
        <ele>5.42</ele>
        <time>2016-08-29T17:41:56Z</time>
      </trkpt>
      <trkpt lat="46.18705" lon="-1.40447">
        <ele>5.42</ele>
        <time>2016-08-29T17:42:06Z</time>
      </trkpt>
      <trkpt lat="46.18708" lon="-1.40481">
        <ele>4.94</ele>
        <time>2016-08-29T17:42:13Z</time>
      </trkpt>
      <trkpt lat="46.18705" lon="-1.40517">
        <ele>5.42</ele>
        <time>2016-08-29T17:42:19Z</time>
      </trkpt>
      <trkpt lat="46.18708" lon="-1.40577">
        <ele>4.94</ele>
        <time>2016-08-29T17:42:30Z</time>
      </trkpt>
      <trkpt lat="46.18707" lon="-1.40611">
        <ele>5.42</ele>
        <time>2016-08-29T17:42:37Z</time>
      </trkpt>
      <trkpt lat="46.18706" lon="-1.40616">
        <ele>5.42</ele>
        <time>2016-08-29T17:42:38Z</time>
      </trkpt>
      <trkpt lat="46.18705" lon="-1.40621">
        <ele>5.42</ele>
        <time>2016-08-29T17:42:39Z</time>
      </trkpt>
      <trkpt lat="46.18704" lon="-1.40626">
        <ele>5.42</ele>
        <time>2016-08-29T17:42:40Z</time>
      </trkpt>
      <trkpt lat="46.18704" lon="-1.40631">
        <ele>5.42</ele>
        <time>2016-08-29T17:42:41Z</time>
      </trkpt>
      <trkpt lat="46.18709" lon="-1.40678">
        <ele>4.94</ele>
        <time>2016-08-29T17:42:50Z</time>
      </trkpt>
      <trkpt lat="46.1871" lon="-1.40736">
        <ele>5.42</ele>
        <time>2016-08-29T17:43:00Z</time>
      </trkpt>
      <trkpt lat="46.18705" lon="-1.40797">
        <ele>4.94</ele>
        <time>2016-08-29T17:43:10Z</time>
      </trkpt>
      <trkpt lat="46.18709" lon="-1.4083">
        <ele>4.94</ele>
        <time>2016-08-29T17:43:17Z</time>
      </trkpt>
      <trkpt lat="46.18745" lon="-1.4084">
        <ele>4.94</ele>
        <time>2016-08-29T17:43:28Z</time>
      </trkpt>
      <trkpt lat="46.18753" lon="-1.40826">
        <ele>5.42</ele>
        <time>2016-08-29T17:43:34Z</time>
      </trkpt>
      <trkpt lat="46.18752" lon="-1.40812">
        <ele>5.42</ele>
        <time>2016-08-29T17:43:38Z</time>
      </trkpt>
      <trkpt lat="46.18756" lon="-1.40804">
        <ele>5.42</ele>
        <time>2016-08-29T17:43:47Z</time>
      </trkpt>
      <trkpt lat="46.1876" lon="-1.40806">
        <ele>6.39</ele>
        <time>2016-08-29T17:43:56Z</time>
      </trkpt>
      <trkpt lat="46.1876" lon="-1.40806">
        <ele>3.02</ele>
        <time>2016-08-29T17:43:58Z</time>
      </trkpt>
      <trkpt lat="46.1876" lon="-1.40806">
        <ele>7.83</ele>
        <time>2016-08-29T17:43:59Z</time>
      </trkpt>
      <trkpt lat="46.18759" lon="-1.40806">
        <ele>6.39</ele>
        <time>2016-08-29T17:44:00Z</time>
      </trkpt>
      <trkpt lat="46.1876" lon="-1.40805">
        <ele>5.91</ele>
        <time>2016-08-29T17:44:09Z</time>
      </trkpt>
      <trkpt lat="46.1876" lon="-1.40805">
        <ele>6.87</ele>
        <time>2016-08-29T17:44:11Z</time>
      </trkpt>
      <trkpt lat="46.1876" lon="-1.40805">
        <ele>10.23</ele>
        <time>2016-08-29T17:44:25Z</time>
      </trkpt>
      <trkpt lat="46.1876" lon="-1.40805">
        <ele>5.42</ele>
        <time>2016-08-29T17:44:26Z</time>
      </trkpt>
      <trkpt lat="46.1876" lon="-1.40806">
        <ele>6.87</ele>
        <time>2016-08-29T17:44:29Z</time>
      </trkpt>
      <trkpt lat="46.18761" lon="-1.40806">
        <ele>5.91</ele>
        <time>2016-08-29T17:44:34Z</time>
      </trkpt>
    </trkseg>
  </trk>
</gpx>